<?xml version="1.0" encoding="UTF-8" standalone="no" ?>
<gpx xmlns="http://www.topografix.com/GPX/1/1" xmlns:xsi="http://www.w3.org/2001/XMLSchema-instance" xsi:schemaLocation="http://www.topografix.com/GPX/1/1 http://www.topografix.com/GPX/1/1/gpx.xsd" version="1.1" creator="VisuGPX - https://www.visugpx.com">
  <metadata>
    <name>la ferme des daims - St Beauzile </name>
    <desc><![CDATA[Un parcours A/R de castelnau a Saint Beauzile. Sentiers, single et un tout petit peu de route.]]></desc>
  </metadata>
  <trk>
    <name><![CDATA[Strava_default on GPSies.com]]></name>
    <trkseg>
      <trkpt lat="43.96529" lon="1.82038">
        <ele>274</ele>
        <time>2018-06-21T18:45:25Z</time>
      </trkpt>
      <trkpt lat="43.96527" lon="1.82035">
        <ele>273.6</ele>
        <time>2018-06-21T18:45:34Z</time>
      </trkpt>
      <trkpt lat="43.96529" lon="1.82033">
        <ele>274.2</ele>
        <time>2018-06-21T18:45:47Z</time>
      </trkpt>
      <trkpt lat="43.96537" lon="1.82037">
        <ele>275.1</ele>
        <time>2018-06-21T18:48:15Z</time>
      </trkpt>
      <trkpt lat="43.96535" lon="1.82042">
        <ele>275.4</ele>
        <time>2018-06-21T18:48:17Z</time>
      </trkpt>
      <trkpt lat="43.96534" lon="1.82046">
        <ele>275.6</ele>
        <time>2018-06-21T18:48:18Z</time>
      </trkpt>
      <trkpt lat="43.96532" lon="1.8205">
        <ele>275.8</ele>
        <time>2018-06-21T18:48:19Z</time>
      </trkpt>
      <trkpt lat="43.96531" lon="1.82055">
        <ele>276</ele>
        <time>2018-06-21T18:48:20Z</time>
      </trkpt>
      <trkpt lat="43.96532" lon="1.82059">
        <ele>276.5</ele>
        <time>2018-06-21T18:48:21Z</time>
      </trkpt>
      <trkpt lat="43.96535" lon="1.82061">
        <ele>276.9</ele>
        <time>2018-06-21T18:48:22Z</time>
      </trkpt>
      <trkpt lat="43.96538" lon="1.82066">
        <ele>276.3</ele>
        <time>2018-06-21T18:48:23Z</time>
      </trkpt>
      <trkpt lat="43.96541" lon="1.8207">
        <ele>275.9</ele>
        <time>2018-06-21T18:48:24Z</time>
      </trkpt>
      <trkpt lat="43.96544" lon="1.82074">
        <ele>275.5</ele>
        <time>2018-06-21T18:48:25Z</time>
      </trkpt>
      <trkpt lat="43.9655" lon="1.82079">
        <ele>275.2</ele>
        <time>2018-06-21T18:48:27Z</time>
      </trkpt>
      <trkpt lat="43.96552" lon="1.82083">
        <ele>277</ele>
        <time>2018-06-21T18:48:29Z</time>
      </trkpt>
      <trkpt lat="43.96554" lon="1.82086">
        <ele>277</ele>
        <time>2018-06-21T18:48:30Z</time>
      </trkpt>
      <trkpt lat="43.96559" lon="1.82093">
        <ele>278.3</ele>
        <time>2018-06-21T18:48:32Z</time>
      </trkpt>
      <trkpt lat="43.96562" lon="1.82097">
        <ele>279.1</ele>
        <time>2018-06-21T18:48:33Z</time>
      </trkpt>
      <trkpt lat="43.96566" lon="1.82103">
        <ele>279.2</ele>
        <time>2018-06-21T18:48:34Z</time>
      </trkpt>
      <trkpt lat="43.9657" lon="1.8211">
        <ele>279.1</ele>
        <time>2018-06-21T18:48:35Z</time>
      </trkpt>
      <trkpt lat="43.96572" lon="1.82115">
        <ele>279.1</ele>
        <time>2018-06-21T18:48:36Z</time>
      </trkpt>
      <trkpt lat="43.96575" lon="1.82121">
        <ele>279</ele>
        <time>2018-06-21T18:48:37Z</time>
      </trkpt>
      <trkpt lat="43.96579" lon="1.82129">
        <ele>278.9</ele>
        <time>2018-06-21T18:48:38Z</time>
      </trkpt>
      <trkpt lat="43.96582" lon="1.82134">
        <ele>279</ele>
        <time>2018-06-21T18:48:39Z</time>
      </trkpt>
      <trkpt lat="43.96584" lon="1.82139">
        <ele>279</ele>
        <time>2018-06-21T18:48:40Z</time>
      </trkpt>
      <trkpt lat="43.96584" lon="1.82144">
        <ele>279</ele>
        <time>2018-06-21T18:48:41Z</time>
      </trkpt>
      <trkpt lat="43.96583" lon="1.82152">
        <ele>279</ele>
        <time>2018-06-21T18:48:43Z</time>
      </trkpt>
      <trkpt lat="43.96581" lon="1.82156">
        <ele>279</ele>
        <time>2018-06-21T18:48:44Z</time>
      </trkpt>
      <trkpt lat="43.96583" lon="1.82162">
        <ele>281.2</ele>
        <time>2018-06-21T18:48:46Z</time>
      </trkpt>
      <trkpt lat="43.96585" lon="1.82165">
        <ele>282.3</ele>
        <time>2018-06-21T18:48:47Z</time>
      </trkpt>
      <trkpt lat="43.96589" lon="1.82166">
        <ele>283.5</ele>
        <time>2018-06-21T18:48:48Z</time>
      </trkpt>
      <trkpt lat="43.96593" lon="1.82163">
        <ele>285</ele>
        <time>2018-06-21T18:48:49Z</time>
      </trkpt>
      <trkpt lat="43.96596" lon="1.82159">
        <ele>286.3</ele>
        <time>2018-06-21T18:48:50Z</time>
      </trkpt>
      <trkpt lat="43.96597" lon="1.82155">
        <ele>287.4</ele>
        <time>2018-06-21T18:48:51Z</time>
      </trkpt>
      <trkpt lat="43.96598" lon="1.82151">
        <ele>288.5</ele>
        <time>2018-06-21T18:48:52Z</time>
      </trkpt>
      <trkpt lat="43.96599" lon="1.82144">
        <ele>288.7</ele>
        <time>2018-06-21T18:48:54Z</time>
      </trkpt>
      <trkpt lat="43.966" lon="1.82138">
        <ele>288.5</ele>
        <time>2018-06-21T18:48:56Z</time>
      </trkpt>
      <trkpt lat="43.96602" lon="1.82132">
        <ele>288.2</ele>
        <time>2018-06-21T18:48:58Z</time>
      </trkpt>
      <trkpt lat="43.96604" lon="1.82129">
        <ele>288</ele>
        <time>2018-06-21T18:48:59Z</time>
      </trkpt>
      <trkpt lat="43.96607" lon="1.82125">
        <ele>287.8</ele>
        <time>2018-06-21T18:49:00Z</time>
      </trkpt>
      <trkpt lat="43.96609" lon="1.82121">
        <ele>287.6</ele>
        <time>2018-06-21T18:49:01Z</time>
      </trkpt>
      <trkpt lat="43.96611" lon="1.82117">
        <ele>287.4</ele>
        <time>2018-06-21T18:49:02Z</time>
      </trkpt>
      <trkpt lat="43.96614" lon="1.82112">
        <ele>287.1</ele>
        <time>2018-06-21T18:49:03Z</time>
      </trkpt>
      <trkpt lat="43.96616" lon="1.82107">
        <ele>286.9</ele>
        <time>2018-06-21T18:49:04Z</time>
      </trkpt>
      <trkpt lat="43.96618" lon="1.82103">
        <ele>286.7</ele>
        <time>2018-06-21T18:49:05Z</time>
      </trkpt>
      <trkpt lat="43.9662" lon="1.82098">
        <ele>286.4</ele>
        <time>2018-06-21T18:49:06Z</time>
      </trkpt>
      <trkpt lat="43.96623" lon="1.82093">
        <ele>286.1</ele>
        <time>2018-06-21T18:49:07Z</time>
      </trkpt>
      <trkpt lat="43.96625" lon="1.82087">
        <ele>285.8</ele>
        <time>2018-06-21T18:49:08Z</time>
      </trkpt>
      <trkpt lat="43.96628" lon="1.82082">
        <ele>285.6</ele>
        <time>2018-06-21T18:49:09Z</time>
      </trkpt>
      <trkpt lat="43.9663" lon="1.82077">
        <ele>285.3</ele>
        <time>2018-06-21T18:49:10Z</time>
      </trkpt>
      <trkpt lat="43.96633" lon="1.82072">
        <ele>285.1</ele>
        <time>2018-06-21T18:49:11Z</time>
      </trkpt>
      <trkpt lat="43.96635" lon="1.82066">
        <ele>284.9</ele>
        <time>2018-06-21T18:49:12Z</time>
      </trkpt>
      <trkpt lat="43.96638" lon="1.82061">
        <ele>284.8</ele>
        <time>2018-06-21T18:49:13Z</time>
      </trkpt>
      <trkpt lat="43.96641" lon="1.82055">
        <ele>284.7</ele>
        <time>2018-06-21T18:49:14Z</time>
      </trkpt>
      <trkpt lat="43.96644" lon="1.8205">
        <ele>284.6</ele>
        <time>2018-06-21T18:49:15Z</time>
      </trkpt>
      <trkpt lat="43.96646" lon="1.82046">
        <ele>284.6</ele>
        <time>2018-06-21T18:49:16Z</time>
      </trkpt>
      <trkpt lat="43.96649" lon="1.82041">
        <ele>284.6</ele>
        <time>2018-06-21T18:49:17Z</time>
      </trkpt>
      <trkpt lat="43.96651" lon="1.82036">
        <ele>284.5</ele>
        <time>2018-06-21T18:49:18Z</time>
      </trkpt>
      <trkpt lat="43.96654" lon="1.8203">
        <ele>284.5</ele>
        <time>2018-06-21T18:49:19Z</time>
      </trkpt>
      <trkpt lat="43.96656" lon="1.82025">
        <ele>284.4</ele>
        <time>2018-06-21T18:49:20Z</time>
      </trkpt>
      <trkpt lat="43.96658" lon="1.82021">
        <ele>284.3</ele>
        <time>2018-06-21T18:49:21Z</time>
      </trkpt>
      <trkpt lat="43.9666" lon="1.82016">
        <ele>284.1</ele>
        <time>2018-06-21T18:49:22Z</time>
      </trkpt>
      <trkpt lat="43.96662" lon="1.82011">
        <ele>283.9</ele>
        <time>2018-06-21T18:49:23Z</time>
      </trkpt>
      <trkpt lat="43.96664" lon="1.82006">
        <ele>283.7</ele>
        <time>2018-06-21T18:49:24Z</time>
      </trkpt>
      <trkpt lat="43.96666" lon="1.82002">
        <ele>283.5</ele>
        <time>2018-06-21T18:49:25Z</time>
      </trkpt>
      <trkpt lat="43.96669" lon="1.81999">
        <ele>283.3</ele>
        <time>2018-06-21T18:49:26Z</time>
      </trkpt>
      <trkpt lat="43.96671" lon="1.81994">
        <ele>283.1</ele>
        <time>2018-06-21T18:49:27Z</time>
      </trkpt>
      <trkpt lat="43.96673" lon="1.81988">
        <ele>282.8</ele>
        <time>2018-06-21T18:49:28Z</time>
      </trkpt>
      <trkpt lat="43.96675" lon="1.81983">
        <ele>282.5</ele>
        <time>2018-06-21T18:49:29Z</time>
      </trkpt>
      <trkpt lat="43.96676" lon="1.81979">
        <ele>282.3</ele>
        <time>2018-06-21T18:49:30Z</time>
      </trkpt>
      <trkpt lat="43.96679" lon="1.81974">
        <ele>281.9</ele>
        <time>2018-06-21T18:49:32Z</time>
      </trkpt>
      <trkpt lat="43.96684" lon="1.81969">
        <ele>281.4</ele>
        <time>2018-06-21T18:49:34Z</time>
      </trkpt>
      <trkpt lat="43.96685" lon="1.81965">
        <ele>281.1</ele>
        <time>2018-06-21T18:49:35Z</time>
      </trkpt>
      <trkpt lat="43.96687" lon="1.81962">
        <ele>280.8</ele>
        <time>2018-06-21T18:49:36Z</time>
      </trkpt>
      <trkpt lat="43.96689" lon="1.81958">
        <ele>280.5</ele>
        <time>2018-06-21T18:49:37Z</time>
      </trkpt>
      <trkpt lat="43.96691" lon="1.81954">
        <ele>280.1</ele>
        <time>2018-06-21T18:49:38Z</time>
      </trkpt>
      <trkpt lat="43.96693" lon="1.81949">
        <ele>279.7</ele>
        <time>2018-06-21T18:49:39Z</time>
      </trkpt>
      <trkpt lat="43.96695" lon="1.81944">
        <ele>279.2</ele>
        <time>2018-06-21T18:49:40Z</time>
      </trkpt>
      <trkpt lat="43.96697" lon="1.8194">
        <ele>279</ele>
        <time>2018-06-21T18:49:41Z</time>
      </trkpt>
      <trkpt lat="43.967" lon="1.81936">
        <ele>279</ele>
        <time>2018-06-21T18:49:43Z</time>
      </trkpt>
      <trkpt lat="43.96703" lon="1.81939">
        <ele>279</ele>
        <time>2018-06-21T18:49:45Z</time>
      </trkpt>
      <trkpt lat="43.96704" lon="1.81944">
        <ele>279</ele>
        <time>2018-06-21T18:49:46Z</time>
      </trkpt>
      <trkpt lat="43.96703" lon="1.81949">
        <ele>279</ele>
        <time>2018-06-21T18:49:47Z</time>
      </trkpt>
      <trkpt lat="43.96702" lon="1.81954">
        <ele>279</ele>
        <time>2018-06-21T18:49:48Z</time>
      </trkpt>
      <trkpt lat="43.967" lon="1.81958">
        <ele>279</ele>
        <time>2018-06-21T18:49:49Z</time>
      </trkpt>
      <trkpt lat="43.96699" lon="1.81963">
        <ele>279</ele>
        <time>2018-06-21T18:49:50Z</time>
      </trkpt>
      <trkpt lat="43.96699" lon="1.81968">
        <ele>279</ele>
        <time>2018-06-21T18:49:51Z</time>
      </trkpt>
      <trkpt lat="43.96701" lon="1.81975">
        <ele>278.4</ele>
        <time>2018-06-21T18:49:52Z</time>
      </trkpt>
      <trkpt lat="43.96704" lon="1.81982">
        <ele>277.9</ele>
        <time>2018-06-21T18:49:53Z</time>
      </trkpt>
      <trkpt lat="43.96708" lon="1.81986">
        <ele>277.4</ele>
        <time>2018-06-21T18:49:54Z</time>
      </trkpt>
      <trkpt lat="43.96714" lon="1.81988">
        <ele>276.8</ele>
        <time>2018-06-21T18:49:55Z</time>
      </trkpt>
      <trkpt lat="43.96721" lon="1.8199">
        <ele>276.2</ele>
        <time>2018-06-21T18:49:56Z</time>
      </trkpt>
      <trkpt lat="43.96728" lon="1.81994">
        <ele>275.3</ele>
        <time>2018-06-21T18:49:57Z</time>
      </trkpt>
      <trkpt lat="43.96737" lon="1.81999">
        <ele>274</ele>
        <time>2018-06-21T18:49:58Z</time>
      </trkpt>
      <trkpt lat="43.96747" lon="1.82001">
        <ele>272.7</ele>
        <time>2018-06-21T18:49:59Z</time>
      </trkpt>
      <trkpt lat="43.96756" lon="1.82004">
        <ele>271.2</ele>
        <time>2018-06-21T18:50:00Z</time>
      </trkpt>
      <trkpt lat="43.96765" lon="1.8201">
        <ele>269.7</ele>
        <time>2018-06-21T18:50:01Z</time>
      </trkpt>
      <trkpt lat="43.96775" lon="1.8202">
        <ele>268.1</ele>
        <time>2018-06-21T18:50:02Z</time>
      </trkpt>
      <trkpt lat="43.96782" lon="1.82031">
        <ele>266.6</ele>
        <time>2018-06-21T18:50:03Z</time>
      </trkpt>
      <trkpt lat="43.96789" lon="1.82042">
        <ele>265.3</ele>
        <time>2018-06-21T18:50:04Z</time>
      </trkpt>
      <trkpt lat="43.96795" lon="1.82054">
        <ele>263.9</ele>
        <time>2018-06-21T18:50:05Z</time>
      </trkpt>
      <trkpt lat="43.96802" lon="1.82065">
        <ele>262.5</ele>
        <time>2018-06-21T18:50:06Z</time>
      </trkpt>
      <trkpt lat="43.96808" lon="1.82076">
        <ele>261</ele>
        <time>2018-06-21T18:50:07Z</time>
      </trkpt>
      <trkpt lat="43.96813" lon="1.82085">
        <ele>259.3</ele>
        <time>2018-06-21T18:50:08Z</time>
      </trkpt>
      <trkpt lat="43.96818" lon="1.82094">
        <ele>257.7</ele>
        <time>2018-06-21T18:50:09Z</time>
      </trkpt>
      <trkpt lat="43.96821" lon="1.821">
        <ele>256.3</ele>
        <time>2018-06-21T18:50:10Z</time>
      </trkpt>
      <trkpt lat="43.96825" lon="1.82106">
        <ele>255</ele>
        <time>2018-06-21T18:50:11Z</time>
      </trkpt>
      <trkpt lat="43.96826" lon="1.82109">
        <ele>254.2</ele>
        <time>2018-06-21T18:50:12Z</time>
      </trkpt>
      <trkpt lat="43.96828" lon="1.82112">
        <ele>253.3</ele>
        <time>2018-06-21T18:50:14Z</time>
      </trkpt>
      <trkpt lat="43.96833" lon="1.82117">
        <ele>252.5</ele>
        <time>2018-06-21T18:50:16Z</time>
      </trkpt>
      <trkpt lat="43.96836" lon="1.8212">
        <ele>252.1</ele>
        <time>2018-06-21T18:50:17Z</time>
      </trkpt>
      <trkpt lat="43.96839" lon="1.82124">
        <ele>251.4</ele>
        <time>2018-06-21T18:50:18Z</time>
      </trkpt>
      <trkpt lat="43.96844" lon="1.82129">
        <ele>250.6</ele>
        <time>2018-06-21T18:50:19Z</time>
      </trkpt>
      <trkpt lat="43.9685" lon="1.82135">
        <ele>249.6</ele>
        <time>2018-06-21T18:50:20Z</time>
      </trkpt>
      <trkpt lat="43.96855" lon="1.82145">
        <ele>248.3</ele>
        <time>2018-06-21T18:50:21Z</time>
      </trkpt>
      <trkpt lat="43.96861" lon="1.82156">
        <ele>246.8</ele>
        <time>2018-06-21T18:50:22Z</time>
      </trkpt>
      <trkpt lat="43.96867" lon="1.82165">
        <ele>245.5</ele>
        <time>2018-06-21T18:50:23Z</time>
      </trkpt>
      <trkpt lat="43.96873" lon="1.82175">
        <ele>244.2</ele>
        <time>2018-06-21T18:50:24Z</time>
      </trkpt>
      <trkpt lat="43.96879" lon="1.82186">
        <ele>242.9</ele>
        <time>2018-06-21T18:50:25Z</time>
      </trkpt>
      <trkpt lat="43.96887" lon="1.82198">
        <ele>241.4</ele>
        <time>2018-06-21T18:50:26Z</time>
      </trkpt>
      <trkpt lat="43.96893" lon="1.82212">
        <ele>239.9</ele>
        <time>2018-06-21T18:50:27Z</time>
      </trkpt>
      <trkpt lat="43.96901" lon="1.82225">
        <ele>238.5</ele>
        <time>2018-06-21T18:50:28Z</time>
      </trkpt>
      <trkpt lat="43.96909" lon="1.82237">
        <ele>237.3</ele>
        <time>2018-06-21T18:50:29Z</time>
      </trkpt>
      <trkpt lat="43.96916" lon="1.82248">
        <ele>236.5</ele>
        <time>2018-06-21T18:50:30Z</time>
      </trkpt>
      <trkpt lat="43.96924" lon="1.8226">
        <ele>235.9</ele>
        <time>2018-06-21T18:50:31Z</time>
      </trkpt>
      <trkpt lat="43.9693" lon="1.82273">
        <ele>235.1</ele>
        <time>2018-06-21T18:50:32Z</time>
      </trkpt>
      <trkpt lat="43.96936" lon="1.82286">
        <ele>234.2</ele>
        <time>2018-06-21T18:50:33Z</time>
      </trkpt>
      <trkpt lat="43.96941" lon="1.82299">
        <ele>233.3</ele>
        <time>2018-06-21T18:50:34Z</time>
      </trkpt>
      <trkpt lat="43.96945" lon="1.82311">
        <ele>232.4</ele>
        <time>2018-06-21T18:50:35Z</time>
      </trkpt>
      <trkpt lat="43.96949" lon="1.82324">
        <ele>231.5</ele>
        <time>2018-06-21T18:50:36Z</time>
      </trkpt>
      <trkpt lat="43.96952" lon="1.82337">
        <ele>230.6</ele>
        <time>2018-06-21T18:50:37Z</time>
      </trkpt>
      <trkpt lat="43.96956" lon="1.8235">
        <ele>230.1</ele>
        <time>2018-06-21T18:50:38Z</time>
      </trkpt>
      <trkpt lat="43.9696" lon="1.82362">
        <ele>229.7</ele>
        <time>2018-06-21T18:50:39Z</time>
      </trkpt>
      <trkpt lat="43.96964" lon="1.82374">
        <ele>229.4</ele>
        <time>2018-06-21T18:50:40Z</time>
      </trkpt>
      <trkpt lat="43.96969" lon="1.82385">
        <ele>229</ele>
        <time>2018-06-21T18:50:41Z</time>
      </trkpt>
      <trkpt lat="43.96975" lon="1.82396">
        <ele>228.6</ele>
        <time>2018-06-21T18:50:42Z</time>
      </trkpt>
      <trkpt lat="43.9698" lon="1.82407">
        <ele>228.3</ele>
        <time>2018-06-21T18:50:43Z</time>
      </trkpt>
      <trkpt lat="43.96987" lon="1.82416">
        <ele>228</ele>
        <time>2018-06-21T18:50:44Z</time>
      </trkpt>
      <trkpt lat="43.96994" lon="1.82424">
        <ele>227.4</ele>
        <time>2018-06-21T18:50:45Z</time>
      </trkpt>
      <trkpt lat="43.97001" lon="1.82433">
        <ele>226.7</ele>
        <time>2018-06-21T18:50:46Z</time>
      </trkpt>
      <trkpt lat="43.97008" lon="1.82441">
        <ele>225.9</ele>
        <time>2018-06-21T18:50:47Z</time>
      </trkpt>
      <trkpt lat="43.97015" lon="1.82448">
        <ele>225.3</ele>
        <time>2018-06-21T18:50:48Z</time>
      </trkpt>
      <trkpt lat="43.97022" lon="1.82454">
        <ele>224.9</ele>
        <time>2018-06-21T18:50:49Z</time>
      </trkpt>
      <trkpt lat="43.97029" lon="1.82459">
        <ele>224.7</ele>
        <time>2018-06-21T18:50:50Z</time>
      </trkpt>
      <trkpt lat="43.97036" lon="1.82463">
        <ele>224.5</ele>
        <time>2018-06-21T18:50:51Z</time>
      </trkpt>
      <trkpt lat="43.97042" lon="1.82466">
        <ele>224.3</ele>
        <time>2018-06-21T18:50:52Z</time>
      </trkpt>
      <trkpt lat="43.97049" lon="1.82469">
        <ele>224.2</ele>
        <time>2018-06-21T18:50:53Z</time>
      </trkpt>
      <trkpt lat="43.97055" lon="1.82474">
        <ele>224</ele>
        <time>2018-06-21T18:50:54Z</time>
      </trkpt>
      <trkpt lat="43.97061" lon="1.82477">
        <ele>223.9</ele>
        <time>2018-06-21T18:50:55Z</time>
      </trkpt>
      <trkpt lat="43.97066" lon="1.82481">
        <ele>223.9</ele>
        <time>2018-06-21T18:50:56Z</time>
      </trkpt>
      <trkpt lat="43.9707" lon="1.82484">
        <ele>223.9</ele>
        <time>2018-06-21T18:50:57Z</time>
      </trkpt>
      <trkpt lat="43.97075" lon="1.82488">
        <ele>223.9</ele>
        <time>2018-06-21T18:50:58Z</time>
      </trkpt>
      <trkpt lat="43.97079" lon="1.82491">
        <ele>223.9</ele>
        <time>2018-06-21T18:50:59Z</time>
      </trkpt>
      <trkpt lat="43.97083" lon="1.82495">
        <ele>224</ele>
        <time>2018-06-21T18:51:00Z</time>
      </trkpt>
      <trkpt lat="43.97086" lon="1.82498">
        <ele>224.2</ele>
        <time>2018-06-21T18:51:01Z</time>
      </trkpt>
      <trkpt lat="43.9709" lon="1.82501">
        <ele>224.3</ele>
        <time>2018-06-21T18:51:02Z</time>
      </trkpt>
      <trkpt lat="43.97093" lon="1.82504">
        <ele>224.5</ele>
        <time>2018-06-21T18:51:03Z</time>
      </trkpt>
      <trkpt lat="43.97096" lon="1.82507">
        <ele>224.6</ele>
        <time>2018-06-21T18:51:04Z</time>
      </trkpt>
      <trkpt lat="43.971" lon="1.82511">
        <ele>224.7</ele>
        <time>2018-06-21T18:51:05Z</time>
      </trkpt>
      <trkpt lat="43.97103" lon="1.82514">
        <ele>224.8</ele>
        <time>2018-06-21T18:51:06Z</time>
      </trkpt>
      <trkpt lat="43.97106" lon="1.82518">
        <ele>225</ele>
        <time>2018-06-21T18:51:07Z</time>
      </trkpt>
      <trkpt lat="43.9711" lon="1.82522">
        <ele>225.1</ele>
        <time>2018-06-21T18:51:08Z</time>
      </trkpt>
      <trkpt lat="43.97114" lon="1.82525">
        <ele>225.1</ele>
        <time>2018-06-21T18:51:09Z</time>
      </trkpt>
      <trkpt lat="43.97118" lon="1.82528">
        <ele>225.1</ele>
        <time>2018-06-21T18:51:10Z</time>
      </trkpt>
      <trkpt lat="43.97121" lon="1.82532">
        <ele>225.1</ele>
        <time>2018-06-21T18:51:11Z</time>
      </trkpt>
      <trkpt lat="43.97125" lon="1.82535">
        <ele>225.1</ele>
        <time>2018-06-21T18:51:12Z</time>
      </trkpt>
      <trkpt lat="43.97129" lon="1.82539">
        <ele>225.1</ele>
        <time>2018-06-21T18:51:13Z</time>
      </trkpt>
      <trkpt lat="43.97133" lon="1.82542">
        <ele>225.1</ele>
        <time>2018-06-21T18:51:14Z</time>
      </trkpt>
      <trkpt lat="43.97138" lon="1.82546">
        <ele>225.1</ele>
        <time>2018-06-21T18:51:15Z</time>
      </trkpt>
      <trkpt lat="43.97142" lon="1.8255">
        <ele>225.2</ele>
        <time>2018-06-21T18:51:16Z</time>
      </trkpt>
      <trkpt lat="43.97146" lon="1.82553">
        <ele>225.2</ele>
        <time>2018-06-21T18:51:17Z</time>
      </trkpt>
      <trkpt lat="43.9715" lon="1.82557">
        <ele>225.2</ele>
        <time>2018-06-21T18:51:18Z</time>
      </trkpt>
      <trkpt lat="43.97154" lon="1.82561">
        <ele>225.2</ele>
        <time>2018-06-21T18:51:19Z</time>
      </trkpt>
      <trkpt lat="43.97158" lon="1.82565">
        <ele>225.2</ele>
        <time>2018-06-21T18:51:20Z</time>
      </trkpt>
      <trkpt lat="43.97162" lon="1.82569">
        <ele>225.2</ele>
        <time>2018-06-21T18:51:21Z</time>
      </trkpt>
      <trkpt lat="43.97166" lon="1.82573">
        <ele>225.2</ele>
        <time>2018-06-21T18:51:22Z</time>
      </trkpt>
      <trkpt lat="43.9717" lon="1.82577">
        <ele>225.3</ele>
        <time>2018-06-21T18:51:23Z</time>
      </trkpt>
      <trkpt lat="43.97174" lon="1.8258">
        <ele>225.4</ele>
        <time>2018-06-21T18:51:24Z</time>
      </trkpt>
      <trkpt lat="43.97178" lon="1.82584">
        <ele>225.4</ele>
        <time>2018-06-21T18:51:25Z</time>
      </trkpt>
      <trkpt lat="43.97182" lon="1.82589">
        <ele>225.3</ele>
        <time>2018-06-21T18:51:26Z</time>
      </trkpt>
      <trkpt lat="43.97186" lon="1.82593">
        <ele>225.3</ele>
        <time>2018-06-21T18:51:27Z</time>
      </trkpt>
      <trkpt lat="43.9719" lon="1.82599">
        <ele>225.2</ele>
        <time>2018-06-21T18:51:28Z</time>
      </trkpt>
      <trkpt lat="43.97194" lon="1.82605">
        <ele>225.1</ele>
        <time>2018-06-21T18:51:29Z</time>
      </trkpt>
      <trkpt lat="43.97197" lon="1.82613">
        <ele>225</ele>
        <time>2018-06-21T18:51:30Z</time>
      </trkpt>
      <trkpt lat="43.97199" lon="1.82621">
        <ele>224.9</ele>
        <time>2018-06-21T18:51:31Z</time>
      </trkpt>
      <trkpt lat="43.97201" lon="1.8263">
        <ele>224.7</ele>
        <time>2018-06-21T18:51:32Z</time>
      </trkpt>
      <trkpt lat="43.97203" lon="1.82639">
        <ele>224.6</ele>
        <time>2018-06-21T18:51:33Z</time>
      </trkpt>
      <trkpt lat="43.97204" lon="1.82647">
        <ele>224.4</ele>
        <time>2018-06-21T18:51:34Z</time>
      </trkpt>
      <trkpt lat="43.97206" lon="1.82656">
        <ele>224.3</ele>
        <time>2018-06-21T18:51:35Z</time>
      </trkpt>
      <trkpt lat="43.97209" lon="1.82664">
        <ele>224.1</ele>
        <time>2018-06-21T18:51:36Z</time>
      </trkpt>
      <trkpt lat="43.97213" lon="1.82671">
        <ele>224</ele>
        <time>2018-06-21T18:51:37Z</time>
      </trkpt>
      <trkpt lat="43.97218" lon="1.82677">
        <ele>224</ele>
        <time>2018-06-21T18:51:38Z</time>
      </trkpt>
      <trkpt lat="43.97225" lon="1.82683">
        <ele>223.9</ele>
        <time>2018-06-21T18:51:39Z</time>
      </trkpt>
      <trkpt lat="43.97231" lon="1.82687">
        <ele>223.9</ele>
        <time>2018-06-21T18:51:40Z</time>
      </trkpt>
      <trkpt lat="43.97238" lon="1.82692">
        <ele>223.8</ele>
        <time>2018-06-21T18:51:41Z</time>
      </trkpt>
      <trkpt lat="43.97244" lon="1.82697">
        <ele>223.8</ele>
        <time>2018-06-21T18:51:42Z</time>
      </trkpt>
      <trkpt lat="43.9725" lon="1.82702">
        <ele>223.7</ele>
        <time>2018-06-21T18:51:43Z</time>
      </trkpt>
      <trkpt lat="43.97256" lon="1.82709">
        <ele>223.4</ele>
        <time>2018-06-21T18:51:44Z</time>
      </trkpt>
      <trkpt lat="43.97262" lon="1.82716">
        <ele>223</ele>
        <time>2018-06-21T18:51:45Z</time>
      </trkpt>
      <trkpt lat="43.97267" lon="1.82724">
        <ele>222.7</ele>
        <time>2018-06-21T18:51:46Z</time>
      </trkpt>
      <trkpt lat="43.9727" lon="1.82732">
        <ele>222.4</ele>
        <time>2018-06-21T18:51:47Z</time>
      </trkpt>
      <trkpt lat="43.97274" lon="1.8274">
        <ele>222.1</ele>
        <time>2018-06-21T18:51:48Z</time>
      </trkpt>
      <trkpt lat="43.97277" lon="1.82748">
        <ele>221.8</ele>
        <time>2018-06-21T18:51:49Z</time>
      </trkpt>
      <trkpt lat="43.9728" lon="1.82756">
        <ele>221.5</ele>
        <time>2018-06-21T18:51:50Z</time>
      </trkpt>
      <trkpt lat="43.97283" lon="1.82764">
        <ele>221.1</ele>
        <time>2018-06-21T18:51:51Z</time>
      </trkpt>
      <trkpt lat="43.97286" lon="1.82774">
        <ele>220.7</ele>
        <time>2018-06-21T18:51:52Z</time>
      </trkpt>
      <trkpt lat="43.9729" lon="1.82784">
        <ele>220.1</ele>
        <time>2018-06-21T18:51:53Z</time>
      </trkpt>
      <trkpt lat="43.97294" lon="1.82795">
        <ele>219.6</ele>
        <time>2018-06-21T18:51:54Z</time>
      </trkpt>
      <trkpt lat="43.97298" lon="1.82806">
        <ele>219</ele>
        <time>2018-06-21T18:51:55Z</time>
      </trkpt>
      <trkpt lat="43.97302" lon="1.82818">
        <ele>218.4</ele>
        <time>2018-06-21T18:51:56Z</time>
      </trkpt>
      <trkpt lat="43.97306" lon="1.8283">
        <ele>217.9</ele>
        <time>2018-06-21T18:51:57Z</time>
      </trkpt>
      <trkpt lat="43.97311" lon="1.82841">
        <ele>217.4</ele>
        <time>2018-06-21T18:51:58Z</time>
      </trkpt>
      <trkpt lat="43.97318" lon="1.82851">
        <ele>216.8</ele>
        <time>2018-06-21T18:51:59Z</time>
      </trkpt>
      <trkpt lat="43.97325" lon="1.82861">
        <ele>216.2</ele>
        <time>2018-06-21T18:52:00Z</time>
      </trkpt>
      <trkpt lat="43.9733" lon="1.82872">
        <ele>215.5</ele>
        <time>2018-06-21T18:52:01Z</time>
      </trkpt>
      <trkpt lat="43.97335" lon="1.82883">
        <ele>214.7</ele>
        <time>2018-06-21T18:52:02Z</time>
      </trkpt>
      <trkpt lat="43.97339" lon="1.82895">
        <ele>213.8</ele>
        <time>2018-06-21T18:52:03Z</time>
      </trkpt>
      <trkpt lat="43.97343" lon="1.82906">
        <ele>212.9</ele>
        <time>2018-06-21T18:52:04Z</time>
      </trkpt>
      <trkpt lat="43.97348" lon="1.82917">
        <ele>212</ele>
        <time>2018-06-21T18:52:05Z</time>
      </trkpt>
      <trkpt lat="43.97353" lon="1.82927">
        <ele>211.3</ele>
        <time>2018-06-21T18:52:06Z</time>
      </trkpt>
      <trkpt lat="43.97359" lon="1.82937">
        <ele>210.6</ele>
        <time>2018-06-21T18:52:07Z</time>
      </trkpt>
      <trkpt lat="43.97366" lon="1.82946">
        <ele>209.9</ele>
        <time>2018-06-21T18:52:08Z</time>
      </trkpt>
      <trkpt lat="43.97374" lon="1.82953">
        <ele>209.3</ele>
        <time>2018-06-21T18:52:09Z</time>
      </trkpt>
      <trkpt lat="43.97383" lon="1.82961">
        <ele>208.6</ele>
        <time>2018-06-21T18:52:10Z</time>
      </trkpt>
      <trkpt lat="43.97393" lon="1.82969">
        <ele>207.8</ele>
        <time>2018-06-21T18:52:11Z</time>
      </trkpt>
      <trkpt lat="43.97402" lon="1.82978">
        <ele>207.1</ele>
        <time>2018-06-21T18:52:12Z</time>
      </trkpt>
      <trkpt lat="43.97411" lon="1.82986">
        <ele>206.3</ele>
        <time>2018-06-21T18:52:13Z</time>
      </trkpt>
      <trkpt lat="43.97422" lon="1.82994">
        <ele>205.5</ele>
        <time>2018-06-21T18:52:14Z</time>
      </trkpt>
      <trkpt lat="43.97432" lon="1.83">
        <ele>204.5</ele>
        <time>2018-06-21T18:52:15Z</time>
      </trkpt>
      <trkpt lat="43.97444" lon="1.83003">
        <ele>203.6</ele>
        <time>2018-06-21T18:52:16Z</time>
      </trkpt>
      <trkpt lat="43.97455" lon="1.83007">
        <ele>202.4</ele>
        <time>2018-06-21T18:52:17Z</time>
      </trkpt>
      <trkpt lat="43.97467" lon="1.83011">
        <ele>201.1</ele>
        <time>2018-06-21T18:52:18Z</time>
      </trkpt>
      <trkpt lat="43.97477" lon="1.83017">
        <ele>199.7</ele>
        <time>2018-06-21T18:52:19Z</time>
      </trkpt>
      <trkpt lat="43.97488" lon="1.83024">
        <ele>198.2</ele>
        <time>2018-06-21T18:52:20Z</time>
      </trkpt>
      <trkpt lat="43.97496" lon="1.83036">
        <ele>196.9</ele>
        <time>2018-06-21T18:52:21Z</time>
      </trkpt>
      <trkpt lat="43.97503" lon="1.83049">
        <ele>195.7</ele>
        <time>2018-06-21T18:52:22Z</time>
      </trkpt>
      <trkpt lat="43.9751" lon="1.83062">
        <ele>194.6</ele>
        <time>2018-06-21T18:52:23Z</time>
      </trkpt>
      <trkpt lat="43.97517" lon="1.83075">
        <ele>193.5</ele>
        <time>2018-06-21T18:52:24Z</time>
      </trkpt>
      <trkpt lat="43.97525" lon="1.83086">
        <ele>192.5</ele>
        <time>2018-06-21T18:52:25Z</time>
      </trkpt>
      <trkpt lat="43.97532" lon="1.83097">
        <ele>191.6</ele>
        <time>2018-06-21T18:52:26Z</time>
      </trkpt>
      <trkpt lat="43.9754" lon="1.83107">
        <ele>190.7</ele>
        <time>2018-06-21T18:52:27Z</time>
      </trkpt>
      <trkpt lat="43.97547" lon="1.83118">
        <ele>189.8</ele>
        <time>2018-06-21T18:52:28Z</time>
      </trkpt>
      <trkpt lat="43.97553" lon="1.83127">
        <ele>189</ele>
        <time>2018-06-21T18:52:29Z</time>
      </trkpt>
      <trkpt lat="43.9756" lon="1.83135">
        <ele>188.2</ele>
        <time>2018-06-21T18:52:30Z</time>
      </trkpt>
      <trkpt lat="43.97565" lon="1.83142">
        <ele>187.3</ele>
        <time>2018-06-21T18:52:31Z</time>
      </trkpt>
      <trkpt lat="43.97571" lon="1.83146">
        <ele>186.4</ele>
        <time>2018-06-21T18:52:32Z</time>
      </trkpt>
      <trkpt lat="43.97575" lon="1.83151">
        <ele>186.1</ele>
        <time>2018-06-21T18:52:33Z</time>
      </trkpt>
      <trkpt lat="43.97579" lon="1.83152">
        <ele>186</ele>
        <time>2018-06-21T18:52:34Z</time>
      </trkpt>
      <trkpt lat="43.97583" lon="1.83152">
        <ele>185.9</ele>
        <time>2018-06-21T18:52:35Z</time>
      </trkpt>
      <trkpt lat="43.9759" lon="1.83151">
        <ele>185.9</ele>
        <time>2018-06-21T18:52:36Z</time>
      </trkpt>
      <trkpt lat="43.97595" lon="1.8315">
        <ele>185.9</ele>
        <time>2018-06-21T18:52:37Z</time>
      </trkpt>
      <trkpt lat="43.97601" lon="1.83149">
        <ele>185.9</ele>
        <time>2018-06-21T18:52:38Z</time>
      </trkpt>
      <trkpt lat="43.97606" lon="1.83148">
        <ele>186</ele>
        <time>2018-06-21T18:52:39Z</time>
      </trkpt>
      <trkpt lat="43.9761" lon="1.83147">
        <ele>186</ele>
        <time>2018-06-21T18:52:40Z</time>
      </trkpt>
      <trkpt lat="43.97615" lon="1.83146">
        <ele>186</ele>
        <time>2018-06-21T18:52:41Z</time>
      </trkpt>
      <trkpt lat="43.9762" lon="1.83146">
        <ele>186</ele>
        <time>2018-06-21T18:52:42Z</time>
      </trkpt>
      <trkpt lat="43.97625" lon="1.83145">
        <ele>186</ele>
        <time>2018-06-21T18:52:43Z</time>
      </trkpt>
      <trkpt lat="43.97629" lon="1.83144">
        <ele>186.1</ele>
        <time>2018-06-21T18:52:44Z</time>
      </trkpt>
      <trkpt lat="43.97635" lon="1.83143">
        <ele>186.1</ele>
        <time>2018-06-21T18:52:45Z</time>
      </trkpt>
      <trkpt lat="43.97641" lon="1.83144">
        <ele>186.1</ele>
        <time>2018-06-21T18:52:46Z</time>
      </trkpt>
      <trkpt lat="43.97646" lon="1.83144">
        <ele>186.1</ele>
        <time>2018-06-21T18:52:47Z</time>
      </trkpt>
      <trkpt lat="43.97652" lon="1.83144">
        <ele>186.1</ele>
        <time>2018-06-21T18:52:48Z</time>
      </trkpt>
      <trkpt lat="43.97657" lon="1.83145">
        <ele>186.2</ele>
        <time>2018-06-21T18:52:49Z</time>
      </trkpt>
      <trkpt lat="43.97663" lon="1.83146">
        <ele>186.2</ele>
        <time>2018-06-21T18:52:50Z</time>
      </trkpt>
      <trkpt lat="43.97668" lon="1.83147">
        <ele>186.2</ele>
        <time>2018-06-21T18:52:51Z</time>
      </trkpt>
      <trkpt lat="43.97674" lon="1.83148">
        <ele>186.2</ele>
        <time>2018-06-21T18:52:52Z</time>
      </trkpt>
      <trkpt lat="43.9768" lon="1.8315">
        <ele>186.1</ele>
        <time>2018-06-21T18:52:53Z</time>
      </trkpt>
      <trkpt lat="43.97686" lon="1.83152">
        <ele>186.1</ele>
        <time>2018-06-21T18:52:54Z</time>
      </trkpt>
      <trkpt lat="43.97691" lon="1.83154">
        <ele>186.1</ele>
        <time>2018-06-21T18:52:55Z</time>
      </trkpt>
      <trkpt lat="43.97698" lon="1.83156">
        <ele>186</ele>
        <time>2018-06-21T18:52:56Z</time>
      </trkpt>
      <trkpt lat="43.97703" lon="1.83159">
        <ele>186</ele>
        <time>2018-06-21T18:52:57Z</time>
      </trkpt>
      <trkpt lat="43.97708" lon="1.83162">
        <ele>186</ele>
        <time>2018-06-21T18:52:58Z</time>
      </trkpt>
      <trkpt lat="43.97714" lon="1.83165">
        <ele>186.1</ele>
        <time>2018-06-21T18:52:59Z</time>
      </trkpt>
      <trkpt lat="43.97719" lon="1.83168">
        <ele>186.1</ele>
        <time>2018-06-21T18:53:00Z</time>
      </trkpt>
      <trkpt lat="43.97725" lon="1.8317">
        <ele>186.1</ele>
        <time>2018-06-21T18:53:01Z</time>
      </trkpt>
      <trkpt lat="43.97731" lon="1.83174">
        <ele>186.1</ele>
        <time>2018-06-21T18:53:02Z</time>
      </trkpt>
      <trkpt lat="43.97737" lon="1.83177">
        <ele>186.1</ele>
        <time>2018-06-21T18:53:03Z</time>
      </trkpt>
      <trkpt lat="43.97743" lon="1.83181">
        <ele>186.2</ele>
        <time>2018-06-21T18:53:04Z</time>
      </trkpt>
      <trkpt lat="43.97748" lon="1.83185">
        <ele>186.2</ele>
        <time>2018-06-21T18:53:05Z</time>
      </trkpt>
      <trkpt lat="43.97753" lon="1.83191">
        <ele>186.3</ele>
        <time>2018-06-21T18:53:06Z</time>
      </trkpt>
      <trkpt lat="43.97756" lon="1.83198">
        <ele>186.4</ele>
        <time>2018-06-21T18:53:07Z</time>
      </trkpt>
      <trkpt lat="43.9776" lon="1.83206">
        <ele>186.5</ele>
        <time>2018-06-21T18:53:08Z</time>
      </trkpt>
      <trkpt lat="43.97764" lon="1.83213">
        <ele>186.7</ele>
        <time>2018-06-21T18:53:09Z</time>
      </trkpt>
      <trkpt lat="43.97767" lon="1.8322">
        <ele>186.9</ele>
        <time>2018-06-21T18:53:10Z</time>
      </trkpt>
      <trkpt lat="43.9777" lon="1.83227">
        <ele>187.2</ele>
        <time>2018-06-21T18:53:11Z</time>
      </trkpt>
      <trkpt lat="43.97772" lon="1.83233">
        <ele>187.5</ele>
        <time>2018-06-21T18:53:12Z</time>
      </trkpt>
      <trkpt lat="43.97775" lon="1.83239">
        <ele>188</ele>
        <time>2018-06-21T18:53:13Z</time>
      </trkpt>
      <trkpt lat="43.97778" lon="1.83245">
        <ele>188.2</ele>
        <time>2018-06-21T18:53:14Z</time>
      </trkpt>
      <trkpt lat="43.9778" lon="1.83251">
        <ele>188.3</ele>
        <time>2018-06-21T18:53:15Z</time>
      </trkpt>
      <trkpt lat="43.97781" lon="1.83255">
        <ele>188.4</ele>
        <time>2018-06-21T18:53:16Z</time>
      </trkpt>
      <trkpt lat="43.97783" lon="1.8326">
        <ele>188.5</ele>
        <time>2018-06-21T18:53:17Z</time>
      </trkpt>
      <trkpt lat="43.97785" lon="1.83265">
        <ele>188.5</ele>
        <time>2018-06-21T18:53:18Z</time>
      </trkpt>
      <trkpt lat="43.97788" lon="1.8327">
        <ele>188.6</ele>
        <time>2018-06-21T18:53:19Z</time>
      </trkpt>
      <trkpt lat="43.97791" lon="1.83274">
        <ele>188.6</ele>
        <time>2018-06-21T18:53:20Z</time>
      </trkpt>
      <trkpt lat="43.97794" lon="1.8328">
        <ele>188.7</ele>
        <time>2018-06-21T18:53:21Z</time>
      </trkpt>
      <trkpt lat="43.97798" lon="1.83286">
        <ele>188.7</ele>
        <time>2018-06-21T18:53:22Z</time>
      </trkpt>
      <trkpt lat="43.97803" lon="1.83293">
        <ele>188.8</ele>
        <time>2018-06-21T18:53:23Z</time>
      </trkpt>
      <trkpt lat="43.97807" lon="1.833">
        <ele>188.8</ele>
        <time>2018-06-21T18:53:24Z</time>
      </trkpt>
      <trkpt lat="43.97811" lon="1.83308">
        <ele>188.9</ele>
        <time>2018-06-21T18:53:25Z</time>
      </trkpt>
      <trkpt lat="43.97815" lon="1.83316">
        <ele>188.9</ele>
        <time>2018-06-21T18:53:26Z</time>
      </trkpt>
      <trkpt lat="43.97819" lon="1.83324">
        <ele>188.9</ele>
        <time>2018-06-21T18:53:27Z</time>
      </trkpt>
      <trkpt lat="43.97824" lon="1.83332">
        <ele>188.9</ele>
        <time>2018-06-21T18:53:28Z</time>
      </trkpt>
      <trkpt lat="43.97828" lon="1.83341">
        <ele>188.8</ele>
        <time>2018-06-21T18:53:29Z</time>
      </trkpt>
      <trkpt lat="43.97833" lon="1.83349">
        <ele>188.7</ele>
        <time>2018-06-21T18:53:30Z</time>
      </trkpt>
      <trkpt lat="43.97838" lon="1.83356">
        <ele>188.5</ele>
        <time>2018-06-21T18:53:31Z</time>
      </trkpt>
      <trkpt lat="43.97844" lon="1.83363">
        <ele>188.2</ele>
        <time>2018-06-21T18:53:32Z</time>
      </trkpt>
      <trkpt lat="43.97849" lon="1.83372">
        <ele>187.7</ele>
        <time>2018-06-21T18:53:33Z</time>
      </trkpt>
      <trkpt lat="43.97853" lon="1.83381">
        <ele>187.1</ele>
        <time>2018-06-21T18:53:34Z</time>
      </trkpt>
      <trkpt lat="43.97857" lon="1.8339">
        <ele>186.6</ele>
        <time>2018-06-21T18:53:35Z</time>
      </trkpt>
      <trkpt lat="43.9786" lon="1.83399">
        <ele>186.1</ele>
        <time>2018-06-21T18:53:36Z</time>
      </trkpt>
      <trkpt lat="43.97863" lon="1.83408">
        <ele>185.8</ele>
        <time>2018-06-21T18:53:37Z</time>
      </trkpt>
      <trkpt lat="43.97862" lon="1.83418">
        <ele>185.6</ele>
        <time>2018-06-21T18:53:38Z</time>
      </trkpt>
      <trkpt lat="43.97861" lon="1.83427">
        <ele>185.6</ele>
        <time>2018-06-21T18:53:39Z</time>
      </trkpt>
      <trkpt lat="43.97861" lon="1.83436">
        <ele>185.6</ele>
        <time>2018-06-21T18:53:40Z</time>
      </trkpt>
      <trkpt lat="43.97861" lon="1.83445">
        <ele>185.5</ele>
        <time>2018-06-21T18:53:41Z</time>
      </trkpt>
      <trkpt lat="43.97859" lon="1.83453">
        <ele>185.5</ele>
        <time>2018-06-21T18:53:42Z</time>
      </trkpt>
      <trkpt lat="43.97857" lon="1.83462">
        <ele>185.5</ele>
        <time>2018-06-21T18:53:43Z</time>
      </trkpt>
      <trkpt lat="43.97856" lon="1.83469">
        <ele>185.5</ele>
        <time>2018-06-21T18:53:44Z</time>
      </trkpt>
      <trkpt lat="43.97854" lon="1.83478">
        <ele>185.5</ele>
        <time>2018-06-21T18:53:45Z</time>
      </trkpt>
      <trkpt lat="43.97852" lon="1.83485">
        <ele>185.6</ele>
        <time>2018-06-21T18:53:46Z</time>
      </trkpt>
      <trkpt lat="43.97851" lon="1.83492">
        <ele>185.6</ele>
        <time>2018-06-21T18:53:47Z</time>
      </trkpt>
      <trkpt lat="43.97849" lon="1.83498">
        <ele>185.6</ele>
        <time>2018-06-21T18:53:48Z</time>
      </trkpt>
      <trkpt lat="43.97848" lon="1.83505">
        <ele>185.6</ele>
        <time>2018-06-21T18:53:49Z</time>
      </trkpt>
      <trkpt lat="43.97847" lon="1.83511">
        <ele>185.6</ele>
        <time>2018-06-21T18:53:50Z</time>
      </trkpt>
      <trkpt lat="43.97845" lon="1.83517">
        <ele>185.6</ele>
        <time>2018-06-21T18:53:51Z</time>
      </trkpt>
      <trkpt lat="43.97843" lon="1.83524">
        <ele>185.6</ele>
        <time>2018-06-21T18:53:52Z</time>
      </trkpt>
      <trkpt lat="43.97842" lon="1.83531">
        <ele>185.6</ele>
        <time>2018-06-21T18:53:53Z</time>
      </trkpt>
      <trkpt lat="43.9784" lon="1.83537">
        <ele>185.6</ele>
        <time>2018-06-21T18:53:54Z</time>
      </trkpt>
      <trkpt lat="43.97838" lon="1.83543">
        <ele>185.7</ele>
        <time>2018-06-21T18:53:55Z</time>
      </trkpt>
      <trkpt lat="43.97836" lon="1.8355">
        <ele>185.7</ele>
        <time>2018-06-21T18:53:56Z</time>
      </trkpt>
      <trkpt lat="43.97835" lon="1.83556">
        <ele>185.7</ele>
        <time>2018-06-21T18:53:57Z</time>
      </trkpt>
      <trkpt lat="43.97833" lon="1.83562">
        <ele>185.7</ele>
        <time>2018-06-21T18:53:58Z</time>
      </trkpt>
      <trkpt lat="43.97831" lon="1.83568">
        <ele>185.8</ele>
        <time>2018-06-21T18:53:59Z</time>
      </trkpt>
      <trkpt lat="43.97829" lon="1.83574">
        <ele>185.8</ele>
        <time>2018-06-21T18:54:00Z</time>
      </trkpt>
      <trkpt lat="43.97828" lon="1.83579">
        <ele>185.8</ele>
        <time>2018-06-21T18:54:01Z</time>
      </trkpt>
      <trkpt lat="43.97827" lon="1.83584">
        <ele>185.8</ele>
        <time>2018-06-21T18:54:02Z</time>
      </trkpt>
      <trkpt lat="43.97825" lon="1.83589">
        <ele>185.9</ele>
        <time>2018-06-21T18:54:03Z</time>
      </trkpt>
      <trkpt lat="43.97823" lon="1.83593">
        <ele>186</ele>
        <time>2018-06-21T18:54:04Z</time>
      </trkpt>
      <trkpt lat="43.97821" lon="1.83597">
        <ele>186.1</ele>
        <time>2018-06-21T18:54:05Z</time>
      </trkpt>
      <trkpt lat="43.97821" lon="1.83604">
        <ele>186.1</ele>
        <time>2018-06-21T18:54:06Z</time>
      </trkpt>
      <trkpt lat="43.9782" lon="1.83609">
        <ele>186.2</ele>
        <time>2018-06-21T18:54:07Z</time>
      </trkpt>
      <trkpt lat="43.97818" lon="1.83615">
        <ele>186.3</ele>
        <time>2018-06-21T18:54:08Z</time>
      </trkpt>
      <trkpt lat="43.97816" lon="1.8362">
        <ele>186.3</ele>
        <time>2018-06-21T18:54:09Z</time>
      </trkpt>
      <trkpt lat="43.97815" lon="1.83626">
        <ele>186.3</ele>
        <time>2018-06-21T18:54:10Z</time>
      </trkpt>
      <trkpt lat="43.97814" lon="1.83633">
        <ele>186.4</ele>
        <time>2018-06-21T18:54:11Z</time>
      </trkpt>
      <trkpt lat="43.97813" lon="1.83639">
        <ele>186.4</ele>
        <time>2018-06-21T18:54:12Z</time>
      </trkpt>
      <trkpt lat="43.97812" lon="1.83644">
        <ele>186.4</ele>
        <time>2018-06-21T18:54:13Z</time>
      </trkpt>
      <trkpt lat="43.97809" lon="1.8365">
        <ele>186.4</ele>
        <time>2018-06-21T18:54:14Z</time>
      </trkpt>
      <trkpt lat="43.97807" lon="1.83656">
        <ele>186.5</ele>
        <time>2018-06-21T18:54:15Z</time>
      </trkpt>
      <trkpt lat="43.97806" lon="1.83662">
        <ele>186.5</ele>
        <time>2018-06-21T18:54:16Z</time>
      </trkpt>
      <trkpt lat="43.97804" lon="1.83668">
        <ele>186.5</ele>
        <time>2018-06-21T18:54:17Z</time>
      </trkpt>
      <trkpt lat="43.97802" lon="1.83673">
        <ele>186.5</ele>
        <time>2018-06-21T18:54:18Z</time>
      </trkpt>
      <trkpt lat="43.97801" lon="1.83679">
        <ele>186.5</ele>
        <time>2018-06-21T18:54:19Z</time>
      </trkpt>
      <trkpt lat="43.97799" lon="1.83684">
        <ele>186.5</ele>
        <time>2018-06-21T18:54:20Z</time>
      </trkpt>
      <trkpt lat="43.97797" lon="1.83689">
        <ele>186.6</ele>
        <time>2018-06-21T18:54:21Z</time>
      </trkpt>
      <trkpt lat="43.97795" lon="1.83693">
        <ele>186.6</ele>
        <time>2018-06-21T18:54:22Z</time>
      </trkpt>
      <trkpt lat="43.97794" lon="1.83697">
        <ele>186.6</ele>
        <time>2018-06-21T18:54:23Z</time>
      </trkpt>
      <trkpt lat="43.97792" lon="1.83701">
        <ele>186.6</ele>
        <time>2018-06-21T18:54:24Z</time>
      </trkpt>
      <trkpt lat="43.97791" lon="1.83705">
        <ele>186.6</ele>
        <time>2018-06-21T18:54:25Z</time>
      </trkpt>
      <trkpt lat="43.97789" lon="1.83709">
        <ele>186.6</ele>
        <time>2018-06-21T18:54:26Z</time>
      </trkpt>
      <trkpt lat="43.97788" lon="1.83713">
        <ele>186.7</ele>
        <time>2018-06-21T18:54:27Z</time>
      </trkpt>
      <trkpt lat="43.97787" lon="1.83718">
        <ele>186.7</ele>
        <time>2018-06-21T18:54:28Z</time>
      </trkpt>
      <trkpt lat="43.97786" lon="1.83722">
        <ele>186.7</ele>
        <time>2018-06-21T18:54:29Z</time>
      </trkpt>
      <trkpt lat="43.97784" lon="1.83727">
        <ele>186.7</ele>
        <time>2018-06-21T18:54:31Z</time>
      </trkpt>
      <trkpt lat="43.97782" lon="1.83732">
        <ele>186.7</ele>
        <time>2018-06-21T18:54:33Z</time>
      </trkpt>
      <trkpt lat="43.97782" lon="1.83738">
        <ele>186.8</ele>
        <time>2018-06-21T18:54:35Z</time>
      </trkpt>
      <trkpt lat="43.97781" lon="1.83744">
        <ele>186.8</ele>
        <time>2018-06-21T18:54:37Z</time>
      </trkpt>
      <trkpt lat="43.9778" lon="1.8375">
        <ele>186.8</ele>
        <time>2018-06-21T18:54:39Z</time>
      </trkpt>
      <trkpt lat="43.97779" lon="1.83754">
        <ele>186.8</ele>
        <time>2018-06-21T18:54:40Z</time>
      </trkpt>
      <trkpt lat="43.97779" lon="1.83758">
        <ele>186.8</ele>
        <time>2018-06-21T18:54:41Z</time>
      </trkpt>
      <trkpt lat="43.97779" lon="1.83763">
        <ele>186.8</ele>
        <time>2018-06-21T18:54:42Z</time>
      </trkpt>
      <trkpt lat="43.97778" lon="1.83767">
        <ele>186.8</ele>
        <time>2018-06-21T18:54:43Z</time>
      </trkpt>
      <trkpt lat="43.97778" lon="1.83775">
        <ele>186.8</ele>
        <time>2018-06-21T18:54:45Z</time>
      </trkpt>
      <trkpt lat="43.97776" lon="1.83783">
        <ele>186.9</ele>
        <time>2018-06-21T18:54:47Z</time>
      </trkpt>
      <trkpt lat="43.97775" lon="1.8379">
        <ele>186.9</ele>
        <time>2018-06-21T18:54:49Z</time>
      </trkpt>
      <trkpt lat="43.97774" lon="1.83796">
        <ele>186.9</ele>
        <time>2018-06-21T18:54:51Z</time>
      </trkpt>
      <trkpt lat="43.97773" lon="1.83803">
        <ele>186.9</ele>
        <time>2018-06-21T18:54:53Z</time>
      </trkpt>
      <trkpt lat="43.97772" lon="1.83811">
        <ele>186.9</ele>
        <time>2018-06-21T18:54:55Z</time>
      </trkpt>
      <trkpt lat="43.97771" lon="1.83816">
        <ele>186.9</ele>
        <time>2018-06-21T18:54:56Z</time>
      </trkpt>
      <trkpt lat="43.97771" lon="1.83821">
        <ele>187</ele>
        <time>2018-06-21T18:54:57Z</time>
      </trkpt>
      <trkpt lat="43.97771" lon="1.83826">
        <ele>187</ele>
        <time>2018-06-21T18:54:58Z</time>
      </trkpt>
      <trkpt lat="43.97768" lon="1.83831">
        <ele>187</ele>
        <time>2018-06-21T18:55:00Z</time>
      </trkpt>
      <trkpt lat="43.97765" lon="1.8384">
        <ele>187</ele>
        <time>2018-06-21T18:55:02Z</time>
      </trkpt>
      <trkpt lat="43.97763" lon="1.83846">
        <ele>187</ele>
        <time>2018-06-21T18:55:04Z</time>
      </trkpt>
      <trkpt lat="43.97761" lon="1.83849">
        <ele>187</ele>
        <time>2018-06-21T18:55:05Z</time>
      </trkpt>
      <trkpt lat="43.97759" lon="1.83852">
        <ele>187</ele>
        <time>2018-06-21T18:55:06Z</time>
      </trkpt>
      <trkpt lat="43.97757" lon="1.83857">
        <ele>187.1</ele>
        <time>2018-06-21T18:55:07Z</time>
      </trkpt>
      <trkpt lat="43.97755" lon="1.83861">
        <ele>187.1</ele>
        <time>2018-06-21T18:55:08Z</time>
      </trkpt>
      <trkpt lat="43.97753" lon="1.83864">
        <ele>187.1</ele>
        <time>2018-06-21T18:55:09Z</time>
      </trkpt>
      <trkpt lat="43.97751" lon="1.83867">
        <ele>187.2</ele>
        <time>2018-06-21T18:55:10Z</time>
      </trkpt>
      <trkpt lat="43.9775" lon="1.83871">
        <ele>187.2</ele>
        <time>2018-06-21T18:55:11Z</time>
      </trkpt>
      <trkpt lat="43.97748" lon="1.83874">
        <ele>187.2</ele>
        <time>2018-06-21T18:55:12Z</time>
      </trkpt>
      <trkpt lat="43.97746" lon="1.83879">
        <ele>187.3</ele>
        <time>2018-06-21T18:55:13Z</time>
      </trkpt>
      <trkpt lat="43.97744" lon="1.83883">
        <ele>187.4</ele>
        <time>2018-06-21T18:55:14Z</time>
      </trkpt>
      <trkpt lat="43.97742" lon="1.83888">
        <ele>187.4</ele>
        <time>2018-06-21T18:55:15Z</time>
      </trkpt>
      <trkpt lat="43.9774" lon="1.83894">
        <ele>187.5</ele>
        <time>2018-06-21T18:55:16Z</time>
      </trkpt>
      <trkpt lat="43.97739" lon="1.83898">
        <ele>187.5</ele>
        <time>2018-06-21T18:55:17Z</time>
      </trkpt>
      <trkpt lat="43.97737" lon="1.83903">
        <ele>187.6</ele>
        <time>2018-06-21T18:55:18Z</time>
      </trkpt>
      <trkpt lat="43.97736" lon="1.83908">
        <ele>187.7</ele>
        <time>2018-06-21T18:55:19Z</time>
      </trkpt>
      <trkpt lat="43.97733" lon="1.83916">
        <ele>187.9</ele>
        <time>2018-06-21T18:55:21Z</time>
      </trkpt>
      <trkpt lat="43.97732" lon="1.8392">
        <ele>188</ele>
        <time>2018-06-21T18:55:22Z</time>
      </trkpt>
      <trkpt lat="43.97731" lon="1.83925">
        <ele>188.2</ele>
        <time>2018-06-21T18:55:23Z</time>
      </trkpt>
      <trkpt lat="43.97731" lon="1.83931">
        <ele>188.6</ele>
        <time>2018-06-21T18:55:24Z</time>
      </trkpt>
      <trkpt lat="43.97731" lon="1.83936">
        <ele>188.8</ele>
        <time>2018-06-21T18:55:25Z</time>
      </trkpt>
      <trkpt lat="43.97731" lon="1.8394">
        <ele>189</ele>
        <time>2018-06-21T18:55:26Z</time>
      </trkpt>
      <trkpt lat="43.97732" lon="1.83945">
        <ele>189</ele>
        <time>2018-06-21T18:55:27Z</time>
      </trkpt>
      <trkpt lat="43.97734" lon="1.83949">
        <ele>189.1</ele>
        <time>2018-06-21T18:55:28Z</time>
      </trkpt>
      <trkpt lat="43.97734" lon="1.83953">
        <ele>189.1</ele>
        <time>2018-06-21T18:55:29Z</time>
      </trkpt>
      <trkpt lat="43.97735" lon="1.83958">
        <ele>189.2</ele>
        <time>2018-06-21T18:55:30Z</time>
      </trkpt>
      <trkpt lat="43.97737" lon="1.83962">
        <ele>189.3</ele>
        <time>2018-06-21T18:55:31Z</time>
      </trkpt>
      <trkpt lat="43.9774" lon="1.83968">
        <ele>189.4</ele>
        <time>2018-06-21T18:55:33Z</time>
      </trkpt>
      <trkpt lat="43.97742" lon="1.83974">
        <ele>189.5</ele>
        <time>2018-06-21T18:55:34Z</time>
      </trkpt>
      <trkpt lat="43.97744" lon="1.83978">
        <ele>189.5</ele>
        <time>2018-06-21T18:55:35Z</time>
      </trkpt>
      <trkpt lat="43.97746" lon="1.83983">
        <ele>189.5</ele>
        <time>2018-06-21T18:55:36Z</time>
      </trkpt>
      <trkpt lat="43.97748" lon="1.83987">
        <ele>189.5</ele>
        <time>2018-06-21T18:55:37Z</time>
      </trkpt>
      <trkpt lat="43.97752" lon="1.83992">
        <ele>189.6</ele>
        <time>2018-06-21T18:55:39Z</time>
      </trkpt>
      <trkpt lat="43.97755" lon="1.83995">
        <ele>189.6</ele>
        <time>2018-06-21T18:55:40Z</time>
      </trkpt>
      <trkpt lat="43.97758" lon="1.83999">
        <ele>189.6</ele>
        <time>2018-06-21T18:55:41Z</time>
      </trkpt>
      <trkpt lat="43.9776" lon="1.84002">
        <ele>189.6</ele>
        <time>2018-06-21T18:55:42Z</time>
      </trkpt>
      <trkpt lat="43.97763" lon="1.84006">
        <ele>189.6</ele>
        <time>2018-06-21T18:55:43Z</time>
      </trkpt>
      <trkpt lat="43.97765" lon="1.84009">
        <ele>189.7</ele>
        <time>2018-06-21T18:55:44Z</time>
      </trkpt>
      <trkpt lat="43.97768" lon="1.84012">
        <ele>189.7</ele>
        <time>2018-06-21T18:55:45Z</time>
      </trkpt>
      <trkpt lat="43.9777" lon="1.84016">
        <ele>189.7</ele>
        <time>2018-06-21T18:55:46Z</time>
      </trkpt>
      <trkpt lat="43.97772" lon="1.84019">
        <ele>189.7</ele>
        <time>2018-06-21T18:55:47Z</time>
      </trkpt>
      <trkpt lat="43.97774" lon="1.84022">
        <ele>189.7</ele>
        <time>2018-06-21T18:55:48Z</time>
      </trkpt>
      <trkpt lat="43.97776" lon="1.84028">
        <ele>189.7</ele>
        <time>2018-06-21T18:55:50Z</time>
      </trkpt>
      <trkpt lat="43.97778" lon="1.84031">
        <ele>189.7</ele>
        <time>2018-06-21T18:55:52Z</time>
      </trkpt>
      <trkpt lat="43.97781" lon="1.84033">
        <ele>189.7</ele>
        <time>2018-06-21T18:55:55Z</time>
      </trkpt>
      <trkpt lat="43.97784" lon="1.84032">
        <ele>189.7</ele>
        <time>2018-06-21T18:55:57Z</time>
      </trkpt>
      <trkpt lat="43.9779" lon="1.84031">
        <ele>189.8</ele>
        <time>2018-06-21T18:55:59Z</time>
      </trkpt>
      <trkpt lat="43.97793" lon="1.84031">
        <ele>189.8</ele>
        <time>2018-06-21T18:56:00Z</time>
      </trkpt>
      <trkpt lat="43.97796" lon="1.84031">
        <ele>189.8</ele>
        <time>2018-06-21T18:56:01Z</time>
      </trkpt>
      <trkpt lat="43.97799" lon="1.84031">
        <ele>189.8</ele>
        <time>2018-06-21T18:56:02Z</time>
      </trkpt>
      <trkpt lat="43.97802" lon="1.84031">
        <ele>189.8</ele>
        <time>2018-06-21T18:56:03Z</time>
      </trkpt>
      <trkpt lat="43.97805" lon="1.84031">
        <ele>189.8</ele>
        <time>2018-06-21T18:56:04Z</time>
      </trkpt>
      <trkpt lat="43.97808" lon="1.84031">
        <ele>190.3</ele>
        <time>2018-06-21T18:56:05Z</time>
      </trkpt>
      <trkpt lat="43.97811" lon="1.84031">
        <ele>190.8</ele>
        <time>2018-06-21T18:56:06Z</time>
      </trkpt>
      <trkpt lat="43.97816" lon="1.84031">
        <ele>191.9</ele>
        <time>2018-06-21T18:56:08Z</time>
      </trkpt>
      <trkpt lat="43.97821" lon="1.84032">
        <ele>192.9</ele>
        <time>2018-06-21T18:56:10Z</time>
      </trkpt>
      <trkpt lat="43.97826" lon="1.84031">
        <ele>193.5</ele>
        <time>2018-06-21T18:56:12Z</time>
      </trkpt>
      <trkpt lat="43.97829" lon="1.84031">
        <ele>194.1</ele>
        <time>2018-06-21T18:56:14Z</time>
      </trkpt>
      <trkpt lat="43.97832" lon="1.84032">
        <ele>194.7</ele>
        <time>2018-06-21T18:56:16Z</time>
      </trkpt>
      <trkpt lat="43.97835" lon="1.84032">
        <ele>195.4</ele>
        <time>2018-06-21T18:56:18Z</time>
      </trkpt>
      <trkpt lat="43.97838" lon="1.84034">
        <ele>196.1</ele>
        <time>2018-06-21T18:56:20Z</time>
      </trkpt>
      <trkpt lat="43.97841" lon="1.84036">
        <ele>196.6</ele>
        <time>2018-06-21T18:56:22Z</time>
      </trkpt>
      <trkpt lat="43.97844" lon="1.8404">
        <ele>197</ele>
        <time>2018-06-21T18:56:24Z</time>
      </trkpt>
      <trkpt lat="43.97846" lon="1.84043">
        <ele>197.3</ele>
        <time>2018-06-21T18:56:26Z</time>
      </trkpt>
      <trkpt lat="43.97848" lon="1.84047">
        <ele>197.1</ele>
        <time>2018-06-21T18:56:28Z</time>
      </trkpt>
      <trkpt lat="43.9785" lon="1.8405">
        <ele>197.8</ele>
        <time>2018-06-21T18:56:31Z</time>
      </trkpt>
      <trkpt lat="43.97852" lon="1.84053">
        <ele>198.2</ele>
        <time>2018-06-21T18:56:34Z</time>
      </trkpt>
      <trkpt lat="43.97856" lon="1.84057">
        <ele>198.6</ele>
        <time>2018-06-21T18:56:37Z</time>
      </trkpt>
      <trkpt lat="43.97858" lon="1.84059">
        <ele>198.6</ele>
        <time>2018-06-21T18:56:39Z</time>
      </trkpt>
      <trkpt lat="43.97861" lon="1.84063">
        <ele>199.1</ele>
        <time>2018-06-21T18:56:41Z</time>
      </trkpt>
      <trkpt lat="43.97864" lon="1.84066">
        <ele>199.7</ele>
        <time>2018-06-21T18:56:43Z</time>
      </trkpt>
      <trkpt lat="43.97868" lon="1.84069">
        <ele>200.8</ele>
        <time>2018-06-21T18:56:45Z</time>
      </trkpt>
      <trkpt lat="43.97871" lon="1.84072">
        <ele>201.4</ele>
        <time>2018-06-21T18:56:47Z</time>
      </trkpt>
      <trkpt lat="43.97874" lon="1.84073">
        <ele>201.8</ele>
        <time>2018-06-21T18:56:49Z</time>
      </trkpt>
      <trkpt lat="43.97877" lon="1.84073">
        <ele>202.4</ele>
        <time>2018-06-21T18:56:52Z</time>
      </trkpt>
      <trkpt lat="43.97881" lon="1.84072">
        <ele>203.1</ele>
        <time>2018-06-21T18:56:54Z</time>
      </trkpt>
      <trkpt lat="43.97885" lon="1.84071">
        <ele>203.7</ele>
        <time>2018-06-21T18:56:57Z</time>
      </trkpt>
      <trkpt lat="43.97888" lon="1.84068">
        <ele>204.4</ele>
        <time>2018-06-21T18:56:59Z</time>
      </trkpt>
      <trkpt lat="43.97891" lon="1.84065">
        <ele>204.9</ele>
        <time>2018-06-21T18:57:01Z</time>
      </trkpt>
      <trkpt lat="43.97894" lon="1.84062">
        <ele>205.4</ele>
        <time>2018-06-21T18:57:03Z</time>
      </trkpt>
      <trkpt lat="43.97896" lon="1.8406">
        <ele>205.9</ele>
        <time>2018-06-21T18:57:05Z</time>
      </trkpt>
      <trkpt lat="43.979" lon="1.84057">
        <ele>206.2</ele>
        <time>2018-06-21T18:57:07Z</time>
      </trkpt>
      <trkpt lat="43.97903" lon="1.84054">
        <ele>206.6</ele>
        <time>2018-06-21T18:57:09Z</time>
      </trkpt>
      <trkpt lat="43.97907" lon="1.84051">
        <ele>207</ele>
        <time>2018-06-21T18:57:11Z</time>
      </trkpt>
      <trkpt lat="43.97911" lon="1.84048">
        <ele>207.3</ele>
        <time>2018-06-21T18:57:13Z</time>
      </trkpt>
      <trkpt lat="43.97915" lon="1.84047">
        <ele>207.5</ele>
        <time>2018-06-21T18:57:15Z</time>
      </trkpt>
      <trkpt lat="43.97918" lon="1.84047">
        <ele>207.8</ele>
        <time>2018-06-21T18:57:17Z</time>
      </trkpt>
      <trkpt lat="43.97921" lon="1.84047">
        <ele>208</ele>
        <time>2018-06-21T18:57:19Z</time>
      </trkpt>
      <trkpt lat="43.97925" lon="1.84047">
        <ele>207.9</ele>
        <time>2018-06-21T18:57:21Z</time>
      </trkpt>
      <trkpt lat="43.97928" lon="1.84048">
        <ele>208</ele>
        <time>2018-06-21T18:57:23Z</time>
      </trkpt>
      <trkpt lat="43.97932" lon="1.84049">
        <ele>208.1</ele>
        <time>2018-06-21T18:57:25Z</time>
      </trkpt>
      <trkpt lat="43.97936" lon="1.84049">
        <ele>208.3</ele>
        <time>2018-06-21T18:57:27Z</time>
      </trkpt>
      <trkpt lat="43.9794" lon="1.8405">
        <ele>208.5</ele>
        <time>2018-06-21T18:57:29Z</time>
      </trkpt>
      <trkpt lat="43.97944" lon="1.8405">
        <ele>208.6</ele>
        <time>2018-06-21T18:57:31Z</time>
      </trkpt>
      <trkpt lat="43.97948" lon="1.8405">
        <ele>209</ele>
        <time>2018-06-21T18:57:33Z</time>
      </trkpt>
      <trkpt lat="43.97952" lon="1.84051">
        <ele>209.2</ele>
        <time>2018-06-21T18:57:35Z</time>
      </trkpt>
      <trkpt lat="43.97957" lon="1.84051">
        <ele>209.4</ele>
        <time>2018-06-21T18:57:37Z</time>
      </trkpt>
      <trkpt lat="43.97961" lon="1.84051">
        <ele>209.7</ele>
        <time>2018-06-21T18:57:39Z</time>
      </trkpt>
      <trkpt lat="43.97964" lon="1.84051">
        <ele>209.9</ele>
        <time>2018-06-21T18:57:41Z</time>
      </trkpt>
      <trkpt lat="43.97968" lon="1.84051">
        <ele>210.1</ele>
        <time>2018-06-21T18:57:43Z</time>
      </trkpt>
      <trkpt lat="43.97971" lon="1.84051">
        <ele>210.3</ele>
        <time>2018-06-21T18:57:45Z</time>
      </trkpt>
      <trkpt lat="43.97975" lon="1.84051">
        <ele>210.5</ele>
        <time>2018-06-21T18:57:47Z</time>
      </trkpt>
      <trkpt lat="43.97978" lon="1.84051">
        <ele>210.7</ele>
        <time>2018-06-21T18:57:49Z</time>
      </trkpt>
      <trkpt lat="43.97981" lon="1.84049">
        <ele>210.9</ele>
        <time>2018-06-21T18:57:51Z</time>
      </trkpt>
      <trkpt lat="43.97985" lon="1.84048">
        <ele>211.2</ele>
        <time>2018-06-21T18:57:53Z</time>
      </trkpt>
      <trkpt lat="43.9799" lon="1.84048">
        <ele>211.3</ele>
        <time>2018-06-21T18:57:55Z</time>
      </trkpt>
      <trkpt lat="43.97994" lon="1.84048">
        <ele>211.5</ele>
        <time>2018-06-21T18:57:57Z</time>
      </trkpt>
      <trkpt lat="43.97998" lon="1.84047">
        <ele>211.7</ele>
        <time>2018-06-21T18:57:59Z</time>
      </trkpt>
      <trkpt lat="43.98002" lon="1.84047">
        <ele>211.9</ele>
        <time>2018-06-21T18:58:01Z</time>
      </trkpt>
      <trkpt lat="43.98006" lon="1.84047">
        <ele>212.1</ele>
        <time>2018-06-21T18:58:03Z</time>
      </trkpt>
      <trkpt lat="43.98009" lon="1.84047">
        <ele>212.5</ele>
        <time>2018-06-21T18:58:05Z</time>
      </trkpt>
      <trkpt lat="43.98013" lon="1.84046">
        <ele>212.8</ele>
        <time>2018-06-21T18:58:07Z</time>
      </trkpt>
      <trkpt lat="43.98017" lon="1.84046">
        <ele>213.1</ele>
        <time>2018-06-21T18:58:09Z</time>
      </trkpt>
      <trkpt lat="43.9802" lon="1.84046">
        <ele>213.3</ele>
        <time>2018-06-21T18:58:11Z</time>
      </trkpt>
      <trkpt lat="43.98024" lon="1.84046">
        <ele>213.6</ele>
        <time>2018-06-21T18:58:13Z</time>
      </trkpt>
      <trkpt lat="43.98027" lon="1.84046">
        <ele>213.9</ele>
        <time>2018-06-21T18:58:15Z</time>
      </trkpt>
      <trkpt lat="43.98031" lon="1.84046">
        <ele>214.1</ele>
        <time>2018-06-21T18:58:17Z</time>
      </trkpt>
      <trkpt lat="43.98034" lon="1.84046">
        <ele>214.6</ele>
        <time>2018-06-21T18:58:19Z</time>
      </trkpt>
      <trkpt lat="43.98038" lon="1.84045">
        <ele>214.9</ele>
        <time>2018-06-21T18:58:21Z</time>
      </trkpt>
      <trkpt lat="43.98042" lon="1.84045">
        <ele>215.1</ele>
        <time>2018-06-21T18:58:23Z</time>
      </trkpt>
      <trkpt lat="43.98045" lon="1.84045">
        <ele>215.3</ele>
        <time>2018-06-21T18:58:25Z</time>
      </trkpt>
      <trkpt lat="43.98048" lon="1.84044">
        <ele>215.5</ele>
        <time>2018-06-21T18:58:27Z</time>
      </trkpt>
      <trkpt lat="43.98052" lon="1.84045">
        <ele>215.6</ele>
        <time>2018-06-21T18:58:29Z</time>
      </trkpt>
      <trkpt lat="43.98056" lon="1.84045">
        <ele>215.7</ele>
        <time>2018-06-21T18:58:31Z</time>
      </trkpt>
      <trkpt lat="43.98059" lon="1.84045">
        <ele>215.6</ele>
        <time>2018-06-21T18:58:33Z</time>
      </trkpt>
      <trkpt lat="43.98063" lon="1.84044">
        <ele>215.6</ele>
        <time>2018-06-21T18:58:35Z</time>
      </trkpt>
      <trkpt lat="43.98066" lon="1.84044">
        <ele>215.6</ele>
        <time>2018-06-21T18:58:37Z</time>
      </trkpt>
      <trkpt lat="43.9807" lon="1.84044">
        <ele>215.5</ele>
        <time>2018-06-21T18:58:39Z</time>
      </trkpt>
      <trkpt lat="43.98073" lon="1.84044">
        <ele>215.4</ele>
        <time>2018-06-21T18:58:41Z</time>
      </trkpt>
      <trkpt lat="43.98077" lon="1.84043">
        <ele>215.3</ele>
        <time>2018-06-21T18:58:43Z</time>
      </trkpt>
      <trkpt lat="43.98081" lon="1.84042">
        <ele>215.2</ele>
        <time>2018-06-21T18:58:45Z</time>
      </trkpt>
      <trkpt lat="43.98084" lon="1.84039">
        <ele>215.2</ele>
        <time>2018-06-21T18:58:47Z</time>
      </trkpt>
      <trkpt lat="43.98085" lon="1.84035">
        <ele>215.1</ele>
        <time>2018-06-21T18:58:49Z</time>
      </trkpt>
      <trkpt lat="43.98085" lon="1.84027">
        <ele>215.2</ele>
        <time>2018-06-21T18:58:51Z</time>
      </trkpt>
      <trkpt lat="43.98084" lon="1.8402">
        <ele>215.4</ele>
        <time>2018-06-21T18:58:53Z</time>
      </trkpt>
      <trkpt lat="43.98084" lon="1.84013">
        <ele>215.5</ele>
        <time>2018-06-21T18:58:55Z</time>
      </trkpt>
      <trkpt lat="43.98084" lon="1.84009">
        <ele>215.6</ele>
        <time>2018-06-21T18:58:56Z</time>
      </trkpt>
      <trkpt lat="43.98083" lon="1.84003">
        <ele>215.7</ele>
        <time>2018-06-21T18:58:58Z</time>
      </trkpt>
      <trkpt lat="43.98083" lon="1.83996">
        <ele>215.8</ele>
        <time>2018-06-21T18:59:00Z</time>
      </trkpt>
      <trkpt lat="43.98082" lon="1.83989">
        <ele>216</ele>
        <time>2018-06-21T18:59:02Z</time>
      </trkpt>
      <trkpt lat="43.98082" lon="1.83982">
        <ele>216.3</ele>
        <time>2018-06-21T18:59:04Z</time>
      </trkpt>
      <trkpt lat="43.98082" lon="1.83975">
        <ele>216.6</ele>
        <time>2018-06-21T18:59:06Z</time>
      </trkpt>
      <trkpt lat="43.98082" lon="1.83968">
        <ele>216.9</ele>
        <time>2018-06-21T18:59:08Z</time>
      </trkpt>
      <trkpt lat="43.98082" lon="1.83961">
        <ele>217.1</ele>
        <time>2018-06-21T18:59:10Z</time>
      </trkpt>
      <trkpt lat="43.98082" lon="1.83954">
        <ele>217.3</ele>
        <time>2018-06-21T18:59:12Z</time>
      </trkpt>
      <trkpt lat="43.98081" lon="1.83949">
        <ele>217.4</ele>
        <time>2018-06-21T18:59:14Z</time>
      </trkpt>
      <trkpt lat="43.98081" lon="1.83942">
        <ele>217.6</ele>
        <time>2018-06-21T18:59:16Z</time>
      </trkpt>
      <trkpt lat="43.9808" lon="1.83936">
        <ele>217.8</ele>
        <time>2018-06-21T18:59:18Z</time>
      </trkpt>
      <trkpt lat="43.9808" lon="1.83929">
        <ele>218.2</ele>
        <time>2018-06-21T18:59:20Z</time>
      </trkpt>
      <trkpt lat="43.9808" lon="1.83922">
        <ele>218.5</ele>
        <time>2018-06-21T18:59:22Z</time>
      </trkpt>
      <trkpt lat="43.9808" lon="1.83915">
        <ele>218.9</ele>
        <time>2018-06-21T18:59:24Z</time>
      </trkpt>
      <trkpt lat="43.9808" lon="1.83911">
        <ele>219.2</ele>
        <time>2018-06-21T18:59:25Z</time>
      </trkpt>
      <trkpt lat="43.98081" lon="1.83904">
        <ele>219.5</ele>
        <time>2018-06-21T18:59:27Z</time>
      </trkpt>
      <trkpt lat="43.98081" lon="1.83897">
        <ele>219.9</ele>
        <time>2018-06-21T18:59:29Z</time>
      </trkpt>
      <trkpt lat="43.98081" lon="1.83891">
        <ele>220.4</ele>
        <time>2018-06-21T18:59:31Z</time>
      </trkpt>
      <trkpt lat="43.98081" lon="1.83884">
        <ele>221</ele>
        <time>2018-06-21T18:59:33Z</time>
      </trkpt>
      <trkpt lat="43.98081" lon="1.83878">
        <ele>221.4</ele>
        <time>2018-06-21T18:59:35Z</time>
      </trkpt>
      <trkpt lat="43.98081" lon="1.83871">
        <ele>221.9</ele>
        <time>2018-06-21T18:59:37Z</time>
      </trkpt>
      <trkpt lat="43.98081" lon="1.83864">
        <ele>222.3</ele>
        <time>2018-06-21T18:59:39Z</time>
      </trkpt>
      <trkpt lat="43.98081" lon="1.83858">
        <ele>222.7</ele>
        <time>2018-06-21T18:59:41Z</time>
      </trkpt>
      <trkpt lat="43.98082" lon="1.83852">
        <ele>222.9</ele>
        <time>2018-06-21T18:59:43Z</time>
      </trkpt>
      <trkpt lat="43.98082" lon="1.83846">
        <ele>223.1</ele>
        <time>2018-06-21T18:59:45Z</time>
      </trkpt>
      <trkpt lat="43.98082" lon="1.83841">
        <ele>223.4</ele>
        <time>2018-06-21T18:59:47Z</time>
      </trkpt>
      <trkpt lat="43.98082" lon="1.83835">
        <ele>223.8</ele>
        <time>2018-06-21T18:59:49Z</time>
      </trkpt>
      <trkpt lat="43.98083" lon="1.83828">
        <ele>224.2</ele>
        <time>2018-06-21T18:59:51Z</time>
      </trkpt>
      <trkpt lat="43.98084" lon="1.83821">
        <ele>224.6</ele>
        <time>2018-06-21T18:59:53Z</time>
      </trkpt>
      <trkpt lat="43.98085" lon="1.83817">
        <ele>224.8</ele>
        <time>2018-06-21T18:59:55Z</time>
      </trkpt>
      <trkpt lat="43.98085" lon="1.83812">
        <ele>225</ele>
        <time>2018-06-21T18:59:57Z</time>
      </trkpt>
      <trkpt lat="43.98086" lon="1.83806">
        <ele>225.3</ele>
        <time>2018-06-21T18:59:59Z</time>
      </trkpt>
      <trkpt lat="43.98086" lon="1.83801">
        <ele>225.5</ele>
        <time>2018-06-21T19:00:01Z</time>
      </trkpt>
      <trkpt lat="43.98087" lon="1.83797">
        <ele>225.7</ele>
        <time>2018-06-21T19:00:03Z</time>
      </trkpt>
      <trkpt lat="43.98087" lon="1.83792">
        <ele>225.9</ele>
        <time>2018-06-21T19:00:05Z</time>
      </trkpt>
      <trkpt lat="43.98087" lon="1.83788">
        <ele>226</ele>
        <time>2018-06-21T19:00:07Z</time>
      </trkpt>
      <trkpt lat="43.98087" lon="1.83783">
        <ele>226.1</ele>
        <time>2018-06-21T19:00:09Z</time>
      </trkpt>
      <trkpt lat="43.98087" lon="1.83779">
        <ele>226.3</ele>
        <time>2018-06-21T19:00:11Z</time>
      </trkpt>
      <trkpt lat="43.98087" lon="1.83775">
        <ele>226.1</ele>
        <time>2018-06-21T19:00:13Z</time>
      </trkpt>
      <trkpt lat="43.98088" lon="1.83769">
        <ele>226</ele>
        <time>2018-06-21T19:00:15Z</time>
      </trkpt>
      <trkpt lat="43.98088" lon="1.83761">
        <ele>226</ele>
        <time>2018-06-21T19:00:17Z</time>
      </trkpt>
      <trkpt lat="43.98088" lon="1.83756">
        <ele>226</ele>
        <time>2018-06-21T19:00:18Z</time>
      </trkpt>
      <trkpt lat="43.98089" lon="1.83751">
        <ele>226</ele>
        <time>2018-06-21T19:00:19Z</time>
      </trkpt>
      <trkpt lat="43.98088" lon="1.83745">
        <ele>226</ele>
        <time>2018-06-21T19:00:20Z</time>
      </trkpt>
      <trkpt lat="43.98088" lon="1.83739">
        <ele>225.9</ele>
        <time>2018-06-21T19:00:21Z</time>
      </trkpt>
      <trkpt lat="43.98088" lon="1.83733">
        <ele>225.8</ele>
        <time>2018-06-21T19:00:22Z</time>
      </trkpt>
      <trkpt lat="43.98088" lon="1.83725">
        <ele>225.7</ele>
        <time>2018-06-21T19:00:23Z</time>
      </trkpt>
      <trkpt lat="43.98089" lon="1.83716">
        <ele>225.6</ele>
        <time>2018-06-21T19:00:24Z</time>
      </trkpt>
      <trkpt lat="43.9809" lon="1.83707">
        <ele>225.4</ele>
        <time>2018-06-21T19:00:25Z</time>
      </trkpt>
      <trkpt lat="43.98092" lon="1.83696">
        <ele>225.1</ele>
        <time>2018-06-21T19:00:26Z</time>
      </trkpt>
      <trkpt lat="43.98093" lon="1.83687">
        <ele>224.9</ele>
        <time>2018-06-21T19:00:27Z</time>
      </trkpt>
      <trkpt lat="43.98095" lon="1.83678">
        <ele>224.4</ele>
        <time>2018-06-21T19:00:28Z</time>
      </trkpt>
      <trkpt lat="43.98096" lon="1.83669">
        <ele>223.9</ele>
        <time>2018-06-21T19:00:29Z</time>
      </trkpt>
      <trkpt lat="43.98097" lon="1.83659">
        <ele>223.3</ele>
        <time>2018-06-21T19:00:30Z</time>
      </trkpt>
      <trkpt lat="43.98096" lon="1.83647">
        <ele>222.6</ele>
        <time>2018-06-21T19:00:31Z</time>
      </trkpt>
      <trkpt lat="43.98095" lon="1.83637">
        <ele>221.9</ele>
        <time>2018-06-21T19:00:32Z</time>
      </trkpt>
      <trkpt lat="43.98093" lon="1.83624">
        <ele>221.2</ele>
        <time>2018-06-21T19:00:33Z</time>
      </trkpt>
      <trkpt lat="43.98089" lon="1.83612">
        <ele>220.3</ele>
        <time>2018-06-21T19:00:34Z</time>
      </trkpt>
      <trkpt lat="43.98087" lon="1.836">
        <ele>219.5</ele>
        <time>2018-06-21T19:00:35Z</time>
      </trkpt>
      <trkpt lat="43.98085" lon="1.83588">
        <ele>218.6</ele>
        <time>2018-06-21T19:00:36Z</time>
      </trkpt>
      <trkpt lat="43.98087" lon="1.83576">
        <ele>217.7</ele>
        <time>2018-06-21T19:00:37Z</time>
      </trkpt>
      <trkpt lat="43.9809" lon="1.83564">
        <ele>216.9</ele>
        <time>2018-06-21T19:00:38Z</time>
      </trkpt>
      <trkpt lat="43.98092" lon="1.83552">
        <ele>216.3</ele>
        <time>2018-06-21T19:00:39Z</time>
      </trkpt>
      <trkpt lat="43.98094" lon="1.83541">
        <ele>216</ele>
        <time>2018-06-21T19:00:40Z</time>
      </trkpt>
      <trkpt lat="43.98096" lon="1.83529">
        <ele>215.6</ele>
        <time>2018-06-21T19:00:41Z</time>
      </trkpt>
      <trkpt lat="43.98098" lon="1.83518">
        <ele>215.2</ele>
        <time>2018-06-21T19:00:42Z</time>
      </trkpt>
      <trkpt lat="43.98101" lon="1.83507">
        <ele>214.7</ele>
        <time>2018-06-21T19:00:43Z</time>
      </trkpt>
      <trkpt lat="43.98103" lon="1.83497">
        <ele>214.2</ele>
        <time>2018-06-21T19:00:44Z</time>
      </trkpt>
      <trkpt lat="43.98106" lon="1.83488">
        <ele>213.8</ele>
        <time>2018-06-21T19:00:45Z</time>
      </trkpt>
      <trkpt lat="43.98109" lon="1.83478">
        <ele>213.6</ele>
        <time>2018-06-21T19:00:46Z</time>
      </trkpt>
      <trkpt lat="43.98113" lon="1.8347">
        <ele>213.5</ele>
        <time>2018-06-21T19:00:47Z</time>
      </trkpt>
      <trkpt lat="43.98116" lon="1.83461">
        <ele>213.5</ele>
        <time>2018-06-21T19:00:48Z</time>
      </trkpt>
      <trkpt lat="43.98118" lon="1.83452">
        <ele>213.4</ele>
        <time>2018-06-21T19:00:49Z</time>
      </trkpt>
      <trkpt lat="43.9812" lon="1.83443">
        <ele>213.4</ele>
        <time>2018-06-21T19:00:50Z</time>
      </trkpt>
      <trkpt lat="43.98122" lon="1.83434">
        <ele>213.3</ele>
        <time>2018-06-21T19:00:51Z</time>
      </trkpt>
      <trkpt lat="43.98123" lon="1.83426">
        <ele>213.3</ele>
        <time>2018-06-21T19:00:52Z</time>
      </trkpt>
      <trkpt lat="43.98125" lon="1.83418">
        <ele>213.2</ele>
        <time>2018-06-21T19:00:53Z</time>
      </trkpt>
      <trkpt lat="43.98127" lon="1.83409">
        <ele>213.2</ele>
        <time>2018-06-21T19:00:54Z</time>
      </trkpt>
      <trkpt lat="43.98129" lon="1.83401">
        <ele>213.1</ele>
        <time>2018-06-21T19:00:55Z</time>
      </trkpt>
      <trkpt lat="43.9813" lon="1.83392">
        <ele>213.1</ele>
        <time>2018-06-21T19:00:56Z</time>
      </trkpt>
      <trkpt lat="43.98132" lon="1.83383">
        <ele>213</ele>
        <time>2018-06-21T19:00:57Z</time>
      </trkpt>
      <trkpt lat="43.98134" lon="1.83373">
        <ele>213</ele>
        <time>2018-06-21T19:00:58Z</time>
      </trkpt>
      <trkpt lat="43.98136" lon="1.83363">
        <ele>213</ele>
        <time>2018-06-21T19:00:59Z</time>
      </trkpt>
      <trkpt lat="43.98138" lon="1.83353">
        <ele>212.9</ele>
        <time>2018-06-21T19:01:00Z</time>
      </trkpt>
      <trkpt lat="43.9814" lon="1.83343">
        <ele>212.8</ele>
        <time>2018-06-21T19:01:01Z</time>
      </trkpt>
      <trkpt lat="43.98141" lon="1.83332">
        <ele>212.6</ele>
        <time>2018-06-21T19:01:02Z</time>
      </trkpt>
      <trkpt lat="43.98143" lon="1.83321">
        <ele>212.5</ele>
        <time>2018-06-21T19:01:03Z</time>
      </trkpt>
      <trkpt lat="43.98145" lon="1.8331">
        <ele>212.3</ele>
        <time>2018-06-21T19:01:04Z</time>
      </trkpt>
      <trkpt lat="43.98148" lon="1.833">
        <ele>212.1</ele>
        <time>2018-06-21T19:01:05Z</time>
      </trkpt>
      <trkpt lat="43.98149" lon="1.83288">
        <ele>211.6</ele>
        <time>2018-06-21T19:01:06Z</time>
      </trkpt>
      <trkpt lat="43.98151" lon="1.83276">
        <ele>211</ele>
        <time>2018-06-21T19:01:07Z</time>
      </trkpt>
      <trkpt lat="43.98154" lon="1.83263">
        <ele>210.3</ele>
        <time>2018-06-21T19:01:08Z</time>
      </trkpt>
      <trkpt lat="43.98156" lon="1.8325">
        <ele>209.5</ele>
        <time>2018-06-21T19:01:09Z</time>
      </trkpt>
      <trkpt lat="43.98157" lon="1.83237">
        <ele>208.8</ele>
        <time>2018-06-21T19:01:10Z</time>
      </trkpt>
      <trkpt lat="43.98159" lon="1.83226">
        <ele>208.1</ele>
        <time>2018-06-21T19:01:11Z</time>
      </trkpt>
      <trkpt lat="43.9816" lon="1.83214">
        <ele>207.4</ele>
        <time>2018-06-21T19:01:12Z</time>
      </trkpt>
      <trkpt lat="43.98162" lon="1.83202">
        <ele>206.7</ele>
        <time>2018-06-21T19:01:13Z</time>
      </trkpt>
      <trkpt lat="43.98164" lon="1.8319">
        <ele>206.1</ele>
        <time>2018-06-21T19:01:14Z</time>
      </trkpt>
      <trkpt lat="43.98166" lon="1.83178">
        <ele>205.7</ele>
        <time>2018-06-21T19:01:15Z</time>
      </trkpt>
      <trkpt lat="43.98168" lon="1.83167">
        <ele>205.5</ele>
        <time>2018-06-21T19:01:16Z</time>
      </trkpt>
      <trkpt lat="43.98169" lon="1.83156">
        <ele>205.3</ele>
        <time>2018-06-21T19:01:17Z</time>
      </trkpt>
      <trkpt lat="43.9817" lon="1.83144">
        <ele>205.1</ele>
        <time>2018-06-21T19:01:18Z</time>
      </trkpt>
      <trkpt lat="43.9817" lon="1.83133">
        <ele>204.9</ele>
        <time>2018-06-21T19:01:19Z</time>
      </trkpt>
      <trkpt lat="43.98171" lon="1.83121">
        <ele>204.4</ele>
        <time>2018-06-21T19:01:20Z</time>
      </trkpt>
      <trkpt lat="43.98172" lon="1.83109">
        <ele>204</ele>
        <time>2018-06-21T19:01:21Z</time>
      </trkpt>
      <trkpt lat="43.98174" lon="1.83097">
        <ele>203.6</ele>
        <time>2018-06-21T19:01:22Z</time>
      </trkpt>
      <trkpt lat="43.98175" lon="1.83086">
        <ele>203.3</ele>
        <time>2018-06-21T19:01:23Z</time>
      </trkpt>
      <trkpt lat="43.98176" lon="1.83075">
        <ele>203.1</ele>
        <time>2018-06-21T19:01:24Z</time>
      </trkpt>
      <trkpt lat="43.98177" lon="1.83063">
        <ele>203</ele>
        <time>2018-06-21T19:01:25Z</time>
      </trkpt>
      <trkpt lat="43.98179" lon="1.83052">
        <ele>202.9</ele>
        <time>2018-06-21T19:01:26Z</time>
      </trkpt>
      <trkpt lat="43.9818" lon="1.83041">
        <ele>202.9</ele>
        <time>2018-06-21T19:01:27Z</time>
      </trkpt>
      <trkpt lat="43.98182" lon="1.8303">
        <ele>202.8</ele>
        <time>2018-06-21T19:01:28Z</time>
      </trkpt>
      <trkpt lat="43.98183" lon="1.83019">
        <ele>202.7</ele>
        <time>2018-06-21T19:01:29Z</time>
      </trkpt>
      <trkpt lat="43.98185" lon="1.83008">
        <ele>202.7</ele>
        <time>2018-06-21T19:01:30Z</time>
      </trkpt>
      <trkpt lat="43.98186" lon="1.82997">
        <ele>202.6</ele>
        <time>2018-06-21T19:01:31Z</time>
      </trkpt>
      <trkpt lat="43.98188" lon="1.82986">
        <ele>202.6</ele>
        <time>2018-06-21T19:01:32Z</time>
      </trkpt>
      <trkpt lat="43.98189" lon="1.82974">
        <ele>202.6</ele>
        <time>2018-06-21T19:01:33Z</time>
      </trkpt>
      <trkpt lat="43.9819" lon="1.82963">
        <ele>202.6</ele>
        <time>2018-06-21T19:01:34Z</time>
      </trkpt>
      <trkpt lat="43.98191" lon="1.82953">
        <ele>202.5</ele>
        <time>2018-06-21T19:01:35Z</time>
      </trkpt>
      <trkpt lat="43.98192" lon="1.82942">
        <ele>202.5</ele>
        <time>2018-06-21T19:01:36Z</time>
      </trkpt>
      <trkpt lat="43.98193" lon="1.82931">
        <ele>202.5</ele>
        <time>2018-06-21T19:01:37Z</time>
      </trkpt>
      <trkpt lat="43.98195" lon="1.8292">
        <ele>202.4</ele>
        <time>2018-06-21T19:01:38Z</time>
      </trkpt>
      <trkpt lat="43.98196" lon="1.82909">
        <ele>202.4</ele>
        <time>2018-06-21T19:01:39Z</time>
      </trkpt>
      <trkpt lat="43.98197" lon="1.82898">
        <ele>202.4</ele>
        <time>2018-06-21T19:01:40Z</time>
      </trkpt>
      <trkpt lat="43.98199" lon="1.82887">
        <ele>202.4</ele>
        <time>2018-06-21T19:01:41Z</time>
      </trkpt>
      <trkpt lat="43.982" lon="1.82876">
        <ele>202.3</ele>
        <time>2018-06-21T19:01:42Z</time>
      </trkpt>
      <trkpt lat="43.98201" lon="1.82866">
        <ele>202.3</ele>
        <time>2018-06-21T19:01:43Z</time>
      </trkpt>
      <trkpt lat="43.98203" lon="1.82855">
        <ele>202.3</ele>
        <time>2018-06-21T19:01:44Z</time>
      </trkpt>
      <trkpt lat="43.98205" lon="1.82844">
        <ele>202.2</ele>
        <time>2018-06-21T19:01:45Z</time>
      </trkpt>
      <trkpt lat="43.98205" lon="1.82834">
        <ele>202.2</ele>
        <time>2018-06-21T19:01:46Z</time>
      </trkpt>
      <trkpt lat="43.98206" lon="1.82823">
        <ele>202.2</ele>
        <time>2018-06-21T19:01:47Z</time>
      </trkpt>
      <trkpt lat="43.98206" lon="1.82812">
        <ele>202.1</ele>
        <time>2018-06-21T19:01:48Z</time>
      </trkpt>
      <trkpt lat="43.98206" lon="1.828">
        <ele>202</ele>
        <time>2018-06-21T19:01:49Z</time>
      </trkpt>
      <trkpt lat="43.98207" lon="1.82789">
        <ele>201.9</ele>
        <time>2018-06-21T19:01:50Z</time>
      </trkpt>
      <trkpt lat="43.98209" lon="1.82778">
        <ele>201.8</ele>
        <time>2018-06-21T19:01:51Z</time>
      </trkpt>
      <trkpt lat="43.98211" lon="1.82767">
        <ele>201.5</ele>
        <time>2018-06-21T19:01:52Z</time>
      </trkpt>
      <trkpt lat="43.98212" lon="1.82755">
        <ele>201.1</ele>
        <time>2018-06-21T19:01:53Z</time>
      </trkpt>
      <trkpt lat="43.9821" lon="1.82744">
        <ele>200.6</ele>
        <time>2018-06-21T19:01:54Z</time>
      </trkpt>
      <trkpt lat="43.98208" lon="1.82732">
        <ele>200.1</ele>
        <time>2018-06-21T19:01:55Z</time>
      </trkpt>
      <trkpt lat="43.98206" lon="1.8272">
        <ele>199.8</ele>
        <time>2018-06-21T19:01:56Z</time>
      </trkpt>
      <trkpt lat="43.98205" lon="1.82708">
        <ele>199.5</ele>
        <time>2018-06-21T19:01:57Z</time>
      </trkpt>
      <trkpt lat="43.98205" lon="1.82697">
        <ele>199</ele>
        <time>2018-06-21T19:01:58Z</time>
      </trkpt>
      <trkpt lat="43.98202" lon="1.82685">
        <ele>198.4</ele>
        <time>2018-06-21T19:01:59Z</time>
      </trkpt>
      <trkpt lat="43.98199" lon="1.82674">
        <ele>197.7</ele>
        <time>2018-06-21T19:02:00Z</time>
      </trkpt>
      <trkpt lat="43.98195" lon="1.82663">
        <ele>196.9</ele>
        <time>2018-06-21T19:02:01Z</time>
      </trkpt>
      <trkpt lat="43.98192" lon="1.82651">
        <ele>196.1</ele>
        <time>2018-06-21T19:02:02Z</time>
      </trkpt>
      <trkpt lat="43.98187" lon="1.8264">
        <ele>195.2</ele>
        <time>2018-06-21T19:02:03Z</time>
      </trkpt>
      <trkpt lat="43.98183" lon="1.82628">
        <ele>194.1</ele>
        <time>2018-06-21T19:02:04Z</time>
      </trkpt>
      <trkpt lat="43.9818" lon="1.82615">
        <ele>193.1</ele>
        <time>2018-06-21T19:02:05Z</time>
      </trkpt>
      <trkpt lat="43.98176" lon="1.82602">
        <ele>191.9</ele>
        <time>2018-06-21T19:02:06Z</time>
      </trkpt>
      <trkpt lat="43.98172" lon="1.82589">
        <ele>190.9</ele>
        <time>2018-06-21T19:02:07Z</time>
      </trkpt>
      <trkpt lat="43.98168" lon="1.82577">
        <ele>189.8</ele>
        <time>2018-06-21T19:02:08Z</time>
      </trkpt>
      <trkpt lat="43.98166" lon="1.82564">
        <ele>188.9</ele>
        <time>2018-06-21T19:02:09Z</time>
      </trkpt>
      <trkpt lat="43.98164" lon="1.8255">
        <ele>188</ele>
        <time>2018-06-21T19:02:10Z</time>
      </trkpt>
      <trkpt lat="43.98163" lon="1.82537">
        <ele>187.2</ele>
        <time>2018-06-21T19:02:11Z</time>
      </trkpt>
      <trkpt lat="43.98161" lon="1.82524">
        <ele>186.4</ele>
        <time>2018-06-21T19:02:12Z</time>
      </trkpt>
      <trkpt lat="43.9816" lon="1.82511">
        <ele>185.6</ele>
        <time>2018-06-21T19:02:13Z</time>
      </trkpt>
      <trkpt lat="43.98158" lon="1.82498">
        <ele>184.9</ele>
        <time>2018-06-21T19:02:14Z</time>
      </trkpt>
      <trkpt lat="43.98156" lon="1.82486">
        <ele>184.1</ele>
        <time>2018-06-21T19:02:15Z</time>
      </trkpt>
      <trkpt lat="43.98153" lon="1.82475">
        <ele>182.9</ele>
        <time>2018-06-21T19:02:16Z</time>
      </trkpt>
      <trkpt lat="43.98151" lon="1.82466">
        <ele>181.7</ele>
        <time>2018-06-21T19:02:17Z</time>
      </trkpt>
      <trkpt lat="43.98151" lon="1.82458">
        <ele>181</ele>
        <time>2018-06-21T19:02:18Z</time>
      </trkpt>
      <trkpt lat="43.98152" lon="1.82452">
        <ele>180.7</ele>
        <time>2018-06-21T19:02:19Z</time>
      </trkpt>
      <trkpt lat="43.98156" lon="1.8245">
        <ele>180.3</ele>
        <time>2018-06-21T19:02:21Z</time>
      </trkpt>
      <trkpt lat="43.98159" lon="1.82454">
        <ele>180.1</ele>
        <time>2018-06-21T19:02:23Z</time>
      </trkpt>
      <trkpt lat="43.98163" lon="1.82458">
        <ele>180.3</ele>
        <time>2018-06-21T19:02:25Z</time>
      </trkpt>
      <trkpt lat="43.98166" lon="1.82459">
        <ele>180.5</ele>
        <time>2018-06-21T19:02:37Z</time>
      </trkpt>
      <trkpt lat="43.98169" lon="1.82464">
        <ele>180.7</ele>
        <time>2018-06-21T19:02:39Z</time>
      </trkpt>
      <trkpt lat="43.98171" lon="1.82469">
        <ele>180.9</ele>
        <time>2018-06-21T19:02:40Z</time>
      </trkpt>
      <trkpt lat="43.98173" lon="1.82474">
        <ele>181.1</ele>
        <time>2018-06-21T19:02:41Z</time>
      </trkpt>
      <trkpt lat="43.98177" lon="1.8248">
        <ele>181.2</ele>
        <time>2018-06-21T19:02:42Z</time>
      </trkpt>
      <trkpt lat="43.9818" lon="1.82487">
        <ele>181.4</ele>
        <time>2018-06-21T19:02:43Z</time>
      </trkpt>
      <trkpt lat="43.98184" lon="1.82495">
        <ele>181.6</ele>
        <time>2018-06-21T19:02:44Z</time>
      </trkpt>
      <trkpt lat="43.98187" lon="1.82503">
        <ele>181.8</ele>
        <time>2018-06-21T19:02:45Z</time>
      </trkpt>
      <trkpt lat="43.98191" lon="1.82512">
        <ele>181.9</ele>
        <time>2018-06-21T19:02:46Z</time>
      </trkpt>
      <trkpt lat="43.98195" lon="1.82522">
        <ele>182.1</ele>
        <time>2018-06-21T19:02:47Z</time>
      </trkpt>
      <trkpt lat="43.98199" lon="1.82531">
        <ele>182.3</ele>
        <time>2018-06-21T19:02:48Z</time>
      </trkpt>
      <trkpt lat="43.98203" lon="1.8254">
        <ele>182.5</ele>
        <time>2018-06-21T19:02:49Z</time>
      </trkpt>
      <trkpt lat="43.98208" lon="1.82549">
        <ele>182.9</ele>
        <time>2018-06-21T19:02:50Z</time>
      </trkpt>
      <trkpt lat="43.98212" lon="1.82557">
        <ele>183.6</ele>
        <time>2018-06-21T19:02:51Z</time>
      </trkpt>
      <trkpt lat="43.98218" lon="1.82565">
        <ele>183.9</ele>
        <time>2018-06-21T19:02:52Z</time>
      </trkpt>
      <trkpt lat="43.98225" lon="1.82572">
        <ele>184.2</ele>
        <time>2018-06-21T19:02:53Z</time>
      </trkpt>
      <trkpt lat="43.98231" lon="1.8258">
        <ele>184.4</ele>
        <time>2018-06-21T19:02:54Z</time>
      </trkpt>
      <trkpt lat="43.98237" lon="1.8259">
        <ele>184.8</ele>
        <time>2018-06-21T19:02:55Z</time>
      </trkpt>
      <trkpt lat="43.98243" lon="1.82599">
        <ele>185.2</ele>
        <time>2018-06-21T19:02:56Z</time>
      </trkpt>
      <trkpt lat="43.98249" lon="1.82608">
        <ele>185.4</ele>
        <time>2018-06-21T19:02:57Z</time>
      </trkpt>
      <trkpt lat="43.98255" lon="1.82617">
        <ele>185.6</ele>
        <time>2018-06-21T19:02:58Z</time>
      </trkpt>
      <trkpt lat="43.9826" lon="1.82629">
        <ele>185.8</ele>
        <time>2018-06-21T19:02:59Z</time>
      </trkpt>
      <trkpt lat="43.98266" lon="1.82639">
        <ele>186.1</ele>
        <time>2018-06-21T19:03:00Z</time>
      </trkpt>
      <trkpt lat="43.98271" lon="1.82649">
        <ele>186.5</ele>
        <time>2018-06-21T19:03:01Z</time>
      </trkpt>
      <trkpt lat="43.98276" lon="1.82658">
        <ele>186.9</ele>
        <time>2018-06-21T19:03:02Z</time>
      </trkpt>
      <trkpt lat="43.98283" lon="1.82667">
        <ele>187.3</ele>
        <time>2018-06-21T19:03:03Z</time>
      </trkpt>
      <trkpt lat="43.9829" lon="1.82674">
        <ele>187.8</ele>
        <time>2018-06-21T19:03:04Z</time>
      </trkpt>
      <trkpt lat="43.983" lon="1.82678">
        <ele>188.3</ele>
        <time>2018-06-21T19:03:05Z</time>
      </trkpt>
      <trkpt lat="43.9831" lon="1.82681">
        <ele>189</ele>
        <time>2018-06-21T19:03:06Z</time>
      </trkpt>
      <trkpt lat="43.98319" lon="1.82687">
        <ele>189.6</ele>
        <time>2018-06-21T19:03:07Z</time>
      </trkpt>
      <trkpt lat="43.98329" lon="1.82694">
        <ele>188.7</ele>
        <time>2018-06-21T19:03:08Z</time>
      </trkpt>
      <trkpt lat="43.98339" lon="1.82699">
        <ele>186.4</ele>
        <time>2018-06-21T19:03:09Z</time>
      </trkpt>
      <trkpt lat="43.9835" lon="1.82704">
        <ele>184</ele>
        <time>2018-06-21T19:03:10Z</time>
      </trkpt>
      <trkpt lat="43.98361" lon="1.82708">
        <ele>181.6</ele>
        <time>2018-06-21T19:03:11Z</time>
      </trkpt>
      <trkpt lat="43.98372" lon="1.8271">
        <ele>179.6</ele>
        <time>2018-06-21T19:03:12Z</time>
      </trkpt>
      <trkpt lat="43.98382" lon="1.82714">
        <ele>178.6</ele>
        <time>2018-06-21T19:03:13Z</time>
      </trkpt>
      <trkpt lat="43.98392" lon="1.82717">
        <ele>177.9</ele>
        <time>2018-06-21T19:03:14Z</time>
      </trkpt>
      <trkpt lat="43.98401" lon="1.82719">
        <ele>177.3</ele>
        <time>2018-06-21T19:03:15Z</time>
      </trkpt>
      <trkpt lat="43.9841" lon="1.82721">
        <ele>176.8</ele>
        <time>2018-06-21T19:03:16Z</time>
      </trkpt>
      <trkpt lat="43.98418" lon="1.82725">
        <ele>176.3</ele>
        <time>2018-06-21T19:03:17Z</time>
      </trkpt>
      <trkpt lat="43.98425" lon="1.82729">
        <ele>175.5</ele>
        <time>2018-06-21T19:03:18Z</time>
      </trkpt>
      <trkpt lat="43.98431" lon="1.82734">
        <ele>174.7</ele>
        <time>2018-06-21T19:03:19Z</time>
      </trkpt>
      <trkpt lat="43.98437" lon="1.8274">
        <ele>174.1</ele>
        <time>2018-06-21T19:03:20Z</time>
      </trkpt>
      <trkpt lat="43.98443" lon="1.82745">
        <ele>173.5</ele>
        <time>2018-06-21T19:03:21Z</time>
      </trkpt>
      <trkpt lat="43.98448" lon="1.82751">
        <ele>172.8</ele>
        <time>2018-06-21T19:03:22Z</time>
      </trkpt>
      <trkpt lat="43.98452" lon="1.82754">
        <ele>171.8</ele>
        <time>2018-06-21T19:03:23Z</time>
      </trkpt>
      <trkpt lat="43.98457" lon="1.82754">
        <ele>171.2</ele>
        <time>2018-06-21T19:03:24Z</time>
      </trkpt>
      <trkpt lat="43.98461" lon="1.82752">
        <ele>170.6</ele>
        <time>2018-06-21T19:03:25Z</time>
      </trkpt>
      <trkpt lat="43.98465" lon="1.8275">
        <ele>170</ele>
        <time>2018-06-21T19:03:26Z</time>
      </trkpt>
      <trkpt lat="43.9847" lon="1.82748">
        <ele>170</ele>
        <time>2018-06-21T19:03:27Z</time>
      </trkpt>
      <trkpt lat="43.98476" lon="1.82747">
        <ele>170</ele>
        <time>2018-06-21T19:03:28Z</time>
      </trkpt>
      <trkpt lat="43.98482" lon="1.82749">
        <ele>170</ele>
        <time>2018-06-21T19:03:29Z</time>
      </trkpt>
      <trkpt lat="43.98491" lon="1.82751">
        <ele>170.1</ele>
        <time>2018-06-21T19:03:30Z</time>
      </trkpt>
      <trkpt lat="43.98498" lon="1.82754">
        <ele>170.1</ele>
        <time>2018-06-21T19:03:31Z</time>
      </trkpt>
      <trkpt lat="43.98506" lon="1.82756">
        <ele>170.1</ele>
        <time>2018-06-21T19:03:32Z</time>
      </trkpt>
      <trkpt lat="43.98514" lon="1.82759">
        <ele>170.2</ele>
        <time>2018-06-21T19:03:33Z</time>
      </trkpt>
      <trkpt lat="43.98522" lon="1.82762">
        <ele>170.2</ele>
        <time>2018-06-21T19:03:34Z</time>
      </trkpt>
      <trkpt lat="43.98529" lon="1.82765">
        <ele>170.2</ele>
        <time>2018-06-21T19:03:35Z</time>
      </trkpt>
      <trkpt lat="43.98537" lon="1.82768">
        <ele>170.3</ele>
        <time>2018-06-21T19:03:36Z</time>
      </trkpt>
      <trkpt lat="43.98544" lon="1.8277">
        <ele>170.3</ele>
        <time>2018-06-21T19:03:37Z</time>
      </trkpt>
      <trkpt lat="43.98552" lon="1.82772">
        <ele>170.4</ele>
        <time>2018-06-21T19:03:38Z</time>
      </trkpt>
      <trkpt lat="43.98559" lon="1.82774">
        <ele>170.4</ele>
        <time>2018-06-21T19:03:39Z</time>
      </trkpt>
      <trkpt lat="43.98566" lon="1.82775">
        <ele>170.4</ele>
        <time>2018-06-21T19:03:40Z</time>
      </trkpt>
      <trkpt lat="43.98573" lon="1.82777">
        <ele>170.4</ele>
        <time>2018-06-21T19:03:41Z</time>
      </trkpt>
      <trkpt lat="43.98579" lon="1.8278">
        <ele>170.5</ele>
        <time>2018-06-21T19:03:42Z</time>
      </trkpt>
      <trkpt lat="43.98586" lon="1.82782">
        <ele>170.5</ele>
        <time>2018-06-21T19:03:43Z</time>
      </trkpt>
      <trkpt lat="43.98592" lon="1.82784">
        <ele>170.5</ele>
        <time>2018-06-21T19:03:44Z</time>
      </trkpt>
      <trkpt lat="43.98598" lon="1.82786">
        <ele>170.6</ele>
        <time>2018-06-21T19:03:45Z</time>
      </trkpt>
      <trkpt lat="43.98605" lon="1.82788">
        <ele>170.6</ele>
        <time>2018-06-21T19:03:46Z</time>
      </trkpt>
      <trkpt lat="43.98611" lon="1.8279">
        <ele>170.6</ele>
        <time>2018-06-21T19:03:47Z</time>
      </trkpt>
      <trkpt lat="43.98617" lon="1.82791">
        <ele>170.7</ele>
        <time>2018-06-21T19:03:48Z</time>
      </trkpt>
      <trkpt lat="43.98623" lon="1.82793">
        <ele>170.7</ele>
        <time>2018-06-21T19:03:49Z</time>
      </trkpt>
      <trkpt lat="43.9863" lon="1.82795">
        <ele>170.7</ele>
        <time>2018-06-21T19:03:50Z</time>
      </trkpt>
      <trkpt lat="43.98636" lon="1.82797">
        <ele>170.7</ele>
        <time>2018-06-21T19:03:51Z</time>
      </trkpt>
      <trkpt lat="43.98642" lon="1.82798">
        <ele>170.7</ele>
        <time>2018-06-21T19:03:52Z</time>
      </trkpt>
      <trkpt lat="43.98648" lon="1.82799">
        <ele>170.8</ele>
        <time>2018-06-21T19:03:53Z</time>
      </trkpt>
      <trkpt lat="43.98655" lon="1.82799">
        <ele>170.8</ele>
        <time>2018-06-21T19:03:54Z</time>
      </trkpt>
      <trkpt lat="43.98661" lon="1.82797">
        <ele>170.9</ele>
        <time>2018-06-21T19:03:55Z</time>
      </trkpt>
      <trkpt lat="43.98667" lon="1.82796">
        <ele>170.9</ele>
        <time>2018-06-21T19:03:56Z</time>
      </trkpt>
      <trkpt lat="43.98673" lon="1.82793">
        <ele>171</ele>
        <time>2018-06-21T19:03:57Z</time>
      </trkpt>
      <trkpt lat="43.98679" lon="1.8279">
        <ele>171</ele>
        <time>2018-06-21T19:03:58Z</time>
      </trkpt>
      <trkpt lat="43.98684" lon="1.82788">
        <ele>171.1</ele>
        <time>2018-06-21T19:03:59Z</time>
      </trkpt>
      <trkpt lat="43.9869" lon="1.82787">
        <ele>171.1</ele>
        <time>2018-06-21T19:04:00Z</time>
      </trkpt>
      <trkpt lat="43.98695" lon="1.82785">
        <ele>171.1</ele>
        <time>2018-06-21T19:04:01Z</time>
      </trkpt>
      <trkpt lat="43.98701" lon="1.82782">
        <ele>171.2</ele>
        <time>2018-06-21T19:04:02Z</time>
      </trkpt>
      <trkpt lat="43.98706" lon="1.8278">
        <ele>171.2</ele>
        <time>2018-06-21T19:04:03Z</time>
      </trkpt>
      <trkpt lat="43.98712" lon="1.82778">
        <ele>171.2</ele>
        <time>2018-06-21T19:04:04Z</time>
      </trkpt>
      <trkpt lat="43.98717" lon="1.82776">
        <ele>171.3</ele>
        <time>2018-06-21T19:04:05Z</time>
      </trkpt>
      <trkpt lat="43.98722" lon="1.82774">
        <ele>171.3</ele>
        <time>2018-06-21T19:04:06Z</time>
      </trkpt>
      <trkpt lat="43.98728" lon="1.82772">
        <ele>171.3</ele>
        <time>2018-06-21T19:04:07Z</time>
      </trkpt>
      <trkpt lat="43.98733" lon="1.8277">
        <ele>171.4</ele>
        <time>2018-06-21T19:04:08Z</time>
      </trkpt>
      <trkpt lat="43.98739" lon="1.82768">
        <ele>171.4</ele>
        <time>2018-06-21T19:04:09Z</time>
      </trkpt>
      <trkpt lat="43.98744" lon="1.82766">
        <ele>171.4</ele>
        <time>2018-06-21T19:04:10Z</time>
      </trkpt>
      <trkpt lat="43.98749" lon="1.82764">
        <ele>171.5</ele>
        <time>2018-06-21T19:04:11Z</time>
      </trkpt>
      <trkpt lat="43.98754" lon="1.82762">
        <ele>171.5</ele>
        <time>2018-06-21T19:04:12Z</time>
      </trkpt>
      <trkpt lat="43.98758" lon="1.8276">
        <ele>171.6</ele>
        <time>2018-06-21T19:04:13Z</time>
      </trkpt>
      <trkpt lat="43.98763" lon="1.82758">
        <ele>171.6</ele>
        <time>2018-06-21T19:04:14Z</time>
      </trkpt>
      <trkpt lat="43.98766" lon="1.82755">
        <ele>171.7</ele>
        <time>2018-06-21T19:04:15Z</time>
      </trkpt>
      <trkpt lat="43.9877" lon="1.82753">
        <ele>171.7</ele>
        <time>2018-06-21T19:04:16Z</time>
      </trkpt>
      <trkpt lat="43.98773" lon="1.82751">
        <ele>171.7</ele>
        <time>2018-06-21T19:04:17Z</time>
      </trkpt>
      <trkpt lat="43.98776" lon="1.82749">
        <ele>171.8</ele>
        <time>2018-06-21T19:04:18Z</time>
      </trkpt>
      <trkpt lat="43.9878" lon="1.82748">
        <ele>171.8</ele>
        <time>2018-06-21T19:04:19Z</time>
      </trkpt>
      <trkpt lat="43.98783" lon="1.82748">
        <ele>171.9</ele>
        <time>2018-06-21T19:04:20Z</time>
      </trkpt>
      <trkpt lat="43.98787" lon="1.82749">
        <ele>172</ele>
        <time>2018-06-21T19:04:21Z</time>
      </trkpt>
      <trkpt lat="43.9879" lon="1.82751">
        <ele>172</ele>
        <time>2018-06-21T19:04:22Z</time>
      </trkpt>
      <trkpt lat="43.98792" lon="1.82755">
        <ele>172</ele>
        <time>2018-06-21T19:04:23Z</time>
      </trkpt>
      <trkpt lat="43.98795" lon="1.82759">
        <ele>172</ele>
        <time>2018-06-21T19:04:24Z</time>
      </trkpt>
      <trkpt lat="43.98797" lon="1.82763">
        <ele>171.9</ele>
        <time>2018-06-21T19:04:25Z</time>
      </trkpt>
      <trkpt lat="43.988" lon="1.82767">
        <ele>171.9</ele>
        <time>2018-06-21T19:04:26Z</time>
      </trkpt>
      <trkpt lat="43.98802" lon="1.82771">
        <ele>171.9</ele>
        <time>2018-06-21T19:04:27Z</time>
      </trkpt>
      <trkpt lat="43.98805" lon="1.82776">
        <ele>171.9</ele>
        <time>2018-06-21T19:04:28Z</time>
      </trkpt>
      <trkpt lat="43.98808" lon="1.82781">
        <ele>171.9</ele>
        <time>2018-06-21T19:04:29Z</time>
      </trkpt>
      <trkpt lat="43.9881" lon="1.82786">
        <ele>171.9</ele>
        <time>2018-06-21T19:04:30Z</time>
      </trkpt>
      <trkpt lat="43.98813" lon="1.82791">
        <ele>171.8</ele>
        <time>2018-06-21T19:04:31Z</time>
      </trkpt>
      <trkpt lat="43.98815" lon="1.82796">
        <ele>171.8</ele>
        <time>2018-06-21T19:04:32Z</time>
      </trkpt>
      <trkpt lat="43.98818" lon="1.82802">
        <ele>171.8</ele>
        <time>2018-06-21T19:04:33Z</time>
      </trkpt>
      <trkpt lat="43.9882" lon="1.82808">
        <ele>171.8</ele>
        <time>2018-06-21T19:04:34Z</time>
      </trkpt>
      <trkpt lat="43.98822" lon="1.82814">
        <ele>171.8</ele>
        <time>2018-06-21T19:04:35Z</time>
      </trkpt>
      <trkpt lat="43.98825" lon="1.8282">
        <ele>171.8</ele>
        <time>2018-06-21T19:04:36Z</time>
      </trkpt>
      <trkpt lat="43.98827" lon="1.82827">
        <ele>171.8</ele>
        <time>2018-06-21T19:04:37Z</time>
      </trkpt>
      <trkpt lat="43.98828" lon="1.82833">
        <ele>171.8</ele>
        <time>2018-06-21T19:04:38Z</time>
      </trkpt>
      <trkpt lat="43.9883" lon="1.82839">
        <ele>171.8</ele>
        <time>2018-06-21T19:04:39Z</time>
      </trkpt>
      <trkpt lat="43.98831" lon="1.82845">
        <ele>171.8</ele>
        <time>2018-06-21T19:04:40Z</time>
      </trkpt>
      <trkpt lat="43.98833" lon="1.82851">
        <ele>171.8</ele>
        <time>2018-06-21T19:04:41Z</time>
      </trkpt>
      <trkpt lat="43.98835" lon="1.82857">
        <ele>171.8</ele>
        <time>2018-06-21T19:04:42Z</time>
      </trkpt>
      <trkpt lat="43.9884" lon="1.82859">
        <ele>171.9</ele>
        <time>2018-06-21T19:04:43Z</time>
      </trkpt>
      <trkpt lat="43.98845" lon="1.82857">
        <ele>172</ele>
        <time>2018-06-21T19:04:44Z</time>
      </trkpt>
      <trkpt lat="43.98848" lon="1.82853">
        <ele>172.2</ele>
        <time>2018-06-21T19:04:45Z</time>
      </trkpt>
      <trkpt lat="43.98852" lon="1.82847">
        <ele>172.4</ele>
        <time>2018-06-21T19:04:46Z</time>
      </trkpt>
      <trkpt lat="43.98856" lon="1.82843">
        <ele>172.7</ele>
        <time>2018-06-21T19:04:47Z</time>
      </trkpt>
      <trkpt lat="43.98859" lon="1.82838">
        <ele>173</ele>
        <time>2018-06-21T19:04:48Z</time>
      </trkpt>
      <trkpt lat="43.98863" lon="1.82833">
        <ele>173.3</ele>
        <time>2018-06-21T19:04:49Z</time>
      </trkpt>
      <trkpt lat="43.98866" lon="1.82829">
        <ele>173.5</ele>
        <time>2018-06-21T19:04:50Z</time>
      </trkpt>
      <trkpt lat="43.98869" lon="1.82824">
        <ele>173.8</ele>
        <time>2018-06-21T19:04:51Z</time>
      </trkpt>
      <trkpt lat="43.98872" lon="1.8282">
        <ele>174.1</ele>
        <time>2018-06-21T19:04:52Z</time>
      </trkpt>
      <trkpt lat="43.98875" lon="1.82816">
        <ele>174.4</ele>
        <time>2018-06-21T19:04:53Z</time>
      </trkpt>
      <trkpt lat="43.98878" lon="1.82812">
        <ele>174.7</ele>
        <time>2018-06-21T19:04:54Z</time>
      </trkpt>
      <trkpt lat="43.98881" lon="1.82807">
        <ele>175</ele>
        <time>2018-06-21T19:04:55Z</time>
      </trkpt>
      <trkpt lat="43.98884" lon="1.82803">
        <ele>175.3</ele>
        <time>2018-06-21T19:04:56Z</time>
      </trkpt>
      <trkpt lat="43.98886" lon="1.828">
        <ele>175.5</ele>
        <time>2018-06-21T19:04:57Z</time>
      </trkpt>
      <trkpt lat="43.9889" lon="1.82794">
        <ele>175.9</ele>
        <time>2018-06-21T19:04:59Z</time>
      </trkpt>
      <trkpt lat="43.98892" lon="1.82791">
        <ele>176.1</ele>
        <time>2018-06-21T19:05:00Z</time>
      </trkpt>
      <trkpt lat="43.98894" lon="1.82789">
        <ele>176.4</ele>
        <time>2018-06-21T19:05:01Z</time>
      </trkpt>
      <trkpt lat="43.98896" lon="1.82785">
        <ele>176.5</ele>
        <time>2018-06-21T19:05:02Z</time>
      </trkpt>
      <trkpt lat="43.98898" lon="1.82782">
        <ele>176.7</ele>
        <time>2018-06-21T19:05:03Z</time>
      </trkpt>
      <trkpt lat="43.989" lon="1.82779">
        <ele>176.9</ele>
        <time>2018-06-21T19:05:04Z</time>
      </trkpt>
      <trkpt lat="43.98902" lon="1.82776">
        <ele>177.2</ele>
        <time>2018-06-21T19:05:05Z</time>
      </trkpt>
      <trkpt lat="43.98904" lon="1.82773">
        <ele>177.2</ele>
        <time>2018-06-21T19:05:06Z</time>
      </trkpt>
      <trkpt lat="43.98906" lon="1.8277">
        <ele>177.4</ele>
        <time>2018-06-21T19:05:07Z</time>
      </trkpt>
      <trkpt lat="43.98908" lon="1.82767">
        <ele>177.6</ele>
        <time>2018-06-21T19:05:08Z</time>
      </trkpt>
      <trkpt lat="43.98912" lon="1.82761">
        <ele>177.9</ele>
        <time>2018-06-21T19:05:10Z</time>
      </trkpt>
      <trkpt lat="43.98914" lon="1.82758">
        <ele>178.1</ele>
        <time>2018-06-21T19:05:11Z</time>
      </trkpt>
      <trkpt lat="43.98916" lon="1.82755">
        <ele>178.4</ele>
        <time>2018-06-21T19:05:12Z</time>
      </trkpt>
      <trkpt lat="43.98918" lon="1.82752">
        <ele>178.5</ele>
        <time>2018-06-21T19:05:13Z</time>
      </trkpt>
      <trkpt lat="43.98919" lon="1.82749">
        <ele>178.7</ele>
        <time>2018-06-21T19:05:14Z</time>
      </trkpt>
      <trkpt lat="43.98921" lon="1.82746">
        <ele>179</ele>
        <time>2018-06-21T19:05:15Z</time>
      </trkpt>
      <trkpt lat="43.98925" lon="1.8274">
        <ele>179.3</ele>
        <time>2018-06-21T19:05:17Z</time>
      </trkpt>
      <trkpt lat="43.98928" lon="1.82735">
        <ele>179.7</ele>
        <time>2018-06-21T19:05:19Z</time>
      </trkpt>
      <trkpt lat="43.98931" lon="1.8273">
        <ele>180</ele>
        <time>2018-06-21T19:05:21Z</time>
      </trkpt>
      <trkpt lat="43.98935" lon="1.82725">
        <ele>180.6</ele>
        <time>2018-06-21T19:05:23Z</time>
      </trkpt>
      <trkpt lat="43.98938" lon="1.82719">
        <ele>180.9</ele>
        <time>2018-06-21T19:05:25Z</time>
      </trkpt>
      <trkpt lat="43.98941" lon="1.82714">
        <ele>181.3</ele>
        <time>2018-06-21T19:05:27Z</time>
      </trkpt>
      <trkpt lat="43.98943" lon="1.82711">
        <ele>181.6</ele>
        <time>2018-06-21T19:05:28Z</time>
      </trkpt>
      <trkpt lat="43.98946" lon="1.82705">
        <ele>181.9</ele>
        <time>2018-06-21T19:05:30Z</time>
      </trkpt>
      <trkpt lat="43.98949" lon="1.82699">
        <ele>182.4</ele>
        <time>2018-06-21T19:05:32Z</time>
      </trkpt>
      <trkpt lat="43.9895" lon="1.82696">
        <ele>182.5</ele>
        <time>2018-06-21T19:05:33Z</time>
      </trkpt>
      <trkpt lat="43.98951" lon="1.82693">
        <ele>182.8</ele>
        <time>2018-06-21T19:05:34Z</time>
      </trkpt>
      <trkpt lat="43.98954" lon="1.82687">
        <ele>183</ele>
        <time>2018-06-21T19:05:36Z</time>
      </trkpt>
      <trkpt lat="43.98956" lon="1.82681">
        <ele>183.4</ele>
        <time>2018-06-21T19:05:38Z</time>
      </trkpt>
      <trkpt lat="43.98959" lon="1.82675">
        <ele>183.7</ele>
        <time>2018-06-21T19:05:40Z</time>
      </trkpt>
      <trkpt lat="43.9896" lon="1.82672">
        <ele>183.9</ele>
        <time>2018-06-21T19:05:41Z</time>
      </trkpt>
      <trkpt lat="43.98961" lon="1.82668">
        <ele>184.2</ele>
        <time>2018-06-21T19:05:42Z</time>
      </trkpt>
      <trkpt lat="43.98963" lon="1.82665">
        <ele>184.2</ele>
        <time>2018-06-21T19:05:43Z</time>
      </trkpt>
      <trkpt lat="43.98966" lon="1.82659">
        <ele>184.7</ele>
        <time>2018-06-21T19:05:45Z</time>
      </trkpt>
      <trkpt lat="43.98969" lon="1.82654">
        <ele>185</ele>
        <time>2018-06-21T19:05:47Z</time>
      </trkpt>
      <trkpt lat="43.98972" lon="1.82649">
        <ele>185.3</ele>
        <time>2018-06-21T19:05:49Z</time>
      </trkpt>
      <trkpt lat="43.98975" lon="1.82644">
        <ele>185.5</ele>
        <time>2018-06-21T19:05:51Z</time>
      </trkpt>
      <trkpt lat="43.98979" lon="1.82639">
        <ele>185.9</ele>
        <time>2018-06-21T19:05:53Z</time>
      </trkpt>
      <trkpt lat="43.98981" lon="1.82635">
        <ele>186</ele>
        <time>2018-06-21T19:05:54Z</time>
      </trkpt>
      <trkpt lat="43.98982" lon="1.82632">
        <ele>186.2</ele>
        <time>2018-06-21T19:05:55Z</time>
      </trkpt>
      <trkpt lat="43.98985" lon="1.82627">
        <ele>186.5</ele>
        <time>2018-06-21T19:05:57Z</time>
      </trkpt>
      <trkpt lat="43.98988" lon="1.82621">
        <ele>186.9</ele>
        <time>2018-06-21T19:05:59Z</time>
      </trkpt>
      <trkpt lat="43.9899" lon="1.82616">
        <ele>187.2</ele>
        <time>2018-06-21T19:06:01Z</time>
      </trkpt>
      <trkpt lat="43.98993" lon="1.82611">
        <ele>187.6</ele>
        <time>2018-06-21T19:06:03Z</time>
      </trkpt>
      <trkpt lat="43.98996" lon="1.82605">
        <ele>187.9</ele>
        <time>2018-06-21T19:06:05Z</time>
      </trkpt>
      <trkpt lat="43.98999" lon="1.82601">
        <ele>188.3</ele>
        <time>2018-06-21T19:06:07Z</time>
      </trkpt>
      <trkpt lat="43.99001" lon="1.82596">
        <ele>188.9</ele>
        <time>2018-06-21T19:06:09Z</time>
      </trkpt>
      <trkpt lat="43.99004" lon="1.82591">
        <ele>189.3</ele>
        <time>2018-06-21T19:06:11Z</time>
      </trkpt>
      <trkpt lat="43.99007" lon="1.82586">
        <ele>189.5</ele>
        <time>2018-06-21T19:06:13Z</time>
      </trkpt>
      <trkpt lat="43.99009" lon="1.82581">
        <ele>189.9</ele>
        <time>2018-06-21T19:06:15Z</time>
      </trkpt>
      <trkpt lat="43.99012" lon="1.82578">
        <ele>190.3</ele>
        <time>2018-06-21T19:06:17Z</time>
      </trkpt>
      <trkpt lat="43.99015" lon="1.82574">
        <ele>190.8</ele>
        <time>2018-06-21T19:06:19Z</time>
      </trkpt>
      <trkpt lat="43.99017" lon="1.8257">
        <ele>191.2</ele>
        <time>2018-06-21T19:06:21Z</time>
      </trkpt>
      <trkpt lat="43.9902" lon="1.82566">
        <ele>191.5</ele>
        <time>2018-06-21T19:06:23Z</time>
      </trkpt>
      <trkpt lat="43.99023" lon="1.82561">
        <ele>191.9</ele>
        <time>2018-06-21T19:06:25Z</time>
      </trkpt>
      <trkpt lat="43.99027" lon="1.82557">
        <ele>192.2</ele>
        <time>2018-06-21T19:06:27Z</time>
      </trkpt>
      <trkpt lat="43.99029" lon="1.82552">
        <ele>192.6</ele>
        <time>2018-06-21T19:06:29Z</time>
      </trkpt>
      <trkpt lat="43.99033" lon="1.82547">
        <ele>192.9</ele>
        <time>2018-06-21T19:06:31Z</time>
      </trkpt>
      <trkpt lat="43.99036" lon="1.82543">
        <ele>193.3</ele>
        <time>2018-06-21T19:06:33Z</time>
      </trkpt>
      <trkpt lat="43.99039" lon="1.82539">
        <ele>193.7</ele>
        <time>2018-06-21T19:06:35Z</time>
      </trkpt>
      <trkpt lat="43.99043" lon="1.82536">
        <ele>194.1</ele>
        <time>2018-06-21T19:06:37Z</time>
      </trkpt>
      <trkpt lat="43.99046" lon="1.82533">
        <ele>194.3</ele>
        <time>2018-06-21T19:06:39Z</time>
      </trkpt>
      <trkpt lat="43.9905" lon="1.82528">
        <ele>194.8</ele>
        <time>2018-06-21T19:06:41Z</time>
      </trkpt>
      <trkpt lat="43.99054" lon="1.82523">
        <ele>195.3</ele>
        <time>2018-06-21T19:06:43Z</time>
      </trkpt>
      <trkpt lat="43.99058" lon="1.82519">
        <ele>195.8</ele>
        <time>2018-06-21T19:06:45Z</time>
      </trkpt>
      <trkpt lat="43.99059" lon="1.82517">
        <ele>196.2</ele>
        <time>2018-06-21T19:06:46Z</time>
      </trkpt>
      <trkpt lat="43.99063" lon="1.82512">
        <ele>196.6</ele>
        <time>2018-06-21T19:06:48Z</time>
      </trkpt>
      <trkpt lat="43.99066" lon="1.82508">
        <ele>197</ele>
        <time>2018-06-21T19:06:50Z</time>
      </trkpt>
      <trkpt lat="43.99069" lon="1.82504">
        <ele>197.4</ele>
        <time>2018-06-21T19:06:52Z</time>
      </trkpt>
      <trkpt lat="43.99072" lon="1.82499">
        <ele>197.8</ele>
        <time>2018-06-21T19:06:54Z</time>
      </trkpt>
      <trkpt lat="43.99076" lon="1.82494">
        <ele>198.1</ele>
        <time>2018-06-21T19:06:56Z</time>
      </trkpt>
      <trkpt lat="43.99079" lon="1.82489">
        <ele>198.7</ele>
        <time>2018-06-21T19:06:58Z</time>
      </trkpt>
      <trkpt lat="43.99081" lon="1.82486">
        <ele>198.8</ele>
        <time>2018-06-21T19:06:59Z</time>
      </trkpt>
      <trkpt lat="43.99083" lon="1.82483">
        <ele>199</ele>
        <time>2018-06-21T19:07:00Z</time>
      </trkpt>
      <trkpt lat="43.99086" lon="1.82481">
        <ele>199.2</ele>
        <time>2018-06-21T19:07:01Z</time>
      </trkpt>
      <trkpt lat="43.99088" lon="1.82479">
        <ele>199.5</ele>
        <time>2018-06-21T19:07:02Z</time>
      </trkpt>
      <trkpt lat="43.9909" lon="1.82476">
        <ele>199.8</ele>
        <time>2018-06-21T19:07:03Z</time>
      </trkpt>
      <trkpt lat="43.99092" lon="1.82473">
        <ele>199.8</ele>
        <time>2018-06-21T19:07:04Z</time>
      </trkpt>
      <trkpt lat="43.99094" lon="1.8247">
        <ele>200.1</ele>
        <time>2018-06-21T19:07:05Z</time>
      </trkpt>
      <trkpt lat="43.99098" lon="1.82465">
        <ele>200.4</ele>
        <time>2018-06-21T19:07:07Z</time>
      </trkpt>
      <trkpt lat="43.99102" lon="1.8246">
        <ele>200.6</ele>
        <time>2018-06-21T19:07:09Z</time>
      </trkpt>
      <trkpt lat="43.99106" lon="1.82455">
        <ele>201</ele>
        <time>2018-06-21T19:07:11Z</time>
      </trkpt>
      <trkpt lat="43.99108" lon="1.8245">
        <ele>201.3</ele>
        <time>2018-06-21T19:07:13Z</time>
      </trkpt>
      <trkpt lat="43.99111" lon="1.82447">
        <ele>201.6</ele>
        <time>2018-06-21T19:07:15Z</time>
      </trkpt>
      <trkpt lat="43.99115" lon="1.82446">
        <ele>202.1</ele>
        <time>2018-06-21T19:07:17Z</time>
      </trkpt>
      <trkpt lat="43.9912" lon="1.82444">
        <ele>202.3</ele>
        <time>2018-06-21T19:07:19Z</time>
      </trkpt>
      <trkpt lat="43.99125" lon="1.82442">
        <ele>202.8</ele>
        <time>2018-06-21T19:07:21Z</time>
      </trkpt>
      <trkpt lat="43.99128" lon="1.82441">
        <ele>203</ele>
        <time>2018-06-21T19:07:22Z</time>
      </trkpt>
      <trkpt lat="43.99134" lon="1.82439">
        <ele>203.3</ele>
        <time>2018-06-21T19:07:24Z</time>
      </trkpt>
      <trkpt lat="43.99137" lon="1.82438">
        <ele>203.5</ele>
        <time>2018-06-21T19:07:25Z</time>
      </trkpt>
      <trkpt lat="43.99141" lon="1.82436">
        <ele>203.9</ele>
        <time>2018-06-21T19:07:27Z</time>
      </trkpt>
      <trkpt lat="43.99144" lon="1.82434">
        <ele>204.1</ele>
        <time>2018-06-21T19:07:28Z</time>
      </trkpt>
      <trkpt lat="43.99149" lon="1.82433">
        <ele>204.7</ele>
        <time>2018-06-21T19:07:30Z</time>
      </trkpt>
      <trkpt lat="43.99152" lon="1.82431">
        <ele>204.7</ele>
        <time>2018-06-21T19:07:31Z</time>
      </trkpt>
      <trkpt lat="43.99155" lon="1.82428">
        <ele>205.1</ele>
        <time>2018-06-21T19:07:32Z</time>
      </trkpt>
      <trkpt lat="43.99157" lon="1.82426">
        <ele>205.3</ele>
        <time>2018-06-21T19:07:33Z</time>
      </trkpt>
      <trkpt lat="43.9916" lon="1.82424">
        <ele>205.7</ele>
        <time>2018-06-21T19:07:34Z</time>
      </trkpt>
      <trkpt lat="43.99164" lon="1.8242">
        <ele>206.2</ele>
        <time>2018-06-21T19:07:35Z</time>
      </trkpt>
      <trkpt lat="43.99167" lon="1.82417">
        <ele>206.4</ele>
        <time>2018-06-21T19:07:36Z</time>
      </trkpt>
      <trkpt lat="43.9917" lon="1.82413">
        <ele>206.9</ele>
        <time>2018-06-21T19:07:37Z</time>
      </trkpt>
      <trkpt lat="43.99173" lon="1.82409">
        <ele>207.4</ele>
        <time>2018-06-21T19:07:38Z</time>
      </trkpt>
      <trkpt lat="43.99174" lon="1.82406">
        <ele>208</ele>
        <time>2018-06-21T19:07:39Z</time>
      </trkpt>
      <trkpt lat="43.99175" lon="1.82402">
        <ele>208.2</ele>
        <time>2018-06-21T19:07:40Z</time>
      </trkpt>
      <trkpt lat="43.99176" lon="1.82397">
        <ele>208.5</ele>
        <time>2018-06-21T19:07:41Z</time>
      </trkpt>
      <trkpt lat="43.99177" lon="1.82392">
        <ele>209</ele>
        <time>2018-06-21T19:07:42Z</time>
      </trkpt>
      <trkpt lat="43.99177" lon="1.82387">
        <ele>209.3</ele>
        <time>2018-06-21T19:07:43Z</time>
      </trkpt>
      <trkpt lat="43.99178" lon="1.82383">
        <ele>209.6</ele>
        <time>2018-06-21T19:07:44Z</time>
      </trkpt>
      <trkpt lat="43.99178" lon="1.82379">
        <ele>209.8</ele>
        <time>2018-06-21T19:07:45Z</time>
      </trkpt>
      <trkpt lat="43.99179" lon="1.82374">
        <ele>210</ele>
        <time>2018-06-21T19:07:46Z</time>
      </trkpt>
      <trkpt lat="43.9918" lon="1.8237">
        <ele>210.3</ele>
        <time>2018-06-21T19:07:47Z</time>
      </trkpt>
      <trkpt lat="43.9918" lon="1.82366">
        <ele>210.7</ele>
        <time>2018-06-21T19:07:48Z</time>
      </trkpt>
      <trkpt lat="43.99181" lon="1.82362">
        <ele>210.9</ele>
        <time>2018-06-21T19:07:49Z</time>
      </trkpt>
      <trkpt lat="43.99182" lon="1.82358">
        <ele>211.1</ele>
        <time>2018-06-21T19:07:50Z</time>
      </trkpt>
      <trkpt lat="43.99183" lon="1.82355">
        <ele>211.4</ele>
        <time>2018-06-21T19:07:51Z</time>
      </trkpt>
      <trkpt lat="43.99185" lon="1.82352">
        <ele>211.5</ele>
        <time>2018-06-21T19:07:52Z</time>
      </trkpt>
      <trkpt lat="43.99186" lon="1.82349">
        <ele>211.9</ele>
        <time>2018-06-21T19:07:53Z</time>
      </trkpt>
      <trkpt lat="43.99188" lon="1.82346">
        <ele>212</ele>
        <time>2018-06-21T19:07:54Z</time>
      </trkpt>
      <trkpt lat="43.9919" lon="1.82343">
        <ele>212.4</ele>
        <time>2018-06-21T19:07:55Z</time>
      </trkpt>
      <trkpt lat="43.99192" lon="1.8234">
        <ele>212.4</ele>
        <time>2018-06-21T19:07:56Z</time>
      </trkpt>
      <trkpt lat="43.99196" lon="1.82336">
        <ele>213</ele>
        <time>2018-06-21T19:07:58Z</time>
      </trkpt>
      <trkpt lat="43.99199" lon="1.82334">
        <ele>213.3</ele>
        <time>2018-06-21T19:07:59Z</time>
      </trkpt>
      <trkpt lat="43.99203" lon="1.8233">
        <ele>213.6</ele>
        <time>2018-06-21T19:08:01Z</time>
      </trkpt>
      <trkpt lat="43.99206" lon="1.82327">
        <ele>213.7</ele>
        <time>2018-06-21T19:08:02Z</time>
      </trkpt>
      <trkpt lat="43.99209" lon="1.82325">
        <ele>214</ele>
        <time>2018-06-21T19:08:03Z</time>
      </trkpt>
      <trkpt lat="43.99212" lon="1.82323">
        <ele>214.1</ele>
        <time>2018-06-21T19:08:04Z</time>
      </trkpt>
      <trkpt lat="43.99216" lon="1.82319">
        <ele>214.3</ele>
        <time>2018-06-21T19:08:06Z</time>
      </trkpt>
      <trkpt lat="43.99219" lon="1.82316">
        <ele>214.5</ele>
        <time>2018-06-21T19:08:07Z</time>
      </trkpt>
      <trkpt lat="43.99221" lon="1.82314">
        <ele>214.6</ele>
        <time>2018-06-21T19:08:08Z</time>
      </trkpt>
      <trkpt lat="43.99225" lon="1.8231">
        <ele>214.8</ele>
        <time>2018-06-21T19:08:10Z</time>
      </trkpt>
      <trkpt lat="43.99227" lon="1.82307">
        <ele>215</ele>
        <time>2018-06-21T19:08:11Z</time>
      </trkpt>
      <trkpt lat="43.99229" lon="1.82304">
        <ele>215.1</ele>
        <time>2018-06-21T19:08:12Z</time>
      </trkpt>
      <trkpt lat="43.99231" lon="1.82302">
        <ele>215.2</ele>
        <time>2018-06-21T19:08:13Z</time>
      </trkpt>
      <trkpt lat="43.99233" lon="1.82299">
        <ele>215.3</ele>
        <time>2018-06-21T19:08:14Z</time>
      </trkpt>
      <trkpt lat="43.99236" lon="1.82295">
        <ele>215.5</ele>
        <time>2018-06-21T19:08:16Z</time>
      </trkpt>
      <trkpt lat="43.9924" lon="1.82291">
        <ele>215.6</ele>
        <time>2018-06-21T19:08:18Z</time>
      </trkpt>
      <trkpt lat="43.99243" lon="1.82289">
        <ele>215.7</ele>
        <time>2018-06-21T19:08:19Z</time>
      </trkpt>
      <trkpt lat="43.99246" lon="1.82285">
        <ele>215.8</ele>
        <time>2018-06-21T19:08:21Z</time>
      </trkpt>
      <trkpt lat="43.9925" lon="1.8228">
        <ele>216</ele>
        <time>2018-06-21T19:08:23Z</time>
      </trkpt>
      <trkpt lat="43.99254" lon="1.82277">
        <ele>216.1</ele>
        <time>2018-06-21T19:08:25Z</time>
      </trkpt>
      <trkpt lat="43.99258" lon="1.82273">
        <ele>216.3</ele>
        <time>2018-06-21T19:08:27Z</time>
      </trkpt>
      <trkpt lat="43.99261" lon="1.82271">
        <ele>216.3</ele>
        <time>2018-06-21T19:08:28Z</time>
      </trkpt>
      <trkpt lat="43.99263" lon="1.82269">
        <ele>216.5</ele>
        <time>2018-06-21T19:08:29Z</time>
      </trkpt>
      <trkpt lat="43.99267" lon="1.82269">
        <ele>216.5</ele>
        <time>2018-06-21T19:08:31Z</time>
      </trkpt>
      <trkpt lat="43.99269" lon="1.82275">
        <ele>216.3</ele>
        <time>2018-06-21T19:08:34Z</time>
      </trkpt>
      <trkpt lat="43.99269" lon="1.82279">
        <ele>216.3</ele>
        <time>2018-06-21T19:08:35Z</time>
      </trkpt>
      <trkpt lat="43.9927" lon="1.82284">
        <ele>216.3</ele>
        <time>2018-06-21T19:08:36Z</time>
      </trkpt>
      <trkpt lat="43.99271" lon="1.82289">
        <ele>216.2</ele>
        <time>2018-06-21T19:08:37Z</time>
      </trkpt>
      <trkpt lat="43.99272" lon="1.82294">
        <ele>216.2</ele>
        <time>2018-06-21T19:08:38Z</time>
      </trkpt>
      <trkpt lat="43.99273" lon="1.82301">
        <ele>216.1</ele>
        <time>2018-06-21T19:08:39Z</time>
      </trkpt>
      <trkpt lat="43.99274" lon="1.82308">
        <ele>216</ele>
        <time>2018-06-21T19:08:40Z</time>
      </trkpt>
      <trkpt lat="43.99275" lon="1.82315">
        <ele>216</ele>
        <time>2018-06-21T19:08:41Z</time>
      </trkpt>
      <trkpt lat="43.99277" lon="1.82321">
        <ele>215.9</ele>
        <time>2018-06-21T19:08:42Z</time>
      </trkpt>
      <trkpt lat="43.99278" lon="1.82328">
        <ele>215.9</ele>
        <time>2018-06-21T19:08:43Z</time>
      </trkpt>
      <trkpt lat="43.9928" lon="1.82335">
        <ele>215.8</ele>
        <time>2018-06-21T19:08:44Z</time>
      </trkpt>
      <trkpt lat="43.99281" lon="1.82341">
        <ele>215.7</ele>
        <time>2018-06-21T19:08:45Z</time>
      </trkpt>
      <trkpt lat="43.99282" lon="1.82348">
        <ele>215.5</ele>
        <time>2018-06-21T19:08:46Z</time>
      </trkpt>
      <trkpt lat="43.99284" lon="1.82354">
        <ele>215.5</ele>
        <time>2018-06-21T19:08:47Z</time>
      </trkpt>
      <trkpt lat="43.99286" lon="1.82359">
        <ele>215.4</ele>
        <time>2018-06-21T19:08:48Z</time>
      </trkpt>
      <trkpt lat="43.99288" lon="1.82364">
        <ele>215.2</ele>
        <time>2018-06-21T19:08:49Z</time>
      </trkpt>
      <trkpt lat="43.99292" lon="1.82368">
        <ele>215</ele>
        <time>2018-06-21T19:08:50Z</time>
      </trkpt>
      <trkpt lat="43.99296" lon="1.82369">
        <ele>214.8</ele>
        <time>2018-06-21T19:08:51Z</time>
      </trkpt>
      <trkpt lat="43.993" lon="1.82369">
        <ele>214.6</ele>
        <time>2018-06-21T19:08:52Z</time>
      </trkpt>
      <trkpt lat="43.99305" lon="1.82369">
        <ele>214.4</ele>
        <time>2018-06-21T19:08:53Z</time>
      </trkpt>
      <trkpt lat="43.99309" lon="1.82368">
        <ele>214.4</ele>
        <time>2018-06-21T19:08:54Z</time>
      </trkpt>
      <trkpt lat="43.99313" lon="1.82366">
        <ele>214.1</ele>
        <time>2018-06-21T19:08:55Z</time>
      </trkpt>
      <trkpt lat="43.99317" lon="1.82364">
        <ele>214.1</ele>
        <time>2018-06-21T19:08:56Z</time>
      </trkpt>
      <trkpt lat="43.99321" lon="1.82362">
        <ele>213.9</ele>
        <time>2018-06-21T19:08:57Z</time>
      </trkpt>
      <trkpt lat="43.99325" lon="1.8236">
        <ele>213.7</ele>
        <time>2018-06-21T19:08:58Z</time>
      </trkpt>
      <trkpt lat="43.99328" lon="1.82358">
        <ele>213.4</ele>
        <time>2018-06-21T19:08:59Z</time>
      </trkpt>
      <trkpt lat="43.99332" lon="1.82357">
        <ele>213.2</ele>
        <time>2018-06-21T19:09:00Z</time>
      </trkpt>
      <trkpt lat="43.99336" lon="1.82355">
        <ele>213.1</ele>
        <time>2018-06-21T19:09:01Z</time>
      </trkpt>
      <trkpt lat="43.9934" lon="1.82353">
        <ele>212.9</ele>
        <time>2018-06-21T19:09:02Z</time>
      </trkpt>
      <trkpt lat="43.99344" lon="1.82353">
        <ele>212.5</ele>
        <time>2018-06-21T19:09:03Z</time>
      </trkpt>
      <trkpt lat="43.99348" lon="1.82352">
        <ele>212.3</ele>
        <time>2018-06-21T19:09:04Z</time>
      </trkpt>
      <trkpt lat="43.99352" lon="1.82351">
        <ele>212.3</ele>
        <time>2018-06-21T19:09:05Z</time>
      </trkpt>
      <trkpt lat="43.99356" lon="1.8235">
        <ele>211.8</ele>
        <time>2018-06-21T19:09:06Z</time>
      </trkpt>
      <trkpt lat="43.9936" lon="1.82349">
        <ele>211.6</ele>
        <time>2018-06-21T19:09:07Z</time>
      </trkpt>
      <trkpt lat="43.99364" lon="1.82348">
        <ele>211.3</ele>
        <time>2018-06-21T19:09:08Z</time>
      </trkpt>
      <trkpt lat="43.99368" lon="1.82346">
        <ele>211.1</ele>
        <time>2018-06-21T19:09:09Z</time>
      </trkpt>
      <trkpt lat="43.99373" lon="1.82344">
        <ele>210.8</ele>
        <time>2018-06-21T19:09:10Z</time>
      </trkpt>
      <trkpt lat="43.99376" lon="1.82342">
        <ele>210.8</ele>
        <time>2018-06-21T19:09:11Z</time>
      </trkpt>
      <trkpt lat="43.9938" lon="1.8234">
        <ele>210.3</ele>
        <time>2018-06-21T19:09:12Z</time>
      </trkpt>
      <trkpt lat="43.99385" lon="1.82337">
        <ele>210.3</ele>
        <time>2018-06-21T19:09:13Z</time>
      </trkpt>
      <trkpt lat="43.99389" lon="1.82335">
        <ele>210</ele>
        <time>2018-06-21T19:09:14Z</time>
      </trkpt>
      <trkpt lat="43.99393" lon="1.82332">
        <ele>209.7</ele>
        <time>2018-06-21T19:09:15Z</time>
      </trkpt>
      <trkpt lat="43.99397" lon="1.8233">
        <ele>209.6</ele>
        <time>2018-06-21T19:09:16Z</time>
      </trkpt>
      <trkpt lat="43.99401" lon="1.82328">
        <ele>209.4</ele>
        <time>2018-06-21T19:09:17Z</time>
      </trkpt>
      <trkpt lat="43.99405" lon="1.82326">
        <ele>209.4</ele>
        <time>2018-06-21T19:09:18Z</time>
      </trkpt>
      <trkpt lat="43.99409" lon="1.82323">
        <ele>208.8</ele>
        <time>2018-06-21T19:09:19Z</time>
      </trkpt>
      <trkpt lat="43.99412" lon="1.82322">
        <ele>208.4</ele>
        <time>2018-06-21T19:09:20Z</time>
      </trkpt>
      <trkpt lat="43.99415" lon="1.82319">
        <ele>208.4</ele>
        <time>2018-06-21T19:09:21Z</time>
      </trkpt>
      <trkpt lat="43.99418" lon="1.82317">
        <ele>208.5</ele>
        <time>2018-06-21T19:09:22Z</time>
      </trkpt>
      <trkpt lat="43.99422" lon="1.82315">
        <ele>208.2</ele>
        <time>2018-06-21T19:09:23Z</time>
      </trkpt>
      <trkpt lat="43.99425" lon="1.82312">
        <ele>208.3</ele>
        <time>2018-06-21T19:09:24Z</time>
      </trkpt>
      <trkpt lat="43.99429" lon="1.8231">
        <ele>208.1</ele>
        <time>2018-06-21T19:09:25Z</time>
      </trkpt>
      <trkpt lat="43.99432" lon="1.82308">
        <ele>208.3</ele>
        <time>2018-06-21T19:09:26Z</time>
      </trkpt>
      <trkpt lat="43.99435" lon="1.82306">
        <ele>208.2</ele>
        <time>2018-06-21T19:09:27Z</time>
      </trkpt>
      <trkpt lat="43.99439" lon="1.82303">
        <ele>208.4</ele>
        <time>2018-06-21T19:09:28Z</time>
      </trkpt>
      <trkpt lat="43.99443" lon="1.82301">
        <ele>208.3</ele>
        <time>2018-06-21T19:09:29Z</time>
      </trkpt>
      <trkpt lat="43.99447" lon="1.82299">
        <ele>208.7</ele>
        <time>2018-06-21T19:09:30Z</time>
      </trkpt>
      <trkpt lat="43.9945" lon="1.82297">
        <ele>208.6</ele>
        <time>2018-06-21T19:09:31Z</time>
      </trkpt>
      <trkpt lat="43.99454" lon="1.82295">
        <ele>209</ele>
        <time>2018-06-21T19:09:32Z</time>
      </trkpt>
      <trkpt lat="43.99457" lon="1.82293">
        <ele>209</ele>
        <time>2018-06-21T19:09:33Z</time>
      </trkpt>
      <trkpt lat="43.9946" lon="1.82291">
        <ele>209.5</ele>
        <time>2018-06-21T19:09:34Z</time>
      </trkpt>
      <trkpt lat="43.99464" lon="1.82288">
        <ele>209.4</ele>
        <time>2018-06-21T19:09:35Z</time>
      </trkpt>
      <trkpt lat="43.99468" lon="1.82286">
        <ele>209.8</ele>
        <time>2018-06-21T19:09:36Z</time>
      </trkpt>
      <trkpt lat="43.99471" lon="1.82284">
        <ele>209.8</ele>
        <time>2018-06-21T19:09:37Z</time>
      </trkpt>
      <trkpt lat="43.99475" lon="1.82282">
        <ele>210.3</ele>
        <time>2018-06-21T19:09:38Z</time>
      </trkpt>
      <trkpt lat="43.99479" lon="1.8228">
        <ele>210.3</ele>
        <time>2018-06-21T19:09:39Z</time>
      </trkpt>
      <trkpt lat="43.99483" lon="1.82277">
        <ele>210.7</ele>
        <time>2018-06-21T19:09:40Z</time>
      </trkpt>
      <trkpt lat="43.99487" lon="1.82275">
        <ele>210.8</ele>
        <time>2018-06-21T19:09:41Z</time>
      </trkpt>
      <trkpt lat="43.99491" lon="1.82273">
        <ele>211.3</ele>
        <time>2018-06-21T19:09:42Z</time>
      </trkpt>
      <trkpt lat="43.99496" lon="1.82271">
        <ele>211.4</ele>
        <time>2018-06-21T19:09:43Z</time>
      </trkpt>
      <trkpt lat="43.995" lon="1.82269">
        <ele>212</ele>
        <time>2018-06-21T19:09:44Z</time>
      </trkpt>
      <trkpt lat="43.99505" lon="1.82267">
        <ele>212.1</ele>
        <time>2018-06-21T19:09:45Z</time>
      </trkpt>
      <trkpt lat="43.99509" lon="1.82264">
        <ele>212.7</ele>
        <time>2018-06-21T19:09:46Z</time>
      </trkpt>
      <trkpt lat="43.99514" lon="1.82262">
        <ele>212.9</ele>
        <time>2018-06-21T19:09:47Z</time>
      </trkpt>
      <trkpt lat="43.99519" lon="1.82259">
        <ele>213.4</ele>
        <time>2018-06-21T19:09:48Z</time>
      </trkpt>
      <trkpt lat="43.99524" lon="1.82257">
        <ele>213.9</ele>
        <time>2018-06-21T19:09:49Z</time>
      </trkpt>
      <trkpt lat="43.99528" lon="1.82255">
        <ele>214</ele>
        <time>2018-06-21T19:09:50Z</time>
      </trkpt>
      <trkpt lat="43.99533" lon="1.82252">
        <ele>214.4</ele>
        <time>2018-06-21T19:09:51Z</time>
      </trkpt>
      <trkpt lat="43.99537" lon="1.8225">
        <ele>214.5</ele>
        <time>2018-06-21T19:09:52Z</time>
      </trkpt>
      <trkpt lat="43.99542" lon="1.82249">
        <ele>214.6</ele>
        <time>2018-06-21T19:09:53Z</time>
      </trkpt>
      <trkpt lat="43.99545" lon="1.82247">
        <ele>215</ele>
        <time>2018-06-21T19:09:54Z</time>
      </trkpt>
      <trkpt lat="43.99549" lon="1.82246">
        <ele>215</ele>
        <time>2018-06-21T19:09:55Z</time>
      </trkpt>
      <trkpt lat="43.99552" lon="1.82245">
        <ele>215</ele>
        <time>2018-06-21T19:09:56Z</time>
      </trkpt>
      <trkpt lat="43.99555" lon="1.82244">
        <ele>215</ele>
        <time>2018-06-21T19:09:57Z</time>
      </trkpt>
      <trkpt lat="43.99559" lon="1.82243">
        <ele>214.8</ele>
        <time>2018-06-21T19:09:59Z</time>
      </trkpt>
      <trkpt lat="43.99564" lon="1.82242">
        <ele>214.5</ele>
        <time>2018-06-21T19:10:01Z</time>
      </trkpt>
      <trkpt lat="43.99568" lon="1.82243">
        <ele>214.2</ele>
        <time>2018-06-21T19:10:03Z</time>
      </trkpt>
      <trkpt lat="43.9957" lon="1.82245">
        <ele>214.1</ele>
        <time>2018-06-21T19:10:04Z</time>
      </trkpt>
      <trkpt lat="43.99572" lon="1.82249">
        <ele>214</ele>
        <time>2018-06-21T19:10:05Z</time>
      </trkpt>
      <trkpt lat="43.99573" lon="1.82253">
        <ele>213.8</ele>
        <time>2018-06-21T19:10:06Z</time>
      </trkpt>
      <trkpt lat="43.99575" lon="1.82259">
        <ele>213.5</ele>
        <time>2018-06-21T19:10:07Z</time>
      </trkpt>
      <trkpt lat="43.99576" lon="1.82265">
        <ele>213.3</ele>
        <time>2018-06-21T19:10:08Z</time>
      </trkpt>
      <trkpt lat="43.99577" lon="1.82271">
        <ele>213.1</ele>
        <time>2018-06-21T19:10:09Z</time>
      </trkpt>
      <trkpt lat="43.99579" lon="1.82278">
        <ele>212.9</ele>
        <time>2018-06-21T19:10:10Z</time>
      </trkpt>
      <trkpt lat="43.99582" lon="1.82283">
        <ele>212.6</ele>
        <time>2018-06-21T19:10:11Z</time>
      </trkpt>
      <trkpt lat="43.99586" lon="1.82285">
        <ele>212.5</ele>
        <time>2018-06-21T19:10:12Z</time>
      </trkpt>
      <trkpt lat="43.99589" lon="1.82287">
        <ele>212.4</ele>
        <time>2018-06-21T19:10:13Z</time>
      </trkpt>
      <trkpt lat="43.99593" lon="1.82289">
        <ele>212.3</ele>
        <time>2018-06-21T19:10:14Z</time>
      </trkpt>
      <trkpt lat="43.99597" lon="1.82293">
        <ele>212.1</ele>
        <time>2018-06-21T19:10:15Z</time>
      </trkpt>
      <trkpt lat="43.996" lon="1.82298">
        <ele>211.8</ele>
        <time>2018-06-21T19:10:16Z</time>
      </trkpt>
      <trkpt lat="43.99603" lon="1.82305">
        <ele>211.4</ele>
        <time>2018-06-21T19:10:17Z</time>
      </trkpt>
      <trkpt lat="43.99606" lon="1.82313">
        <ele>211</ele>
        <time>2018-06-21T19:10:18Z</time>
      </trkpt>
      <trkpt lat="43.99609" lon="1.82322">
        <ele>210.8</ele>
        <time>2018-06-21T19:10:19Z</time>
      </trkpt>
      <trkpt lat="43.99613" lon="1.82331">
        <ele>210.5</ele>
        <time>2018-06-21T19:10:20Z</time>
      </trkpt>
      <trkpt lat="43.99616" lon="1.82339">
        <ele>210.4</ele>
        <time>2018-06-21T19:10:21Z</time>
      </trkpt>
      <trkpt lat="43.99622" lon="1.82344">
        <ele>210.2</ele>
        <time>2018-06-21T19:10:22Z</time>
      </trkpt>
      <trkpt lat="43.99628" lon="1.82348">
        <ele>210.2</ele>
        <time>2018-06-21T19:10:23Z</time>
      </trkpt>
      <trkpt lat="43.99634" lon="1.82349">
        <ele>210.1</ele>
        <time>2018-06-21T19:10:24Z</time>
      </trkpt>
      <trkpt lat="43.99641" lon="1.82349">
        <ele>210</ele>
        <time>2018-06-21T19:10:25Z</time>
      </trkpt>
      <trkpt lat="43.99646" lon="1.82348">
        <ele>210.3</ele>
        <time>2018-06-21T19:10:26Z</time>
      </trkpt>
      <trkpt lat="43.99652" lon="1.82345">
        <ele>210.5</ele>
        <time>2018-06-21T19:10:27Z</time>
      </trkpt>
      <trkpt lat="43.99656" lon="1.82341">
        <ele>210.7</ele>
        <time>2018-06-21T19:10:28Z</time>
      </trkpt>
      <trkpt lat="43.99661" lon="1.82339">
        <ele>210.7</ele>
        <time>2018-06-21T19:10:29Z</time>
      </trkpt>
      <trkpt lat="43.99665" lon="1.82341">
        <ele>210.4</ele>
        <time>2018-06-21T19:10:30Z</time>
      </trkpt>
      <trkpt lat="43.99669" lon="1.82347">
        <ele>210</ele>
        <time>2018-06-21T19:10:31Z</time>
      </trkpt>
      <trkpt lat="43.99672" lon="1.82354">
        <ele>209.6</ele>
        <time>2018-06-21T19:10:32Z</time>
      </trkpt>
      <trkpt lat="43.99675" lon="1.82364">
        <ele>209.2</ele>
        <time>2018-06-21T19:10:33Z</time>
      </trkpt>
      <trkpt lat="43.99678" lon="1.82373">
        <ele>208.8</ele>
        <time>2018-06-21T19:10:34Z</time>
      </trkpt>
      <trkpt lat="43.99683" lon="1.82382">
        <ele>208.4</ele>
        <time>2018-06-21T19:10:35Z</time>
      </trkpt>
      <trkpt lat="43.99687" lon="1.82392">
        <ele>208.5</ele>
        <time>2018-06-21T19:10:36Z</time>
      </trkpt>
      <trkpt lat="43.99693" lon="1.82401">
        <ele>208.5</ele>
        <time>2018-06-21T19:10:37Z</time>
      </trkpt>
      <trkpt lat="43.99698" lon="1.82408">
        <ele>209</ele>
        <time>2018-06-21T19:10:38Z</time>
      </trkpt>
      <trkpt lat="43.99704" lon="1.82414">
        <ele>209.2</ele>
        <time>2018-06-21T19:10:39Z</time>
      </trkpt>
      <trkpt lat="43.99707" lon="1.8242">
        <ele>209.6</ele>
        <time>2018-06-21T19:10:40Z</time>
      </trkpt>
      <trkpt lat="43.99711" lon="1.82424">
        <ele>209.9</ele>
        <time>2018-06-21T19:10:41Z</time>
      </trkpt>
      <trkpt lat="43.99715" lon="1.82426">
        <ele>210</ele>
        <time>2018-06-21T19:10:42Z</time>
      </trkpt>
      <trkpt lat="43.99718" lon="1.82425">
        <ele>210.3</ele>
        <time>2018-06-21T19:10:43Z</time>
      </trkpt>
      <trkpt lat="43.99721" lon="1.82421">
        <ele>210.6</ele>
        <time>2018-06-21T19:10:44Z</time>
      </trkpt>
      <trkpt lat="43.99723" lon="1.82417">
        <ele>210.5</ele>
        <time>2018-06-21T19:10:45Z</time>
      </trkpt>
      <trkpt lat="43.99725" lon="1.82413">
        <ele>210.5</ele>
        <time>2018-06-21T19:10:46Z</time>
      </trkpt>
      <trkpt lat="43.99726" lon="1.82409">
        <ele>210.4</ele>
        <time>2018-06-21T19:10:47Z</time>
      </trkpt>
      <trkpt lat="43.99728" lon="1.82405">
        <ele>210.4</ele>
        <time>2018-06-21T19:10:48Z</time>
      </trkpt>
      <trkpt lat="43.99731" lon="1.82401">
        <ele>210.4</ele>
        <time>2018-06-21T19:10:49Z</time>
      </trkpt>
      <trkpt lat="43.99733" lon="1.82398">
        <ele>210.5</ele>
        <time>2018-06-21T19:10:50Z</time>
      </trkpt>
      <trkpt lat="43.99734" lon="1.82394">
        <ele>210.6</ele>
        <time>2018-06-21T19:10:51Z</time>
      </trkpt>
      <trkpt lat="43.99736" lon="1.8239">
        <ele>210.6</ele>
        <time>2018-06-21T19:10:52Z</time>
      </trkpt>
      <trkpt lat="43.99738" lon="1.82387">
        <ele>210.7</ele>
        <time>2018-06-21T19:10:53Z</time>
      </trkpt>
      <trkpt lat="43.99739" lon="1.82384">
        <ele>210.7</ele>
        <time>2018-06-21T19:10:54Z</time>
      </trkpt>
      <trkpt lat="43.99741" lon="1.8238">
        <ele>210.8</ele>
        <time>2018-06-21T19:10:55Z</time>
      </trkpt>
      <trkpt lat="43.99744" lon="1.82375">
        <ele>210.9</ele>
        <time>2018-06-21T19:10:57Z</time>
      </trkpt>
      <trkpt lat="43.99747" lon="1.82369">
        <ele>210.9</ele>
        <time>2018-06-21T19:10:59Z</time>
      </trkpt>
      <trkpt lat="43.9975" lon="1.82364">
        <ele>210.9</ele>
        <time>2018-06-21T19:11:01Z</time>
      </trkpt>
      <trkpt lat="43.99753" lon="1.82358">
        <ele>211.1</ele>
        <time>2018-06-21T19:11:03Z</time>
      </trkpt>
      <trkpt lat="43.99755" lon="1.82356">
        <ele>211.2</ele>
        <time>2018-06-21T19:11:04Z</time>
      </trkpt>
      <trkpt lat="43.99759" lon="1.82351">
        <ele>211.3</ele>
        <time>2018-06-21T19:11:06Z</time>
      </trkpt>
      <trkpt lat="43.99762" lon="1.82346">
        <ele>211.5</ele>
        <time>2018-06-21T19:11:08Z</time>
      </trkpt>
      <trkpt lat="43.99765" lon="1.82341">
        <ele>211.7</ele>
        <time>2018-06-21T19:11:10Z</time>
      </trkpt>
      <trkpt lat="43.99769" lon="1.82336">
        <ele>211.7</ele>
        <time>2018-06-21T19:11:12Z</time>
      </trkpt>
      <trkpt lat="43.99773" lon="1.82333">
        <ele>211.8</ele>
        <time>2018-06-21T19:11:14Z</time>
      </trkpt>
      <trkpt lat="43.99776" lon="1.8233">
        <ele>212.2</ele>
        <time>2018-06-21T19:11:16Z</time>
      </trkpt>
      <trkpt lat="43.9978" lon="1.82329">
        <ele>212.6</ele>
        <time>2018-06-21T19:11:18Z</time>
      </trkpt>
      <trkpt lat="43.99785" lon="1.8233">
        <ele>212.9</ele>
        <time>2018-06-21T19:11:20Z</time>
      </trkpt>
      <trkpt lat="43.99787" lon="1.82335">
        <ele>213</ele>
        <time>2018-06-21T19:11:22Z</time>
      </trkpt>
      <trkpt lat="43.99788" lon="1.82341">
        <ele>213.4</ele>
        <time>2018-06-21T19:11:24Z</time>
      </trkpt>
      <trkpt lat="43.99789" lon="1.82347">
        <ele>213.7</ele>
        <time>2018-06-21T19:11:26Z</time>
      </trkpt>
      <trkpt lat="43.9979" lon="1.82353">
        <ele>213.7</ele>
        <time>2018-06-21T19:11:28Z</time>
      </trkpt>
      <trkpt lat="43.99791" lon="1.82359">
        <ele>213.9</ele>
        <time>2018-06-21T19:11:30Z</time>
      </trkpt>
      <trkpt lat="43.99791" lon="1.82365">
        <ele>214.2</ele>
        <time>2018-06-21T19:11:32Z</time>
      </trkpt>
      <trkpt lat="43.99791" lon="1.82371">
        <ele>214.4</ele>
        <time>2018-06-21T19:11:34Z</time>
      </trkpt>
      <trkpt lat="43.9979" lon="1.82378">
        <ele>214.5</ele>
        <time>2018-06-21T19:11:36Z</time>
      </trkpt>
      <trkpt lat="43.99789" lon="1.82385">
        <ele>214.6</ele>
        <time>2018-06-21T19:11:38Z</time>
      </trkpt>
      <trkpt lat="43.99789" lon="1.82391">
        <ele>214.6</ele>
        <time>2018-06-21T19:11:40Z</time>
      </trkpt>
      <trkpt lat="43.99789" lon="1.82398">
        <ele>214.9</ele>
        <time>2018-06-21T19:11:42Z</time>
      </trkpt>
      <trkpt lat="43.99788" lon="1.82404">
        <ele>215</ele>
        <time>2018-06-21T19:11:44Z</time>
      </trkpt>
      <trkpt lat="43.99787" lon="1.8241">
        <ele>214.9</ele>
        <time>2018-06-21T19:11:46Z</time>
      </trkpt>
      <trkpt lat="43.99786" lon="1.82416">
        <ele>214.9</ele>
        <time>2018-06-21T19:11:48Z</time>
      </trkpt>
      <trkpt lat="43.99786" lon="1.82422">
        <ele>215.1</ele>
        <time>2018-06-21T19:11:50Z</time>
      </trkpt>
      <trkpt lat="43.99785" lon="1.82428">
        <ele>215.2</ele>
        <time>2018-06-21T19:11:52Z</time>
      </trkpt>
      <trkpt lat="43.99784" lon="1.82435">
        <ele>215.2</ele>
        <time>2018-06-21T19:11:54Z</time>
      </trkpt>
      <trkpt lat="43.99783" lon="1.82442">
        <ele>215.2</ele>
        <time>2018-06-21T19:11:56Z</time>
      </trkpt>
      <trkpt lat="43.99782" lon="1.82448">
        <ele>215.1</ele>
        <time>2018-06-21T19:11:58Z</time>
      </trkpt>
      <trkpt lat="43.9978" lon="1.82455">
        <ele>215.2</ele>
        <time>2018-06-21T19:12:00Z</time>
      </trkpt>
      <trkpt lat="43.99779" lon="1.82459">
        <ele>215.3</ele>
        <time>2018-06-21T19:12:01Z</time>
      </trkpt>
      <trkpt lat="43.99778" lon="1.82462">
        <ele>215.4</ele>
        <time>2018-06-21T19:12:02Z</time>
      </trkpt>
      <trkpt lat="43.99777" lon="1.82468">
        <ele>215.2</ele>
        <time>2018-06-21T19:12:04Z</time>
      </trkpt>
      <trkpt lat="43.99776" lon="1.82475">
        <ele>215</ele>
        <time>2018-06-21T19:12:06Z</time>
      </trkpt>
      <trkpt lat="43.99777" lon="1.82479">
        <ele>215.5</ele>
        <time>2018-06-21T19:12:07Z</time>
      </trkpt>
      <trkpt lat="43.99779" lon="1.82485">
        <ele>216.3</ele>
        <time>2018-06-21T19:12:09Z</time>
      </trkpt>
      <trkpt lat="43.99783" lon="1.8249">
        <ele>217.1</ele>
        <time>2018-06-21T19:12:11Z</time>
      </trkpt>
      <trkpt lat="43.99786" lon="1.82492">
        <ele>217.6</ele>
        <time>2018-06-21T19:12:12Z</time>
      </trkpt>
      <trkpt lat="43.9979" lon="1.82497">
        <ele>218.5</ele>
        <time>2018-06-21T19:12:14Z</time>
      </trkpt>
      <trkpt lat="43.99794" lon="1.82501">
        <ele>219.4</ele>
        <time>2018-06-21T19:12:16Z</time>
      </trkpt>
      <trkpt lat="43.99797" lon="1.82506">
        <ele>220.2</ele>
        <time>2018-06-21T19:12:18Z</time>
      </trkpt>
      <trkpt lat="43.998" lon="1.82512">
        <ele>221</ele>
        <time>2018-06-21T19:12:20Z</time>
      </trkpt>
      <trkpt lat="43.99802" lon="1.82515">
        <ele>221.5</ele>
        <time>2018-06-21T19:12:21Z</time>
      </trkpt>
      <trkpt lat="43.99803" lon="1.82518">
        <ele>222</ele>
        <time>2018-06-21T19:12:22Z</time>
      </trkpt>
      <trkpt lat="43.99806" lon="1.82524">
        <ele>222.7</ele>
        <time>2018-06-21T19:12:24Z</time>
      </trkpt>
      <trkpt lat="43.99808" lon="1.8253">
        <ele>223.3</ele>
        <time>2018-06-21T19:12:26Z</time>
      </trkpt>
      <trkpt lat="43.99811" lon="1.82537">
        <ele>223.8</ele>
        <time>2018-06-21T19:12:28Z</time>
      </trkpt>
      <trkpt lat="43.99814" lon="1.82543">
        <ele>224.2</ele>
        <time>2018-06-21T19:12:30Z</time>
      </trkpt>
      <trkpt lat="43.99816" lon="1.82549">
        <ele>224.6</ele>
        <time>2018-06-21T19:12:32Z</time>
      </trkpt>
      <trkpt lat="43.99817" lon="1.82552">
        <ele>224.8</ele>
        <time>2018-06-21T19:12:33Z</time>
      </trkpt>
      <trkpt lat="43.99818" lon="1.82556">
        <ele>224.9</ele>
        <time>2018-06-21T19:12:34Z</time>
      </trkpt>
      <trkpt lat="43.99819" lon="1.82559">
        <ele>225.1</ele>
        <time>2018-06-21T19:12:35Z</time>
      </trkpt>
      <trkpt lat="43.9982" lon="1.82563">
        <ele>225.2</ele>
        <time>2018-06-21T19:12:36Z</time>
      </trkpt>
      <trkpt lat="43.99821" lon="1.82566">
        <ele>225.5</ele>
        <time>2018-06-21T19:12:37Z</time>
      </trkpt>
      <trkpt lat="43.99822" lon="1.8257">
        <ele>225.8</ele>
        <time>2018-06-21T19:12:38Z</time>
      </trkpt>
      <trkpt lat="43.99824" lon="1.82573">
        <ele>226.1</ele>
        <time>2018-06-21T19:12:39Z</time>
      </trkpt>
      <trkpt lat="43.99826" lon="1.8258">
        <ele>226.4</ele>
        <time>2018-06-21T19:12:41Z</time>
      </trkpt>
      <trkpt lat="43.99827" lon="1.82584">
        <ele>226.5</ele>
        <time>2018-06-21T19:12:42Z</time>
      </trkpt>
      <trkpt lat="43.99829" lon="1.82587">
        <ele>226.7</ele>
        <time>2018-06-21T19:12:43Z</time>
      </trkpt>
      <trkpt lat="43.9983" lon="1.82591">
        <ele>227</ele>
        <time>2018-06-21T19:12:44Z</time>
      </trkpt>
      <trkpt lat="43.99831" lon="1.82595">
        <ele>227.2</ele>
        <time>2018-06-21T19:12:45Z</time>
      </trkpt>
      <trkpt lat="43.99833" lon="1.82598">
        <ele>227.4</ele>
        <time>2018-06-21T19:12:46Z</time>
      </trkpt>
      <trkpt lat="43.99834" lon="1.82602">
        <ele>227.6</ele>
        <time>2018-06-21T19:12:47Z</time>
      </trkpt>
      <trkpt lat="43.99835" lon="1.82606">
        <ele>227.8</ele>
        <time>2018-06-21T19:12:48Z</time>
      </trkpt>
      <trkpt lat="43.99836" lon="1.82609">
        <ele>228</ele>
        <time>2018-06-21T19:12:49Z</time>
      </trkpt>
      <trkpt lat="43.99837" lon="1.82613">
        <ele>228.2</ele>
        <time>2018-06-21T19:12:50Z</time>
      </trkpt>
      <trkpt lat="43.99838" lon="1.82616">
        <ele>228.4</ele>
        <time>2018-06-21T19:12:51Z</time>
      </trkpt>
      <trkpt lat="43.9984" lon="1.8262">
        <ele>228.6</ele>
        <time>2018-06-21T19:12:52Z</time>
      </trkpt>
      <trkpt lat="43.99841" lon="1.82623">
        <ele>228.7</ele>
        <time>2018-06-21T19:12:53Z</time>
      </trkpt>
      <trkpt lat="43.99843" lon="1.8263">
        <ele>228.9</ele>
        <time>2018-06-21T19:12:55Z</time>
      </trkpt>
      <trkpt lat="43.99844" lon="1.82635">
        <ele>229</ele>
        <time>2018-06-21T19:12:57Z</time>
      </trkpt>
      <trkpt lat="43.99846" lon="1.82642">
        <ele>229</ele>
        <time>2018-06-21T19:12:59Z</time>
      </trkpt>
      <trkpt lat="43.99847" lon="1.82648">
        <ele>229</ele>
        <time>2018-06-21T19:13:01Z</time>
      </trkpt>
      <trkpt lat="43.99848" lon="1.82653">
        <ele>229</ele>
        <time>2018-06-21T19:13:03Z</time>
      </trkpt>
      <trkpt lat="43.99848" lon="1.82658">
        <ele>229</ele>
        <time>2018-06-21T19:13:05Z</time>
      </trkpt>
      <trkpt lat="43.99846" lon="1.82662">
        <ele>229</ele>
        <time>2018-06-21T19:13:07Z</time>
      </trkpt>
      <trkpt lat="43.99844" lon="1.82665">
        <ele>229</ele>
        <time>2018-06-21T19:13:09Z</time>
      </trkpt>
      <trkpt lat="43.99841" lon="1.82668">
        <ele>228.9</ele>
        <time>2018-06-21T19:13:11Z</time>
      </trkpt>
      <trkpt lat="43.99837" lon="1.8267">
        <ele>228.8</ele>
        <time>2018-06-21T19:13:13Z</time>
      </trkpt>
      <trkpt lat="43.99833" lon="1.82675">
        <ele>228.6</ele>
        <time>2018-06-21T19:13:15Z</time>
      </trkpt>
      <trkpt lat="43.99829" lon="1.82681">
        <ele>228.5</ele>
        <time>2018-06-21T19:13:17Z</time>
      </trkpt>
      <trkpt lat="43.99826" lon="1.82686">
        <ele>228.2</ele>
        <time>2018-06-21T19:13:19Z</time>
      </trkpt>
      <trkpt lat="43.99823" lon="1.82691">
        <ele>228</ele>
        <time>2018-06-21T19:13:21Z</time>
      </trkpt>
      <trkpt lat="43.99819" lon="1.82697">
        <ele>227.8</ele>
        <time>2018-06-21T19:13:23Z</time>
      </trkpt>
      <trkpt lat="43.99816" lon="1.82701">
        <ele>227.6</ele>
        <time>2018-06-21T19:13:25Z</time>
      </trkpt>
      <trkpt lat="43.99813" lon="1.82706">
        <ele>227.4</ele>
        <time>2018-06-21T19:13:27Z</time>
      </trkpt>
      <trkpt lat="43.99811" lon="1.82709">
        <ele>227.4</ele>
        <time>2018-06-21T19:13:28Z</time>
      </trkpt>
      <trkpt lat="43.9981" lon="1.82713">
        <ele>227.3</ele>
        <time>2018-06-21T19:13:29Z</time>
      </trkpt>
      <trkpt lat="43.99808" lon="1.82716">
        <ele>227.2</ele>
        <time>2018-06-21T19:13:30Z</time>
      </trkpt>
      <trkpt lat="43.99806" lon="1.82719">
        <ele>227.1</ele>
        <time>2018-06-21T19:13:31Z</time>
      </trkpt>
      <trkpt lat="43.99804" lon="1.82722">
        <ele>227</ele>
        <time>2018-06-21T19:13:32Z</time>
      </trkpt>
      <trkpt lat="43.99802" lon="1.82725">
        <ele>226.9</ele>
        <time>2018-06-21T19:13:33Z</time>
      </trkpt>
      <trkpt lat="43.998" lon="1.82728">
        <ele>226.7</ele>
        <time>2018-06-21T19:13:34Z</time>
      </trkpt>
      <trkpt lat="43.99798" lon="1.82732">
        <ele>226.6</ele>
        <time>2018-06-21T19:13:35Z</time>
      </trkpt>
      <trkpt lat="43.99796" lon="1.82735">
        <ele>226.5</ele>
        <time>2018-06-21T19:13:36Z</time>
      </trkpt>
      <trkpt lat="43.99794" lon="1.82738">
        <ele>226.5</ele>
        <time>2018-06-21T19:13:37Z</time>
      </trkpt>
      <trkpt lat="43.99792" lon="1.82741">
        <ele>226.4</ele>
        <time>2018-06-21T19:13:38Z</time>
      </trkpt>
      <trkpt lat="43.9979" lon="1.82745">
        <ele>226.2</ele>
        <time>2018-06-21T19:13:39Z</time>
      </trkpt>
      <trkpt lat="43.99788" lon="1.82748">
        <ele>226.1</ele>
        <time>2018-06-21T19:13:40Z</time>
      </trkpt>
      <trkpt lat="43.99785" lon="1.82752">
        <ele>225.9</ele>
        <time>2018-06-21T19:13:42Z</time>
      </trkpt>
      <trkpt lat="43.99782" lon="1.82757">
        <ele>225.6</ele>
        <time>2018-06-21T19:13:44Z</time>
      </trkpt>
      <trkpt lat="43.99779" lon="1.82762">
        <ele>225.4</ele>
        <time>2018-06-21T19:13:46Z</time>
      </trkpt>
      <trkpt lat="43.99775" lon="1.82768">
        <ele>225.1</ele>
        <time>2018-06-21T19:13:48Z</time>
      </trkpt>
      <trkpt lat="43.99773" lon="1.8277">
        <ele>224.9</ele>
        <time>2018-06-21T19:13:49Z</time>
      </trkpt>
      <trkpt lat="43.99771" lon="1.82773">
        <ele>224.8</ele>
        <time>2018-06-21T19:13:50Z</time>
      </trkpt>
      <trkpt lat="43.99768" lon="1.82775">
        <ele>224.6</ele>
        <time>2018-06-21T19:13:51Z</time>
      </trkpt>
      <trkpt lat="43.99765" lon="1.82778">
        <ele>224.5</ele>
        <time>2018-06-21T19:13:52Z</time>
      </trkpt>
      <trkpt lat="43.99762" lon="1.82781">
        <ele>224.3</ele>
        <time>2018-06-21T19:13:53Z</time>
      </trkpt>
      <trkpt lat="43.9976" lon="1.82785">
        <ele>224.1</ele>
        <time>2018-06-21T19:13:54Z</time>
      </trkpt>
      <trkpt lat="43.99757" lon="1.82788">
        <ele>223.9</ele>
        <time>2018-06-21T19:13:55Z</time>
      </trkpt>
      <trkpt lat="43.99755" lon="1.82792">
        <ele>223.7</ele>
        <time>2018-06-21T19:13:56Z</time>
      </trkpt>
      <trkpt lat="43.99753" lon="1.82797">
        <ele>223.5</ele>
        <time>2018-06-21T19:13:57Z</time>
      </trkpt>
      <trkpt lat="43.99752" lon="1.82802">
        <ele>223.3</ele>
        <time>2018-06-21T19:13:58Z</time>
      </trkpt>
      <trkpt lat="43.99751" lon="1.82807">
        <ele>223.2</ele>
        <time>2018-06-21T19:13:59Z</time>
      </trkpt>
      <trkpt lat="43.99751" lon="1.82811">
        <ele>223.1</ele>
        <time>2018-06-21T19:14:00Z</time>
      </trkpt>
      <trkpt lat="43.99751" lon="1.82818">
        <ele>222.8</ele>
        <time>2018-06-21T19:14:02Z</time>
      </trkpt>
      <trkpt lat="43.99749" lon="1.82826">
        <ele>222.6</ele>
        <time>2018-06-21T19:14:04Z</time>
      </trkpt>
      <trkpt lat="43.99748" lon="1.8283">
        <ele>222.4</ele>
        <time>2018-06-21T19:14:05Z</time>
      </trkpt>
      <trkpt lat="43.99747" lon="1.82835">
        <ele>222.2</ele>
        <time>2018-06-21T19:14:06Z</time>
      </trkpt>
      <trkpt lat="43.99746" lon="1.8284">
        <ele>222</ele>
        <time>2018-06-21T19:14:07Z</time>
      </trkpt>
      <trkpt lat="43.99746" lon="1.82846">
        <ele>221.7</ele>
        <time>2018-06-21T19:14:08Z</time>
      </trkpt>
      <trkpt lat="43.99746" lon="1.82851">
        <ele>221.4</ele>
        <time>2018-06-21T19:14:09Z</time>
      </trkpt>
      <trkpt lat="43.99745" lon="1.82857">
        <ele>221.2</ele>
        <time>2018-06-21T19:14:10Z</time>
      </trkpt>
      <trkpt lat="43.99745" lon="1.82862">
        <ele>220.8</ele>
        <time>2018-06-21T19:14:11Z</time>
      </trkpt>
      <trkpt lat="43.99744" lon="1.82869">
        <ele>220.6</ele>
        <time>2018-06-21T19:14:12Z</time>
      </trkpt>
      <trkpt lat="43.99743" lon="1.82875">
        <ele>220.3</ele>
        <time>2018-06-21T19:14:13Z</time>
      </trkpt>
      <trkpt lat="43.99742" lon="1.82881">
        <ele>219.8</ele>
        <time>2018-06-21T19:14:14Z</time>
      </trkpt>
      <trkpt lat="43.99741" lon="1.82888">
        <ele>219.6</ele>
        <time>2018-06-21T19:14:15Z</time>
      </trkpt>
      <trkpt lat="43.9974" lon="1.82895">
        <ele>219.1</ele>
        <time>2018-06-21T19:14:16Z</time>
      </trkpt>
      <trkpt lat="43.99739" lon="1.82902">
        <ele>218.6</ele>
        <time>2018-06-21T19:14:17Z</time>
      </trkpt>
      <trkpt lat="43.99737" lon="1.8291">
        <ele>218.2</ele>
        <time>2018-06-21T19:14:18Z</time>
      </trkpt>
      <trkpt lat="43.99736" lon="1.82918">
        <ele>217.9</ele>
        <time>2018-06-21T19:14:19Z</time>
      </trkpt>
      <trkpt lat="43.99734" lon="1.82926">
        <ele>217.6</ele>
        <time>2018-06-21T19:14:20Z</time>
      </trkpt>
      <trkpt lat="43.99733" lon="1.82935">
        <ele>217.2</ele>
        <time>2018-06-21T19:14:21Z</time>
      </trkpt>
      <trkpt lat="43.99731" lon="1.82943">
        <ele>216.9</ele>
        <time>2018-06-21T19:14:22Z</time>
      </trkpt>
      <trkpt lat="43.99729" lon="1.82952">
        <ele>216.7</ele>
        <time>2018-06-21T19:14:23Z</time>
      </trkpt>
      <trkpt lat="43.99728" lon="1.8296">
        <ele>216.4</ele>
        <time>2018-06-21T19:14:24Z</time>
      </trkpt>
      <trkpt lat="43.99726" lon="1.82969">
        <ele>216.2</ele>
        <time>2018-06-21T19:14:25Z</time>
      </trkpt>
      <trkpt lat="43.99724" lon="1.82977">
        <ele>215.9</ele>
        <time>2018-06-21T19:14:26Z</time>
      </trkpt>
      <trkpt lat="43.99723" lon="1.82986">
        <ele>215.7</ele>
        <time>2018-06-21T19:14:27Z</time>
      </trkpt>
      <trkpt lat="43.9972" lon="1.82994">
        <ele>215.4</ele>
        <time>2018-06-21T19:14:28Z</time>
      </trkpt>
      <trkpt lat="43.99718" lon="1.83002">
        <ele>215.1</ele>
        <time>2018-06-21T19:14:29Z</time>
      </trkpt>
      <trkpt lat="43.99716" lon="1.8301">
        <ele>214.8</ele>
        <time>2018-06-21T19:14:30Z</time>
      </trkpt>
      <trkpt lat="43.99713" lon="1.83018">
        <ele>214.3</ele>
        <time>2018-06-21T19:14:31Z</time>
      </trkpt>
      <trkpt lat="43.9971" lon="1.83027">
        <ele>213.8</ele>
        <time>2018-06-21T19:14:32Z</time>
      </trkpt>
      <trkpt lat="43.99707" lon="1.83035">
        <ele>213.3</ele>
        <time>2018-06-21T19:14:33Z</time>
      </trkpt>
      <trkpt lat="43.99704" lon="1.83044">
        <ele>212.8</ele>
        <time>2018-06-21T19:14:34Z</time>
      </trkpt>
      <trkpt lat="43.99701" lon="1.83053">
        <ele>212.3</ele>
        <time>2018-06-21T19:14:35Z</time>
      </trkpt>
      <trkpt lat="43.99698" lon="1.83063">
        <ele>211.7</ele>
        <time>2018-06-21T19:14:36Z</time>
      </trkpt>
      <trkpt lat="43.99695" lon="1.83072">
        <ele>211</ele>
        <time>2018-06-21T19:14:37Z</time>
      </trkpt>
      <trkpt lat="43.99693" lon="1.83081">
        <ele>210.1</ele>
        <time>2018-06-21T19:14:38Z</time>
      </trkpt>
      <trkpt lat="43.9969" lon="1.83091">
        <ele>209.6</ele>
        <time>2018-06-21T19:14:39Z</time>
      </trkpt>
      <trkpt lat="43.99687" lon="1.831">
        <ele>209</ele>
        <time>2018-06-21T19:14:40Z</time>
      </trkpt>
      <trkpt lat="43.99684" lon="1.83108">
        <ele>208.4</ele>
        <time>2018-06-21T19:14:41Z</time>
      </trkpt>
      <trkpt lat="43.99682" lon="1.83117">
        <ele>207.6</ele>
        <time>2018-06-21T19:14:42Z</time>
      </trkpt>
      <trkpt lat="43.99679" lon="1.83125">
        <ele>207</ele>
        <time>2018-06-21T19:14:43Z</time>
      </trkpt>
      <trkpt lat="43.99677" lon="1.83133">
        <ele>206.2</ele>
        <time>2018-06-21T19:14:44Z</time>
      </trkpt>
      <trkpt lat="43.99674" lon="1.83141">
        <ele>206</ele>
        <time>2018-06-21T19:14:45Z</time>
      </trkpt>
      <trkpt lat="43.99672" lon="1.83149">
        <ele>205.5</ele>
        <time>2018-06-21T19:14:46Z</time>
      </trkpt>
      <trkpt lat="43.9967" lon="1.83156">
        <ele>205.1</ele>
        <time>2018-06-21T19:14:47Z</time>
      </trkpt>
      <trkpt lat="43.99668" lon="1.83164">
        <ele>204.5</ele>
        <time>2018-06-21T19:14:48Z</time>
      </trkpt>
      <trkpt lat="43.99666" lon="1.83171">
        <ele>204.4</ele>
        <time>2018-06-21T19:14:49Z</time>
      </trkpt>
      <trkpt lat="43.99664" lon="1.83178">
        <ele>203.8</ele>
        <time>2018-06-21T19:14:50Z</time>
      </trkpt>
      <trkpt lat="43.99663" lon="1.83185">
        <ele>203.5</ele>
        <time>2018-06-21T19:14:51Z</time>
      </trkpt>
      <trkpt lat="43.99661" lon="1.83192">
        <ele>203.4</ele>
        <time>2018-06-21T19:14:52Z</time>
      </trkpt>
      <trkpt lat="43.99659" lon="1.83198">
        <ele>202.8</ele>
        <time>2018-06-21T19:14:53Z</time>
      </trkpt>
      <trkpt lat="43.99657" lon="1.83204">
        <ele>202.7</ele>
        <time>2018-06-21T19:14:54Z</time>
      </trkpt>
      <trkpt lat="43.99655" lon="1.8321">
        <ele>202.2</ele>
        <time>2018-06-21T19:14:55Z</time>
      </trkpt>
      <trkpt lat="43.99654" lon="1.83217">
        <ele>202</ele>
        <time>2018-06-21T19:14:56Z</time>
      </trkpt>
      <trkpt lat="43.99652" lon="1.83223">
        <ele>201.6</ele>
        <time>2018-06-21T19:14:57Z</time>
      </trkpt>
      <trkpt lat="43.9965" lon="1.8323">
        <ele>201.5</ele>
        <time>2018-06-21T19:14:58Z</time>
      </trkpt>
      <trkpt lat="43.99648" lon="1.83236">
        <ele>201.2</ele>
        <time>2018-06-21T19:14:59Z</time>
      </trkpt>
      <trkpt lat="43.99647" lon="1.83243">
        <ele>201</ele>
        <time>2018-06-21T19:15:00Z</time>
      </trkpt>
      <trkpt lat="43.99645" lon="1.8325">
        <ele>200.7</ele>
        <time>2018-06-21T19:15:01Z</time>
      </trkpt>
      <trkpt lat="43.99643" lon="1.83256">
        <ele>200.5</ele>
        <time>2018-06-21T19:15:02Z</time>
      </trkpt>
      <trkpt lat="43.99641" lon="1.83263">
        <ele>200.3</ele>
        <time>2018-06-21T19:15:03Z</time>
      </trkpt>
      <trkpt lat="43.99639" lon="1.83269">
        <ele>200.3</ele>
        <time>2018-06-21T19:15:04Z</time>
      </trkpt>
      <trkpt lat="43.99638" lon="1.83275">
        <ele>199.9</ele>
        <time>2018-06-21T19:15:05Z</time>
      </trkpt>
      <trkpt lat="43.99636" lon="1.83281">
        <ele>199.8</ele>
        <time>2018-06-21T19:15:06Z</time>
      </trkpt>
      <trkpt lat="43.99635" lon="1.83286">
        <ele>199.5</ele>
        <time>2018-06-21T19:15:07Z</time>
      </trkpt>
      <trkpt lat="43.99633" lon="1.83291">
        <ele>199.3</ele>
        <time>2018-06-21T19:15:08Z</time>
      </trkpt>
      <trkpt lat="43.99631" lon="1.83296">
        <ele>198.8</ele>
        <time>2018-06-21T19:15:09Z</time>
      </trkpt>
      <trkpt lat="43.9963" lon="1.83301">
        <ele>198.6</ele>
        <time>2018-06-21T19:15:10Z</time>
      </trkpt>
      <trkpt lat="43.99628" lon="1.83307">
        <ele>198.3</ele>
        <time>2018-06-21T19:15:11Z</time>
      </trkpt>
      <trkpt lat="43.99626" lon="1.83312">
        <ele>198</ele>
        <time>2018-06-21T19:15:12Z</time>
      </trkpt>
      <trkpt lat="43.99624" lon="1.83319">
        <ele>197.4</ele>
        <time>2018-06-21T19:15:13Z</time>
      </trkpt>
      <trkpt lat="43.99622" lon="1.83324">
        <ele>197.2</ele>
        <time>2018-06-21T19:15:14Z</time>
      </trkpt>
      <trkpt lat="43.9962" lon="1.8333">
        <ele>196.6</ele>
        <time>2018-06-21T19:15:15Z</time>
      </trkpt>
      <trkpt lat="43.99618" lon="1.83336">
        <ele>196.4</ele>
        <time>2018-06-21T19:15:16Z</time>
      </trkpt>
      <trkpt lat="43.99616" lon="1.83342">
        <ele>196.1</ele>
        <time>2018-06-21T19:15:17Z</time>
      </trkpt>
      <trkpt lat="43.99614" lon="1.83347">
        <ele>195.9</ele>
        <time>2018-06-21T19:15:18Z</time>
      </trkpt>
      <trkpt lat="43.99612" lon="1.83352">
        <ele>195.5</ele>
        <time>2018-06-21T19:15:19Z</time>
      </trkpt>
      <trkpt lat="43.99609" lon="1.83358">
        <ele>195.3</ele>
        <time>2018-06-21T19:15:20Z</time>
      </trkpt>
      <trkpt lat="43.99606" lon="1.83362">
        <ele>195.1</ele>
        <time>2018-06-21T19:15:21Z</time>
      </trkpt>
      <trkpt lat="43.99604" lon="1.83367">
        <ele>194.9</ele>
        <time>2018-06-21T19:15:22Z</time>
      </trkpt>
      <trkpt lat="43.99601" lon="1.83371">
        <ele>194.7</ele>
        <time>2018-06-21T19:15:23Z</time>
      </trkpt>
      <trkpt lat="43.99597" lon="1.83376">
        <ele>194.5</ele>
        <time>2018-06-21T19:15:24Z</time>
      </trkpt>
      <trkpt lat="43.99594" lon="1.83381">
        <ele>194.3</ele>
        <time>2018-06-21T19:15:25Z</time>
      </trkpt>
      <trkpt lat="43.99591" lon="1.83386">
        <ele>193.9</ele>
        <time>2018-06-21T19:15:26Z</time>
      </trkpt>
      <trkpt lat="43.99589" lon="1.83393">
        <ele>193.7</ele>
        <time>2018-06-21T19:15:27Z</time>
      </trkpt>
      <trkpt lat="43.99587" lon="1.83399">
        <ele>193.3</ele>
        <time>2018-06-21T19:15:28Z</time>
      </trkpt>
      <trkpt lat="43.99584" lon="1.83406">
        <ele>193.2</ele>
        <time>2018-06-21T19:15:29Z</time>
      </trkpt>
      <trkpt lat="43.99581" lon="1.83413">
        <ele>192.8</ele>
        <time>2018-06-21T19:15:30Z</time>
      </trkpt>
      <trkpt lat="43.99578" lon="1.8342">
        <ele>192.4</ele>
        <time>2018-06-21T19:15:31Z</time>
      </trkpt>
      <trkpt lat="43.99574" lon="1.83429">
        <ele>192</ele>
        <time>2018-06-21T19:15:32Z</time>
      </trkpt>
      <trkpt lat="43.9957" lon="1.83437">
        <ele>191.9</ele>
        <time>2018-06-21T19:15:33Z</time>
      </trkpt>
      <trkpt lat="43.99565" lon="1.83446">
        <ele>191.5</ele>
        <time>2018-06-21T19:15:34Z</time>
      </trkpt>
      <trkpt lat="43.9956" lon="1.83455">
        <ele>191.1</ele>
        <time>2018-06-21T19:15:35Z</time>
      </trkpt>
      <trkpt lat="43.99556" lon="1.83463">
        <ele>190.9</ele>
        <time>2018-06-21T19:15:36Z</time>
      </trkpt>
      <trkpt lat="43.99553" lon="1.83471">
        <ele>190.6</ele>
        <time>2018-06-21T19:15:37Z</time>
      </trkpt>
      <trkpt lat="43.99548" lon="1.83478">
        <ele>189.9</ele>
        <time>2018-06-21T19:15:38Z</time>
      </trkpt>
      <trkpt lat="43.99544" lon="1.83485">
        <ele>189.4</ele>
        <time>2018-06-21T19:15:39Z</time>
      </trkpt>
      <trkpt lat="43.99541" lon="1.83492">
        <ele>189.3</ele>
        <time>2018-06-21T19:15:40Z</time>
      </trkpt>
      <trkpt lat="43.99538" lon="1.83499">
        <ele>188.7</ele>
        <time>2018-06-21T19:15:41Z</time>
      </trkpt>
      <trkpt lat="43.99536" lon="1.83505">
        <ele>188.4</ele>
        <time>2018-06-21T19:15:42Z</time>
      </trkpt>
      <trkpt lat="43.99533" lon="1.83512">
        <ele>188</ele>
        <time>2018-06-21T19:15:43Z</time>
      </trkpt>
      <trkpt lat="43.9953" lon="1.83519">
        <ele>187.8</ele>
        <time>2018-06-21T19:15:44Z</time>
      </trkpt>
      <trkpt lat="43.99528" lon="1.83525">
        <ele>187.4</ele>
        <time>2018-06-21T19:15:45Z</time>
      </trkpt>
      <trkpt lat="43.99527" lon="1.83531">
        <ele>187.1</ele>
        <time>2018-06-21T19:15:46Z</time>
      </trkpt>
      <trkpt lat="43.99525" lon="1.83537">
        <ele>186.8</ele>
        <time>2018-06-21T19:15:47Z</time>
      </trkpt>
      <trkpt lat="43.99523" lon="1.83543">
        <ele>186.6</ele>
        <time>2018-06-21T19:15:48Z</time>
      </trkpt>
      <trkpt lat="43.99522" lon="1.83549">
        <ele>186.3</ele>
        <time>2018-06-21T19:15:49Z</time>
      </trkpt>
      <trkpt lat="43.9952" lon="1.83555">
        <ele>186.1</ele>
        <time>2018-06-21T19:15:50Z</time>
      </trkpt>
      <trkpt lat="43.99518" lon="1.83561">
        <ele>186</ele>
        <time>2018-06-21T19:15:51Z</time>
      </trkpt>
      <trkpt lat="43.99517" lon="1.83568">
        <ele>185.8</ele>
        <time>2018-06-21T19:15:52Z</time>
      </trkpt>
      <trkpt lat="43.99516" lon="1.83574">
        <ele>185.7</ele>
        <time>2018-06-21T19:15:53Z</time>
      </trkpt>
      <trkpt lat="43.99515" lon="1.83581">
        <ele>185.7</ele>
        <time>2018-06-21T19:15:54Z</time>
      </trkpt>
      <trkpt lat="43.99516" lon="1.83587">
        <ele>185.7</ele>
        <time>2018-06-21T19:15:55Z</time>
      </trkpt>
      <trkpt lat="43.99518" lon="1.83592">
        <ele>186</ele>
        <time>2018-06-21T19:15:56Z</time>
      </trkpt>
      <trkpt lat="43.9952" lon="1.83596">
        <ele>186.1</ele>
        <time>2018-06-21T19:15:57Z</time>
      </trkpt>
      <trkpt lat="43.99523" lon="1.83599">
        <ele>186.5</ele>
        <time>2018-06-21T19:15:58Z</time>
      </trkpt>
      <trkpt lat="43.99526" lon="1.83602">
        <ele>186.9</ele>
        <time>2018-06-21T19:15:59Z</time>
      </trkpt>
      <trkpt lat="43.99528" lon="1.83604">
        <ele>186.9</ele>
        <time>2018-06-21T19:16:00Z</time>
      </trkpt>
      <trkpt lat="43.9953" lon="1.83607">
        <ele>187.4</ele>
        <time>2018-06-21T19:16:01Z</time>
      </trkpt>
      <trkpt lat="43.99534" lon="1.83613">
        <ele>187.9</ele>
        <time>2018-06-21T19:16:03Z</time>
      </trkpt>
      <trkpt lat="43.99536" lon="1.83616">
        <ele>188.4</ele>
        <time>2018-06-21T19:16:04Z</time>
      </trkpt>
      <trkpt lat="43.99538" lon="1.8362">
        <ele>188.7</ele>
        <time>2018-06-21T19:16:05Z</time>
      </trkpt>
      <trkpt lat="43.99539" lon="1.83624">
        <ele>189.2</ele>
        <time>2018-06-21T19:16:06Z</time>
      </trkpt>
      <trkpt lat="43.99539" lon="1.83628">
        <ele>189.4</ele>
        <time>2018-06-21T19:16:07Z</time>
      </trkpt>
      <trkpt lat="43.99538" lon="1.83635">
        <ele>189.7</ele>
        <time>2018-06-21T19:16:09Z</time>
      </trkpt>
      <trkpt lat="43.99537" lon="1.83642">
        <ele>190.1</ele>
        <time>2018-06-21T19:16:11Z</time>
      </trkpt>
      <trkpt lat="43.99535" lon="1.83648">
        <ele>190.8</ele>
        <time>2018-06-21T19:16:13Z</time>
      </trkpt>
      <trkpt lat="43.99533" lon="1.83654">
        <ele>190.8</ele>
        <time>2018-06-21T19:16:15Z</time>
      </trkpt>
      <trkpt lat="43.99532" lon="1.83659">
        <ele>191.1</ele>
        <time>2018-06-21T19:16:17Z</time>
      </trkpt>
      <trkpt lat="43.9953" lon="1.83664">
        <ele>191.2</ele>
        <time>2018-06-21T19:16:19Z</time>
      </trkpt>
      <trkpt lat="43.99529" lon="1.83669">
        <ele>191.4</ele>
        <time>2018-06-21T19:16:21Z</time>
      </trkpt>
      <trkpt lat="43.99527" lon="1.83674">
        <ele>191.8</ele>
        <time>2018-06-21T19:16:23Z</time>
      </trkpt>
      <trkpt lat="43.99524" lon="1.83679">
        <ele>191.8</ele>
        <time>2018-06-21T19:16:25Z</time>
      </trkpt>
      <trkpt lat="43.99522" lon="1.83684">
        <ele>191.8</ele>
        <time>2018-06-21T19:16:27Z</time>
      </trkpt>
      <trkpt lat="43.99521" lon="1.83688">
        <ele>192.1</ele>
        <time>2018-06-21T19:16:29Z</time>
      </trkpt>
      <trkpt lat="43.99519" lon="1.83692">
        <ele>192.2</ele>
        <time>2018-06-21T19:16:31Z</time>
      </trkpt>
      <trkpt lat="43.99518" lon="1.83696">
        <ele>192.5</ele>
        <time>2018-06-21T19:16:33Z</time>
      </trkpt>
      <trkpt lat="43.99517" lon="1.83699">
        <ele>192.5</ele>
        <time>2018-06-21T19:16:35Z</time>
      </trkpt>
      <trkpt lat="43.99516" lon="1.83703">
        <ele>192.6</ele>
        <time>2018-06-21T19:16:37Z</time>
      </trkpt>
      <trkpt lat="43.99515" lon="1.83708">
        <ele>192.9</ele>
        <time>2018-06-21T19:16:39Z</time>
      </trkpt>
      <trkpt lat="43.99514" lon="1.83712">
        <ele>193.5</ele>
        <time>2018-06-21T19:16:41Z</time>
      </trkpt>
      <trkpt lat="43.99512" lon="1.83717">
        <ele>193.6</ele>
        <time>2018-06-21T19:16:43Z</time>
      </trkpt>
      <trkpt lat="43.99512" lon="1.83721">
        <ele>193.5</ele>
        <time>2018-06-21T19:16:45Z</time>
      </trkpt>
      <trkpt lat="43.99511" lon="1.83724">
        <ele>193.8</ele>
        <time>2018-06-21T19:16:47Z</time>
      </trkpt>
      <trkpt lat="43.99509" lon="1.83729">
        <ele>193.9</ele>
        <time>2018-06-21T19:16:49Z</time>
      </trkpt>
      <trkpt lat="43.99508" lon="1.83733">
        <ele>194.2</ele>
        <time>2018-06-21T19:16:51Z</time>
      </trkpt>
      <trkpt lat="43.99508" lon="1.83739">
        <ele>194.9</ele>
        <time>2018-06-21T19:16:53Z</time>
      </trkpt>
      <trkpt lat="43.99508" lon="1.83745">
        <ele>195.2</ele>
        <time>2018-06-21T19:16:55Z</time>
      </trkpt>
      <trkpt lat="43.99509" lon="1.83749">
        <ele>195.6</ele>
        <time>2018-06-21T19:16:57Z</time>
      </trkpt>
      <trkpt lat="43.9951" lon="1.83753">
        <ele>196.1</ele>
        <time>2018-06-21T19:16:59Z</time>
      </trkpt>
      <trkpt lat="43.99511" lon="1.83758">
        <ele>196.4</ele>
        <time>2018-06-21T19:17:01Z</time>
      </trkpt>
      <trkpt lat="43.99512" lon="1.83762">
        <ele>196.6</ele>
        <time>2018-06-21T19:17:03Z</time>
      </trkpt>
      <trkpt lat="43.99514" lon="1.83767">
        <ele>197.1</ele>
        <time>2018-06-21T19:17:05Z</time>
      </trkpt>
      <trkpt lat="43.99515" lon="1.83771">
        <ele>197.3</ele>
        <time>2018-06-21T19:17:07Z</time>
      </trkpt>
      <trkpt lat="43.99518" lon="1.83775">
        <ele>197.7</ele>
        <time>2018-06-21T19:17:09Z</time>
      </trkpt>
      <trkpt lat="43.9952" lon="1.83779">
        <ele>198.2</ele>
        <time>2018-06-21T19:17:11Z</time>
      </trkpt>
      <trkpt lat="43.99521" lon="1.83783">
        <ele>198.4</ele>
        <time>2018-06-21T19:17:13Z</time>
      </trkpt>
      <trkpt lat="43.99522" lon="1.83787">
        <ele>198.7</ele>
        <time>2018-06-21T19:17:15Z</time>
      </trkpt>
      <trkpt lat="43.99524" lon="1.83791">
        <ele>199.3</ele>
        <time>2018-06-21T19:17:17Z</time>
      </trkpt>
      <trkpt lat="43.99525" lon="1.83795">
        <ele>199.6</ele>
        <time>2018-06-21T19:17:19Z</time>
      </trkpt>
      <trkpt lat="43.99527" lon="1.83799">
        <ele>200.2</ele>
        <time>2018-06-21T19:17:21Z</time>
      </trkpt>
      <trkpt lat="43.99528" lon="1.83803">
        <ele>200.5</ele>
        <time>2018-06-21T19:17:23Z</time>
      </trkpt>
      <trkpt lat="43.99529" lon="1.83807">
        <ele>200.5</ele>
        <time>2018-06-21T19:17:25Z</time>
      </trkpt>
      <trkpt lat="43.9953" lon="1.8381">
        <ele>200.5</ele>
        <time>2018-06-21T19:17:27Z</time>
      </trkpt>
      <trkpt lat="43.99531" lon="1.83814">
        <ele>200.5</ele>
        <time>2018-06-21T19:17:29Z</time>
      </trkpt>
      <trkpt lat="43.99535" lon="1.83814">
        <ele>200.5</ele>
        <time>2018-06-21T19:17:32Z</time>
      </trkpt>
      <trkpt lat="43.99538" lon="1.83812">
        <ele>200.6</ele>
        <time>2018-06-21T19:17:34Z</time>
      </trkpt>
      <trkpt lat="43.99541" lon="1.83811">
        <ele>200.6</ele>
        <time>2018-06-21T19:17:36Z</time>
      </trkpt>
      <trkpt lat="43.99544" lon="1.83809">
        <ele>200.6</ele>
        <time>2018-06-21T19:17:38Z</time>
      </trkpt>
      <trkpt lat="43.99547" lon="1.83807">
        <ele>200.7</ele>
        <time>2018-06-21T19:17:40Z</time>
      </trkpt>
      <trkpt lat="43.9955" lon="1.83804">
        <ele>200.8</ele>
        <time>2018-06-21T19:17:42Z</time>
      </trkpt>
      <trkpt lat="43.99554" lon="1.83802">
        <ele>200.9</ele>
        <time>2018-06-21T19:17:44Z</time>
      </trkpt>
      <trkpt lat="43.99558" lon="1.838">
        <ele>201</ele>
        <time>2018-06-21T19:17:46Z</time>
      </trkpt>
      <trkpt lat="43.99562" lon="1.83797">
        <ele>201.2</ele>
        <time>2018-06-21T19:17:48Z</time>
      </trkpt>
      <trkpt lat="43.99567" lon="1.83795">
        <ele>201.3</ele>
        <time>2018-06-21T19:17:50Z</time>
      </trkpt>
      <trkpt lat="43.99571" lon="1.83792">
        <ele>201.4</ele>
        <time>2018-06-21T19:17:52Z</time>
      </trkpt>
      <trkpt lat="43.99576" lon="1.83789">
        <ele>201.5</ele>
        <time>2018-06-21T19:17:54Z</time>
      </trkpt>
      <trkpt lat="43.99581" lon="1.83786">
        <ele>201.5</ele>
        <time>2018-06-21T19:17:56Z</time>
      </trkpt>
      <trkpt lat="43.99585" lon="1.83783">
        <ele>201.6</ele>
        <time>2018-06-21T19:17:58Z</time>
      </trkpt>
      <trkpt lat="43.99588" lon="1.83782">
        <ele>201.7</ele>
        <time>2018-06-21T19:17:59Z</time>
      </trkpt>
      <trkpt lat="43.99591" lon="1.8378">
        <ele>201.7</ele>
        <time>2018-06-21T19:18:00Z</time>
      </trkpt>
      <trkpt lat="43.99593" lon="1.83779">
        <ele>201.8</ele>
        <time>2018-06-21T19:18:01Z</time>
      </trkpt>
      <trkpt lat="43.99596" lon="1.83777">
        <ele>201.8</ele>
        <time>2018-06-21T19:18:02Z</time>
      </trkpt>
      <trkpt lat="43.99599" lon="1.83776">
        <ele>201.9</ele>
        <time>2018-06-21T19:18:03Z</time>
      </trkpt>
      <trkpt lat="43.99601" lon="1.83774">
        <ele>201.9</ele>
        <time>2018-06-21T19:18:04Z</time>
      </trkpt>
      <trkpt lat="43.99604" lon="1.83772">
        <ele>202</ele>
        <time>2018-06-21T19:18:05Z</time>
      </trkpt>
      <trkpt lat="43.99607" lon="1.83771">
        <ele>202.1</ele>
        <time>2018-06-21T19:18:06Z</time>
      </trkpt>
      <trkpt lat="43.99609" lon="1.83769">
        <ele>202.2</ele>
        <time>2018-06-21T19:18:07Z</time>
      </trkpt>
      <trkpt lat="43.99612" lon="1.83767">
        <ele>202.2</ele>
        <time>2018-06-21T19:18:08Z</time>
      </trkpt>
      <trkpt lat="43.99615" lon="1.83765">
        <ele>202.3</ele>
        <time>2018-06-21T19:18:09Z</time>
      </trkpt>
      <trkpt lat="43.9962" lon="1.83761">
        <ele>202.4</ele>
        <time>2018-06-21T19:18:11Z</time>
      </trkpt>
      <trkpt lat="43.99622" lon="1.83758">
        <ele>202.4</ele>
        <time>2018-06-21T19:18:12Z</time>
      </trkpt>
      <trkpt lat="43.99624" lon="1.83756">
        <ele>202.4</ele>
        <time>2018-06-21T19:18:13Z</time>
      </trkpt>
      <trkpt lat="43.99627" lon="1.83753">
        <ele>202.5</ele>
        <time>2018-06-21T19:18:14Z</time>
      </trkpt>
      <trkpt lat="43.99629" lon="1.83751">
        <ele>202.5</ele>
        <time>2018-06-21T19:18:15Z</time>
      </trkpt>
      <trkpt lat="43.99632" lon="1.83748">
        <ele>202.6</ele>
        <time>2018-06-21T19:18:16Z</time>
      </trkpt>
      <trkpt lat="43.99634" lon="1.83745">
        <ele>202.6</ele>
        <time>2018-06-21T19:18:17Z</time>
      </trkpt>
      <trkpt lat="43.99636" lon="1.83743">
        <ele>202.7</ele>
        <time>2018-06-21T19:18:18Z</time>
      </trkpt>
      <trkpt lat="43.99638" lon="1.8374">
        <ele>202.7</ele>
        <time>2018-06-21T19:18:19Z</time>
      </trkpt>
      <trkpt lat="43.99642" lon="1.83735">
        <ele>202.8</ele>
        <time>2018-06-21T19:18:21Z</time>
      </trkpt>
      <trkpt lat="43.99644" lon="1.83732">
        <ele>202.9</ele>
        <time>2018-06-21T19:18:22Z</time>
      </trkpt>
      <trkpt lat="43.99646" lon="1.83729">
        <ele>202.9</ele>
        <time>2018-06-21T19:18:23Z</time>
      </trkpt>
      <trkpt lat="43.99649" lon="1.83727">
        <ele>203</ele>
        <time>2018-06-21T19:18:24Z</time>
      </trkpt>
      <trkpt lat="43.99651" lon="1.83725">
        <ele>203</ele>
        <time>2018-06-21T19:18:25Z</time>
      </trkpt>
      <trkpt lat="43.99654" lon="1.83722">
        <ele>203</ele>
        <time>2018-06-21T19:18:26Z</time>
      </trkpt>
      <trkpt lat="43.99656" lon="1.83719">
        <ele>202.9</ele>
        <time>2018-06-21T19:18:27Z</time>
      </trkpt>
      <trkpt lat="43.99658" lon="1.83716">
        <ele>202.9</ele>
        <time>2018-06-21T19:18:28Z</time>
      </trkpt>
      <trkpt lat="43.99661" lon="1.83713">
        <ele>202.8</ele>
        <time>2018-06-21T19:18:29Z</time>
      </trkpt>
      <trkpt lat="43.99663" lon="1.8371">
        <ele>202.6</ele>
        <time>2018-06-21T19:18:30Z</time>
      </trkpt>
      <trkpt lat="43.99665" lon="1.83706">
        <ele>202.5</ele>
        <time>2018-06-21T19:18:31Z</time>
      </trkpt>
      <trkpt lat="43.99668" lon="1.83702">
        <ele>202.3</ele>
        <time>2018-06-21T19:18:32Z</time>
      </trkpt>
      <trkpt lat="43.99671" lon="1.83698">
        <ele>202.2</ele>
        <time>2018-06-21T19:18:33Z</time>
      </trkpt>
      <trkpt lat="43.99673" lon="1.83694">
        <ele>202.1</ele>
        <time>2018-06-21T19:18:34Z</time>
      </trkpt>
      <trkpt lat="43.99676" lon="1.8369">
        <ele>202</ele>
        <time>2018-06-21T19:18:35Z</time>
      </trkpt>
      <trkpt lat="43.99678" lon="1.83685">
        <ele>202</ele>
        <time>2018-06-21T19:18:36Z</time>
      </trkpt>
      <trkpt lat="43.99681" lon="1.83681">
        <ele>201.9</ele>
        <time>2018-06-21T19:18:37Z</time>
      </trkpt>
      <trkpt lat="43.99684" lon="1.83677">
        <ele>202</ele>
        <time>2018-06-21T19:18:38Z</time>
      </trkpt>
      <trkpt lat="43.99686" lon="1.83672">
        <ele>202.1</ele>
        <time>2018-06-21T19:18:39Z</time>
      </trkpt>
      <trkpt lat="43.99689" lon="1.83667">
        <ele>202.2</ele>
        <time>2018-06-21T19:18:40Z</time>
      </trkpt>
      <trkpt lat="43.99692" lon="1.83662">
        <ele>202.3</ele>
        <time>2018-06-21T19:18:41Z</time>
      </trkpt>
      <trkpt lat="43.99695" lon="1.83657">
        <ele>202.4</ele>
        <time>2018-06-21T19:18:42Z</time>
      </trkpt>
      <trkpt lat="43.99697" lon="1.83652">
        <ele>202.5</ele>
        <time>2018-06-21T19:18:43Z</time>
      </trkpt>
      <trkpt lat="43.997" lon="1.83647">
        <ele>202.4</ele>
        <time>2018-06-21T19:18:44Z</time>
      </trkpt>
      <trkpt lat="43.99703" lon="1.83642">
        <ele>202.2</ele>
        <time>2018-06-21T19:18:45Z</time>
      </trkpt>
      <trkpt lat="43.99706" lon="1.83637">
        <ele>202.2</ele>
        <time>2018-06-21T19:18:46Z</time>
      </trkpt>
      <trkpt lat="43.99709" lon="1.83631">
        <ele>202.3</ele>
        <time>2018-06-21T19:18:47Z</time>
      </trkpt>
      <trkpt lat="43.99713" lon="1.83626">
        <ele>202.4</ele>
        <time>2018-06-21T19:18:48Z</time>
      </trkpt>
      <trkpt lat="43.99716" lon="1.83621">
        <ele>202.5</ele>
        <time>2018-06-21T19:18:49Z</time>
      </trkpt>
      <trkpt lat="43.99719" lon="1.83615">
        <ele>202.6</ele>
        <time>2018-06-21T19:18:50Z</time>
      </trkpt>
      <trkpt lat="43.99722" lon="1.8361">
        <ele>202.7</ele>
        <time>2018-06-21T19:18:51Z</time>
      </trkpt>
      <trkpt lat="43.99725" lon="1.83604">
        <ele>202.9</ele>
        <time>2018-06-21T19:18:52Z</time>
      </trkpt>
      <trkpt lat="43.99729" lon="1.83599">
        <ele>202.9</ele>
        <time>2018-06-21T19:18:53Z</time>
      </trkpt>
      <trkpt lat="43.99732" lon="1.83593">
        <ele>203</ele>
        <time>2018-06-21T19:18:54Z</time>
      </trkpt>
      <trkpt lat="43.99735" lon="1.83588">
        <ele>203.2</ele>
        <time>2018-06-21T19:18:55Z</time>
      </trkpt>
      <trkpt lat="43.99738" lon="1.83583">
        <ele>203.3</ele>
        <time>2018-06-21T19:18:56Z</time>
      </trkpt>
      <trkpt lat="43.99742" lon="1.83578">
        <ele>203.4</ele>
        <time>2018-06-21T19:18:57Z</time>
      </trkpt>
      <trkpt lat="43.99745" lon="1.83573">
        <ele>203.6</ele>
        <time>2018-06-21T19:18:58Z</time>
      </trkpt>
      <trkpt lat="43.99749" lon="1.83569">
        <ele>203.7</ele>
        <time>2018-06-21T19:18:59Z</time>
      </trkpt>
      <trkpt lat="43.99753" lon="1.83564">
        <ele>204</ele>
        <time>2018-06-21T19:19:00Z</time>
      </trkpt>
      <trkpt lat="43.99757" lon="1.8356">
        <ele>204.3</ele>
        <time>2018-06-21T19:19:01Z</time>
      </trkpt>
      <trkpt lat="43.9976" lon="1.83556">
        <ele>204.6</ele>
        <time>2018-06-21T19:19:02Z</time>
      </trkpt>
      <trkpt lat="43.99764" lon="1.83552">
        <ele>204.7</ele>
        <time>2018-06-21T19:19:03Z</time>
      </trkpt>
      <trkpt lat="43.99768" lon="1.83548">
        <ele>204.9</ele>
        <time>2018-06-21T19:19:04Z</time>
      </trkpt>
      <trkpt lat="43.99772" lon="1.83544">
        <ele>205.3</ele>
        <time>2018-06-21T19:19:05Z</time>
      </trkpt>
      <trkpt lat="43.99776" lon="1.83541">
        <ele>205.6</ele>
        <time>2018-06-21T19:19:06Z</time>
      </trkpt>
      <trkpt lat="43.9978" lon="1.83537">
        <ele>205.8</ele>
        <time>2018-06-21T19:19:07Z</time>
      </trkpt>
      <trkpt lat="43.99784" lon="1.83534">
        <ele>206.1</ele>
        <time>2018-06-21T19:19:08Z</time>
      </trkpt>
      <trkpt lat="43.99788" lon="1.8353">
        <ele>206.4</ele>
        <time>2018-06-21T19:19:09Z</time>
      </trkpt>
      <trkpt lat="43.99792" lon="1.83527">
        <ele>206.5</ele>
        <time>2018-06-21T19:19:10Z</time>
      </trkpt>
      <trkpt lat="43.99796" lon="1.83523">
        <ele>206.5</ele>
        <time>2018-06-21T19:19:11Z</time>
      </trkpt>
      <trkpt lat="43.998" lon="1.83519">
        <ele>206.5</ele>
        <time>2018-06-21T19:19:12Z</time>
      </trkpt>
      <trkpt lat="43.99804" lon="1.83515">
        <ele>206.5</ele>
        <time>2018-06-21T19:19:13Z</time>
      </trkpt>
      <trkpt lat="43.99808" lon="1.8351">
        <ele>206.5</ele>
        <time>2018-06-21T19:19:14Z</time>
      </trkpt>
      <trkpt lat="43.99812" lon="1.83506">
        <ele>206.8</ele>
        <time>2018-06-21T19:19:15Z</time>
      </trkpt>
      <trkpt lat="43.99815" lon="1.83501">
        <ele>207.1</ele>
        <time>2018-06-21T19:19:16Z</time>
      </trkpt>
      <trkpt lat="43.99819" lon="1.83497">
        <ele>207.2</ele>
        <time>2018-06-21T19:19:17Z</time>
      </trkpt>
      <trkpt lat="43.99823" lon="1.83492">
        <ele>207.2</ele>
        <time>2018-06-21T19:19:18Z</time>
      </trkpt>
      <trkpt lat="43.99827" lon="1.83487">
        <ele>207.3</ele>
        <time>2018-06-21T19:19:19Z</time>
      </trkpt>
      <trkpt lat="43.99831" lon="1.83483">
        <ele>207.4</ele>
        <time>2018-06-21T19:19:20Z</time>
      </trkpt>
      <trkpt lat="43.99834" lon="1.83478">
        <ele>207.5</ele>
        <time>2018-06-21T19:19:21Z</time>
      </trkpt>
      <trkpt lat="43.99838" lon="1.83474">
        <ele>207.6</ele>
        <time>2018-06-21T19:19:22Z</time>
      </trkpt>
      <trkpt lat="43.99842" lon="1.83469">
        <ele>207.6</ele>
        <time>2018-06-21T19:19:23Z</time>
      </trkpt>
      <trkpt lat="43.99846" lon="1.83465">
        <ele>207.9</ele>
        <time>2018-06-21T19:19:24Z</time>
      </trkpt>
      <trkpt lat="43.9985" lon="1.8346">
        <ele>208.1</ele>
        <time>2018-06-21T19:19:25Z</time>
      </trkpt>
      <trkpt lat="43.99854" lon="1.83455">
        <ele>208</ele>
        <time>2018-06-21T19:19:26Z</time>
      </trkpt>
      <trkpt lat="43.99858" lon="1.8345">
        <ele>208.2</ele>
        <time>2018-06-21T19:19:27Z</time>
      </trkpt>
      <trkpt lat="43.99862" lon="1.83445">
        <ele>208.3</ele>
        <time>2018-06-21T19:19:28Z</time>
      </trkpt>
      <trkpt lat="43.99866" lon="1.8344">
        <ele>208.1</ele>
        <time>2018-06-21T19:19:29Z</time>
      </trkpt>
      <trkpt lat="43.99869" lon="1.83435">
        <ele>208</ele>
        <time>2018-06-21T19:19:30Z</time>
      </trkpt>
      <trkpt lat="43.99873" lon="1.8343">
        <ele>208</ele>
        <time>2018-06-21T19:19:31Z</time>
      </trkpt>
      <trkpt lat="43.99876" lon="1.83424">
        <ele>207.5</ele>
        <time>2018-06-21T19:19:32Z</time>
      </trkpt>
      <trkpt lat="43.99879" lon="1.83417">
        <ele>207.1</ele>
        <time>2018-06-21T19:19:33Z</time>
      </trkpt>
      <trkpt lat="43.99882" lon="1.83411">
        <ele>206.8</ele>
        <time>2018-06-21T19:19:34Z</time>
      </trkpt>
      <trkpt lat="43.99885" lon="1.83404">
        <ele>206.4</ele>
        <time>2018-06-21T19:19:35Z</time>
      </trkpt>
      <trkpt lat="43.99888" lon="1.83397">
        <ele>206</ele>
        <time>2018-06-21T19:19:36Z</time>
      </trkpt>
      <trkpt lat="43.99891" lon="1.83389">
        <ele>205.6</ele>
        <time>2018-06-21T19:19:37Z</time>
      </trkpt>
      <trkpt lat="43.99893" lon="1.83382">
        <ele>205.3</ele>
        <time>2018-06-21T19:19:38Z</time>
      </trkpt>
      <trkpt lat="43.99896" lon="1.83375">
        <ele>205</ele>
        <time>2018-06-21T19:19:39Z</time>
      </trkpt>
      <trkpt lat="43.99899" lon="1.83367">
        <ele>204.7</ele>
        <time>2018-06-21T19:19:40Z</time>
      </trkpt>
      <trkpt lat="43.99902" lon="1.83358">
        <ele>204.1</ele>
        <time>2018-06-21T19:19:41Z</time>
      </trkpt>
      <trkpt lat="43.99905" lon="1.83351">
        <ele>203.8</ele>
        <time>2018-06-21T19:19:42Z</time>
      </trkpt>
      <trkpt lat="43.99907" lon="1.83343">
        <ele>203.5</ele>
        <time>2018-06-21T19:19:43Z</time>
      </trkpt>
      <trkpt lat="43.99911" lon="1.83334">
        <ele>202.7</ele>
        <time>2018-06-21T19:19:44Z</time>
      </trkpt>
      <trkpt lat="43.99914" lon="1.83325">
        <ele>202.2</ele>
        <time>2018-06-21T19:19:45Z</time>
      </trkpt>
      <trkpt lat="43.99917" lon="1.83316">
        <ele>201.7</ele>
        <time>2018-06-21T19:19:46Z</time>
      </trkpt>
      <trkpt lat="43.9992" lon="1.83307">
        <ele>201.3</ele>
        <time>2018-06-21T19:19:47Z</time>
      </trkpt>
      <trkpt lat="43.99924" lon="1.83298">
        <ele>200.9</ele>
        <time>2018-06-21T19:19:48Z</time>
      </trkpt>
      <trkpt lat="43.99927" lon="1.83289">
        <ele>200.4</ele>
        <time>2018-06-21T19:19:49Z</time>
      </trkpt>
      <trkpt lat="43.99931" lon="1.8328">
        <ele>200.2</ele>
        <time>2018-06-21T19:19:50Z</time>
      </trkpt>
      <trkpt lat="43.99935" lon="1.83271">
        <ele>199.7</ele>
        <time>2018-06-21T19:19:51Z</time>
      </trkpt>
      <trkpt lat="43.9994" lon="1.83262">
        <ele>199.4</ele>
        <time>2018-06-21T19:19:52Z</time>
      </trkpt>
      <trkpt lat="43.99946" lon="1.83254">
        <ele>199.6</ele>
        <time>2018-06-21T19:19:53Z</time>
      </trkpt>
      <trkpt lat="43.99952" lon="1.83247">
        <ele>199.6</ele>
        <time>2018-06-21T19:19:54Z</time>
      </trkpt>
      <trkpt lat="43.99957" lon="1.83238">
        <ele>199.8</ele>
        <time>2018-06-21T19:19:55Z</time>
      </trkpt>
      <trkpt lat="43.99962" lon="1.83229">
        <ele>200</ele>
        <time>2018-06-21T19:19:56Z</time>
      </trkpt>
      <trkpt lat="43.99967" lon="1.83221">
        <ele>200.2</ele>
        <time>2018-06-21T19:19:57Z</time>
      </trkpt>
      <trkpt lat="43.99973" lon="1.83215">
        <ele>200.1</ele>
        <time>2018-06-21T19:19:58Z</time>
      </trkpt>
      <trkpt lat="43.9998" lon="1.83212">
        <ele>199.7</ele>
        <time>2018-06-21T19:19:59Z</time>
      </trkpt>
      <trkpt lat="43.99986" lon="1.83209">
        <ele>199.9</ele>
        <time>2018-06-21T19:20:00Z</time>
      </trkpt>
      <trkpt lat="43.99991" lon="1.83205">
        <ele>199.8</ele>
        <time>2018-06-21T19:20:01Z</time>
      </trkpt>
      <trkpt lat="43.99996" lon="1.83202">
        <ele>200.2</ele>
        <time>2018-06-21T19:20:02Z</time>
      </trkpt>
      <trkpt lat="44.00001" lon="1.83198">
        <ele>200.3</ele>
        <time>2018-06-21T19:20:03Z</time>
      </trkpt>
      <trkpt lat="44.00006" lon="1.83195">
        <ele>200.2</ele>
        <time>2018-06-21T19:20:04Z</time>
      </trkpt>
      <trkpt lat="44.00011" lon="1.83192">
        <ele>200.3</ele>
        <time>2018-06-21T19:20:05Z</time>
      </trkpt>
      <trkpt lat="44.00015" lon="1.83188">
        <ele>200.3</ele>
        <time>2018-06-21T19:20:06Z</time>
      </trkpt>
      <trkpt lat="44.0002" lon="1.83185">
        <ele>200.9</ele>
        <time>2018-06-21T19:20:07Z</time>
      </trkpt>
      <trkpt lat="44.00024" lon="1.83182">
        <ele>201</ele>
        <time>2018-06-21T19:20:08Z</time>
      </trkpt>
      <trkpt lat="44.00028" lon="1.83179">
        <ele>201.1</ele>
        <time>2018-06-21T19:20:09Z</time>
      </trkpt>
      <trkpt lat="44.00032" lon="1.83176">
        <ele>201.9</ele>
        <time>2018-06-21T19:20:10Z</time>
      </trkpt>
      <trkpt lat="44.00037" lon="1.83173">
        <ele>201.9</ele>
        <time>2018-06-21T19:20:11Z</time>
      </trkpt>
      <trkpt lat="44.00041" lon="1.83171">
        <ele>202.4</ele>
        <time>2018-06-21T19:20:12Z</time>
      </trkpt>
      <trkpt lat="44.00045" lon="1.83168">
        <ele>202.7</ele>
        <time>2018-06-21T19:20:13Z</time>
      </trkpt>
      <trkpt lat="44.00049" lon="1.83166">
        <ele>202.7</ele>
        <time>2018-06-21T19:20:14Z</time>
      </trkpt>
      <trkpt lat="44.00054" lon="1.83164">
        <ele>203.6</ele>
        <time>2018-06-21T19:20:15Z</time>
      </trkpt>
      <trkpt lat="44.00058" lon="1.83161">
        <ele>203.7</ele>
        <time>2018-06-21T19:20:16Z</time>
      </trkpt>
      <trkpt lat="44.00062" lon="1.83159">
        <ele>204.2</ele>
        <time>2018-06-21T19:20:17Z</time>
      </trkpt>
      <trkpt lat="44.00066" lon="1.83156">
        <ele>204.8</ele>
        <time>2018-06-21T19:20:18Z</time>
      </trkpt>
      <trkpt lat="44.0007" lon="1.83153">
        <ele>204.9</ele>
        <time>2018-06-21T19:20:19Z</time>
      </trkpt>
      <trkpt lat="44.00074" lon="1.8315">
        <ele>205.7</ele>
        <time>2018-06-21T19:20:20Z</time>
      </trkpt>
      <trkpt lat="44.00078" lon="1.83147">
        <ele>205.9</ele>
        <time>2018-06-21T19:20:21Z</time>
      </trkpt>
      <trkpt lat="44.00081" lon="1.83144">
        <ele>206.1</ele>
        <time>2018-06-21T19:20:22Z</time>
      </trkpt>
      <trkpt lat="44.00084" lon="1.83141">
        <ele>206.3</ele>
        <time>2018-06-21T19:20:23Z</time>
      </trkpt>
      <trkpt lat="44.00087" lon="1.83138">
        <ele>206.9</ele>
        <time>2018-06-21T19:20:24Z</time>
      </trkpt>
      <trkpt lat="44.00089" lon="1.83134">
        <ele>207</ele>
        <time>2018-06-21T19:20:25Z</time>
      </trkpt>
      <trkpt lat="44.00092" lon="1.8313">
        <ele>207.1</ele>
        <time>2018-06-21T19:20:26Z</time>
      </trkpt>
      <trkpt lat="44.00095" lon="1.83127">
        <ele>207.2</ele>
        <time>2018-06-21T19:20:27Z</time>
      </trkpt>
      <trkpt lat="44.00097" lon="1.83123">
        <ele>207.3</ele>
        <time>2018-06-21T19:20:28Z</time>
      </trkpt>
      <trkpt lat="44.00099" lon="1.83119">
        <ele>206.9</ele>
        <time>2018-06-21T19:20:29Z</time>
      </trkpt>
      <trkpt lat="44.00101" lon="1.83115">
        <ele>206.9</ele>
        <time>2018-06-21T19:20:30Z</time>
      </trkpt>
      <trkpt lat="44.00104" lon="1.8311">
        <ele>207</ele>
        <time>2018-06-21T19:20:31Z</time>
      </trkpt>
      <trkpt lat="44.00106" lon="1.83105">
        <ele>206.5</ele>
        <time>2018-06-21T19:20:32Z</time>
      </trkpt>
      <trkpt lat="44.00108" lon="1.83101">
        <ele>206.6</ele>
        <time>2018-06-21T19:20:33Z</time>
      </trkpt>
      <trkpt lat="44.0011" lon="1.83096">
        <ele>206.5</ele>
        <time>2018-06-21T19:20:34Z</time>
      </trkpt>
      <trkpt lat="44.00112" lon="1.83091">
        <ele>206</ele>
        <time>2018-06-21T19:20:35Z</time>
      </trkpt>
      <trkpt lat="44.00114" lon="1.83086">
        <ele>206</ele>
        <time>2018-06-21T19:20:36Z</time>
      </trkpt>
      <trkpt lat="44.00116" lon="1.83082">
        <ele>205.8</ele>
        <time>2018-06-21T19:20:37Z</time>
      </trkpt>
      <trkpt lat="44.00118" lon="1.83077">
        <ele>205.2</ele>
        <time>2018-06-21T19:20:38Z</time>
      </trkpt>
      <trkpt lat="44.00121" lon="1.83073">
        <ele>204.8</ele>
        <time>2018-06-21T19:20:39Z</time>
      </trkpt>
      <trkpt lat="44.00124" lon="1.83068">
        <ele>204.7</ele>
        <time>2018-06-21T19:20:40Z</time>
      </trkpt>
      <trkpt lat="44.00126" lon="1.83064">
        <ele>204.6</ele>
        <time>2018-06-21T19:20:41Z</time>
      </trkpt>
      <trkpt lat="44.00129" lon="1.83059">
        <ele>204.6</ele>
        <time>2018-06-21T19:20:42Z</time>
      </trkpt>
      <trkpt lat="44.00132" lon="1.83055">
        <ele>204.6</ele>
        <time>2018-06-21T19:20:43Z</time>
      </trkpt>
      <trkpt lat="44.00135" lon="1.83052">
        <ele>205</ele>
        <time>2018-06-21T19:20:44Z</time>
      </trkpt>
      <trkpt lat="44.00138" lon="1.83048">
        <ele>205</ele>
        <time>2018-06-21T19:20:45Z</time>
      </trkpt>
      <trkpt lat="44.00141" lon="1.83044">
        <ele>205</ele>
        <time>2018-06-21T19:20:46Z</time>
      </trkpt>
      <trkpt lat="44.00144" lon="1.83041">
        <ele>205</ele>
        <time>2018-06-21T19:20:47Z</time>
      </trkpt>
      <trkpt lat="44.00147" lon="1.83037">
        <ele>205</ele>
        <time>2018-06-21T19:20:48Z</time>
      </trkpt>
      <trkpt lat="44.0015" lon="1.83032">
        <ele>204.9</ele>
        <time>2018-06-21T19:20:49Z</time>
      </trkpt>
      <trkpt lat="44.00153" lon="1.83028">
        <ele>204.9</ele>
        <time>2018-06-21T19:20:50Z</time>
      </trkpt>
      <trkpt lat="44.00156" lon="1.83025">
        <ele>204.8</ele>
        <time>2018-06-21T19:20:51Z</time>
      </trkpt>
      <trkpt lat="44.0016" lon="1.83021">
        <ele>204.8</ele>
        <time>2018-06-21T19:20:52Z</time>
      </trkpt>
      <trkpt lat="44.00163" lon="1.83016">
        <ele>204.7</ele>
        <time>2018-06-21T19:20:53Z</time>
      </trkpt>
      <trkpt lat="44.00166" lon="1.83011">
        <ele>204.8</ele>
        <time>2018-06-21T19:20:54Z</time>
      </trkpt>
      <trkpt lat="44.00168" lon="1.83006">
        <ele>204.8</ele>
        <time>2018-06-21T19:20:55Z</time>
      </trkpt>
      <trkpt lat="44.00172" lon="1.83001">
        <ele>204.8</ele>
        <time>2018-06-21T19:20:56Z</time>
      </trkpt>
      <trkpt lat="44.00176" lon="1.82996">
        <ele>204.9</ele>
        <time>2018-06-21T19:20:57Z</time>
      </trkpt>
      <trkpt lat="44.00181" lon="1.82991">
        <ele>204.9</ele>
        <time>2018-06-21T19:20:58Z</time>
      </trkpt>
      <trkpt lat="44.00184" lon="1.82986">
        <ele>204.8</ele>
        <time>2018-06-21T19:20:59Z</time>
      </trkpt>
      <trkpt lat="44.00188" lon="1.82981">
        <ele>204.8</ele>
        <time>2018-06-21T19:21:00Z</time>
      </trkpt>
      <trkpt lat="44.00191" lon="1.82977">
        <ele>204.9</ele>
        <time>2018-06-21T19:21:01Z</time>
      </trkpt>
      <trkpt lat="44.00193" lon="1.82973">
        <ele>204.9</ele>
        <time>2018-06-21T19:21:02Z</time>
      </trkpt>
      <trkpt lat="44.00195" lon="1.82968">
        <ele>205</ele>
        <time>2018-06-21T19:21:03Z</time>
      </trkpt>
      <trkpt lat="44.00198" lon="1.82963">
        <ele>204.7</ele>
        <time>2018-06-21T19:21:04Z</time>
      </trkpt>
      <trkpt lat="44.002" lon="1.82958">
        <ele>204.9</ele>
        <time>2018-06-21T19:21:05Z</time>
      </trkpt>
      <trkpt lat="44.00203" lon="1.82953">
        <ele>205.1</ele>
        <time>2018-06-21T19:21:06Z</time>
      </trkpt>
      <trkpt lat="44.00206" lon="1.82948">
        <ele>205</ele>
        <time>2018-06-21T19:21:07Z</time>
      </trkpt>
      <trkpt lat="44.00209" lon="1.82943">
        <ele>205.2</ele>
        <time>2018-06-21T19:21:08Z</time>
      </trkpt>
      <trkpt lat="44.00212" lon="1.82938">
        <ele>205.3</ele>
        <time>2018-06-21T19:21:09Z</time>
      </trkpt>
      <trkpt lat="44.00214" lon="1.82933">
        <ele>205.4</ele>
        <time>2018-06-21T19:21:10Z</time>
      </trkpt>
      <trkpt lat="44.00217" lon="1.82929">
        <ele>205.4</ele>
        <time>2018-06-21T19:21:11Z</time>
      </trkpt>
      <trkpt lat="44.0022" lon="1.82924">
        <ele>205.1</ele>
        <time>2018-06-21T19:21:12Z</time>
      </trkpt>
      <trkpt lat="44.00223" lon="1.82919">
        <ele>205.2</ele>
        <time>2018-06-21T19:21:13Z</time>
      </trkpt>
      <trkpt lat="44.00226" lon="1.82914">
        <ele>205.2</ele>
        <time>2018-06-21T19:21:14Z</time>
      </trkpt>
      <trkpt lat="44.00229" lon="1.82909">
        <ele>205.3</ele>
        <time>2018-06-21T19:21:15Z</time>
      </trkpt>
      <trkpt lat="44.00233" lon="1.82904">
        <ele>205.4</ele>
        <time>2018-06-21T19:21:16Z</time>
      </trkpt>
      <trkpt lat="44.00237" lon="1.82899">
        <ele>205.5</ele>
        <time>2018-06-21T19:21:17Z</time>
      </trkpt>
      <trkpt lat="44.0024" lon="1.82895">
        <ele>205.7</ele>
        <time>2018-06-21T19:21:18Z</time>
      </trkpt>
      <trkpt lat="44.00244" lon="1.82891">
        <ele>205.9</ele>
        <time>2018-06-21T19:21:19Z</time>
      </trkpt>
      <trkpt lat="44.00248" lon="1.82888">
        <ele>206.6</ele>
        <time>2018-06-21T19:21:20Z</time>
      </trkpt>
      <trkpt lat="44.00252" lon="1.82885">
        <ele>207</ele>
        <time>2018-06-21T19:21:21Z</time>
      </trkpt>
      <trkpt lat="44.00255" lon="1.82882">
        <ele>207.3</ele>
        <time>2018-06-21T19:21:22Z</time>
      </trkpt>
      <trkpt lat="44.00259" lon="1.82879">
        <ele>207.5</ele>
        <time>2018-06-21T19:21:23Z</time>
      </trkpt>
      <trkpt lat="44.00262" lon="1.82876">
        <ele>208</ele>
        <time>2018-06-21T19:21:24Z</time>
      </trkpt>
      <trkpt lat="44.00265" lon="1.82874">
        <ele>208.2</ele>
        <time>2018-06-21T19:21:25Z</time>
      </trkpt>
      <trkpt lat="44.00268" lon="1.82872">
        <ele>208.6</ele>
        <time>2018-06-21T19:21:26Z</time>
      </trkpt>
      <trkpt lat="44.00272" lon="1.82871">
        <ele>208.8</ele>
        <time>2018-06-21T19:21:27Z</time>
      </trkpt>
      <trkpt lat="44.00274" lon="1.82869">
        <ele>209.2</ele>
        <time>2018-06-21T19:21:28Z</time>
      </trkpt>
      <trkpt lat="44.00277" lon="1.82867">
        <ele>209.7</ele>
        <time>2018-06-21T19:21:29Z</time>
      </trkpt>
      <trkpt lat="44.0028" lon="1.82865">
        <ele>209.8</ele>
        <time>2018-06-21T19:21:30Z</time>
      </trkpt>
      <trkpt lat="44.00283" lon="1.82864">
        <ele>210.2</ele>
        <time>2018-06-21T19:21:31Z</time>
      </trkpt>
      <trkpt lat="44.00286" lon="1.82862">
        <ele>210.7</ele>
        <time>2018-06-21T19:21:32Z</time>
      </trkpt>
      <trkpt lat="44.00289" lon="1.82861">
        <ele>210.8</ele>
        <time>2018-06-21T19:21:33Z</time>
      </trkpt>
      <trkpt lat="44.00292" lon="1.8286">
        <ele>211.2</ele>
        <time>2018-06-21T19:21:34Z</time>
      </trkpt>
      <trkpt lat="44.00295" lon="1.82859">
        <ele>211.6</ele>
        <time>2018-06-21T19:21:35Z</time>
      </trkpt>
      <trkpt lat="44.00298" lon="1.82857">
        <ele>211.7</ele>
        <time>2018-06-21T19:21:36Z</time>
      </trkpt>
      <trkpt lat="44.00301" lon="1.82856">
        <ele>212.2</ele>
        <time>2018-06-21T19:21:37Z</time>
      </trkpt>
      <trkpt lat="44.00303" lon="1.82854">
        <ele>212.2</ele>
        <time>2018-06-21T19:21:38Z</time>
      </trkpt>
      <trkpt lat="44.00306" lon="1.82853">
        <ele>212.3</ele>
        <time>2018-06-21T19:21:39Z</time>
      </trkpt>
      <trkpt lat="44.00309" lon="1.8285">
        <ele>212.9</ele>
        <time>2018-06-21T19:21:40Z</time>
      </trkpt>
      <trkpt lat="44.00312" lon="1.82848">
        <ele>212.9</ele>
        <time>2018-06-21T19:21:41Z</time>
      </trkpt>
      <trkpt lat="44.00315" lon="1.82845">
        <ele>212.9</ele>
        <time>2018-06-21T19:21:42Z</time>
      </trkpt>
      <trkpt lat="44.00317" lon="1.82843">
        <ele>213.3</ele>
        <time>2018-06-21T19:21:43Z</time>
      </trkpt>
      <trkpt lat="44.0032" lon="1.8284">
        <ele>213.2</ele>
        <time>2018-06-21T19:21:44Z</time>
      </trkpt>
      <trkpt lat="44.00323" lon="1.82838">
        <ele>213.6</ele>
        <time>2018-06-21T19:21:45Z</time>
      </trkpt>
      <trkpt lat="44.00326" lon="1.82835">
        <ele>213.5</ele>
        <time>2018-06-21T19:21:46Z</time>
      </trkpt>
      <trkpt lat="44.00329" lon="1.82832">
        <ele>213.4</ele>
        <time>2018-06-21T19:21:47Z</time>
      </trkpt>
      <trkpt lat="44.00332" lon="1.8283">
        <ele>213.8</ele>
        <time>2018-06-21T19:21:48Z</time>
      </trkpt>
      <trkpt lat="44.00335" lon="1.82828">
        <ele>213.7</ele>
        <time>2018-06-21T19:21:49Z</time>
      </trkpt>
      <trkpt lat="44.00339" lon="1.82826">
        <ele>214</ele>
        <time>2018-06-21T19:21:50Z</time>
      </trkpt>
      <trkpt lat="44.00342" lon="1.82824">
        <ele>213.8</ele>
        <time>2018-06-21T19:21:51Z</time>
      </trkpt>
      <trkpt lat="44.00346" lon="1.82822">
        <ele>214.1</ele>
        <time>2018-06-21T19:21:52Z</time>
      </trkpt>
      <trkpt lat="44.0035" lon="1.82821">
        <ele>214.4</ele>
        <time>2018-06-21T19:21:53Z</time>
      </trkpt>
      <trkpt lat="44.00353" lon="1.82819">
        <ele>214.3</ele>
        <time>2018-06-21T19:21:54Z</time>
      </trkpt>
      <trkpt lat="44.00356" lon="1.82818">
        <ele>214.6</ele>
        <time>2018-06-21T19:21:55Z</time>
      </trkpt>
      <trkpt lat="44.00359" lon="1.82818">
        <ele>214.7</ele>
        <time>2018-06-21T19:21:56Z</time>
      </trkpt>
      <trkpt lat="44.00362" lon="1.82817">
        <ele>214.9</ele>
        <time>2018-06-21T19:21:57Z</time>
      </trkpt>
      <trkpt lat="44.00366" lon="1.82816">
        <ele>215.1</ele>
        <time>2018-06-21T19:21:58Z</time>
      </trkpt>
      <trkpt lat="44.00369" lon="1.82815">
        <ele>214.8</ele>
        <time>2018-06-21T19:21:59Z</time>
      </trkpt>
      <trkpt lat="44.00372" lon="1.82815">
        <ele>214.9</ele>
        <time>2018-06-21T19:22:00Z</time>
      </trkpt>
      <trkpt lat="44.00376" lon="1.82814">
        <ele>215</ele>
        <time>2018-06-21T19:22:01Z</time>
      </trkpt>
      <trkpt lat="44.0038" lon="1.82813">
        <ele>215.2</ele>
        <time>2018-06-21T19:22:02Z</time>
      </trkpt>
      <trkpt lat="44.00383" lon="1.82812">
        <ele>215.3</ele>
        <time>2018-06-21T19:22:03Z</time>
      </trkpt>
      <trkpt lat="44.00387" lon="1.8281">
        <ele>215.2</ele>
        <time>2018-06-21T19:22:04Z</time>
      </trkpt>
      <trkpt lat="44.00391" lon="1.82809">
        <ele>215.4</ele>
        <time>2018-06-21T19:22:05Z</time>
      </trkpt>
      <trkpt lat="44.00394" lon="1.82808">
        <ele>215.6</ele>
        <time>2018-06-21T19:22:06Z</time>
      </trkpt>
      <trkpt lat="44.00397" lon="1.82807">
        <ele>215.7</ele>
        <time>2018-06-21T19:22:07Z</time>
      </trkpt>
      <trkpt lat="44.004" lon="1.82806">
        <ele>215.4</ele>
        <time>2018-06-21T19:22:08Z</time>
      </trkpt>
      <trkpt lat="44.00403" lon="1.82805">
        <ele>215.6</ele>
        <time>2018-06-21T19:22:09Z</time>
      </trkpt>
      <trkpt lat="44.00407" lon="1.82804">
        <ele>215.7</ele>
        <time>2018-06-21T19:22:10Z</time>
      </trkpt>
      <trkpt lat="44.0041" lon="1.82803">
        <ele>215.9</ele>
        <time>2018-06-21T19:22:11Z</time>
      </trkpt>
      <trkpt lat="44.00414" lon="1.82802">
        <ele>215.6</ele>
        <time>2018-06-21T19:22:12Z</time>
      </trkpt>
      <trkpt lat="44.00417" lon="1.82801">
        <ele>215.3</ele>
        <time>2018-06-21T19:22:13Z</time>
      </trkpt>
      <trkpt lat="44.0042" lon="1.828">
        <ele>215</ele>
        <time>2018-06-21T19:22:14Z</time>
      </trkpt>
      <trkpt lat="44.00423" lon="1.82799">
        <ele>214.8</ele>
        <time>2018-06-21T19:22:15Z</time>
      </trkpt>
      <trkpt lat="44.00426" lon="1.82799">
        <ele>214.7</ele>
        <time>2018-06-21T19:22:16Z</time>
      </trkpt>
      <trkpt lat="44.00429" lon="1.82798">
        <ele>214.6</ele>
        <time>2018-06-21T19:22:17Z</time>
      </trkpt>
      <trkpt lat="44.00432" lon="1.82797">
        <ele>214.5</ele>
        <time>2018-06-21T19:22:18Z</time>
      </trkpt>
      <trkpt lat="44.00435" lon="1.82796">
        <ele>214.2</ele>
        <time>2018-06-21T19:22:19Z</time>
      </trkpt>
      <trkpt lat="44.00438" lon="1.82795">
        <ele>214</ele>
        <time>2018-06-21T19:22:20Z</time>
      </trkpt>
      <trkpt lat="44.00441" lon="1.82793">
        <ele>214</ele>
        <time>2018-06-21T19:22:21Z</time>
      </trkpt>
      <trkpt lat="44.00445" lon="1.82792">
        <ele>214.1</ele>
        <time>2018-06-21T19:22:22Z</time>
      </trkpt>
      <trkpt lat="44.00448" lon="1.8279">
        <ele>214.1</ele>
        <time>2018-06-21T19:22:23Z</time>
      </trkpt>
      <trkpt lat="44.00452" lon="1.82789">
        <ele>214.2</ele>
        <time>2018-06-21T19:22:24Z</time>
      </trkpt>
      <trkpt lat="44.00455" lon="1.82788">
        <ele>214.3</ele>
        <time>2018-06-21T19:22:25Z</time>
      </trkpt>
      <trkpt lat="44.00458" lon="1.82786">
        <ele>214.4</ele>
        <time>2018-06-21T19:22:26Z</time>
      </trkpt>
      <trkpt lat="44.00461" lon="1.82784">
        <ele>214.5</ele>
        <time>2018-06-21T19:22:27Z</time>
      </trkpt>
      <trkpt lat="44.00464" lon="1.82782">
        <ele>214.7</ele>
        <time>2018-06-21T19:22:28Z</time>
      </trkpt>
      <trkpt lat="44.00468" lon="1.82779">
        <ele>214.8</ele>
        <time>2018-06-21T19:22:29Z</time>
      </trkpt>
      <trkpt lat="44.0047" lon="1.82778">
        <ele>214.9</ele>
        <time>2018-06-21T19:22:30Z</time>
      </trkpt>
      <trkpt lat="44.00473" lon="1.82776">
        <ele>215</ele>
        <time>2018-06-21T19:22:31Z</time>
      </trkpt>
      <trkpt lat="44.00477" lon="1.82773">
        <ele>215.3</ele>
        <time>2018-06-21T19:22:32Z</time>
      </trkpt>
      <trkpt lat="44.00481" lon="1.82771">
        <ele>215.5</ele>
        <time>2018-06-21T19:22:33Z</time>
      </trkpt>
      <trkpt lat="44.00484" lon="1.8277">
        <ele>215.7</ele>
        <time>2018-06-21T19:22:34Z</time>
      </trkpt>
      <trkpt lat="44.00489" lon="1.82766">
        <ele>215.9</ele>
        <time>2018-06-21T19:22:36Z</time>
      </trkpt>
      <trkpt lat="44.00492" lon="1.82764">
        <ele>216</ele>
        <time>2018-06-21T19:22:37Z</time>
      </trkpt>
      <trkpt lat="44.00496" lon="1.82761">
        <ele>216.1</ele>
        <time>2018-06-21T19:22:38Z</time>
      </trkpt>
      <trkpt lat="44.00499" lon="1.82759">
        <ele>216.3</ele>
        <time>2018-06-21T19:22:39Z</time>
      </trkpt>
      <trkpt lat="44.00503" lon="1.82755">
        <ele>216.4</ele>
        <time>2018-06-21T19:22:40Z</time>
      </trkpt>
      <trkpt lat="44.00506" lon="1.82751">
        <ele>216.6</ele>
        <time>2018-06-21T19:22:41Z</time>
      </trkpt>
      <trkpt lat="44.0051" lon="1.82748">
        <ele>216.8</ele>
        <time>2018-06-21T19:22:42Z</time>
      </trkpt>
      <trkpt lat="44.00514" lon="1.82745">
        <ele>216.8</ele>
        <time>2018-06-21T19:22:43Z</time>
      </trkpt>
      <trkpt lat="44.00518" lon="1.8274">
        <ele>216.7</ele>
        <time>2018-06-21T19:22:44Z</time>
      </trkpt>
      <trkpt lat="44.00521" lon="1.82736">
        <ele>216.7</ele>
        <time>2018-06-21T19:22:45Z</time>
      </trkpt>
      <trkpt lat="44.00525" lon="1.82732">
        <ele>216.7</ele>
        <time>2018-06-21T19:22:46Z</time>
      </trkpt>
      <trkpt lat="44.00529" lon="1.82727">
        <ele>216.4</ele>
        <time>2018-06-21T19:22:47Z</time>
      </trkpt>
      <trkpt lat="44.00532" lon="1.82722">
        <ele>216.3</ele>
        <time>2018-06-21T19:22:48Z</time>
      </trkpt>
      <trkpt lat="44.00535" lon="1.82719">
        <ele>216.4</ele>
        <time>2018-06-21T19:22:49Z</time>
      </trkpt>
      <trkpt lat="44.00537" lon="1.82715">
        <ele>216.2</ele>
        <time>2018-06-21T19:22:50Z</time>
      </trkpt>
      <trkpt lat="44.00538" lon="1.82712">
        <ele>216</ele>
        <time>2018-06-21T19:22:51Z</time>
      </trkpt>
      <trkpt lat="44.00538" lon="1.82705">
        <ele>216</ele>
        <time>2018-06-21T19:22:53Z</time>
      </trkpt>
      <trkpt lat="44.00535" lon="1.82698">
        <ele>219.4</ele>
        <time>2018-06-21T19:22:55Z</time>
      </trkpt>
      <trkpt lat="44.00533" lon="1.82694">
        <ele>221.3</ele>
        <time>2018-06-21T19:22:56Z</time>
      </trkpt>
      <trkpt lat="44.00532" lon="1.8269">
        <ele>223</ele>
        <time>2018-06-21T19:22:57Z</time>
      </trkpt>
      <trkpt lat="44.00532" lon="1.82686">
        <ele>224.4</ele>
        <time>2018-06-21T19:22:58Z</time>
      </trkpt>
      <trkpt lat="44.0053" lon="1.82681">
        <ele>226.1</ele>
        <time>2018-06-21T19:22:59Z</time>
      </trkpt>
      <trkpt lat="44.00528" lon="1.82677">
        <ele>228.1</ele>
        <time>2018-06-21T19:23:00Z</time>
      </trkpt>
      <trkpt lat="44.00525" lon="1.82673">
        <ele>229.9</ele>
        <time>2018-06-21T19:23:01Z</time>
      </trkpt>
      <trkpt lat="44.00523" lon="1.82668">
        <ele>232.1</ele>
        <time>2018-06-21T19:23:03Z</time>
      </trkpt>
      <trkpt lat="44.0052" lon="1.82663">
        <ele>234</ele>
        <time>2018-06-21T19:23:05Z</time>
      </trkpt>
      <trkpt lat="44.00519" lon="1.82658">
        <ele>234</ele>
        <time>2018-06-21T19:23:07Z</time>
      </trkpt>
      <trkpt lat="44.00518" lon="1.82652">
        <ele>234</ele>
        <time>2018-06-21T19:23:09Z</time>
      </trkpt>
      <trkpt lat="44.00517" lon="1.82647">
        <ele>234</ele>
        <time>2018-06-21T19:23:11Z</time>
      </trkpt>
      <trkpt lat="44.00515" lon="1.82644">
        <ele>234.2</ele>
        <time>2018-06-21T19:23:13Z</time>
      </trkpt>
      <trkpt lat="44.00513" lon="1.82642">
        <ele>234.4</ele>
        <time>2018-06-21T19:23:15Z</time>
      </trkpt>
      <trkpt lat="44.0051" lon="1.8264">
        <ele>234.8</ele>
        <time>2018-06-21T19:23:19Z</time>
      </trkpt>
      <trkpt lat="44.00507" lon="1.82641">
        <ele>235.1</ele>
        <time>2018-06-21T19:23:21Z</time>
      </trkpt>
      <trkpt lat="44.00504" lon="1.82641">
        <ele>235.3</ele>
        <time>2018-06-21T19:23:23Z</time>
      </trkpt>
      <trkpt lat="44.00499" lon="1.8264">
        <ele>236</ele>
        <time>2018-06-21T19:23:25Z</time>
      </trkpt>
      <trkpt lat="44.00496" lon="1.82638">
        <ele>236.6</ele>
        <time>2018-06-21T19:23:27Z</time>
      </trkpt>
      <trkpt lat="44.00493" lon="1.82637">
        <ele>237</ele>
        <time>2018-06-21T19:23:29Z</time>
      </trkpt>
      <trkpt lat="44.0049" lon="1.82636">
        <ele>237.7</ele>
        <time>2018-06-21T19:23:31Z</time>
      </trkpt>
      <trkpt lat="44.00487" lon="1.82634">
        <ele>238.3</ele>
        <time>2018-06-21T19:23:36Z</time>
      </trkpt>
      <trkpt lat="44.00484" lon="1.82632">
        <ele>238.6</ele>
        <time>2018-06-21T19:23:40Z</time>
      </trkpt>
      <trkpt lat="44.00482" lon="1.82631">
        <ele>238.8</ele>
        <time>2018-06-21T19:23:43Z</time>
      </trkpt>
      <trkpt lat="44.00478" lon="1.82631">
        <ele>239.4</ele>
        <time>2018-06-21T19:23:45Z</time>
      </trkpt>
      <trkpt lat="44.00475" lon="1.82629">
        <ele>240</ele>
        <time>2018-06-21T19:23:47Z</time>
      </trkpt>
      <trkpt lat="44.00472" lon="1.82626">
        <ele>240.8</ele>
        <time>2018-06-21T19:23:49Z</time>
      </trkpt>
      <trkpt lat="44.0047" lon="1.82624">
        <ele>241.5</ele>
        <time>2018-06-21T19:23:51Z</time>
      </trkpt>
      <trkpt lat="44.00468" lon="1.8262">
        <ele>242</ele>
        <time>2018-06-21T19:23:53Z</time>
      </trkpt>
      <trkpt lat="44.00466" lon="1.82615">
        <ele>242.9</ele>
        <time>2018-06-21T19:23:55Z</time>
      </trkpt>
      <trkpt lat="44.00465" lon="1.82611">
        <ele>243.6</ele>
        <time>2018-06-21T19:23:57Z</time>
      </trkpt>
      <trkpt lat="44.00463" lon="1.82607">
        <ele>244.2</ele>
        <time>2018-06-21T19:23:59Z</time>
      </trkpt>
      <trkpt lat="44.00461" lon="1.82604">
        <ele>244.8</ele>
        <time>2018-06-21T19:24:02Z</time>
      </trkpt>
      <trkpt lat="44.0046" lon="1.826">
        <ele>245.1</ele>
        <time>2018-06-21T19:24:05Z</time>
      </trkpt>
      <trkpt lat="44.00457" lon="1.82595">
        <ele>245.5</ele>
        <time>2018-06-21T19:24:08Z</time>
      </trkpt>
      <trkpt lat="44.00456" lon="1.8259">
        <ele>246.1</ele>
        <time>2018-06-21T19:24:11Z</time>
      </trkpt>
      <trkpt lat="44.00455" lon="1.82585">
        <ele>246.5</ele>
        <time>2018-06-21T19:24:13Z</time>
      </trkpt>
      <trkpt lat="44.00455" lon="1.8258">
        <ele>246.7</ele>
        <time>2018-06-21T19:24:15Z</time>
      </trkpt>
      <trkpt lat="44.00455" lon="1.82575">
        <ele>247</ele>
        <time>2018-06-21T19:24:18Z</time>
      </trkpt>
      <trkpt lat="44.00454" lon="1.82571">
        <ele>247.5</ele>
        <time>2018-06-21T19:24:21Z</time>
      </trkpt>
      <trkpt lat="44.00453" lon="1.82565">
        <ele>248</ele>
        <time>2018-06-21T19:24:23Z</time>
      </trkpt>
      <trkpt lat="44.00452" lon="1.8256">
        <ele>248.2</ele>
        <time>2018-06-21T19:24:26Z</time>
      </trkpt>
      <trkpt lat="44.00451" lon="1.82556">
        <ele>248.4</ele>
        <time>2018-06-21T19:24:28Z</time>
      </trkpt>
      <trkpt lat="44.00451" lon="1.82552">
        <ele>248.7</ele>
        <time>2018-06-21T19:24:30Z</time>
      </trkpt>
      <trkpt lat="44.0045" lon="1.82549">
        <ele>248.9</ele>
        <time>2018-06-21T19:24:32Z</time>
      </trkpt>
      <trkpt lat="44.0045" lon="1.82544">
        <ele>249.5</ele>
        <time>2018-06-21T19:24:34Z</time>
      </trkpt>
      <trkpt lat="44.00449" lon="1.82539">
        <ele>249.7</ele>
        <time>2018-06-21T19:24:36Z</time>
      </trkpt>
      <trkpt lat="44.00448" lon="1.82534">
        <ele>249.9</ele>
        <time>2018-06-21T19:24:38Z</time>
      </trkpt>
      <trkpt lat="44.00447" lon="1.82529">
        <ele>250.1</ele>
        <time>2018-06-21T19:24:40Z</time>
      </trkpt>
      <trkpt lat="44.00446" lon="1.82524">
        <ele>250.3</ele>
        <time>2018-06-21T19:24:42Z</time>
      </trkpt>
      <trkpt lat="44.00445" lon="1.82519">
        <ele>250.7</ele>
        <time>2018-06-21T19:24:44Z</time>
      </trkpt>
      <trkpt lat="44.00445" lon="1.82514">
        <ele>251.1</ele>
        <time>2018-06-21T19:24:47Z</time>
      </trkpt>
      <trkpt lat="44.00444" lon="1.82509">
        <ele>251.4</ele>
        <time>2018-06-21T19:24:49Z</time>
      </trkpt>
      <trkpt lat="44.00443" lon="1.82503">
        <ele>251.6</ele>
        <time>2018-06-21T19:24:51Z</time>
      </trkpt>
      <trkpt lat="44.00442" lon="1.82498">
        <ele>251.8</ele>
        <time>2018-06-21T19:24:53Z</time>
      </trkpt>
      <trkpt lat="44.0044" lon="1.82492">
        <ele>252.4</ele>
        <time>2018-06-21T19:24:55Z</time>
      </trkpt>
      <trkpt lat="44.00439" lon="1.82487">
        <ele>252.8</ele>
        <time>2018-06-21T19:24:57Z</time>
      </trkpt>
      <trkpt lat="44.00438" lon="1.82483">
        <ele>253</ele>
        <time>2018-06-21T19:24:59Z</time>
      </trkpt>
      <trkpt lat="44.00438" lon="1.82479">
        <ele>253.3</ele>
        <time>2018-06-21T19:25:02Z</time>
      </trkpt>
      <trkpt lat="44.00437" lon="1.82474">
        <ele>253.7</ele>
        <time>2018-06-21T19:25:04Z</time>
      </trkpt>
      <trkpt lat="44.00437" lon="1.8247">
        <ele>254.2</ele>
        <time>2018-06-21T19:25:06Z</time>
      </trkpt>
      <trkpt lat="44.00437" lon="1.82465">
        <ele>254.6</ele>
        <time>2018-06-21T19:25:08Z</time>
      </trkpt>
      <trkpt lat="44.00437" lon="1.82461">
        <ele>255</ele>
        <time>2018-06-21T19:25:10Z</time>
      </trkpt>
      <trkpt lat="44.00437" lon="1.82456">
        <ele>255.4</ele>
        <time>2018-06-21T19:25:12Z</time>
      </trkpt>
      <trkpt lat="44.00436" lon="1.82451">
        <ele>255.8</ele>
        <time>2018-06-21T19:25:14Z</time>
      </trkpt>
      <trkpt lat="44.00437" lon="1.82446">
        <ele>256</ele>
        <time>2018-06-21T19:25:16Z</time>
      </trkpt>
      <trkpt lat="44.00437" lon="1.82439">
        <ele>256.1</ele>
        <time>2018-06-21T19:25:18Z</time>
      </trkpt>
      <trkpt lat="44.00437" lon="1.82434">
        <ele>256.3</ele>
        <time>2018-06-21T19:25:20Z</time>
      </trkpt>
      <trkpt lat="44.00437" lon="1.82428">
        <ele>256.4</ele>
        <time>2018-06-21T19:25:22Z</time>
      </trkpt>
      <trkpt lat="44.00438" lon="1.8242">
        <ele>256.9</ele>
        <time>2018-06-21T19:25:24Z</time>
      </trkpt>
      <trkpt lat="44.00438" lon="1.82413">
        <ele>257.4</ele>
        <time>2018-06-21T19:25:26Z</time>
      </trkpt>
      <trkpt lat="44.00439" lon="1.82406">
        <ele>257.6</ele>
        <time>2018-06-21T19:25:28Z</time>
      </trkpt>
      <trkpt lat="44.0044" lon="1.82401">
        <ele>257.8</ele>
        <time>2018-06-21T19:25:30Z</time>
      </trkpt>
      <trkpt lat="44.0044" lon="1.82395">
        <ele>257.9</ele>
        <time>2018-06-21T19:25:32Z</time>
      </trkpt>
      <trkpt lat="44.0044" lon="1.82391">
        <ele>258.2</ele>
        <time>2018-06-21T19:25:34Z</time>
      </trkpt>
      <trkpt lat="44.00441" lon="1.82385">
        <ele>258.6</ele>
        <time>2018-06-21T19:25:36Z</time>
      </trkpt>
      <trkpt lat="44.00441" lon="1.8238">
        <ele>259</ele>
        <time>2018-06-21T19:25:39Z</time>
      </trkpt>
      <trkpt lat="44.00442" lon="1.82376">
        <ele>259.1</ele>
        <time>2018-06-21T19:25:41Z</time>
      </trkpt>
      <trkpt lat="44.00442" lon="1.8237">
        <ele>259.3</ele>
        <time>2018-06-21T19:25:43Z</time>
      </trkpt>
      <trkpt lat="44.00443" lon="1.82365">
        <ele>259.8</ele>
        <time>2018-06-21T19:25:45Z</time>
      </trkpt>
      <trkpt lat="44.00443" lon="1.82361">
        <ele>260.3</ele>
        <time>2018-06-21T19:25:47Z</time>
      </trkpt>
      <trkpt lat="44.00443" lon="1.82357">
        <ele>260.6</ele>
        <time>2018-06-21T19:25:49Z</time>
      </trkpt>
      <trkpt lat="44.00443" lon="1.82352">
        <ele>261.1</ele>
        <time>2018-06-21T19:25:51Z</time>
      </trkpt>
      <trkpt lat="44.00443" lon="1.82346">
        <ele>261.6</ele>
        <time>2018-06-21T19:25:54Z</time>
      </trkpt>
      <trkpt lat="44.00444" lon="1.82342">
        <ele>261.8</ele>
        <time>2018-06-21T19:25:56Z</time>
      </trkpt>
      <trkpt lat="44.00445" lon="1.82338">
        <ele>262</ele>
        <time>2018-06-21T19:25:58Z</time>
      </trkpt>
      <trkpt lat="44.00445" lon="1.82334">
        <ele>262.2</ele>
        <time>2018-06-21T19:26:01Z</time>
      </trkpt>
      <trkpt lat="44.00443" lon="1.82331">
        <ele>262.4</ele>
        <time>2018-06-21T19:26:03Z</time>
      </trkpt>
      <trkpt lat="44.00441" lon="1.82327">
        <ele>262.8</ele>
        <time>2018-06-21T19:26:05Z</time>
      </trkpt>
      <trkpt lat="44.00439" lon="1.82324">
        <ele>262.4</ele>
        <time>2018-06-21T19:26:07Z</time>
      </trkpt>
      <trkpt lat="44.00436" lon="1.8232">
        <ele>261.8</ele>
        <time>2018-06-21T19:26:10Z</time>
      </trkpt>
      <trkpt lat="44.00434" lon="1.82318">
        <ele>261.4</ele>
        <time>2018-06-21T19:26:13Z</time>
      </trkpt>
      <trkpt lat="44.00432" lon="1.82313">
        <ele>260.9</ele>
        <time>2018-06-21T19:26:39Z</time>
      </trkpt>
      <trkpt lat="44.00428" lon="1.8231">
        <ele>260.3</ele>
        <time>2018-06-21T19:26:42Z</time>
      </trkpt>
      <trkpt lat="44.00422" lon="1.82302">
        <ele>259.2</ele>
        <time>2018-06-21T19:26:44Z</time>
      </trkpt>
      <trkpt lat="44.00419" lon="1.82299">
        <ele>258.6</ele>
        <time>2018-06-21T19:26:45Z</time>
      </trkpt>
      <trkpt lat="44.00415" lon="1.82296">
        <ele>258</ele>
        <time>2018-06-21T19:26:46Z</time>
      </trkpt>
      <trkpt lat="44.00412" lon="1.82292">
        <ele>257.4</ele>
        <time>2018-06-21T19:26:47Z</time>
      </trkpt>
      <trkpt lat="44.00409" lon="1.8229">
        <ele>256.9</ele>
        <time>2018-06-21T19:26:48Z</time>
      </trkpt>
      <trkpt lat="44.00406" lon="1.82288">
        <ele>256.1</ele>
        <time>2018-06-21T19:26:49Z</time>
      </trkpt>
      <trkpt lat="44.00403" lon="1.82286">
        <ele>255.4</ele>
        <time>2018-06-21T19:26:50Z</time>
      </trkpt>
      <trkpt lat="44.00399" lon="1.82285">
        <ele>254.5</ele>
        <time>2018-06-21T19:26:51Z</time>
      </trkpt>
      <trkpt lat="44.00395" lon="1.82281">
        <ele>253.5</ele>
        <time>2018-06-21T19:26:52Z</time>
      </trkpt>
      <trkpt lat="44.00392" lon="1.82278">
        <ele>252.6</ele>
        <time>2018-06-21T19:26:53Z</time>
      </trkpt>
      <trkpt lat="44.0039" lon="1.82274">
        <ele>252</ele>
        <time>2018-06-21T19:26:54Z</time>
      </trkpt>
      <trkpt lat="44.0039" lon="1.8227">
        <ele>251.5</ele>
        <time>2018-06-21T19:26:55Z</time>
      </trkpt>
      <trkpt lat="44.00391" lon="1.82266">
        <ele>251.6</ele>
        <time>2018-06-21T19:26:57Z</time>
      </trkpt>
      <trkpt lat="44.00394" lon="1.82264">
        <ele>252</ele>
        <time>2018-06-21T19:26:59Z</time>
      </trkpt>
      <trkpt lat="44.00395" lon="1.8226">
        <ele>252.7</ele>
        <time>2018-06-21T19:27:01Z</time>
      </trkpt>
      <trkpt lat="44.00396" lon="1.82253">
        <ele>253.3</ele>
        <time>2018-06-21T19:27:03Z</time>
      </trkpt>
      <trkpt lat="44.00395" lon="1.82248">
        <ele>253.7</ele>
        <time>2018-06-21T19:27:05Z</time>
      </trkpt>
      <trkpt lat="44.00395" lon="1.82243">
        <ele>253.9</ele>
        <time>2018-06-21T19:27:07Z</time>
      </trkpt>
      <trkpt lat="44.00396" lon="1.82238">
        <ele>254.1</ele>
        <time>2018-06-21T19:27:08Z</time>
      </trkpt>
      <trkpt lat="44.00397" lon="1.82233">
        <ele>254.5</ele>
        <time>2018-06-21T19:27:10Z</time>
      </trkpt>
      <trkpt lat="44.00396" lon="1.82227">
        <ele>255</ele>
        <time>2018-06-21T19:27:12Z</time>
      </trkpt>
      <trkpt lat="44.00397" lon="1.8222">
        <ele>255.3</ele>
        <time>2018-06-21T19:27:14Z</time>
      </trkpt>
      <trkpt lat="44.00397" lon="1.82213">
        <ele>255.5</ele>
        <time>2018-06-21T19:27:16Z</time>
      </trkpt>
      <trkpt lat="44.00398" lon="1.82209">
        <ele>255.7</ele>
        <time>2018-06-21T19:27:17Z</time>
      </trkpt>
      <trkpt lat="44.00399" lon="1.82205">
        <ele>256.1</ele>
        <time>2018-06-21T19:27:18Z</time>
      </trkpt>
      <trkpt lat="44.00399" lon="1.82201">
        <ele>256.3</ele>
        <time>2018-06-21T19:27:19Z</time>
      </trkpt>
      <trkpt lat="44.004" lon="1.82196">
        <ele>256.7</ele>
        <time>2018-06-21T19:27:20Z</time>
      </trkpt>
      <trkpt lat="44.00401" lon="1.8219">
        <ele>256.9</ele>
        <time>2018-06-21T19:27:22Z</time>
      </trkpt>
      <trkpt lat="44.00402" lon="1.82184">
        <ele>257</ele>
        <time>2018-06-21T19:27:24Z</time>
      </trkpt>
      <trkpt lat="44.00403" lon="1.82178">
        <ele>257.1</ele>
        <time>2018-06-21T19:27:26Z</time>
      </trkpt>
      <trkpt lat="44.00403" lon="1.82172">
        <ele>257.2</ele>
        <time>2018-06-21T19:27:28Z</time>
      </trkpt>
      <trkpt lat="44.00404" lon="1.82167">
        <ele>257.3</ele>
        <time>2018-06-21T19:27:30Z</time>
      </trkpt>
      <trkpt lat="44.00404" lon="1.82162">
        <ele>257.4</ele>
        <time>2018-06-21T19:27:32Z</time>
      </trkpt>
      <trkpt lat="44.00404" lon="1.82156">
        <ele>257.5</ele>
        <time>2018-06-21T19:27:34Z</time>
      </trkpt>
      <trkpt lat="44.00404" lon="1.82151">
        <ele>257.6</ele>
        <time>2018-06-21T19:27:36Z</time>
      </trkpt>
      <trkpt lat="44.00404" lon="1.82145">
        <ele>257.7</ele>
        <time>2018-06-21T19:27:38Z</time>
      </trkpt>
      <trkpt lat="44.00405" lon="1.82139">
        <ele>257.9</ele>
        <time>2018-06-21T19:27:40Z</time>
      </trkpt>
      <trkpt lat="44.00406" lon="1.82132">
        <ele>258.2</ele>
        <time>2018-06-21T19:27:42Z</time>
      </trkpt>
      <trkpt lat="44.00407" lon="1.82127">
        <ele>258.5</ele>
        <time>2018-06-21T19:27:44Z</time>
      </trkpt>
      <trkpt lat="44.00409" lon="1.82121">
        <ele>258.8</ele>
        <time>2018-06-21T19:27:46Z</time>
      </trkpt>
      <trkpt lat="44.00412" lon="1.82115">
        <ele>259.1</ele>
        <time>2018-06-21T19:27:48Z</time>
      </trkpt>
      <trkpt lat="44.00416" lon="1.8211">
        <ele>259.3</ele>
        <time>2018-06-21T19:27:50Z</time>
      </trkpt>
      <trkpt lat="44.00419" lon="1.82105">
        <ele>259.5</ele>
        <time>2018-06-21T19:27:52Z</time>
      </trkpt>
      <trkpt lat="44.00421" lon="1.82103">
        <ele>259.6</ele>
        <time>2018-06-21T19:27:53Z</time>
      </trkpt>
      <trkpt lat="44.00426" lon="1.821">
        <ele>259.8</ele>
        <time>2018-06-21T19:27:55Z</time>
      </trkpt>
      <trkpt lat="44.00431" lon="1.82097">
        <ele>260</ele>
        <time>2018-06-21T19:27:57Z</time>
      </trkpt>
      <trkpt lat="44.00434" lon="1.82095">
        <ele>260.3</ele>
        <time>2018-06-21T19:27:59Z</time>
      </trkpt>
      <trkpt lat="44.00439" lon="1.82092">
        <ele>260.6</ele>
        <time>2018-06-21T19:28:01Z</time>
      </trkpt>
      <trkpt lat="44.00444" lon="1.82089">
        <ele>260.9</ele>
        <time>2018-06-21T19:28:03Z</time>
      </trkpt>
      <trkpt lat="44.00446" lon="1.82087">
        <ele>260.9</ele>
        <time>2018-06-21T19:28:04Z</time>
      </trkpt>
      <trkpt lat="44.00449" lon="1.82085">
        <ele>260.9</ele>
        <time>2018-06-21T19:28:05Z</time>
      </trkpt>
      <trkpt lat="44.00453" lon="1.82082">
        <ele>261</ele>
        <time>2018-06-21T19:28:07Z</time>
      </trkpt>
      <trkpt lat="44.00456" lon="1.8208">
        <ele>261</ele>
        <time>2018-06-21T19:28:08Z</time>
      </trkpt>
      <trkpt lat="44.00459" lon="1.82077">
        <ele>261.1</ele>
        <time>2018-06-21T19:28:10Z</time>
      </trkpt>
      <trkpt lat="44.00463" lon="1.82073">
        <ele>261.1</ele>
        <time>2018-06-21T19:28:12Z</time>
      </trkpt>
      <trkpt lat="44.00466" lon="1.82071">
        <ele>261.1</ele>
        <time>2018-06-21T19:28:13Z</time>
      </trkpt>
      <trkpt lat="44.00469" lon="1.82068">
        <ele>261.1</ele>
        <time>2018-06-21T19:28:14Z</time>
      </trkpt>
      <trkpt lat="44.00471" lon="1.82065">
        <ele>261.2</ele>
        <time>2018-06-21T19:28:15Z</time>
      </trkpt>
      <trkpt lat="44.00473" lon="1.82063">
        <ele>261.2</ele>
        <time>2018-06-21T19:28:16Z</time>
      </trkpt>
      <trkpt lat="44.00476" lon="1.82061">
        <ele>261.2</ele>
        <time>2018-06-21T19:28:17Z</time>
      </trkpt>
      <trkpt lat="44.00479" lon="1.82059">
        <ele>261.2</ele>
        <time>2018-06-21T19:28:18Z</time>
      </trkpt>
      <trkpt lat="44.00481" lon="1.82056">
        <ele>261.2</ele>
        <time>2018-06-21T19:28:19Z</time>
      </trkpt>
      <trkpt lat="44.00485" lon="1.82054">
        <ele>261.2</ele>
        <time>2018-06-21T19:28:20Z</time>
      </trkpt>
      <trkpt lat="44.00488" lon="1.82051">
        <ele>261.2</ele>
        <time>2018-06-21T19:28:21Z</time>
      </trkpt>
      <trkpt lat="44.0049" lon="1.82049">
        <ele>261.2</ele>
        <time>2018-06-21T19:28:22Z</time>
      </trkpt>
      <trkpt lat="44.00493" lon="1.82047">
        <ele>261.2</ele>
        <time>2018-06-21T19:28:23Z</time>
      </trkpt>
      <trkpt lat="44.00496" lon="1.82044">
        <ele>261.3</ele>
        <time>2018-06-21T19:28:24Z</time>
      </trkpt>
      <trkpt lat="44.005" lon="1.82042">
        <ele>261.3</ele>
        <time>2018-06-21T19:28:25Z</time>
      </trkpt>
      <trkpt lat="44.00504" lon="1.82039">
        <ele>261.3</ele>
        <time>2018-06-21T19:28:26Z</time>
      </trkpt>
      <trkpt lat="44.00507" lon="1.82037">
        <ele>261.3</ele>
        <time>2018-06-21T19:28:27Z</time>
      </trkpt>
      <trkpt lat="44.0051" lon="1.82035">
        <ele>261.3</ele>
        <time>2018-06-21T19:28:28Z</time>
      </trkpt>
      <trkpt lat="44.00514" lon="1.82033">
        <ele>261.3</ele>
        <time>2018-06-21T19:28:29Z</time>
      </trkpt>
      <trkpt lat="44.00517" lon="1.82031">
        <ele>261.3</ele>
        <time>2018-06-21T19:28:30Z</time>
      </trkpt>
      <trkpt lat="44.0052" lon="1.8203">
        <ele>261.4</ele>
        <time>2018-06-21T19:28:31Z</time>
      </trkpt>
      <trkpt lat="44.00523" lon="1.82027">
        <ele>261.4</ele>
        <time>2018-06-21T19:28:32Z</time>
      </trkpt>
      <trkpt lat="44.00526" lon="1.82026">
        <ele>261.4</ele>
        <time>2018-06-21T19:28:33Z</time>
      </trkpt>
      <trkpt lat="44.00529" lon="1.82023">
        <ele>261.4</ele>
        <time>2018-06-21T19:28:34Z</time>
      </trkpt>
      <trkpt lat="44.00532" lon="1.82022">
        <ele>261.5</ele>
        <time>2018-06-21T19:28:35Z</time>
      </trkpt>
      <trkpt lat="44.00536" lon="1.82019">
        <ele>261.7</ele>
        <time>2018-06-21T19:28:36Z</time>
      </trkpt>
      <trkpt lat="44.00539" lon="1.82017">
        <ele>261.8</ele>
        <time>2018-06-21T19:28:37Z</time>
      </trkpt>
      <trkpt lat="44.00542" lon="1.82014">
        <ele>262</ele>
        <time>2018-06-21T19:28:38Z</time>
      </trkpt>
      <trkpt lat="44.00545" lon="1.82011">
        <ele>262.2</ele>
        <time>2018-06-21T19:28:39Z</time>
      </trkpt>
      <trkpt lat="44.00549" lon="1.82007">
        <ele>262.4</ele>
        <time>2018-06-21T19:28:41Z</time>
      </trkpt>
      <trkpt lat="44.00552" lon="1.82005">
        <ele>262.6</ele>
        <time>2018-06-21T19:28:44Z</time>
      </trkpt>
      <trkpt lat="44.00555" lon="1.82004">
        <ele>262.7</ele>
        <time>2018-06-21T19:28:48Z</time>
      </trkpt>
      <trkpt lat="44.00559" lon="1.82002">
        <ele>262.8</ele>
        <time>2018-06-21T19:28:50Z</time>
      </trkpt>
      <trkpt lat="44.00564" lon="1.82">
        <ele>262.9</ele>
        <time>2018-06-21T19:28:52Z</time>
      </trkpt>
      <trkpt lat="44.00568" lon="1.81996">
        <ele>263</ele>
        <time>2018-06-21T19:28:54Z</time>
      </trkpt>
      <trkpt lat="44.00572" lon="1.81994">
        <ele>263</ele>
        <time>2018-06-21T19:28:56Z</time>
      </trkpt>
      <trkpt lat="44.00575" lon="1.81992">
        <ele>263</ele>
        <time>2018-06-21T19:28:58Z</time>
      </trkpt>
      <trkpt lat="44.00578" lon="1.8199">
        <ele>263</ele>
        <time>2018-06-21T19:29:01Z</time>
      </trkpt>
      <trkpt lat="44.00581" lon="1.81988">
        <ele>263</ele>
        <time>2018-06-21T19:29:05Z</time>
      </trkpt>
      <trkpt lat="44.00584" lon="1.81984">
        <ele>263</ele>
        <time>2018-06-21T19:29:07Z</time>
      </trkpt>
      <trkpt lat="44.00587" lon="1.81982">
        <ele>263</ele>
        <time>2018-06-21T19:29:08Z</time>
      </trkpt>
      <trkpt lat="44.00589" lon="1.8198">
        <ele>263</ele>
        <time>2018-06-21T19:29:09Z</time>
      </trkpt>
      <trkpt lat="44.00592" lon="1.81979">
        <ele>263</ele>
        <time>2018-06-21T19:29:10Z</time>
      </trkpt>
      <trkpt lat="44.00595" lon="1.81977">
        <ele>263</ele>
        <time>2018-06-21T19:29:11Z</time>
      </trkpt>
      <trkpt lat="44.00597" lon="1.81975">
        <ele>263</ele>
        <time>2018-06-21T19:29:12Z</time>
      </trkpt>
      <trkpt lat="44.006" lon="1.81974">
        <ele>263</ele>
        <time>2018-06-21T19:29:13Z</time>
      </trkpt>
      <trkpt lat="44.00603" lon="1.81972">
        <ele>263.1</ele>
        <time>2018-06-21T19:29:14Z</time>
      </trkpt>
      <trkpt lat="44.00606" lon="1.81971">
        <ele>263.1</ele>
        <time>2018-06-21T19:29:15Z</time>
      </trkpt>
      <trkpt lat="44.00609" lon="1.81969">
        <ele>263.1</ele>
        <time>2018-06-21T19:29:16Z</time>
      </trkpt>
      <trkpt lat="44.00612" lon="1.81965">
        <ele>263.1</ele>
        <time>2018-06-21T19:29:18Z</time>
      </trkpt>
      <trkpt lat="44.00615" lon="1.81963">
        <ele>263.2</ele>
        <time>2018-06-21T19:29:19Z</time>
      </trkpt>
      <trkpt lat="44.00618" lon="1.81962">
        <ele>263.2</ele>
        <time>2018-06-21T19:29:20Z</time>
      </trkpt>
      <trkpt lat="44.00621" lon="1.81959">
        <ele>263.2</ele>
        <time>2018-06-21T19:29:21Z</time>
      </trkpt>
      <trkpt lat="44.00624" lon="1.81958">
        <ele>263.3</ele>
        <time>2018-06-21T19:29:22Z</time>
      </trkpt>
      <trkpt lat="44.00627" lon="1.81956">
        <ele>263.4</ele>
        <time>2018-06-21T19:29:23Z</time>
      </trkpt>
      <trkpt lat="44.0063" lon="1.81955">
        <ele>263.5</ele>
        <time>2018-06-21T19:29:24Z</time>
      </trkpt>
      <trkpt lat="44.00633" lon="1.81953">
        <ele>263.7</ele>
        <time>2018-06-21T19:29:25Z</time>
      </trkpt>
      <trkpt lat="44.00635" lon="1.81953">
        <ele>263.9</ele>
        <time>2018-06-21T19:29:26Z</time>
      </trkpt>
      <trkpt lat="44.00638" lon="1.81951">
        <ele>264.1</ele>
        <time>2018-06-21T19:29:27Z</time>
      </trkpt>
      <trkpt lat="44.00641" lon="1.8195">
        <ele>264.4</ele>
        <time>2018-06-21T19:29:28Z</time>
      </trkpt>
      <trkpt lat="44.00644" lon="1.81948">
        <ele>264.7</ele>
        <time>2018-06-21T19:29:29Z</time>
      </trkpt>
      <trkpt lat="44.00648" lon="1.81946">
        <ele>265.1</ele>
        <time>2018-06-21T19:29:31Z</time>
      </trkpt>
      <trkpt lat="44.00651" lon="1.81945">
        <ele>265.3</ele>
        <time>2018-06-21T19:29:32Z</time>
      </trkpt>
      <trkpt lat="44.00653" lon="1.81943">
        <ele>265.4</ele>
        <time>2018-06-21T19:29:33Z</time>
      </trkpt>
      <trkpt lat="44.00656" lon="1.81941">
        <ele>265.6</ele>
        <time>2018-06-21T19:29:34Z</time>
      </trkpt>
      <trkpt lat="44.00659" lon="1.81941">
        <ele>265.9</ele>
        <time>2018-06-21T19:29:35Z</time>
      </trkpt>
      <trkpt lat="44.00662" lon="1.8194">
        <ele>266.2</ele>
        <time>2018-06-21T19:29:36Z</time>
      </trkpt>
      <trkpt lat="44.00667" lon="1.81938">
        <ele>266.6</ele>
        <time>2018-06-21T19:29:38Z</time>
      </trkpt>
      <trkpt lat="44.00672" lon="1.81936">
        <ele>266.8</ele>
        <time>2018-06-21T19:29:40Z</time>
      </trkpt>
      <trkpt lat="44.00676" lon="1.81935">
        <ele>266.9</ele>
        <time>2018-06-21T19:29:41Z</time>
      </trkpt>
      <trkpt lat="44.00679" lon="1.81933">
        <ele>266.9</ele>
        <time>2018-06-21T19:29:42Z</time>
      </trkpt>
      <trkpt lat="44.00683" lon="1.81931">
        <ele>267</ele>
        <time>2018-06-21T19:29:43Z</time>
      </trkpt>
      <trkpt lat="44.00686" lon="1.8193">
        <ele>267.1</ele>
        <time>2018-06-21T19:29:44Z</time>
      </trkpt>
      <trkpt lat="44.0069" lon="1.81928">
        <ele>267.1</ele>
        <time>2018-06-21T19:29:45Z</time>
      </trkpt>
      <trkpt lat="44.00694" lon="1.81927">
        <ele>267.1</ele>
        <time>2018-06-21T19:29:46Z</time>
      </trkpt>
      <trkpt lat="44.00698" lon="1.81926">
        <ele>267.2</ele>
        <time>2018-06-21T19:29:47Z</time>
      </trkpt>
      <trkpt lat="44.00703" lon="1.81926">
        <ele>267.2</ele>
        <time>2018-06-21T19:29:48Z</time>
      </trkpt>
      <trkpt lat="44.00707" lon="1.81925">
        <ele>267.2</ele>
        <time>2018-06-21T19:29:49Z</time>
      </trkpt>
      <trkpt lat="44.0071" lon="1.81923">
        <ele>267.2</ele>
        <time>2018-06-21T19:29:50Z</time>
      </trkpt>
      <trkpt lat="44.00714" lon="1.81922">
        <ele>267.2</ele>
        <time>2018-06-21T19:29:51Z</time>
      </trkpt>
      <trkpt lat="44.00717" lon="1.8192">
        <ele>267.2</ele>
        <time>2018-06-21T19:29:52Z</time>
      </trkpt>
      <trkpt lat="44.00721" lon="1.81919">
        <ele>267.2</ele>
        <time>2018-06-21T19:29:53Z</time>
      </trkpt>
      <trkpt lat="44.00725" lon="1.81918">
        <ele>267.2</ele>
        <time>2018-06-21T19:29:54Z</time>
      </trkpt>
      <trkpt lat="44.00728" lon="1.81916">
        <ele>267.2</ele>
        <time>2018-06-21T19:29:55Z</time>
      </trkpt>
      <trkpt lat="44.00732" lon="1.81914">
        <ele>267.2</ele>
        <time>2018-06-21T19:29:56Z</time>
      </trkpt>
      <trkpt lat="44.00734" lon="1.81912">
        <ele>267.2</ele>
        <time>2018-06-21T19:29:57Z</time>
      </trkpt>
      <trkpt lat="44.00737" lon="1.8191">
        <ele>267.2</ele>
        <time>2018-06-21T19:29:58Z</time>
      </trkpt>
      <trkpt lat="44.00741" lon="1.81908">
        <ele>267.1</ele>
        <time>2018-06-21T19:29:59Z</time>
      </trkpt>
      <trkpt lat="44.00745" lon="1.81906">
        <ele>267.1</ele>
        <time>2018-06-21T19:30:00Z</time>
      </trkpt>
      <trkpt lat="44.0075" lon="1.81902">
        <ele>267.1</ele>
        <time>2018-06-21T19:30:01Z</time>
      </trkpt>
      <trkpt lat="44.00754" lon="1.81899">
        <ele>267</ele>
        <time>2018-06-21T19:30:02Z</time>
      </trkpt>
      <trkpt lat="44.00759" lon="1.81897">
        <ele>266.9</ele>
        <time>2018-06-21T19:30:03Z</time>
      </trkpt>
      <trkpt lat="44.00765" lon="1.81894">
        <ele>266.8</ele>
        <time>2018-06-21T19:30:04Z</time>
      </trkpt>
      <trkpt lat="44.0077" lon="1.81892">
        <ele>266.7</ele>
        <time>2018-06-21T19:30:05Z</time>
      </trkpt>
      <trkpt lat="44.00775" lon="1.8189">
        <ele>266.7</ele>
        <time>2018-06-21T19:30:06Z</time>
      </trkpt>
      <trkpt lat="44.00781" lon="1.81889">
        <ele>266.5</ele>
        <time>2018-06-21T19:30:07Z</time>
      </trkpt>
      <trkpt lat="44.00788" lon="1.81887">
        <ele>266.3</ele>
        <time>2018-06-21T19:30:08Z</time>
      </trkpt>
      <trkpt lat="44.00794" lon="1.81887">
        <ele>266.2</ele>
        <time>2018-06-21T19:30:09Z</time>
      </trkpt>
      <trkpt lat="44.008" lon="1.81886">
        <ele>265.9</ele>
        <time>2018-06-21T19:30:10Z</time>
      </trkpt>
      <trkpt lat="44.00806" lon="1.81884">
        <ele>265.5</ele>
        <time>2018-06-21T19:30:11Z</time>
      </trkpt>
      <trkpt lat="44.00812" lon="1.81882">
        <ele>265.2</ele>
        <time>2018-06-21T19:30:12Z</time>
      </trkpt>
      <trkpt lat="44.00818" lon="1.8188">
        <ele>265.1</ele>
        <time>2018-06-21T19:30:13Z</time>
      </trkpt>
      <trkpt lat="44.00823" lon="1.81877">
        <ele>264.9</ele>
        <time>2018-06-21T19:30:14Z</time>
      </trkpt>
      <trkpt lat="44.00827" lon="1.81873">
        <ele>264.9</ele>
        <time>2018-06-21T19:30:15Z</time>
      </trkpt>
      <trkpt lat="44.00832" lon="1.81869">
        <ele>264.8</ele>
        <time>2018-06-21T19:30:16Z</time>
      </trkpt>
      <trkpt lat="44.00836" lon="1.81865">
        <ele>264.8</ele>
        <time>2018-06-21T19:30:17Z</time>
      </trkpt>
      <trkpt lat="44.00839" lon="1.8186">
        <ele>264.7</ele>
        <time>2018-06-21T19:30:18Z</time>
      </trkpt>
      <trkpt lat="44.00842" lon="1.81856">
        <ele>264.7</ele>
        <time>2018-06-21T19:30:19Z</time>
      </trkpt>
      <trkpt lat="44.00846" lon="1.8185">
        <ele>264.6</ele>
        <time>2018-06-21T19:30:20Z</time>
      </trkpt>
      <trkpt lat="44.00849" lon="1.81845">
        <ele>264.6</ele>
        <time>2018-06-21T19:30:21Z</time>
      </trkpt>
      <trkpt lat="44.00852" lon="1.81842">
        <ele>264.6</ele>
        <time>2018-06-21T19:30:22Z</time>
      </trkpt>
      <trkpt lat="44.00855" lon="1.81837">
        <ele>264.6</ele>
        <time>2018-06-21T19:30:23Z</time>
      </trkpt>
      <trkpt lat="44.00859" lon="1.81831">
        <ele>264.6</ele>
        <time>2018-06-21T19:30:24Z</time>
      </trkpt>
      <trkpt lat="44.00863" lon="1.81825">
        <ele>264.6</ele>
        <time>2018-06-21T19:30:25Z</time>
      </trkpt>
      <trkpt lat="44.00867" lon="1.8182">
        <ele>264.6</ele>
        <time>2018-06-21T19:30:26Z</time>
      </trkpt>
      <trkpt lat="44.0087" lon="1.81815">
        <ele>264.6</ele>
        <time>2018-06-21T19:30:27Z</time>
      </trkpt>
      <trkpt lat="44.00873" lon="1.8181">
        <ele>264.6</ele>
        <time>2018-06-21T19:30:28Z</time>
      </trkpt>
      <trkpt lat="44.00877" lon="1.81805">
        <ele>264.6</ele>
        <time>2018-06-21T19:30:29Z</time>
      </trkpt>
      <trkpt lat="44.0088" lon="1.81799">
        <ele>264.6</ele>
        <time>2018-06-21T19:30:30Z</time>
      </trkpt>
      <trkpt lat="44.00883" lon="1.81794">
        <ele>264.6</ele>
        <time>2018-06-21T19:30:31Z</time>
      </trkpt>
      <trkpt lat="44.00886" lon="1.81789">
        <ele>264.8</ele>
        <time>2018-06-21T19:30:32Z</time>
      </trkpt>
      <trkpt lat="44.00889" lon="1.81785">
        <ele>264.9</ele>
        <time>2018-06-21T19:30:33Z</time>
      </trkpt>
      <trkpt lat="44.00893" lon="1.81781">
        <ele>265</ele>
        <time>2018-06-21T19:30:34Z</time>
      </trkpt>
      <trkpt lat="44.00895" lon="1.81777">
        <ele>265.1</ele>
        <time>2018-06-21T19:30:35Z</time>
      </trkpt>
      <trkpt lat="44.00897" lon="1.81775">
        <ele>265.3</ele>
        <time>2018-06-21T19:30:36Z</time>
      </trkpt>
      <trkpt lat="44.00901" lon="1.81771">
        <ele>265.7</ele>
        <time>2018-06-21T19:30:38Z</time>
      </trkpt>
      <trkpt lat="44.00905" lon="1.81767">
        <ele>266.3</ele>
        <time>2018-06-21T19:30:40Z</time>
      </trkpt>
      <trkpt lat="44.00908" lon="1.81764">
        <ele>266.5</ele>
        <time>2018-06-21T19:30:41Z</time>
      </trkpt>
      <trkpt lat="44.0091" lon="1.81761">
        <ele>266.6</ele>
        <time>2018-06-21T19:30:42Z</time>
      </trkpt>
      <trkpt lat="44.00912" lon="1.81758">
        <ele>266.6</ele>
        <time>2018-06-21T19:30:43Z</time>
      </trkpt>
      <trkpt lat="44.00915" lon="1.81755">
        <ele>266.7</ele>
        <time>2018-06-21T19:30:44Z</time>
      </trkpt>
      <trkpt lat="44.00919" lon="1.81752">
        <ele>266.8</ele>
        <time>2018-06-21T19:30:45Z</time>
      </trkpt>
      <trkpt lat="44.00922" lon="1.8175">
        <ele>266.8</ele>
        <time>2018-06-21T19:30:46Z</time>
      </trkpt>
      <trkpt lat="44.00925" lon="1.81748">
        <ele>266.8</ele>
        <time>2018-06-21T19:30:47Z</time>
      </trkpt>
      <trkpt lat="44.00927" lon="1.81746">
        <ele>266.9</ele>
        <time>2018-06-21T19:30:48Z</time>
      </trkpt>
      <trkpt lat="44.0093" lon="1.81744">
        <ele>266.9</ele>
        <time>2018-06-21T19:30:49Z</time>
      </trkpt>
      <trkpt lat="44.00934" lon="1.81742">
        <ele>266.9</ele>
        <time>2018-06-21T19:30:50Z</time>
      </trkpt>
      <trkpt lat="44.00937" lon="1.81741">
        <ele>266.9</ele>
        <time>2018-06-21T19:30:51Z</time>
      </trkpt>
      <trkpt lat="44.0094" lon="1.8174">
        <ele>266.9</ele>
        <time>2018-06-21T19:30:52Z</time>
      </trkpt>
      <trkpt lat="44.00943" lon="1.81739">
        <ele>266.9</ele>
        <time>2018-06-21T19:30:53Z</time>
      </trkpt>
      <trkpt lat="44.00946" lon="1.81739">
        <ele>266.9</ele>
        <time>2018-06-21T19:30:54Z</time>
      </trkpt>
      <trkpt lat="44.00949" lon="1.81739">
        <ele>266.9</ele>
        <time>2018-06-21T19:30:55Z</time>
      </trkpt>
      <trkpt lat="44.00953" lon="1.81739">
        <ele>266.9</ele>
        <time>2018-06-21T19:30:56Z</time>
      </trkpt>
      <trkpt lat="44.00956" lon="1.81739">
        <ele>266.9</ele>
        <time>2018-06-21T19:30:57Z</time>
      </trkpt>
      <trkpt lat="44.00958" lon="1.8174">
        <ele>267</ele>
        <time>2018-06-21T19:30:58Z</time>
      </trkpt>
      <trkpt lat="44.00961" lon="1.8174">
        <ele>267</ele>
        <time>2018-06-21T19:30:59Z</time>
      </trkpt>
      <trkpt lat="44.00964" lon="1.81739">
        <ele>267</ele>
        <time>2018-06-21T19:31:00Z</time>
      </trkpt>
      <trkpt lat="44.00967" lon="1.81739">
        <ele>267</ele>
        <time>2018-06-21T19:31:01Z</time>
      </trkpt>
      <trkpt lat="44.00971" lon="1.81739">
        <ele>267</ele>
        <time>2018-06-21T19:31:02Z</time>
      </trkpt>
      <trkpt lat="44.00974" lon="1.81739">
        <ele>267</ele>
        <time>2018-06-21T19:31:03Z</time>
      </trkpt>
      <trkpt lat="44.00977" lon="1.81739">
        <ele>267</ele>
        <time>2018-06-21T19:31:04Z</time>
      </trkpt>
      <trkpt lat="44.00981" lon="1.81738">
        <ele>267.1</ele>
        <time>2018-06-21T19:31:05Z</time>
      </trkpt>
      <trkpt lat="44.00984" lon="1.81738">
        <ele>267.1</ele>
        <time>2018-06-21T19:31:06Z</time>
      </trkpt>
      <trkpt lat="44.00987" lon="1.81738">
        <ele>267.1</ele>
        <time>2018-06-21T19:31:07Z</time>
      </trkpt>
      <trkpt lat="44.0099" lon="1.81737">
        <ele>267.2</ele>
        <time>2018-06-21T19:31:08Z</time>
      </trkpt>
      <trkpt lat="44.00993" lon="1.81737">
        <ele>267.2</ele>
        <time>2018-06-21T19:31:09Z</time>
      </trkpt>
      <trkpt lat="44.00997" lon="1.81736">
        <ele>267.2</ele>
        <time>2018-06-21T19:31:10Z</time>
      </trkpt>
      <trkpt lat="44.01" lon="1.81735">
        <ele>267.3</ele>
        <time>2018-06-21T19:31:11Z</time>
      </trkpt>
      <trkpt lat="44.01003" lon="1.81735">
        <ele>267.3</ele>
        <time>2018-06-21T19:31:12Z</time>
      </trkpt>
      <trkpt lat="44.01006" lon="1.81734">
        <ele>267.4</ele>
        <time>2018-06-21T19:31:13Z</time>
      </trkpt>
      <trkpt lat="44.01009" lon="1.81733">
        <ele>267.5</ele>
        <time>2018-06-21T19:31:14Z</time>
      </trkpt>
      <trkpt lat="44.01012" lon="1.81732">
        <ele>267.6</ele>
        <time>2018-06-21T19:31:15Z</time>
      </trkpt>
      <trkpt lat="44.01015" lon="1.8173">
        <ele>267.7</ele>
        <time>2018-06-21T19:31:16Z</time>
      </trkpt>
      <trkpt lat="44.01018" lon="1.81729">
        <ele>267.9</ele>
        <time>2018-06-21T19:31:17Z</time>
      </trkpt>
      <trkpt lat="44.01021" lon="1.81727">
        <ele>268.1</ele>
        <time>2018-06-21T19:31:18Z</time>
      </trkpt>
      <trkpt lat="44.01023" lon="1.81725">
        <ele>268.2</ele>
        <time>2018-06-21T19:31:19Z</time>
      </trkpt>
      <trkpt lat="44.01026" lon="1.81723">
        <ele>268.4</ele>
        <time>2018-06-21T19:31:20Z</time>
      </trkpt>
      <trkpt lat="44.01029" lon="1.81722">
        <ele>268.6</ele>
        <time>2018-06-21T19:31:21Z</time>
      </trkpt>
      <trkpt lat="44.01032" lon="1.8172">
        <ele>268.7</ele>
        <time>2018-06-21T19:31:22Z</time>
      </trkpt>
      <trkpt lat="44.01035" lon="1.81719">
        <ele>268.8</ele>
        <time>2018-06-21T19:31:23Z</time>
      </trkpt>
      <trkpt lat="44.01038" lon="1.81717">
        <ele>268.9</ele>
        <time>2018-06-21T19:31:24Z</time>
      </trkpt>
      <trkpt lat="44.01041" lon="1.81715">
        <ele>268.9</ele>
        <time>2018-06-21T19:31:25Z</time>
      </trkpt>
      <trkpt lat="44.01043" lon="1.81713">
        <ele>269</ele>
        <time>2018-06-21T19:31:26Z</time>
      </trkpt>
      <trkpt lat="44.01046" lon="1.81711">
        <ele>269</ele>
        <time>2018-06-21T19:31:27Z</time>
      </trkpt>
      <trkpt lat="44.01049" lon="1.81709">
        <ele>269.1</ele>
        <time>2018-06-21T19:31:28Z</time>
      </trkpt>
      <trkpt lat="44.01051" lon="1.81706">
        <ele>269.2</ele>
        <time>2018-06-21T19:31:29Z</time>
      </trkpt>
      <trkpt lat="44.01054" lon="1.81704">
        <ele>269.2</ele>
        <time>2018-06-21T19:31:30Z</time>
      </trkpt>
      <trkpt lat="44.01056" lon="1.81702">
        <ele>269.3</ele>
        <time>2018-06-21T19:31:31Z</time>
      </trkpt>
      <trkpt lat="44.01059" lon="1.817">
        <ele>269.5</ele>
        <time>2018-06-21T19:31:32Z</time>
      </trkpt>
      <trkpt lat="44.01061" lon="1.81697">
        <ele>269.7</ele>
        <time>2018-06-21T19:31:33Z</time>
      </trkpt>
      <trkpt lat="44.01064" lon="1.81693">
        <ele>269.9</ele>
        <time>2018-06-21T19:31:34Z</time>
      </trkpt>
      <trkpt lat="44.01066" lon="1.8169">
        <ele>269.9</ele>
        <time>2018-06-21T19:31:35Z</time>
      </trkpt>
      <trkpt lat="44.01068" lon="1.81687">
        <ele>269.5</ele>
        <time>2018-06-21T19:31:36Z</time>
      </trkpt>
      <trkpt lat="44.01069" lon="1.81683">
        <ele>269.2</ele>
        <time>2018-06-21T19:31:37Z</time>
      </trkpt>
      <trkpt lat="44.01071" lon="1.8168">
        <ele>268.8</ele>
        <time>2018-06-21T19:31:38Z</time>
      </trkpt>
      <trkpt lat="44.01072" lon="1.81676">
        <ele>268.4</ele>
        <time>2018-06-21T19:31:39Z</time>
      </trkpt>
      <trkpt lat="44.01074" lon="1.81672">
        <ele>268.1</ele>
        <time>2018-06-21T19:31:40Z</time>
      </trkpt>
      <trkpt lat="44.01076" lon="1.81668">
        <ele>267.7</ele>
        <time>2018-06-21T19:31:41Z</time>
      </trkpt>
      <trkpt lat="44.01077" lon="1.81664">
        <ele>267.3</ele>
        <time>2018-06-21T19:31:42Z</time>
      </trkpt>
      <trkpt lat="44.01079" lon="1.8166">
        <ele>267</ele>
        <time>2018-06-21T19:31:43Z</time>
      </trkpt>
      <trkpt lat="44.0108" lon="1.81656">
        <ele>267.1</ele>
        <time>2018-06-21T19:31:44Z</time>
      </trkpt>
      <trkpt lat="44.01082" lon="1.81652">
        <ele>267.3</ele>
        <time>2018-06-21T19:31:45Z</time>
      </trkpt>
      <trkpt lat="44.01083" lon="1.81648">
        <ele>267.4</ele>
        <time>2018-06-21T19:31:46Z</time>
      </trkpt>
      <trkpt lat="44.01084" lon="1.81644">
        <ele>267.5</ele>
        <time>2018-06-21T19:31:47Z</time>
      </trkpt>
      <trkpt lat="44.01085" lon="1.8164">
        <ele>267.7</ele>
        <time>2018-06-21T19:31:48Z</time>
      </trkpt>
      <trkpt lat="44.01087" lon="1.81636">
        <ele>267.8</ele>
        <time>2018-06-21T19:31:49Z</time>
      </trkpt>
      <trkpt lat="44.01089" lon="1.81629">
        <ele>268</ele>
        <time>2018-06-21T19:31:51Z</time>
      </trkpt>
      <trkpt lat="44.0109" lon="1.81625">
        <ele>268.1</ele>
        <time>2018-06-21T19:31:52Z</time>
      </trkpt>
      <trkpt lat="44.01091" lon="1.81621">
        <ele>268.3</ele>
        <time>2018-06-21T19:31:53Z</time>
      </trkpt>
      <trkpt lat="44.01092" lon="1.81617">
        <ele>268.6</ele>
        <time>2018-06-21T19:31:54Z</time>
      </trkpt>
      <trkpt lat="44.01092" lon="1.81613">
        <ele>268.9</ele>
        <time>2018-06-21T19:31:55Z</time>
      </trkpt>
      <trkpt lat="44.01093" lon="1.81609">
        <ele>269.2</ele>
        <time>2018-06-21T19:31:56Z</time>
      </trkpt>
      <trkpt lat="44.01093" lon="1.81606">
        <ele>269.7</ele>
        <time>2018-06-21T19:31:57Z</time>
      </trkpt>
      <trkpt lat="44.01094" lon="1.81599">
        <ele>270.5</ele>
        <time>2018-06-21T19:31:59Z</time>
      </trkpt>
      <trkpt lat="44.01094" lon="1.81595">
        <ele>271</ele>
        <time>2018-06-21T19:32:01Z</time>
      </trkpt>
      <trkpt lat="44.01096" lon="1.8159">
        <ele>271.7</ele>
        <time>2018-06-21T19:32:04Z</time>
      </trkpt>
      <trkpt lat="44.01098" lon="1.81584">
        <ele>272.2</ele>
        <time>2018-06-21T19:32:06Z</time>
      </trkpt>
      <trkpt lat="44.01098" lon="1.8158">
        <ele>272.6</ele>
        <time>2018-06-21T19:32:07Z</time>
      </trkpt>
      <trkpt lat="44.01098" lon="1.81576">
        <ele>273.1</ele>
        <time>2018-06-21T19:32:08Z</time>
      </trkpt>
      <trkpt lat="44.01099" lon="1.81569">
        <ele>274.1</ele>
        <time>2018-06-21T19:32:10Z</time>
      </trkpt>
      <trkpt lat="44.01099" lon="1.81562">
        <ele>275.2</ele>
        <time>2018-06-21T19:32:12Z</time>
      </trkpt>
      <trkpt lat="44.011" lon="1.81556">
        <ele>276.1</ele>
        <time>2018-06-21T19:32:14Z</time>
      </trkpt>
      <trkpt lat="44.01101" lon="1.81552">
        <ele>276.6</ele>
        <time>2018-06-21T19:32:15Z</time>
      </trkpt>
      <trkpt lat="44.01101" lon="1.81545">
        <ele>277.6</ele>
        <time>2018-06-21T19:32:17Z</time>
      </trkpt>
      <trkpt lat="44.01102" lon="1.81538">
        <ele>278.3</ele>
        <time>2018-06-21T19:32:19Z</time>
      </trkpt>
      <trkpt lat="44.01102" lon="1.81531">
        <ele>279</ele>
        <time>2018-06-21T19:32:21Z</time>
      </trkpt>
      <trkpt lat="44.01102" lon="1.81525">
        <ele>279.5</ele>
        <time>2018-06-21T19:32:23Z</time>
      </trkpt>
      <trkpt lat="44.01102" lon="1.81517">
        <ele>279.7</ele>
        <time>2018-06-21T19:32:25Z</time>
      </trkpt>
      <trkpt lat="44.01101" lon="1.81511">
        <ele>279.9</ele>
        <time>2018-06-21T19:32:27Z</time>
      </trkpt>
      <trkpt lat="44.01102" lon="1.81505">
        <ele>280.1</ele>
        <time>2018-06-21T19:32:29Z</time>
      </trkpt>
      <trkpt lat="44.01104" lon="1.81499">
        <ele>280.3</ele>
        <time>2018-06-21T19:32:31Z</time>
      </trkpt>
      <trkpt lat="44.01105" lon="1.81493">
        <ele>280.4</ele>
        <time>2018-06-21T19:32:33Z</time>
      </trkpt>
      <trkpt lat="44.01106" lon="1.81487">
        <ele>280.7</ele>
        <time>2018-06-21T19:32:35Z</time>
      </trkpt>
      <trkpt lat="44.01108" lon="1.8148">
        <ele>280.9</ele>
        <time>2018-06-21T19:32:37Z</time>
      </trkpt>
      <trkpt lat="44.0111" lon="1.81474">
        <ele>281</ele>
        <time>2018-06-21T19:32:39Z</time>
      </trkpt>
      <trkpt lat="44.01111" lon="1.8147">
        <ele>281</ele>
        <time>2018-06-21T19:32:40Z</time>
      </trkpt>
      <trkpt lat="44.01112" lon="1.81467">
        <ele>281</ele>
        <time>2018-06-21T19:32:41Z</time>
      </trkpt>
      <trkpt lat="44.01115" lon="1.8146">
        <ele>281.1</ele>
        <time>2018-06-21T19:32:43Z</time>
      </trkpt>
      <trkpt lat="44.01117" lon="1.81455">
        <ele>281.1</ele>
        <time>2018-06-21T19:32:45Z</time>
      </trkpt>
      <trkpt lat="44.0112" lon="1.81449">
        <ele>281.1</ele>
        <time>2018-06-21T19:32:47Z</time>
      </trkpt>
      <trkpt lat="44.01122" lon="1.81444">
        <ele>281.1</ele>
        <time>2018-06-21T19:32:49Z</time>
      </trkpt>
      <trkpt lat="44.01125" lon="1.81438">
        <ele>281.1</ele>
        <time>2018-06-21T19:32:51Z</time>
      </trkpt>
      <trkpt lat="44.01128" lon="1.81433">
        <ele>281</ele>
        <time>2018-06-21T19:32:53Z</time>
      </trkpt>
      <trkpt lat="44.01131" lon="1.81427">
        <ele>281</ele>
        <time>2018-06-21T19:32:55Z</time>
      </trkpt>
      <trkpt lat="44.01133" lon="1.81424">
        <ele>281</ele>
        <time>2018-06-21T19:32:56Z</time>
      </trkpt>
      <trkpt lat="44.01136" lon="1.81418">
        <ele>280.9</ele>
        <time>2018-06-21T19:32:58Z</time>
      </trkpt>
      <trkpt lat="44.01138" lon="1.81415">
        <ele>280.8</ele>
        <time>2018-06-21T19:32:59Z</time>
      </trkpt>
      <trkpt lat="44.0114" lon="1.81412">
        <ele>280.7</ele>
        <time>2018-06-21T19:33:00Z</time>
      </trkpt>
      <trkpt lat="44.01142" lon="1.81409">
        <ele>280.7</ele>
        <time>2018-06-21T19:33:01Z</time>
      </trkpt>
      <trkpt lat="44.01144" lon="1.81405">
        <ele>280.6</ele>
        <time>2018-06-21T19:33:02Z</time>
      </trkpt>
      <trkpt lat="44.01147" lon="1.81401">
        <ele>280.4</ele>
        <time>2018-06-21T19:33:03Z</time>
      </trkpt>
      <trkpt lat="44.01149" lon="1.81395">
        <ele>280.3</ele>
        <time>2018-06-21T19:33:04Z</time>
      </trkpt>
      <trkpt lat="44.01151" lon="1.81389">
        <ele>280.1</ele>
        <time>2018-06-21T19:33:05Z</time>
      </trkpt>
      <trkpt lat="44.01154" lon="1.81382">
        <ele>280</ele>
        <time>2018-06-21T19:33:06Z</time>
      </trkpt>
      <trkpt lat="44.01156" lon="1.81374">
        <ele>279.6</ele>
        <time>2018-06-21T19:33:07Z</time>
      </trkpt>
      <trkpt lat="44.01158" lon="1.81365">
        <ele>279.2</ele>
        <time>2018-06-21T19:33:08Z</time>
      </trkpt>
      <trkpt lat="44.01159" lon="1.81356">
        <ele>278.7</ele>
        <time>2018-06-21T19:33:09Z</time>
      </trkpt>
      <trkpt lat="44.01161" lon="1.81346">
        <ele>278.2</ele>
        <time>2018-06-21T19:33:10Z</time>
      </trkpt>
      <trkpt lat="44.01162" lon="1.81337">
        <ele>277.6</ele>
        <time>2018-06-21T19:33:11Z</time>
      </trkpt>
      <trkpt lat="44.01164" lon="1.81327">
        <ele>277.1</ele>
        <time>2018-06-21T19:33:12Z</time>
      </trkpt>
      <trkpt lat="44.01166" lon="1.81317">
        <ele>276.5</ele>
        <time>2018-06-21T19:33:13Z</time>
      </trkpt>
      <trkpt lat="44.01169" lon="1.81307">
        <ele>275.9</ele>
        <time>2018-06-21T19:33:14Z</time>
      </trkpt>
      <trkpt lat="44.01174" lon="1.81298">
        <ele>275.3</ele>
        <time>2018-06-21T19:33:15Z</time>
      </trkpt>
      <trkpt lat="44.01178" lon="1.8129">
        <ele>274.6</ele>
        <time>2018-06-21T19:33:16Z</time>
      </trkpt>
      <trkpt lat="44.01181" lon="1.8128">
        <ele>274</ele>
        <time>2018-06-21T19:33:17Z</time>
      </trkpt>
      <trkpt lat="44.01182" lon="1.81268">
        <ele>273.2</ele>
        <time>2018-06-21T19:33:18Z</time>
      </trkpt>
      <trkpt lat="44.01181" lon="1.81256">
        <ele>272.4</ele>
        <time>2018-06-21T19:33:19Z</time>
      </trkpt>
      <trkpt lat="44.01181" lon="1.81245">
        <ele>271.5</ele>
        <time>2018-06-21T19:33:20Z</time>
      </trkpt>
      <trkpt lat="44.0118" lon="1.81235">
        <ele>270.7</ele>
        <time>2018-06-21T19:33:21Z</time>
      </trkpt>
      <trkpt lat="44.0118" lon="1.81227">
        <ele>270</ele>
        <time>2018-06-21T19:33:22Z</time>
      </trkpt>
      <trkpt lat="44.01179" lon="1.8122">
        <ele>269.3</ele>
        <time>2018-06-21T19:33:23Z</time>
      </trkpt>
      <trkpt lat="44.01181" lon="1.81216">
        <ele>269</ele>
        <time>2018-06-21T19:33:24Z</time>
      </trkpt>
      <trkpt lat="44.01184" lon="1.81213">
        <ele>269</ele>
        <time>2018-06-21T19:33:25Z</time>
      </trkpt>
      <trkpt lat="44.01187" lon="1.81211">
        <ele>269</ele>
        <time>2018-06-21T19:33:26Z</time>
      </trkpt>
      <trkpt lat="44.0119" lon="1.81211">
        <ele>269</ele>
        <time>2018-06-21T19:33:27Z</time>
      </trkpt>
      <trkpt lat="44.01193" lon="1.8121">
        <ele>269</ele>
        <time>2018-06-21T19:33:28Z</time>
      </trkpt>
      <trkpt lat="44.01196" lon="1.81208">
        <ele>269</ele>
        <time>2018-06-21T19:33:29Z</time>
      </trkpt>
      <trkpt lat="44.01198" lon="1.81207">
        <ele>269</ele>
        <time>2018-06-21T19:33:30Z</time>
      </trkpt>
      <trkpt lat="44.01203" lon="1.81205">
        <ele>269</ele>
        <time>2018-06-21T19:33:32Z</time>
      </trkpt>
      <trkpt lat="44.01206" lon="1.81205">
        <ele>269</ele>
        <time>2018-06-21T19:33:33Z</time>
      </trkpt>
      <trkpt lat="44.01209" lon="1.81205">
        <ele>269</ele>
        <time>2018-06-21T19:33:34Z</time>
      </trkpt>
      <trkpt lat="44.01213" lon="1.81205">
        <ele>269</ele>
        <time>2018-06-21T19:33:35Z</time>
      </trkpt>
      <trkpt lat="44.01216" lon="1.81205">
        <ele>269</ele>
        <time>2018-06-21T19:33:36Z</time>
      </trkpt>
      <trkpt lat="44.0122" lon="1.81205">
        <ele>269</ele>
        <time>2018-06-21T19:33:37Z</time>
      </trkpt>
      <trkpt lat="44.01223" lon="1.81206">
        <ele>269</ele>
        <time>2018-06-21T19:33:38Z</time>
      </trkpt>
      <trkpt lat="44.01227" lon="1.81207">
        <ele>269</ele>
        <time>2018-06-21T19:33:39Z</time>
      </trkpt>
      <trkpt lat="44.01231" lon="1.81208">
        <ele>269.1</ele>
        <time>2018-06-21T19:33:40Z</time>
      </trkpt>
      <trkpt lat="44.01234" lon="1.81209">
        <ele>269.3</ele>
        <time>2018-06-21T19:33:41Z</time>
      </trkpt>
      <trkpt lat="44.01238" lon="1.81211">
        <ele>269.4</ele>
        <time>2018-06-21T19:33:42Z</time>
      </trkpt>
      <trkpt lat="44.01242" lon="1.81212">
        <ele>269.6</ele>
        <time>2018-06-21T19:33:43Z</time>
      </trkpt>
      <trkpt lat="44.01246" lon="1.81214">
        <ele>269.8</ele>
        <time>2018-06-21T19:33:44Z</time>
      </trkpt>
      <trkpt lat="44.01249" lon="1.81216">
        <ele>269.9</ele>
        <time>2018-06-21T19:33:45Z</time>
      </trkpt>
      <trkpt lat="44.01253" lon="1.81218">
        <ele>270.1</ele>
        <time>2018-06-21T19:33:46Z</time>
      </trkpt>
      <trkpt lat="44.01257" lon="1.81219">
        <ele>270.2</ele>
        <time>2018-06-21T19:33:47Z</time>
      </trkpt>
      <trkpt lat="44.01261" lon="1.81221">
        <ele>270.4</ele>
        <time>2018-06-21T19:33:48Z</time>
      </trkpt>
      <trkpt lat="44.01265" lon="1.81223">
        <ele>270.5</ele>
        <time>2018-06-21T19:33:49Z</time>
      </trkpt>
      <trkpt lat="44.01269" lon="1.81225">
        <ele>270.6</ele>
        <time>2018-06-21T19:33:50Z</time>
      </trkpt>
      <trkpt lat="44.01273" lon="1.81227">
        <ele>270.7</ele>
        <time>2018-06-21T19:33:51Z</time>
      </trkpt>
      <trkpt lat="44.01277" lon="1.81228">
        <ele>270.9</ele>
        <time>2018-06-21T19:33:52Z</time>
      </trkpt>
      <trkpt lat="44.01282" lon="1.8123">
        <ele>271</ele>
        <time>2018-06-21T19:33:53Z</time>
      </trkpt>
      <trkpt lat="44.01286" lon="1.81231">
        <ele>271.1</ele>
        <time>2018-06-21T19:33:54Z</time>
      </trkpt>
      <trkpt lat="44.0129" lon="1.81233">
        <ele>271.3</ele>
        <time>2018-06-21T19:33:55Z</time>
      </trkpt>
      <trkpt lat="44.01295" lon="1.81234">
        <ele>271.4</ele>
        <time>2018-06-21T19:33:56Z</time>
      </trkpt>
      <trkpt lat="44.01299" lon="1.81235">
        <ele>271.6</ele>
        <time>2018-06-21T19:33:57Z</time>
      </trkpt>
      <trkpt lat="44.01303" lon="1.81235">
        <ele>271.8</ele>
        <time>2018-06-21T19:33:58Z</time>
      </trkpt>
      <trkpt lat="44.01308" lon="1.81235">
        <ele>272</ele>
        <time>2018-06-21T19:33:59Z</time>
      </trkpt>
      <trkpt lat="44.01312" lon="1.81235">
        <ele>272.2</ele>
        <time>2018-06-21T19:34:00Z</time>
      </trkpt>
      <trkpt lat="44.01316" lon="1.81235">
        <ele>272.4</ele>
        <time>2018-06-21T19:34:01Z</time>
      </trkpt>
      <trkpt lat="44.0132" lon="1.81235">
        <ele>272.6</ele>
        <time>2018-06-21T19:34:02Z</time>
      </trkpt>
      <trkpt lat="44.01325" lon="1.81235">
        <ele>272.9</ele>
        <time>2018-06-21T19:34:03Z</time>
      </trkpt>
      <trkpt lat="44.01329" lon="1.81235">
        <ele>273.3</ele>
        <time>2018-06-21T19:34:04Z</time>
      </trkpt>
      <trkpt lat="44.01334" lon="1.81235">
        <ele>273.6</ele>
        <time>2018-06-21T19:34:05Z</time>
      </trkpt>
      <trkpt lat="44.01338" lon="1.81235">
        <ele>274.1</ele>
        <time>2018-06-21T19:34:06Z</time>
      </trkpt>
      <trkpt lat="44.01342" lon="1.81236">
        <ele>274.9</ele>
        <time>2018-06-21T19:34:07Z</time>
      </trkpt>
      <trkpt lat="44.01346" lon="1.81236">
        <ele>275.7</ele>
        <time>2018-06-21T19:34:08Z</time>
      </trkpt>
      <trkpt lat="44.0135" lon="1.81236">
        <ele>276.4</ele>
        <time>2018-06-21T19:34:09Z</time>
      </trkpt>
      <trkpt lat="44.01354" lon="1.81237">
        <ele>276.7</ele>
        <time>2018-06-21T19:34:10Z</time>
      </trkpt>
      <trkpt lat="44.01358" lon="1.81238">
        <ele>276.9</ele>
        <time>2018-06-21T19:34:11Z</time>
      </trkpt>
      <trkpt lat="44.01362" lon="1.81239">
        <ele>277.1</ele>
        <time>2018-06-21T19:34:12Z</time>
      </trkpt>
      <trkpt lat="44.01366" lon="1.8124">
        <ele>277.3</ele>
        <time>2018-06-21T19:34:13Z</time>
      </trkpt>
      <trkpt lat="44.0137" lon="1.81241">
        <ele>277.5</ele>
        <time>2018-06-21T19:34:14Z</time>
      </trkpt>
      <trkpt lat="44.01374" lon="1.81242">
        <ele>277.7</ele>
        <time>2018-06-21T19:34:15Z</time>
      </trkpt>
      <trkpt lat="44.01378" lon="1.81243">
        <ele>277.9</ele>
        <time>2018-06-21T19:34:16Z</time>
      </trkpt>
      <trkpt lat="44.01382" lon="1.81245">
        <ele>278.1</ele>
        <time>2018-06-21T19:34:17Z</time>
      </trkpt>
      <trkpt lat="44.01386" lon="1.81246">
        <ele>278.3</ele>
        <time>2018-06-21T19:34:18Z</time>
      </trkpt>
      <trkpt lat="44.0139" lon="1.81247">
        <ele>278.4</ele>
        <time>2018-06-21T19:34:19Z</time>
      </trkpt>
      <trkpt lat="44.01394" lon="1.81249">
        <ele>278.6</ele>
        <time>2018-06-21T19:34:20Z</time>
      </trkpt>
      <trkpt lat="44.01398" lon="1.8125">
        <ele>278.7</ele>
        <time>2018-06-21T19:34:21Z</time>
      </trkpt>
      <trkpt lat="44.01402" lon="1.81252">
        <ele>278.9</ele>
        <time>2018-06-21T19:34:22Z</time>
      </trkpt>
      <trkpt lat="44.01406" lon="1.81253">
        <ele>279</ele>
        <time>2018-06-21T19:34:23Z</time>
      </trkpt>
      <trkpt lat="44.0141" lon="1.81255">
        <ele>278.9</ele>
        <time>2018-06-21T19:34:24Z</time>
      </trkpt>
      <trkpt lat="44.01415" lon="1.81257">
        <ele>278.8</ele>
        <time>2018-06-21T19:34:25Z</time>
      </trkpt>
      <trkpt lat="44.01419" lon="1.81259">
        <ele>278.7</ele>
        <time>2018-06-21T19:34:26Z</time>
      </trkpt>
      <trkpt lat="44.01424" lon="1.81261">
        <ele>278.6</ele>
        <time>2018-06-21T19:34:27Z</time>
      </trkpt>
      <trkpt lat="44.01428" lon="1.81264">
        <ele>278.6</ele>
        <time>2018-06-21T19:34:28Z</time>
      </trkpt>
      <trkpt lat="44.01433" lon="1.81266">
        <ele>278.5</ele>
        <time>2018-06-21T19:34:29Z</time>
      </trkpt>
      <trkpt lat="44.01438" lon="1.81269">
        <ele>278.4</ele>
        <time>2018-06-21T19:34:30Z</time>
      </trkpt>
      <trkpt lat="44.01443" lon="1.81272">
        <ele>278.3</ele>
        <time>2018-06-21T19:34:31Z</time>
      </trkpt>
      <trkpt lat="44.01448" lon="1.81275">
        <ele>278.2</ele>
        <time>2018-06-21T19:34:32Z</time>
      </trkpt>
      <trkpt lat="44.01453" lon="1.81277">
        <ele>278.1</ele>
        <time>2018-06-21T19:34:33Z</time>
      </trkpt>
      <trkpt lat="44.01458" lon="1.8128">
        <ele>278</ele>
        <time>2018-06-21T19:34:34Z</time>
      </trkpt>
      <trkpt lat="44.01463" lon="1.81282">
        <ele>278</ele>
        <time>2018-06-21T19:34:35Z</time>
      </trkpt>
      <trkpt lat="44.01468" lon="1.81283">
        <ele>278</ele>
        <time>2018-06-21T19:34:36Z</time>
      </trkpt>
      <trkpt lat="44.01474" lon="1.81285">
        <ele>278</ele>
        <time>2018-06-21T19:34:37Z</time>
      </trkpt>
      <trkpt lat="44.01479" lon="1.81285">
        <ele>278.1</ele>
        <time>2018-06-21T19:34:38Z</time>
      </trkpt>
      <trkpt lat="44.01484" lon="1.81285">
        <ele>278.2</ele>
        <time>2018-06-21T19:34:39Z</time>
      </trkpt>
      <trkpt lat="44.0149" lon="1.81285">
        <ele>278.3</ele>
        <time>2018-06-21T19:34:40Z</time>
      </trkpt>
      <trkpt lat="44.01494" lon="1.81284">
        <ele>278.3</ele>
        <time>2018-06-21T19:34:41Z</time>
      </trkpt>
      <trkpt lat="44.01499" lon="1.81283">
        <ele>278.4</ele>
        <time>2018-06-21T19:34:42Z</time>
      </trkpt>
      <trkpt lat="44.01504" lon="1.81283">
        <ele>278.5</ele>
        <time>2018-06-21T19:34:43Z</time>
      </trkpt>
      <trkpt lat="44.01508" lon="1.81282">
        <ele>278.6</ele>
        <time>2018-06-21T19:34:44Z</time>
      </trkpt>
      <trkpt lat="44.01513" lon="1.81281">
        <ele>278.6</ele>
        <time>2018-06-21T19:34:45Z</time>
      </trkpt>
      <trkpt lat="44.01517" lon="1.81281">
        <ele>278.7</ele>
        <time>2018-06-21T19:34:46Z</time>
      </trkpt>
      <trkpt lat="44.01521" lon="1.8128">
        <ele>278.8</ele>
        <time>2018-06-21T19:34:47Z</time>
      </trkpt>
      <trkpt lat="44.01525" lon="1.81281">
        <ele>278.8</ele>
        <time>2018-06-21T19:34:48Z</time>
      </trkpt>
      <trkpt lat="44.01529" lon="1.81281">
        <ele>278.8</ele>
        <time>2018-06-21T19:34:49Z</time>
      </trkpt>
      <trkpt lat="44.01532" lon="1.81281">
        <ele>278.9</ele>
        <time>2018-06-21T19:34:50Z</time>
      </trkpt>
      <trkpt lat="44.01536" lon="1.81282">
        <ele>278.9</ele>
        <time>2018-06-21T19:34:51Z</time>
      </trkpt>
      <trkpt lat="44.01538" lon="1.81284">
        <ele>278.9</ele>
        <time>2018-06-21T19:34:52Z</time>
      </trkpt>
      <trkpt lat="44.01541" lon="1.81286">
        <ele>278.9</ele>
        <time>2018-06-21T19:34:53Z</time>
      </trkpt>
      <trkpt lat="44.01544" lon="1.81288">
        <ele>279</ele>
        <time>2018-06-21T19:34:54Z</time>
      </trkpt>
      <trkpt lat="44.01546" lon="1.8129">
        <ele>279</ele>
        <time>2018-06-21T19:34:55Z</time>
      </trkpt>
      <trkpt lat="44.01548" lon="1.81293">
        <ele>279</ele>
        <time>2018-06-21T19:34:56Z</time>
      </trkpt>
      <trkpt lat="44.01552" lon="1.81298">
        <ele>279</ele>
        <time>2018-06-21T19:34:58Z</time>
      </trkpt>
      <trkpt lat="44.01555" lon="1.81303">
        <ele>279</ele>
        <time>2018-06-21T19:35:00Z</time>
      </trkpt>
      <trkpt lat="44.01558" lon="1.81308">
        <ele>279</ele>
        <time>2018-06-21T19:35:02Z</time>
      </trkpt>
      <trkpt lat="44.01561" lon="1.81313">
        <ele>279</ele>
        <time>2018-06-21T19:35:04Z</time>
      </trkpt>
      <trkpt lat="44.01564" lon="1.81312">
        <ele>279</ele>
        <time>2018-06-21T19:35:06Z</time>
      </trkpt>
      <trkpt lat="44.01564" lon="1.81306">
        <ele>279</ele>
        <time>2018-06-21T19:35:08Z</time>
      </trkpt>
      <trkpt lat="44.01564" lon="1.81301">
        <ele>279.9</ele>
        <time>2018-06-21T19:35:10Z</time>
      </trkpt>
      <trkpt lat="44.01567" lon="1.81297">
        <ele>280.5</ele>
        <time>2018-06-21T19:35:12Z</time>
      </trkpt>
      <trkpt lat="44.0157" lon="1.81297">
        <ele>281</ele>
        <time>2018-06-21T19:35:14Z</time>
      </trkpt>
      <trkpt lat="44.01573" lon="1.81298">
        <ele>281.3</ele>
        <time>2018-06-21T19:35:16Z</time>
      </trkpt>
      <trkpt lat="44.01576" lon="1.81299">
        <ele>281.9</ele>
        <time>2018-06-21T19:35:18Z</time>
      </trkpt>
      <trkpt lat="44.0158" lon="1.81301">
        <ele>282.6</ele>
        <time>2018-06-21T19:35:20Z</time>
      </trkpt>
      <trkpt lat="44.01583" lon="1.81303">
        <ele>283.2</ele>
        <time>2018-06-21T19:35:23Z</time>
      </trkpt>
      <trkpt lat="44.01586" lon="1.81305">
        <ele>283.7</ele>
        <time>2018-06-21T19:35:25Z</time>
      </trkpt>
      <trkpt lat="44.01589" lon="1.81307">
        <ele>283.9</ele>
        <time>2018-06-21T19:35:27Z</time>
      </trkpt>
      <trkpt lat="44.01593" lon="1.81308">
        <ele>284.2</ele>
        <time>2018-06-21T19:35:29Z</time>
      </trkpt>
      <trkpt lat="44.01597" lon="1.8131">
        <ele>284.6</ele>
        <time>2018-06-21T19:35:31Z</time>
      </trkpt>
      <trkpt lat="44.016" lon="1.81311">
        <ele>285.3</ele>
        <time>2018-06-21T19:35:33Z</time>
      </trkpt>
      <trkpt lat="44.01603" lon="1.81313">
        <ele>285.9</ele>
        <time>2018-06-21T19:35:35Z</time>
      </trkpt>
      <trkpt lat="44.01606" lon="1.81315">
        <ele>286.3</ele>
        <time>2018-06-21T19:35:37Z</time>
      </trkpt>
      <trkpt lat="44.01609" lon="1.81316">
        <ele>286.5</ele>
        <time>2018-06-21T19:35:39Z</time>
      </trkpt>
      <trkpt lat="44.01612" lon="1.81318">
        <ele>286.7</ele>
        <time>2018-06-21T19:35:41Z</time>
      </trkpt>
      <trkpt lat="44.01615" lon="1.81319">
        <ele>286.9</ele>
        <time>2018-06-21T19:35:43Z</time>
      </trkpt>
      <trkpt lat="44.01618" lon="1.81321">
        <ele>287.2</ele>
        <time>2018-06-21T19:35:45Z</time>
      </trkpt>
      <trkpt lat="44.01622" lon="1.81322">
        <ele>287.7</ele>
        <time>2018-06-21T19:35:47Z</time>
      </trkpt>
      <trkpt lat="44.01625" lon="1.81322">
        <ele>288.1</ele>
        <time>2018-06-21T19:35:49Z</time>
      </trkpt>
      <trkpt lat="44.01628" lon="1.81324">
        <ele>288.6</ele>
        <time>2018-06-21T19:35:51Z</time>
      </trkpt>
      <trkpt lat="44.01631" lon="1.81325">
        <ele>289.1</ele>
        <time>2018-06-21T19:35:53Z</time>
      </trkpt>
      <trkpt lat="44.01635" lon="1.81326">
        <ele>289.4</ele>
        <time>2018-06-21T19:35:55Z</time>
      </trkpt>
      <trkpt lat="44.01638" lon="1.81328">
        <ele>289.7</ele>
        <time>2018-06-21T19:35:57Z</time>
      </trkpt>
      <trkpt lat="44.01641" lon="1.81329">
        <ele>290.1</ele>
        <time>2018-06-21T19:35:59Z</time>
      </trkpt>
      <trkpt lat="44.01645" lon="1.8133">
        <ele>290.6</ele>
        <time>2018-06-21T19:36:01Z</time>
      </trkpt>
      <trkpt lat="44.01648" lon="1.81332">
        <ele>291.2</ele>
        <time>2018-06-21T19:36:03Z</time>
      </trkpt>
      <trkpt lat="44.01652" lon="1.81334">
        <ele>291.9</ele>
        <time>2018-06-21T19:36:05Z</time>
      </trkpt>
      <trkpt lat="44.01655" lon="1.81336">
        <ele>292.3</ele>
        <time>2018-06-21T19:36:07Z</time>
      </trkpt>
      <trkpt lat="44.01658" lon="1.81337">
        <ele>292.9</ele>
        <time>2018-06-21T19:36:09Z</time>
      </trkpt>
      <trkpt lat="44.01661" lon="1.81339">
        <ele>293.4</ele>
        <time>2018-06-21T19:36:11Z</time>
      </trkpt>
      <trkpt lat="44.01665" lon="1.81341">
        <ele>294</ele>
        <time>2018-06-21T19:36:14Z</time>
      </trkpt>
      <trkpt lat="44.01668" lon="1.81343">
        <ele>294.3</ele>
        <time>2018-06-21T19:36:16Z</time>
      </trkpt>
      <trkpt lat="44.01671" lon="1.81345">
        <ele>294.5</ele>
        <time>2018-06-21T19:36:18Z</time>
      </trkpt>
      <trkpt lat="44.01674" lon="1.81347">
        <ele>294.6</ele>
        <time>2018-06-21T19:36:20Z</time>
      </trkpt>
      <trkpt lat="44.01677" lon="1.81349">
        <ele>294.9</ele>
        <time>2018-06-21T19:36:22Z</time>
      </trkpt>
      <trkpt lat="44.01681" lon="1.81352">
        <ele>295.1</ele>
        <time>2018-06-21T19:36:24Z</time>
      </trkpt>
      <trkpt lat="44.01684" lon="1.81354">
        <ele>295.5</ele>
        <time>2018-06-21T19:36:26Z</time>
      </trkpt>
      <trkpt lat="44.01687" lon="1.81356">
        <ele>296</ele>
        <time>2018-06-21T19:36:28Z</time>
      </trkpt>
      <trkpt lat="44.0169" lon="1.81358">
        <ele>296.6</ele>
        <time>2018-06-21T19:36:30Z</time>
      </trkpt>
      <trkpt lat="44.01693" lon="1.81359">
        <ele>297.1</ele>
        <time>2018-06-21T19:36:32Z</time>
      </trkpt>
      <trkpt lat="44.01696" lon="1.8136">
        <ele>297.5</ele>
        <time>2018-06-21T19:36:34Z</time>
      </trkpt>
      <trkpt lat="44.017" lon="1.81361">
        <ele>297.8</ele>
        <time>2018-06-21T19:36:36Z</time>
      </trkpt>
      <trkpt lat="44.01702" lon="1.81362">
        <ele>298</ele>
        <time>2018-06-21T19:36:38Z</time>
      </trkpt>
      <trkpt lat="44.01705" lon="1.81362">
        <ele>298.2</ele>
        <time>2018-06-21T19:36:40Z</time>
      </trkpt>
      <trkpt lat="44.01709" lon="1.81363">
        <ele>298.7</ele>
        <time>2018-06-21T19:36:42Z</time>
      </trkpt>
      <trkpt lat="44.01712" lon="1.81364">
        <ele>299.2</ele>
        <time>2018-06-21T19:36:44Z</time>
      </trkpt>
      <trkpt lat="44.01716" lon="1.81364">
        <ele>299.9</ele>
        <time>2018-06-21T19:36:47Z</time>
      </trkpt>
      <trkpt lat="44.01721" lon="1.81363">
        <ele>300.2</ele>
        <time>2018-06-21T19:36:50Z</time>
      </trkpt>
      <trkpt lat="44.01724" lon="1.81364">
        <ele>300.5</ele>
        <time>2018-06-21T19:36:52Z</time>
      </trkpt>
      <trkpt lat="44.01727" lon="1.81364">
        <ele>300.8</ele>
        <time>2018-06-21T19:36:54Z</time>
      </trkpt>
      <trkpt lat="44.0173" lon="1.81364">
        <ele>301</ele>
        <time>2018-06-21T19:36:56Z</time>
      </trkpt>
      <trkpt lat="44.01733" lon="1.81363">
        <ele>301.1</ele>
        <time>2018-06-21T19:36:58Z</time>
      </trkpt>
      <trkpt lat="44.01736" lon="1.81362">
        <ele>301.1</ele>
        <time>2018-06-21T19:37:00Z</time>
      </trkpt>
      <trkpt lat="44.01739" lon="1.81361">
        <ele>301.2</ele>
        <time>2018-06-21T19:37:02Z</time>
      </trkpt>
      <trkpt lat="44.01742" lon="1.81356">
        <ele>301.3</ele>
        <time>2018-06-21T19:37:05Z</time>
      </trkpt>
      <trkpt lat="44.01744" lon="1.81352">
        <ele>301.5</ele>
        <time>2018-06-21T19:37:07Z</time>
      </trkpt>
      <trkpt lat="44.01748" lon="1.81346">
        <ele>301.9</ele>
        <time>2018-06-21T19:37:09Z</time>
      </trkpt>
      <trkpt lat="44.01751" lon="1.81343">
        <ele>302.4</ele>
        <time>2018-06-21T19:37:11Z</time>
      </trkpt>
      <trkpt lat="44.01754" lon="1.81341">
        <ele>303</ele>
        <time>2018-06-21T19:37:13Z</time>
      </trkpt>
      <trkpt lat="44.01758" lon="1.81339">
        <ele>303.4</ele>
        <time>2018-06-21T19:37:15Z</time>
      </trkpt>
      <trkpt lat="44.01761" lon="1.81338">
        <ele>303.7</ele>
        <time>2018-06-21T19:37:17Z</time>
      </trkpt>
      <trkpt lat="44.01765" lon="1.81338">
        <ele>304</ele>
        <time>2018-06-21T19:37:19Z</time>
      </trkpt>
      <trkpt lat="44.01768" lon="1.81336">
        <ele>304.5</ele>
        <time>2018-06-21T19:37:21Z</time>
      </trkpt>
      <trkpt lat="44.01773" lon="1.81338">
        <ele>305.1</ele>
        <time>2018-06-21T19:37:23Z</time>
      </trkpt>
      <trkpt lat="44.01776" lon="1.81338">
        <ele>305.7</ele>
        <time>2018-06-21T19:37:25Z</time>
      </trkpt>
      <trkpt lat="44.01779" lon="1.81337">
        <ele>305.9</ele>
        <time>2018-06-21T19:37:27Z</time>
      </trkpt>
      <trkpt lat="44.01783" lon="1.81336">
        <ele>306.3</ele>
        <time>2018-06-21T19:37:30Z</time>
      </trkpt>
      <trkpt lat="44.01786" lon="1.81334">
        <ele>306.8</ele>
        <time>2018-06-21T19:37:32Z</time>
      </trkpt>
      <trkpt lat="44.01789" lon="1.81332">
        <ele>307.4</ele>
        <time>2018-06-21T19:37:34Z</time>
      </trkpt>
      <trkpt lat="44.01793" lon="1.81332">
        <ele>307.9</ele>
        <time>2018-06-21T19:37:36Z</time>
      </trkpt>
      <trkpt lat="44.01796" lon="1.81332">
        <ele>308.2</ele>
        <time>2018-06-21T19:37:39Z</time>
      </trkpt>
      <trkpt lat="44.018" lon="1.81334">
        <ele>308.5</ele>
        <time>2018-06-21T19:37:41Z</time>
      </trkpt>
      <trkpt lat="44.01804" lon="1.81337">
        <ele>309.3</ele>
        <time>2018-06-21T19:37:43Z</time>
      </trkpt>
      <trkpt lat="44.01808" lon="1.81339">
        <ele>310.2</ele>
        <time>2018-06-21T19:37:45Z</time>
      </trkpt>
      <trkpt lat="44.01812" lon="1.81341">
        <ele>310.7</ele>
        <time>2018-06-21T19:37:47Z</time>
      </trkpt>
      <trkpt lat="44.01816" lon="1.81343">
        <ele>311</ele>
        <time>2018-06-21T19:37:49Z</time>
      </trkpt>
      <trkpt lat="44.01819" lon="1.81343">
        <ele>311.2</ele>
        <time>2018-06-21T19:37:51Z</time>
      </trkpt>
      <trkpt lat="44.01822" lon="1.81343">
        <ele>311.4</ele>
        <time>2018-06-21T19:37:53Z</time>
      </trkpt>
      <trkpt lat="44.01825" lon="1.81343">
        <ele>311.6</ele>
        <time>2018-06-21T19:37:55Z</time>
      </trkpt>
      <trkpt lat="44.01828" lon="1.81343">
        <ele>311.9</ele>
        <time>2018-06-21T19:37:57Z</time>
      </trkpt>
      <trkpt lat="44.01831" lon="1.81343">
        <ele>312.3</ele>
        <time>2018-06-21T19:37:59Z</time>
      </trkpt>
      <trkpt lat="44.01834" lon="1.81343">
        <ele>312.5</ele>
        <time>2018-06-21T19:38:01Z</time>
      </trkpt>
      <trkpt lat="44.01836" lon="1.81343">
        <ele>312.5</ele>
        <time>2018-06-21T19:38:03Z</time>
      </trkpt>
      <trkpt lat="44.01839" lon="1.81344">
        <ele>312.7</ele>
        <time>2018-06-21T19:38:05Z</time>
      </trkpt>
      <trkpt lat="44.01843" lon="1.81344">
        <ele>312.7</ele>
        <time>2018-06-21T19:38:07Z</time>
      </trkpt>
      <trkpt lat="44.01846" lon="1.81344">
        <ele>312.8</ele>
        <time>2018-06-21T19:38:09Z</time>
      </trkpt>
      <trkpt lat="44.0185" lon="1.81344">
        <ele>312.9</ele>
        <time>2018-06-21T19:38:11Z</time>
      </trkpt>
      <trkpt lat="44.01853" lon="1.81344">
        <ele>312.9</ele>
        <time>2018-06-21T19:38:13Z</time>
      </trkpt>
      <trkpt lat="44.01858" lon="1.81345">
        <ele>313</ele>
        <time>2018-06-21T19:38:15Z</time>
      </trkpt>
      <trkpt lat="44.0186" lon="1.81346">
        <ele>313</ele>
        <time>2018-06-21T19:38:16Z</time>
      </trkpt>
      <trkpt lat="44.01865" lon="1.81347">
        <ele>313.1</ele>
        <time>2018-06-21T19:38:18Z</time>
      </trkpt>
      <trkpt lat="44.01868" lon="1.81349">
        <ele>313.1</ele>
        <time>2018-06-21T19:38:19Z</time>
      </trkpt>
      <trkpt lat="44.01871" lon="1.8135">
        <ele>313.2</ele>
        <time>2018-06-21T19:38:20Z</time>
      </trkpt>
      <trkpt lat="44.01874" lon="1.81351">
        <ele>313.2</ele>
        <time>2018-06-21T19:38:21Z</time>
      </trkpt>
      <trkpt lat="44.01877" lon="1.81351">
        <ele>313.3</ele>
        <time>2018-06-21T19:38:22Z</time>
      </trkpt>
      <trkpt lat="44.01881" lon="1.81352">
        <ele>313.3</ele>
        <time>2018-06-21T19:38:23Z</time>
      </trkpt>
      <trkpt lat="44.01884" lon="1.81353">
        <ele>313.4</ele>
        <time>2018-06-21T19:38:24Z</time>
      </trkpt>
      <trkpt lat="44.01888" lon="1.81354">
        <ele>313.4</ele>
        <time>2018-06-21T19:38:25Z</time>
      </trkpt>
      <trkpt lat="44.01893" lon="1.81355">
        <ele>313.5</ele>
        <time>2018-06-21T19:38:26Z</time>
      </trkpt>
      <trkpt lat="44.01897" lon="1.81356">
        <ele>313.6</ele>
        <time>2018-06-21T19:38:27Z</time>
      </trkpt>
      <trkpt lat="44.01901" lon="1.81357">
        <ele>313.7</ele>
        <time>2018-06-21T19:38:28Z</time>
      </trkpt>
      <trkpt lat="44.01905" lon="1.81358">
        <ele>313.8</ele>
        <time>2018-06-21T19:38:29Z</time>
      </trkpt>
      <trkpt lat="44.0191" lon="1.81358">
        <ele>314</ele>
        <time>2018-06-21T19:38:31Z</time>
      </trkpt>
      <trkpt lat="44.01913" lon="1.81359">
        <ele>314.3</ele>
        <time>2018-06-21T19:38:32Z</time>
      </trkpt>
      <trkpt lat="44.01917" lon="1.81361">
        <ele>314.6</ele>
        <time>2018-06-21T19:38:33Z</time>
      </trkpt>
      <trkpt lat="44.01921" lon="1.81362">
        <ele>314.9</ele>
        <time>2018-06-21T19:38:34Z</time>
      </trkpt>
      <trkpt lat="44.01924" lon="1.81364">
        <ele>315.1</ele>
        <time>2018-06-21T19:38:35Z</time>
      </trkpt>
      <trkpt lat="44.01928" lon="1.81366">
        <ele>315.2</ele>
        <time>2018-06-21T19:38:36Z</time>
      </trkpt>
      <trkpt lat="44.01931" lon="1.81367">
        <ele>315.3</ele>
        <time>2018-06-21T19:38:37Z</time>
      </trkpt>
      <trkpt lat="44.01936" lon="1.81369">
        <ele>315.5</ele>
        <time>2018-06-21T19:38:39Z</time>
      </trkpt>
      <trkpt lat="44.0194" lon="1.8137">
        <ele>315.6</ele>
        <time>2018-06-21T19:38:40Z</time>
      </trkpt>
      <trkpt lat="44.01943" lon="1.81371">
        <ele>315.7</ele>
        <time>2018-06-21T19:38:41Z</time>
      </trkpt>
      <trkpt lat="44.01946" lon="1.81373">
        <ele>315.8</ele>
        <time>2018-06-21T19:38:42Z</time>
      </trkpt>
      <trkpt lat="44.01949" lon="1.81375">
        <ele>315.9</ele>
        <time>2018-06-21T19:38:43Z</time>
      </trkpt>
      <trkpt lat="44.01951" lon="1.81377">
        <ele>316.1</ele>
        <time>2018-06-21T19:38:44Z</time>
      </trkpt>
      <trkpt lat="44.01954" lon="1.81378">
        <ele>316.2</ele>
        <time>2018-06-21T19:38:45Z</time>
      </trkpt>
      <trkpt lat="44.01956" lon="1.8138">
        <ele>316.4</ele>
        <time>2018-06-21T19:38:46Z</time>
      </trkpt>
      <trkpt lat="44.01959" lon="1.81381">
        <ele>316.8</ele>
        <time>2018-06-21T19:38:47Z</time>
      </trkpt>
      <trkpt lat="44.01962" lon="1.81382">
        <ele>317.1</ele>
        <time>2018-06-21T19:38:48Z</time>
      </trkpt>
      <trkpt lat="44.01967" lon="1.81384">
        <ele>317.4</ele>
        <time>2018-06-21T19:38:50Z</time>
      </trkpt>
      <trkpt lat="44.01972" lon="1.81386">
        <ele>318</ele>
        <time>2018-06-21T19:38:52Z</time>
      </trkpt>
      <trkpt lat="44.01977" lon="1.81387">
        <ele>318.2</ele>
        <time>2018-06-21T19:38:54Z</time>
      </trkpt>
      <trkpt lat="44.01982" lon="1.81389">
        <ele>318.6</ele>
        <time>2018-06-21T19:38:56Z</time>
      </trkpt>
      <trkpt lat="44.01987" lon="1.81391">
        <ele>319.1</ele>
        <time>2018-06-21T19:38:58Z</time>
      </trkpt>
      <trkpt lat="44.01989" lon="1.81392">
        <ele>319.3</ele>
        <time>2018-06-21T19:38:59Z</time>
      </trkpt>
      <trkpt lat="44.01995" lon="1.81394">
        <ele>319.7</ele>
        <time>2018-06-21T19:39:01Z</time>
      </trkpt>
      <trkpt lat="44.01998" lon="1.81395">
        <ele>319.8</ele>
        <time>2018-06-21T19:39:02Z</time>
      </trkpt>
      <trkpt lat="44.02003" lon="1.81396">
        <ele>319.9</ele>
        <time>2018-06-21T19:39:04Z</time>
      </trkpt>
      <trkpt lat="44.02009" lon="1.81396">
        <ele>320.1</ele>
        <time>2018-06-21T19:39:06Z</time>
      </trkpt>
      <trkpt lat="44.02012" lon="1.81397">
        <ele>320.1</ele>
        <time>2018-06-21T19:39:07Z</time>
      </trkpt>
      <trkpt lat="44.02015" lon="1.81397">
        <ele>320.2</ele>
        <time>2018-06-21T19:39:08Z</time>
      </trkpt>
      <trkpt lat="44.02018" lon="1.81398">
        <ele>320.2</ele>
        <time>2018-06-21T19:39:09Z</time>
      </trkpt>
      <trkpt lat="44.02022" lon="1.81399">
        <ele>320.3</ele>
        <time>2018-06-21T19:39:10Z</time>
      </trkpt>
      <trkpt lat="44.02025" lon="1.814">
        <ele>320.4</ele>
        <time>2018-06-21T19:39:11Z</time>
      </trkpt>
      <trkpt lat="44.02028" lon="1.814">
        <ele>320.4</ele>
        <time>2018-06-21T19:39:12Z</time>
      </trkpt>
      <trkpt lat="44.02032" lon="1.81401">
        <ele>320.5</ele>
        <time>2018-06-21T19:39:13Z</time>
      </trkpt>
      <trkpt lat="44.02035" lon="1.814">
        <ele>320.6</ele>
        <time>2018-06-21T19:39:14Z</time>
      </trkpt>
      <trkpt lat="44.02038" lon="1.814">
        <ele>320.6</ele>
        <time>2018-06-21T19:39:15Z</time>
      </trkpt>
      <trkpt lat="44.02041" lon="1.81399">
        <ele>320.7</ele>
        <time>2018-06-21T19:39:16Z</time>
      </trkpt>
      <trkpt lat="44.02045" lon="1.81399">
        <ele>320.8</ele>
        <time>2018-06-21T19:39:17Z</time>
      </trkpt>
      <trkpt lat="44.02048" lon="1.81399">
        <ele>320.8</ele>
        <time>2018-06-21T19:39:18Z</time>
      </trkpt>
      <trkpt lat="44.02051" lon="1.81398">
        <ele>320.9</ele>
        <time>2018-06-21T19:39:19Z</time>
      </trkpt>
      <trkpt lat="44.02054" lon="1.81398">
        <ele>321</ele>
        <time>2018-06-21T19:39:20Z</time>
      </trkpt>
      <trkpt lat="44.02056" lon="1.81398">
        <ele>321.1</ele>
        <time>2018-06-21T19:39:21Z</time>
      </trkpt>
      <trkpt lat="44.02062" lon="1.81396">
        <ele>321.4</ele>
        <time>2018-06-21T19:39:23Z</time>
      </trkpt>
      <trkpt lat="44.02067" lon="1.81396">
        <ele>321.9</ele>
        <time>2018-06-21T19:39:25Z</time>
      </trkpt>
      <trkpt lat="44.0207" lon="1.81396">
        <ele>322.2</ele>
        <time>2018-06-21T19:39:26Z</time>
      </trkpt>
      <trkpt lat="44.02072" lon="1.81396">
        <ele>322.4</ele>
        <time>2018-06-21T19:39:27Z</time>
      </trkpt>
      <trkpt lat="44.02077" lon="1.81396">
        <ele>322.7</ele>
        <time>2018-06-21T19:39:29Z</time>
      </trkpt>
      <trkpt lat="44.02082" lon="1.81395">
        <ele>322.9</ele>
        <time>2018-06-21T19:39:31Z</time>
      </trkpt>
      <trkpt lat="44.02085" lon="1.81393">
        <ele>323</ele>
        <time>2018-06-21T19:39:33Z</time>
      </trkpt>
      <trkpt lat="44.02089" lon="1.81393">
        <ele>323.2</ele>
        <time>2018-06-21T19:39:35Z</time>
      </trkpt>
      <trkpt lat="44.02094" lon="1.81392">
        <ele>323.6</ele>
        <time>2018-06-21T19:39:37Z</time>
      </trkpt>
      <trkpt lat="44.02099" lon="1.81392">
        <ele>324.2</ele>
        <time>2018-06-21T19:39:39Z</time>
      </trkpt>
      <trkpt lat="44.02101" lon="1.8139">
        <ele>324.6</ele>
        <time>2018-06-21T19:39:41Z</time>
      </trkpt>
      <trkpt lat="44.02106" lon="1.8139">
        <ele>325.2</ele>
        <time>2018-06-21T19:39:43Z</time>
      </trkpt>
      <trkpt lat="44.0211" lon="1.8139">
        <ele>325.5</ele>
        <time>2018-06-21T19:39:45Z</time>
      </trkpt>
      <trkpt lat="44.02115" lon="1.8139">
        <ele>325.8</ele>
        <time>2018-06-21T19:39:47Z</time>
      </trkpt>
      <trkpt lat="44.02119" lon="1.8139">
        <ele>326.1</ele>
        <time>2018-06-21T19:39:49Z</time>
      </trkpt>
      <trkpt lat="44.02124" lon="1.81389">
        <ele>326.7</ele>
        <time>2018-06-21T19:39:51Z</time>
      </trkpt>
      <trkpt lat="44.02128" lon="1.8139">
        <ele>327.3</ele>
        <time>2018-06-21T19:39:53Z</time>
      </trkpt>
      <trkpt lat="44.02132" lon="1.81391">
        <ele>327.7</ele>
        <time>2018-06-21T19:39:55Z</time>
      </trkpt>
      <trkpt lat="44.02136" lon="1.81391">
        <ele>328</ele>
        <time>2018-06-21T19:39:57Z</time>
      </trkpt>
      <trkpt lat="44.0214" lon="1.81392">
        <ele>328.4</ele>
        <time>2018-06-21T19:39:59Z</time>
      </trkpt>
      <trkpt lat="44.02144" lon="1.81393">
        <ele>329</ele>
        <time>2018-06-21T19:40:01Z</time>
      </trkpt>
      <trkpt lat="44.02148" lon="1.81394">
        <ele>329.8</ele>
        <time>2018-06-21T19:40:03Z</time>
      </trkpt>
      <trkpt lat="44.02152" lon="1.81394">
        <ele>330.3</ele>
        <time>2018-06-21T19:40:05Z</time>
      </trkpt>
      <trkpt lat="44.02156" lon="1.81393">
        <ele>330.7</ele>
        <time>2018-06-21T19:40:07Z</time>
      </trkpt>
      <trkpt lat="44.0216" lon="1.81391">
        <ele>331.6</ele>
        <time>2018-06-21T19:40:09Z</time>
      </trkpt>
      <trkpt lat="44.02163" lon="1.81388">
        <ele>332.3</ele>
        <time>2018-06-21T19:40:11Z</time>
      </trkpt>
      <trkpt lat="44.02166" lon="1.81386">
        <ele>332.7</ele>
        <time>2018-06-21T19:40:13Z</time>
      </trkpt>
      <trkpt lat="44.02169" lon="1.81383">
        <ele>333.1</ele>
        <time>2018-06-21T19:40:15Z</time>
      </trkpt>
      <trkpt lat="44.02172" lon="1.8138">
        <ele>333.6</ele>
        <time>2018-06-21T19:40:17Z</time>
      </trkpt>
      <trkpt lat="44.02175" lon="1.81376">
        <ele>334.4</ele>
        <time>2018-06-21T19:40:19Z</time>
      </trkpt>
      <trkpt lat="44.02178" lon="1.81372">
        <ele>334.8</ele>
        <time>2018-06-21T19:40:21Z</time>
      </trkpt>
      <trkpt lat="44.0218" lon="1.81366">
        <ele>335.4</ele>
        <time>2018-06-21T19:40:23Z</time>
      </trkpt>
      <trkpt lat="44.02182" lon="1.81364">
        <ele>335.9</ele>
        <time>2018-06-21T19:40:25Z</time>
      </trkpt>
      <trkpt lat="44.02185" lon="1.81362">
        <ele>336.4</ele>
        <time>2018-06-21T19:40:27Z</time>
      </trkpt>
      <trkpt lat="44.02187" lon="1.81358">
        <ele>337</ele>
        <time>2018-06-21T19:40:29Z</time>
      </trkpt>
      <trkpt lat="44.0219" lon="1.81354">
        <ele>337.5</ele>
        <time>2018-06-21T19:40:31Z</time>
      </trkpt>
      <trkpt lat="44.02191" lon="1.8135">
        <ele>337.7</ele>
        <time>2018-06-21T19:40:32Z</time>
      </trkpt>
      <trkpt lat="44.02193" lon="1.81347">
        <ele>337.9</ele>
        <time>2018-06-21T19:40:34Z</time>
      </trkpt>
      <trkpt lat="44.02195" lon="1.81341">
        <ele>338.4</ele>
        <time>2018-06-21T19:40:36Z</time>
      </trkpt>
      <trkpt lat="44.02197" lon="1.81336">
        <ele>339.3</ele>
        <time>2018-06-21T19:40:38Z</time>
      </trkpt>
      <trkpt lat="44.02199" lon="1.81331">
        <ele>339.7</ele>
        <time>2018-06-21T19:40:40Z</time>
      </trkpt>
      <trkpt lat="44.02201" lon="1.81327">
        <ele>340.1</ele>
        <time>2018-06-21T19:40:42Z</time>
      </trkpt>
      <trkpt lat="44.02203" lon="1.81322">
        <ele>340.6</ele>
        <time>2018-06-21T19:40:44Z</time>
      </trkpt>
      <trkpt lat="44.02205" lon="1.81318">
        <ele>341.3</ele>
        <time>2018-06-21T19:40:46Z</time>
      </trkpt>
      <trkpt lat="44.02207" lon="1.81313">
        <ele>341.6</ele>
        <time>2018-06-21T19:40:48Z</time>
      </trkpt>
      <trkpt lat="44.02209" lon="1.81308">
        <ele>341.9</ele>
        <time>2018-06-21T19:40:50Z</time>
      </trkpt>
      <trkpt lat="44.0221" lon="1.81303">
        <ele>342.2</ele>
        <time>2018-06-21T19:40:52Z</time>
      </trkpt>
      <trkpt lat="44.02212" lon="1.81298">
        <ele>342.5</ele>
        <time>2018-06-21T19:40:54Z</time>
      </trkpt>
      <trkpt lat="44.02214" lon="1.81293">
        <ele>343.2</ele>
        <time>2018-06-21T19:40:56Z</time>
      </trkpt>
      <trkpt lat="44.02215" lon="1.81289">
        <ele>343.9</ele>
        <time>2018-06-21T19:40:58Z</time>
      </trkpt>
      <trkpt lat="44.02217" lon="1.81285">
        <ele>344.4</ele>
        <time>2018-06-21T19:41:00Z</time>
      </trkpt>
      <trkpt lat="44.02218" lon="1.8128">
        <ele>344.9</ele>
        <time>2018-06-21T19:41:02Z</time>
      </trkpt>
      <trkpt lat="44.02221" lon="1.81275">
        <ele>345.3</ele>
        <time>2018-06-21T19:41:04Z</time>
      </trkpt>
      <trkpt lat="44.02223" lon="1.81272">
        <ele>346</ele>
        <time>2018-06-21T19:41:06Z</time>
      </trkpt>
      <trkpt lat="44.02225" lon="1.81268">
        <ele>346.7</ele>
        <time>2018-06-21T19:41:08Z</time>
      </trkpt>
      <trkpt lat="44.02228" lon="1.81266">
        <ele>347.3</ele>
        <time>2018-06-21T19:41:11Z</time>
      </trkpt>
      <trkpt lat="44.02228" lon="1.81261">
        <ele>348.1</ele>
        <time>2018-06-21T19:42:05Z</time>
      </trkpt>
      <trkpt lat="44.0223" lon="1.81257">
        <ele>348.9</ele>
        <time>2018-06-21T19:42:07Z</time>
      </trkpt>
      <trkpt lat="44.02231" lon="1.81251">
        <ele>349.8</ele>
        <time>2018-06-21T19:42:09Z</time>
      </trkpt>
      <trkpt lat="44.02232" lon="1.81245">
        <ele>350.3</ele>
        <time>2018-06-21T19:42:11Z</time>
      </trkpt>
      <trkpt lat="44.02232" lon="1.81241">
        <ele>350.8</ele>
        <time>2018-06-21T19:42:12Z</time>
      </trkpt>
      <trkpt lat="44.02232" lon="1.81237">
        <ele>351.2</ele>
        <time>2018-06-21T19:42:14Z</time>
      </trkpt>
      <trkpt lat="44.02232" lon="1.81232">
        <ele>350.9</ele>
        <time>2018-06-21T19:42:17Z</time>
      </trkpt>
      <trkpt lat="44.02231" lon="1.81227">
        <ele>350.9</ele>
        <time>2018-06-21T19:42:19Z</time>
      </trkpt>
      <trkpt lat="44.0223" lon="1.81221">
        <ele>350.9</ele>
        <time>2018-06-21T19:42:21Z</time>
      </trkpt>
      <trkpt lat="44.02229" lon="1.81217">
        <ele>350.9</ele>
        <time>2018-06-21T19:42:23Z</time>
      </trkpt>
      <trkpt lat="44.02228" lon="1.8121">
        <ele>350.3</ele>
        <time>2018-06-21T19:42:25Z</time>
      </trkpt>
      <trkpt lat="44.02226" lon="1.81205">
        <ele>349.8</ele>
        <time>2018-06-21T19:42:27Z</time>
      </trkpt>
      <trkpt lat="44.02224" lon="1.81201">
        <ele>349.8</ele>
        <time>2018-06-21T19:42:29Z</time>
      </trkpt>
      <trkpt lat="44.02221" lon="1.81197">
        <ele>349.2</ele>
        <time>2018-06-21T19:42:31Z</time>
      </trkpt>
      <trkpt lat="44.02218" lon="1.81194">
        <ele>348.6</ele>
        <time>2018-06-21T19:42:33Z</time>
      </trkpt>
      <trkpt lat="44.02216" lon="1.8119">
        <ele>348</ele>
        <time>2018-06-21T19:42:35Z</time>
      </trkpt>
      <trkpt lat="44.02215" lon="1.81183">
        <ele>348</ele>
        <time>2018-06-21T19:42:37Z</time>
      </trkpt>
      <trkpt lat="44.02216" lon="1.81179">
        <ele>348</ele>
        <time>2018-06-21T19:42:39Z</time>
      </trkpt>
      <trkpt lat="44.02217" lon="1.81174">
        <ele>348.6</ele>
        <time>2018-06-21T19:42:41Z</time>
      </trkpt>
      <trkpt lat="44.02219" lon="1.8117">
        <ele>348.6</ele>
        <time>2018-06-21T19:42:43Z</time>
      </trkpt>
      <trkpt lat="44.02222" lon="1.81166">
        <ele>349.2</ele>
        <time>2018-06-21T19:42:45Z</time>
      </trkpt>
      <trkpt lat="44.02224" lon="1.81162">
        <ele>349.8</ele>
        <time>2018-06-21T19:42:47Z</time>
      </trkpt>
      <trkpt lat="44.02227" lon="1.81158">
        <ele>350.4</ele>
        <time>2018-06-21T19:42:49Z</time>
      </trkpt>
      <trkpt lat="44.02229" lon="1.81155">
        <ele>350.4</ele>
        <time>2018-06-21T19:42:51Z</time>
      </trkpt>
      <trkpt lat="44.02231" lon="1.81151">
        <ele>350.8</ele>
        <time>2018-06-21T19:42:53Z</time>
      </trkpt>
      <trkpt lat="44.02233" lon="1.81147">
        <ele>351.2</ele>
        <time>2018-06-21T19:42:55Z</time>
      </trkpt>
      <trkpt lat="44.02235" lon="1.81144">
        <ele>351.6</ele>
        <time>2018-06-21T19:42:57Z</time>
      </trkpt>
      <trkpt lat="44.02237" lon="1.81139">
        <ele>351.5</ele>
        <time>2018-06-21T19:42:59Z</time>
      </trkpt>
      <trkpt lat="44.02238" lon="1.81134">
        <ele>351.4</ele>
        <time>2018-06-21T19:43:01Z</time>
      </trkpt>
      <trkpt lat="44.0224" lon="1.81128">
        <ele>351.5</ele>
        <time>2018-06-21T19:43:03Z</time>
      </trkpt>
      <trkpt lat="44.02242" lon="1.81122">
        <ele>351.7</ele>
        <time>2018-06-21T19:43:05Z</time>
      </trkpt>
      <trkpt lat="44.02243" lon="1.81117">
        <ele>351.5</ele>
        <time>2018-06-21T19:43:07Z</time>
      </trkpt>
      <trkpt lat="44.02244" lon="1.81111">
        <ele>351.2</ele>
        <time>2018-06-21T19:43:09Z</time>
      </trkpt>
      <trkpt lat="44.02246" lon="1.81106">
        <ele>351.2</ele>
        <time>2018-06-21T19:43:11Z</time>
      </trkpt>
      <trkpt lat="44.02246" lon="1.811">
        <ele>351</ele>
        <time>2018-06-21T19:43:13Z</time>
      </trkpt>
      <trkpt lat="44.02246" lon="1.81093">
        <ele>350.5</ele>
        <time>2018-06-21T19:43:15Z</time>
      </trkpt>
      <trkpt lat="44.02246" lon="1.81088">
        <ele>350.2</ele>
        <time>2018-06-21T19:43:16Z</time>
      </trkpt>
      <trkpt lat="44.02246" lon="1.81084">
        <ele>349.9</ele>
        <time>2018-06-21T19:43:17Z</time>
      </trkpt>
      <trkpt lat="44.02246" lon="1.81079">
        <ele>349.5</ele>
        <time>2018-06-21T19:43:18Z</time>
      </trkpt>
      <trkpt lat="44.02246" lon="1.81074">
        <ele>349.2</ele>
        <time>2018-06-21T19:43:19Z</time>
      </trkpt>
      <trkpt lat="44.02245" lon="1.81069">
        <ele>348.9</ele>
        <time>2018-06-21T19:43:20Z</time>
      </trkpt>
      <trkpt lat="44.02245" lon="1.81064">
        <ele>347.9</ele>
        <time>2018-06-21T19:43:21Z</time>
      </trkpt>
      <trkpt lat="44.02244" lon="1.81059">
        <ele>347.5</ele>
        <time>2018-06-21T19:43:22Z</time>
      </trkpt>
      <trkpt lat="44.02243" lon="1.81053">
        <ele>347.1</ele>
        <time>2018-06-21T19:43:23Z</time>
      </trkpt>
      <trkpt lat="44.02242" lon="1.81047">
        <ele>346.3</ele>
        <time>2018-06-21T19:43:24Z</time>
      </trkpt>
      <trkpt lat="44.02241" lon="1.81041">
        <ele>345.6</ele>
        <time>2018-06-21T19:43:25Z</time>
      </trkpt>
      <trkpt lat="44.0224" lon="1.81035">
        <ele>345.3</ele>
        <time>2018-06-21T19:43:26Z</time>
      </trkpt>
      <trkpt lat="44.0224" lon="1.81029">
        <ele>344.6</ele>
        <time>2018-06-21T19:43:27Z</time>
      </trkpt>
      <trkpt lat="44.02239" lon="1.81022">
        <ele>344.2</ele>
        <time>2018-06-21T19:43:28Z</time>
      </trkpt>
      <trkpt lat="44.02237" lon="1.81015">
        <ele>343.1</ele>
        <time>2018-06-21T19:43:29Z</time>
      </trkpt>
      <trkpt lat="44.02238" lon="1.81009">
        <ele>342.6</ele>
        <time>2018-06-21T19:43:30Z</time>
      </trkpt>
      <trkpt lat="44.02239" lon="1.81002">
        <ele>341.7</ele>
        <time>2018-06-21T19:43:31Z</time>
      </trkpt>
      <trkpt lat="44.02241" lon="1.80997">
        <ele>341.1</ele>
        <time>2018-06-21T19:43:32Z</time>
      </trkpt>
      <trkpt lat="44.02244" lon="1.80992">
        <ele>340.7</ele>
        <time>2018-06-21T19:43:33Z</time>
      </trkpt>
      <trkpt lat="44.02246" lon="1.80986">
        <ele>339.8</ele>
        <time>2018-06-21T19:43:34Z</time>
      </trkpt>
      <trkpt lat="44.02248" lon="1.80979">
        <ele>339.4</ele>
        <time>2018-06-21T19:43:35Z</time>
      </trkpt>
      <trkpt lat="44.02251" lon="1.80973">
        <ele>338.4</ele>
        <time>2018-06-21T19:43:36Z</time>
      </trkpt>
      <trkpt lat="44.02254" lon="1.80969">
        <ele>338.3</ele>
        <time>2018-06-21T19:43:37Z</time>
      </trkpt>
      <trkpt lat="44.02259" lon="1.80965">
        <ele>338</ele>
        <time>2018-06-21T19:43:38Z</time>
      </trkpt>
      <trkpt lat="44.02263" lon="1.8096">
        <ele>337.9</ele>
        <time>2018-06-21T19:43:39Z</time>
      </trkpt>
      <trkpt lat="44.02267" lon="1.80954">
        <ele>337.7</ele>
        <time>2018-06-21T19:43:40Z</time>
      </trkpt>
      <trkpt lat="44.0227" lon="1.80947">
        <ele>337.2</ele>
        <time>2018-06-21T19:43:41Z</time>
      </trkpt>
      <trkpt lat="44.02272" lon="1.8094">
        <ele>336.9</ele>
        <time>2018-06-21T19:43:42Z</time>
      </trkpt>
      <trkpt lat="44.02275" lon="1.80932">
        <ele>336.8</ele>
        <time>2018-06-21T19:43:43Z</time>
      </trkpt>
      <trkpt lat="44.02278" lon="1.80924">
        <ele>336.9</ele>
        <time>2018-06-21T19:43:44Z</time>
      </trkpt>
      <trkpt lat="44.02282" lon="1.80916">
        <ele>337.3</ele>
        <time>2018-06-21T19:43:45Z</time>
      </trkpt>
      <trkpt lat="44.02285" lon="1.80909">
        <ele>337.3</ele>
        <time>2018-06-21T19:43:46Z</time>
      </trkpt>
      <trkpt lat="44.02289" lon="1.80901">
        <ele>337.1</ele>
        <time>2018-06-21T19:43:47Z</time>
      </trkpt>
      <trkpt lat="44.02292" lon="1.80893">
        <ele>337</ele>
        <time>2018-06-21T19:43:48Z</time>
      </trkpt>
      <trkpt lat="44.02294" lon="1.80885">
        <ele>336.4</ele>
        <time>2018-06-21T19:43:49Z</time>
      </trkpt>
      <trkpt lat="44.02295" lon="1.80876">
        <ele>335.9</ele>
        <time>2018-06-21T19:43:50Z</time>
      </trkpt>
      <trkpt lat="44.02295" lon="1.80866">
        <ele>335.2</ele>
        <time>2018-06-21T19:43:51Z</time>
      </trkpt>
      <trkpt lat="44.02295" lon="1.80856">
        <ele>335</ele>
        <time>2018-06-21T19:43:52Z</time>
      </trkpt>
      <trkpt lat="44.02295" lon="1.80846">
        <ele>335.1</ele>
        <time>2018-06-21T19:43:53Z</time>
      </trkpt>
      <trkpt lat="44.02294" lon="1.80837">
        <ele>335.3</ele>
        <time>2018-06-21T19:43:54Z</time>
      </trkpt>
      <trkpt lat="44.02293" lon="1.8083">
        <ele>335.7</ele>
        <time>2018-06-21T19:43:55Z</time>
      </trkpt>
      <trkpt lat="44.02292" lon="1.80822">
        <ele>336.2</ele>
        <time>2018-06-21T19:43:56Z</time>
      </trkpt>
      <trkpt lat="44.02292" lon="1.80815">
        <ele>336.6</ele>
        <time>2018-06-21T19:43:57Z</time>
      </trkpt>
      <trkpt lat="44.02291" lon="1.80809">
        <ele>336.9</ele>
        <time>2018-06-21T19:43:58Z</time>
      </trkpt>
      <trkpt lat="44.02291" lon="1.80803">
        <ele>337.1</ele>
        <time>2018-06-21T19:43:59Z</time>
      </trkpt>
      <trkpt lat="44.0229" lon="1.80798">
        <ele>337.5</ele>
        <time>2018-06-21T19:44:00Z</time>
      </trkpt>
      <trkpt lat="44.0229" lon="1.80793">
        <ele>337.8</ele>
        <time>2018-06-21T19:44:01Z</time>
      </trkpt>
      <trkpt lat="44.0229" lon="1.80787">
        <ele>338</ele>
        <time>2018-06-21T19:44:02Z</time>
      </trkpt>
      <trkpt lat="44.0229" lon="1.80783">
        <ele>338.3</ele>
        <time>2018-06-21T19:44:03Z</time>
      </trkpt>
      <trkpt lat="44.0229" lon="1.80779">
        <ele>338.7</ele>
        <time>2018-06-21T19:44:05Z</time>
      </trkpt>
      <trkpt lat="44.02289" lon="1.80775">
        <ele>339.1</ele>
        <time>2018-06-21T19:44:07Z</time>
      </trkpt>
      <trkpt lat="44.0229" lon="1.80771">
        <ele>339.5</ele>
        <time>2018-06-21T19:44:09Z</time>
      </trkpt>
      <trkpt lat="44.0229" lon="1.80767">
        <ele>339.9</ele>
        <time>2018-06-21T19:44:13Z</time>
      </trkpt>
      <trkpt lat="44.0229" lon="1.80763">
        <ele>340.4</ele>
        <time>2018-06-21T19:44:32Z</time>
      </trkpt>
      <trkpt lat="44.02292" lon="1.80759">
        <ele>340.9</ele>
        <time>2018-06-21T19:44:36Z</time>
      </trkpt>
      <trkpt lat="44.02293" lon="1.80755">
        <ele>341.4</ele>
        <time>2018-06-21T19:44:45Z</time>
      </trkpt>
      <trkpt lat="44.02296" lon="1.80751">
        <ele>342</ele>
        <time>2018-06-21T19:44:48Z</time>
      </trkpt>
      <trkpt lat="44.02299" lon="1.80746">
        <ele>342.7</ele>
        <time>2018-06-21T19:44:50Z</time>
      </trkpt>
      <trkpt lat="44.02301" lon="1.80741">
        <ele>343.3</ele>
        <time>2018-06-21T19:44:52Z</time>
      </trkpt>
      <trkpt lat="44.02303" lon="1.80736">
        <ele>344</ele>
        <time>2018-06-21T19:44:54Z</time>
      </trkpt>
      <trkpt lat="44.02305" lon="1.80732">
        <ele>344.5</ele>
        <time>2018-06-21T19:44:56Z</time>
      </trkpt>
      <trkpt lat="44.02307" lon="1.80725">
        <ele>345.2</ele>
        <time>2018-06-21T19:44:58Z</time>
      </trkpt>
      <trkpt lat="44.02309" lon="1.80718">
        <ele>346.3</ele>
        <time>2018-06-21T19:45:00Z</time>
      </trkpt>
      <trkpt lat="44.0231" lon="1.80715">
        <ele>346.8</ele>
        <time>2018-06-21T19:45:01Z</time>
      </trkpt>
      <trkpt lat="44.02311" lon="1.80708">
        <ele>347.8</ele>
        <time>2018-06-21T19:45:03Z</time>
      </trkpt>
      <trkpt lat="44.02311" lon="1.80703">
        <ele>348.4</ele>
        <time>2018-06-21T19:45:05Z</time>
      </trkpt>
      <trkpt lat="44.02312" lon="1.80698">
        <ele>348.9</ele>
        <time>2018-06-21T19:45:07Z</time>
      </trkpt>
      <trkpt lat="44.02314" lon="1.80694">
        <ele>349.5</ele>
        <time>2018-06-21T19:45:09Z</time>
      </trkpt>
      <trkpt lat="44.02315" lon="1.8069">
        <ele>350.2</ele>
        <time>2018-06-21T19:45:11Z</time>
      </trkpt>
      <trkpt lat="44.02316" lon="1.80685">
        <ele>350.8</ele>
        <time>2018-06-21T19:45:13Z</time>
      </trkpt>
      <trkpt lat="44.02318" lon="1.8068">
        <ele>351.5</ele>
        <time>2018-06-21T19:45:15Z</time>
      </trkpt>
      <trkpt lat="44.0232" lon="1.80675">
        <ele>352.1</ele>
        <time>2018-06-21T19:45:17Z</time>
      </trkpt>
      <trkpt lat="44.02321" lon="1.8067">
        <ele>352.8</ele>
        <time>2018-06-21T19:45:19Z</time>
      </trkpt>
      <trkpt lat="44.02322" lon="1.80665">
        <ele>354</ele>
        <time>2018-06-21T19:45:21Z</time>
      </trkpt>
      <trkpt lat="44.02324" lon="1.8066">
        <ele>354.7</ele>
        <time>2018-06-21T19:45:23Z</time>
      </trkpt>
      <trkpt lat="44.02325" lon="1.80656">
        <ele>355.3</ele>
        <time>2018-06-21T19:45:25Z</time>
      </trkpt>
      <trkpt lat="44.02325" lon="1.80652">
        <ele>356</ele>
        <time>2018-06-21T19:45:27Z</time>
      </trkpt>
      <trkpt lat="44.02327" lon="1.80647">
        <ele>356.7</ele>
        <time>2018-06-21T19:45:29Z</time>
      </trkpt>
      <trkpt lat="44.02329" lon="1.80644">
        <ele>357.5</ele>
        <time>2018-06-21T19:45:31Z</time>
      </trkpt>
      <trkpt lat="44.0233" lon="1.8064">
        <ele>357.5</ele>
        <time>2018-06-21T19:45:33Z</time>
      </trkpt>
      <trkpt lat="44.02332" lon="1.80636">
        <ele>358.3</ele>
        <time>2018-06-21T19:45:35Z</time>
      </trkpt>
      <trkpt lat="44.02333" lon="1.80632">
        <ele>359</ele>
        <time>2018-06-21T19:45:37Z</time>
      </trkpt>
      <trkpt lat="44.02335" lon="1.80629">
        <ele>359.8</ele>
        <time>2018-06-21T19:45:39Z</time>
      </trkpt>
      <trkpt lat="44.02337" lon="1.80625">
        <ele>360.5</ele>
        <time>2018-06-21T19:45:41Z</time>
      </trkpt>
      <trkpt lat="44.02338" lon="1.80619">
        <ele>361.2</ele>
        <time>2018-06-21T19:45:43Z</time>
      </trkpt>
      <trkpt lat="44.02341" lon="1.80617">
        <ele>361.9</ele>
        <time>2018-06-21T19:45:45Z</time>
      </trkpt>
      <trkpt lat="44.02342" lon="1.80614">
        <ele>362.6</ele>
        <time>2018-06-21T19:45:51Z</time>
      </trkpt>
      <trkpt lat="44.02343" lon="1.80609">
        <ele>363.2</ele>
        <time>2018-06-21T19:46:19Z</time>
      </trkpt>
      <trkpt lat="44.02341" lon="1.80613">
        <ele>362.6</ele>
        <time>2018-06-21T19:46:22Z</time>
      </trkpt>
      <trkpt lat="44.02342" lon="1.80622">
        <ele>360.7</ele>
        <time>2018-06-21T19:46:25Z</time>
      </trkpt>
      <trkpt lat="44.02362" lon="1.80633">
        <ele>360.2</ele>
        <time>2018-06-21T19:46:27Z</time>
      </trkpt>
      <trkpt lat="44.02359" lon="1.8062">
        <ele>362.1</ele>
        <time>2018-06-21T19:46:31Z</time>
      </trkpt>
      <trkpt lat="44.02359" lon="1.80616">
        <ele>362.7</ele>
        <time>2018-06-21T19:46:32Z</time>
      </trkpt>
      <trkpt lat="44.0236" lon="1.80607">
        <ele>363.9</ele>
        <time>2018-06-21T19:46:33Z</time>
      </trkpt>
      <trkpt lat="44.02359" lon="1.80602">
        <ele>364.5</ele>
        <time>2018-06-21T19:46:34Z</time>
      </trkpt>
      <trkpt lat="44.0236" lon="1.80597">
        <ele>365.2</ele>
        <time>2018-06-21T19:46:35Z</time>
      </trkpt>
      <trkpt lat="44.02363" lon="1.80594">
        <ele>366.1</ele>
        <time>2018-06-21T19:46:36Z</time>
      </trkpt>
      <trkpt lat="44.02365" lon="1.80591">
        <ele>366.8</ele>
        <time>2018-06-21T19:46:38Z</time>
      </trkpt>
      <trkpt lat="44.02368" lon="1.80587">
        <ele>367.9</ele>
        <time>2018-06-21T19:46:41Z</time>
      </trkpt>
      <trkpt lat="44.02371" lon="1.80584">
        <ele>367.9</ele>
        <time>2018-06-21T19:46:44Z</time>
      </trkpt>
      <trkpt lat="44.02374" lon="1.80583">
        <ele>368.8</ele>
        <time>2018-06-21T19:46:47Z</time>
      </trkpt>
      <trkpt lat="44.02377" lon="1.8058">
        <ele>369.1</ele>
        <time>2018-06-21T19:46:50Z</time>
      </trkpt>
      <trkpt lat="44.0238" lon="1.80579">
        <ele>370</ele>
        <time>2018-06-21T19:46:52Z</time>
      </trkpt>
      <trkpt lat="44.02383" lon="1.80576">
        <ele>370.2</ele>
        <time>2018-06-21T19:46:55Z</time>
      </trkpt>
      <trkpt lat="44.02385" lon="1.80571">
        <ele>371.1</ele>
        <time>2018-06-21T19:46:58Z</time>
      </trkpt>
      <trkpt lat="44.02387" lon="1.80568">
        <ele>372</ele>
        <time>2018-06-21T19:47:01Z</time>
      </trkpt>
      <trkpt lat="44.02389" lon="1.80564">
        <ele>372.6</ele>
        <time>2018-06-21T19:47:04Z</time>
      </trkpt>
      <trkpt lat="44.02391" lon="1.8056">
        <ele>373.5</ele>
        <time>2018-06-21T19:47:06Z</time>
      </trkpt>
      <trkpt lat="44.02393" lon="1.80557">
        <ele>374.5</ele>
        <time>2018-06-21T19:47:09Z</time>
      </trkpt>
      <trkpt lat="44.02396" lon="1.80554">
        <ele>374.8</ele>
        <time>2018-06-21T19:47:13Z</time>
      </trkpt>
      <trkpt lat="44.02399" lon="1.80551">
        <ele>375.8</ele>
        <time>2018-06-21T19:47:16Z</time>
      </trkpt>
      <trkpt lat="44.02401" lon="1.80549">
        <ele>376.4</ele>
        <time>2018-06-21T19:47:18Z</time>
      </trkpt>
      <trkpt lat="44.02404" lon="1.80545">
        <ele>376.7</ele>
        <time>2018-06-21T19:47:21Z</time>
      </trkpt>
      <trkpt lat="44.02407" lon="1.80543">
        <ele>377.5</ele>
        <time>2018-06-21T19:47:23Z</time>
      </trkpt>
      <trkpt lat="44.0241" lon="1.80541">
        <ele>377.8</ele>
        <time>2018-06-21T19:47:25Z</time>
      </trkpt>
      <trkpt lat="44.02413" lon="1.80539">
        <ele>378.5</ele>
        <time>2018-06-21T19:47:27Z</time>
      </trkpt>
      <trkpt lat="44.02416" lon="1.80534">
        <ele>379.2</ele>
        <time>2018-06-21T19:47:30Z</time>
      </trkpt>
      <trkpt lat="44.02419" lon="1.80532">
        <ele>379.9</ele>
        <time>2018-06-21T19:47:33Z</time>
      </trkpt>
      <trkpt lat="44.02421" lon="1.80529">
        <ele>380.1</ele>
        <time>2018-06-21T19:47:35Z</time>
      </trkpt>
      <trkpt lat="44.02423" lon="1.80526">
        <ele>380.6</ele>
        <time>2018-06-21T19:47:37Z</time>
      </trkpt>
      <trkpt lat="44.02425" lon="1.80523">
        <ele>381.3</ele>
        <time>2018-06-21T19:47:40Z</time>
      </trkpt>
      <trkpt lat="44.02428" lon="1.8052">
        <ele>381.4</ele>
        <time>2018-06-21T19:47:43Z</time>
      </trkpt>
      <trkpt lat="44.0243" lon="1.80516">
        <ele>382.1</ele>
        <time>2018-06-21T19:47:46Z</time>
      </trkpt>
      <trkpt lat="44.02433" lon="1.80513">
        <ele>382.6</ele>
        <time>2018-06-21T19:47:49Z</time>
      </trkpt>
      <trkpt lat="44.02434" lon="1.80511">
        <ele>383.4</ele>
        <time>2018-06-21T19:47:53Z</time>
      </trkpt>
      <trkpt lat="44.02437" lon="1.80507">
        <ele>383.5</ele>
        <time>2018-06-21T19:47:57Z</time>
      </trkpt>
      <trkpt lat="44.02439" lon="1.80504">
        <ele>384.1</ele>
        <time>2018-06-21T19:47:59Z</time>
      </trkpt>
      <trkpt lat="44.02441" lon="1.805">
        <ele>384.9</ele>
        <time>2018-06-21T19:48:02Z</time>
      </trkpt>
      <trkpt lat="44.02444" lon="1.80497">
        <ele>385.8</ele>
        <time>2018-06-21T19:48:05Z</time>
      </trkpt>
      <trkpt lat="44.02446" lon="1.80494">
        <ele>386.1</ele>
        <time>2018-06-21T19:48:08Z</time>
      </trkpt>
      <trkpt lat="44.02448" lon="1.80491">
        <ele>386.8</ele>
        <time>2018-06-21T19:48:10Z</time>
      </trkpt>
      <trkpt lat="44.02452" lon="1.80488">
        <ele>387.5</ele>
        <time>2018-06-21T19:48:13Z</time>
      </trkpt>
      <trkpt lat="44.02454" lon="1.80486">
        <ele>387.6</ele>
        <time>2018-06-21T19:48:15Z</time>
      </trkpt>
      <trkpt lat="44.02458" lon="1.80485">
        <ele>388</ele>
        <time>2018-06-21T19:48:17Z</time>
      </trkpt>
      <trkpt lat="44.0246" lon="1.80483">
        <ele>388.5</ele>
        <time>2018-06-21T19:48:19Z</time>
      </trkpt>
      <trkpt lat="44.02462" lon="1.8048">
        <ele>389.3</ele>
        <time>2018-06-21T19:48:22Z</time>
      </trkpt>
      <trkpt lat="44.02466" lon="1.80478">
        <ele>389.6</ele>
        <time>2018-06-21T19:48:25Z</time>
      </trkpt>
      <trkpt lat="44.02468" lon="1.80476">
        <ele>390.4</ele>
        <time>2018-06-21T19:48:27Z</time>
      </trkpt>
      <trkpt lat="44.02471" lon="1.80474">
        <ele>390.7</ele>
        <time>2018-06-21T19:48:30Z</time>
      </trkpt>
      <trkpt lat="44.02473" lon="1.80471">
        <ele>391.5</ele>
        <time>2018-06-21T19:48:33Z</time>
      </trkpt>
      <trkpt lat="44.02476" lon="1.80468">
        <ele>391.9</ele>
        <time>2018-06-21T19:48:35Z</time>
      </trkpt>
      <trkpt lat="44.02479" lon="1.80465">
        <ele>392.4</ele>
        <time>2018-06-21T19:48:38Z</time>
      </trkpt>
      <trkpt lat="44.0248" lon="1.80461">
        <ele>393.2</ele>
        <time>2018-06-21T19:48:40Z</time>
      </trkpt>
      <trkpt lat="44.02482" lon="1.80458">
        <ele>393.8</ele>
        <time>2018-06-21T19:48:42Z</time>
      </trkpt>
      <trkpt lat="44.02484" lon="1.80455">
        <ele>394.1</ele>
        <time>2018-06-21T19:48:44Z</time>
      </trkpt>
      <trkpt lat="44.02487" lon="1.80453">
        <ele>394.8</ele>
        <time>2018-06-21T19:48:45Z</time>
      </trkpt>
      <trkpt lat="44.0249" lon="1.80452">
        <ele>395</ele>
        <time>2018-06-21T19:48:47Z</time>
      </trkpt>
      <trkpt lat="44.02493" lon="1.8045">
        <ele>395.7</ele>
        <time>2018-06-21T19:48:49Z</time>
      </trkpt>
      <trkpt lat="44.02496" lon="1.80447">
        <ele>395.9</ele>
        <time>2018-06-21T19:48:52Z</time>
      </trkpt>
      <trkpt lat="44.025" lon="1.80444">
        <ele>396.6</ele>
        <time>2018-06-21T19:48:55Z</time>
      </trkpt>
      <trkpt lat="44.02502" lon="1.80441">
        <ele>397.2</ele>
        <time>2018-06-21T19:48:57Z</time>
      </trkpt>
      <trkpt lat="44.02504" lon="1.80438">
        <ele>397.4</ele>
        <time>2018-06-21T19:49:00Z</time>
      </trkpt>
      <trkpt lat="44.02506" lon="1.80434">
        <ele>397.8</ele>
        <time>2018-06-21T19:49:02Z</time>
      </trkpt>
      <trkpt lat="44.02507" lon="1.8043">
        <ele>398.4</ele>
        <time>2018-06-21T19:49:04Z</time>
      </trkpt>
      <trkpt lat="44.0251" lon="1.80428">
        <ele>398.8</ele>
        <time>2018-06-21T19:49:06Z</time>
      </trkpt>
      <trkpt lat="44.02513" lon="1.80426">
        <ele>399</ele>
        <time>2018-06-21T19:49:09Z</time>
      </trkpt>
      <trkpt lat="44.02515" lon="1.80431">
        <ele>398.7</ele>
        <time>2018-06-21T19:50:50Z</time>
      </trkpt>
      <trkpt lat="44.02516" lon="1.80436">
        <ele>398.4</ele>
        <time>2018-06-21T19:50:52Z</time>
      </trkpt>
      <trkpt lat="44.02517" lon="1.8044">
        <ele>398.1</ele>
        <time>2018-06-21T19:50:53Z</time>
      </trkpt>
      <trkpt lat="44.02517" lon="1.80445">
        <ele>397.8</ele>
        <time>2018-06-21T19:50:54Z</time>
      </trkpt>
      <trkpt lat="44.02518" lon="1.8045">
        <ele>397.4</ele>
        <time>2018-06-21T19:50:55Z</time>
      </trkpt>
      <trkpt lat="44.02519" lon="1.80456">
        <ele>396.6</ele>
        <time>2018-06-21T19:50:56Z</time>
      </trkpt>
      <trkpt lat="44.02521" lon="1.80462">
        <ele>396.4</ele>
        <time>2018-06-21T19:50:57Z</time>
      </trkpt>
      <trkpt lat="44.02523" lon="1.80468">
        <ele>395.7</ele>
        <time>2018-06-21T19:50:58Z</time>
      </trkpt>
      <trkpt lat="44.02524" lon="1.80475">
        <ele>395.4</ele>
        <time>2018-06-21T19:50:59Z</time>
      </trkpt>
      <trkpt lat="44.02525" lon="1.80481">
        <ele>394.6</ele>
        <time>2018-06-21T19:51:00Z</time>
      </trkpt>
      <trkpt lat="44.02527" lon="1.80487">
        <ele>394.4</ele>
        <time>2018-06-21T19:51:01Z</time>
      </trkpt>
      <trkpt lat="44.02528" lon="1.80492">
        <ele>394</ele>
        <time>2018-06-21T19:51:02Z</time>
      </trkpt>
      <trkpt lat="44.0253" lon="1.80496">
        <ele>393.7</ele>
        <time>2018-06-21T19:51:03Z</time>
      </trkpt>
      <trkpt lat="44.02531" lon="1.805">
        <ele>393.3</ele>
        <time>2018-06-21T19:51:04Z</time>
      </trkpt>
      <trkpt lat="44.02533" lon="1.80503">
        <ele>392.9</ele>
        <time>2018-06-21T19:51:05Z</time>
      </trkpt>
      <trkpt lat="44.02535" lon="1.80507">
        <ele>392.4</ele>
        <time>2018-06-21T19:51:06Z</time>
      </trkpt>
      <trkpt lat="44.02537" lon="1.80511">
        <ele>391.9</ele>
        <time>2018-06-21T19:51:07Z</time>
      </trkpt>
      <trkpt lat="44.0254" lon="1.80514">
        <ele>391.9</ele>
        <time>2018-06-21T19:51:08Z</time>
      </trkpt>
      <trkpt lat="44.02543" lon="1.80518">
        <ele>391.4</ele>
        <time>2018-06-21T19:51:09Z</time>
      </trkpt>
      <trkpt lat="44.02547" lon="1.80521">
        <ele>390.7</ele>
        <time>2018-06-21T19:51:10Z</time>
      </trkpt>
      <trkpt lat="44.0255" lon="1.80525">
        <ele>389.9</ele>
        <time>2018-06-21T19:51:11Z</time>
      </trkpt>
      <trkpt lat="44.02554" lon="1.80529">
        <ele>389.1</ele>
        <time>2018-06-21T19:51:12Z</time>
      </trkpt>
      <trkpt lat="44.0256" lon="1.80535">
        <ele>388.1</ele>
        <time>2018-06-21T19:51:13Z</time>
      </trkpt>
      <trkpt lat="44.02564" lon="1.8054">
        <ele>387.2</ele>
        <time>2018-06-21T19:51:14Z</time>
      </trkpt>
      <trkpt lat="44.02566" lon="1.80546">
        <ele>385.4</ele>
        <time>2018-06-21T19:51:15Z</time>
      </trkpt>
      <trkpt lat="44.0257" lon="1.80552">
        <ele>384.5</ele>
        <time>2018-06-21T19:51:16Z</time>
      </trkpt>
      <trkpt lat="44.02574" lon="1.80559">
        <ele>382.8</ele>
        <time>2018-06-21T19:51:17Z</time>
      </trkpt>
      <trkpt lat="44.02578" lon="1.80566">
        <ele>381.9</ele>
        <time>2018-06-21T19:51:18Z</time>
      </trkpt>
      <trkpt lat="44.02584" lon="1.80573">
        <ele>380.4</ele>
        <time>2018-06-21T19:51:19Z</time>
      </trkpt>
      <trkpt lat="44.02589" lon="1.80582">
        <ele>378.9</ele>
        <time>2018-06-21T19:51:20Z</time>
      </trkpt>
      <trkpt lat="44.02593" lon="1.80589">
        <ele>377.5</ele>
        <time>2018-06-21T19:51:21Z</time>
      </trkpt>
      <trkpt lat="44.02598" lon="1.80596">
        <ele>376.9</ele>
        <time>2018-06-21T19:51:22Z</time>
      </trkpt>
      <trkpt lat="44.02602" lon="1.80602">
        <ele>375.6</ele>
        <time>2018-06-21T19:51:23Z</time>
      </trkpt>
      <trkpt lat="44.02606" lon="1.80607">
        <ele>374.9</ele>
        <time>2018-06-21T19:51:24Z</time>
      </trkpt>
      <trkpt lat="44.02611" lon="1.80612">
        <ele>374.3</ele>
        <time>2018-06-21T19:51:25Z</time>
      </trkpt>
      <trkpt lat="44.02615" lon="1.80616">
        <ele>373.5</ele>
        <time>2018-06-21T19:51:26Z</time>
      </trkpt>
      <trkpt lat="44.02621" lon="1.80619">
        <ele>372.6</ele>
        <time>2018-06-21T19:51:27Z</time>
      </trkpt>
      <trkpt lat="44.02626" lon="1.80623">
        <ele>371.7</ele>
        <time>2018-06-21T19:51:28Z</time>
      </trkpt>
      <trkpt lat="44.02632" lon="1.80627">
        <ele>370.7</ele>
        <time>2018-06-21T19:51:29Z</time>
      </trkpt>
      <trkpt lat="44.02636" lon="1.80629">
        <ele>370.6</ele>
        <time>2018-06-21T19:51:30Z</time>
      </trkpt>
      <trkpt lat="44.02641" lon="1.80632">
        <ele>369.6</ele>
        <time>2018-06-21T19:51:31Z</time>
      </trkpt>
      <trkpt lat="44.02646" lon="1.80635">
        <ele>368.7</ele>
        <time>2018-06-21T19:51:32Z</time>
      </trkpt>
      <trkpt lat="44.0265" lon="1.80639">
        <ele>367.7</ele>
        <time>2018-06-21T19:51:33Z</time>
      </trkpt>
      <trkpt lat="44.02653" lon="1.80645">
        <ele>366.9</ele>
        <time>2018-06-21T19:51:34Z</time>
      </trkpt>
      <trkpt lat="44.02655" lon="1.8065">
        <ele>366.1</ele>
        <time>2018-06-21T19:51:35Z</time>
      </trkpt>
      <trkpt lat="44.02657" lon="1.80656">
        <ele>365.4</ele>
        <time>2018-06-21T19:51:36Z</time>
      </trkpt>
      <trkpt lat="44.02661" lon="1.80664">
        <ele>364</ele>
        <time>2018-06-21T19:51:37Z</time>
      </trkpt>
      <trkpt lat="44.02664" lon="1.80674">
        <ele>361.8</ele>
        <time>2018-06-21T19:51:38Z</time>
      </trkpt>
      <trkpt lat="44.02667" lon="1.80684">
        <ele>360.3</ele>
        <time>2018-06-21T19:51:39Z</time>
      </trkpt>
      <trkpt lat="44.02671" lon="1.80692">
        <ele>358.9</ele>
        <time>2018-06-21T19:51:40Z</time>
      </trkpt>
      <trkpt lat="44.02674" lon="1.80701">
        <ele>357.7</ele>
        <time>2018-06-21T19:51:41Z</time>
      </trkpt>
      <trkpt lat="44.02677" lon="1.8071">
        <ele>356.5</ele>
        <time>2018-06-21T19:51:42Z</time>
      </trkpt>
      <trkpt lat="44.02681" lon="1.80718">
        <ele>355.1</ele>
        <time>2018-06-21T19:51:43Z</time>
      </trkpt>
      <trkpt lat="44.02683" lon="1.80727">
        <ele>353.7</ele>
        <time>2018-06-21T19:51:44Z</time>
      </trkpt>
      <trkpt lat="44.02685" lon="1.80735">
        <ele>352.5</ele>
        <time>2018-06-21T19:51:45Z</time>
      </trkpt>
      <trkpt lat="44.02687" lon="1.80744">
        <ele>351.4</ele>
        <time>2018-06-21T19:51:46Z</time>
      </trkpt>
      <trkpt lat="44.0269" lon="1.80752">
        <ele>350.6</ele>
        <time>2018-06-21T19:51:47Z</time>
      </trkpt>
      <trkpt lat="44.02691" lon="1.8076">
        <ele>350.1</ele>
        <time>2018-06-21T19:51:48Z</time>
      </trkpt>
      <trkpt lat="44.02693" lon="1.80768">
        <ele>349.7</ele>
        <time>2018-06-21T19:51:49Z</time>
      </trkpt>
      <trkpt lat="44.02693" lon="1.80776">
        <ele>349.6</ele>
        <time>2018-06-21T19:51:50Z</time>
      </trkpt>
      <trkpt lat="44.02694" lon="1.80784">
        <ele>349.5</ele>
        <time>2018-06-21T19:51:51Z</time>
      </trkpt>
      <trkpt lat="44.02694" lon="1.80793">
        <ele>349.6</ele>
        <time>2018-06-21T19:51:52Z</time>
      </trkpt>
      <trkpt lat="44.02694" lon="1.80803">
        <ele>349.8</ele>
        <time>2018-06-21T19:51:53Z</time>
      </trkpt>
      <trkpt lat="44.02694" lon="1.80813">
        <ele>349.9</ele>
        <time>2018-06-21T19:51:54Z</time>
      </trkpt>
      <trkpt lat="44.02694" lon="1.80823">
        <ele>349.9</ele>
        <time>2018-06-21T19:51:55Z</time>
      </trkpt>
      <trkpt lat="44.02694" lon="1.80833">
        <ele>349.9</ele>
        <time>2018-06-21T19:51:56Z</time>
      </trkpt>
      <trkpt lat="44.02694" lon="1.80842">
        <ele>349.8</ele>
        <time>2018-06-21T19:51:57Z</time>
      </trkpt>
      <trkpt lat="44.02694" lon="1.80851">
        <ele>349.7</ele>
        <time>2018-06-21T19:51:58Z</time>
      </trkpt>
      <trkpt lat="44.02693" lon="1.8086">
        <ele>349.7</ele>
        <time>2018-06-21T19:51:59Z</time>
      </trkpt>
      <trkpt lat="44.02692" lon="1.80868">
        <ele>349.7</ele>
        <time>2018-06-21T19:52:00Z</time>
      </trkpt>
      <trkpt lat="44.02691" lon="1.80877">
        <ele>349.6</ele>
        <time>2018-06-21T19:52:01Z</time>
      </trkpt>
      <trkpt lat="44.02691" lon="1.80884">
        <ele>349.6</ele>
        <time>2018-06-21T19:52:02Z</time>
      </trkpt>
      <trkpt lat="44.0269" lon="1.80892">
        <ele>349.6</ele>
        <time>2018-06-21T19:52:03Z</time>
      </trkpt>
      <trkpt lat="44.02689" lon="1.80897">
        <ele>349.6</ele>
        <time>2018-06-21T19:52:04Z</time>
      </trkpt>
      <trkpt lat="44.02687" lon="1.80903">
        <ele>349.7</ele>
        <time>2018-06-21T19:52:05Z</time>
      </trkpt>
      <trkpt lat="44.02685" lon="1.80908">
        <ele>349.6</ele>
        <time>2018-06-21T19:52:06Z</time>
      </trkpt>
      <trkpt lat="44.02683" lon="1.80914">
        <ele>349.7</ele>
        <time>2018-06-21T19:52:07Z</time>
      </trkpt>
      <trkpt lat="44.02681" lon="1.8092">
        <ele>349.7</ele>
        <time>2018-06-21T19:52:08Z</time>
      </trkpt>
      <trkpt lat="44.02679" lon="1.80924">
        <ele>349.6</ele>
        <time>2018-06-21T19:52:09Z</time>
      </trkpt>
      <trkpt lat="44.02677" lon="1.8093">
        <ele>349.7</ele>
        <time>2018-06-21T19:52:10Z</time>
      </trkpt>
      <trkpt lat="44.02676" lon="1.80935">
        <ele>349.6</ele>
        <time>2018-06-21T19:52:11Z</time>
      </trkpt>
      <trkpt lat="44.02674" lon="1.8094">
        <ele>349.7</ele>
        <time>2018-06-21T19:52:12Z</time>
      </trkpt>
      <trkpt lat="44.02673" lon="1.80945">
        <ele>349.6</ele>
        <time>2018-06-21T19:52:13Z</time>
      </trkpt>
      <trkpt lat="44.02671" lon="1.8095">
        <ele>349.6</ele>
        <time>2018-06-21T19:52:14Z</time>
      </trkpt>
      <trkpt lat="44.0267" lon="1.80955">
        <ele>349.6</ele>
        <time>2018-06-21T19:52:15Z</time>
      </trkpt>
      <trkpt lat="44.02668" lon="1.80959">
        <ele>349.6</ele>
        <time>2018-06-21T19:52:16Z</time>
      </trkpt>
      <trkpt lat="44.02666" lon="1.80964">
        <ele>349.5</ele>
        <time>2018-06-21T19:52:17Z</time>
      </trkpt>
      <trkpt lat="44.02664" lon="1.80969">
        <ele>349.4</ele>
        <time>2018-06-21T19:52:18Z</time>
      </trkpt>
      <trkpt lat="44.02662" lon="1.80973">
        <ele>349.5</ele>
        <time>2018-06-21T19:52:19Z</time>
      </trkpt>
      <trkpt lat="44.0266" lon="1.80978">
        <ele>349.4</ele>
        <time>2018-06-21T19:52:20Z</time>
      </trkpt>
      <trkpt lat="44.02658" lon="1.80983">
        <ele>349.5</ele>
        <time>2018-06-21T19:52:21Z</time>
      </trkpt>
      <trkpt lat="44.02656" lon="1.80988">
        <ele>349.5</ele>
        <time>2018-06-21T19:52:22Z</time>
      </trkpt>
      <trkpt lat="44.02655" lon="1.80992">
        <ele>349.5</ele>
        <time>2018-06-21T19:52:23Z</time>
      </trkpt>
      <trkpt lat="44.02654" lon="1.80997">
        <ele>349.6</ele>
        <time>2018-06-21T19:52:24Z</time>
      </trkpt>
      <trkpt lat="44.02653" lon="1.81002">
        <ele>349.7</ele>
        <time>2018-06-21T19:52:25Z</time>
      </trkpt>
      <trkpt lat="44.02652" lon="1.81007">
        <ele>349.8</ele>
        <time>2018-06-21T19:52:26Z</time>
      </trkpt>
      <trkpt lat="44.02652" lon="1.81013">
        <ele>349.7</ele>
        <time>2018-06-21T19:52:27Z</time>
      </trkpt>
      <trkpt lat="44.02651" lon="1.81019">
        <ele>349.6</ele>
        <time>2018-06-21T19:52:28Z</time>
      </trkpt>
      <trkpt lat="44.0265" lon="1.81025">
        <ele>349.5</ele>
        <time>2018-06-21T19:52:29Z</time>
      </trkpt>
      <trkpt lat="44.02649" lon="1.81032">
        <ele>349.8</ele>
        <time>2018-06-21T19:52:30Z</time>
      </trkpt>
      <trkpt lat="44.02648" lon="1.81041">
        <ele>350</ele>
        <time>2018-06-21T19:52:31Z</time>
      </trkpt>
      <trkpt lat="44.02647" lon="1.8105">
        <ele>350</ele>
        <time>2018-06-21T19:52:32Z</time>
      </trkpt>
      <trkpt lat="44.02645" lon="1.8106">
        <ele>350.4</ele>
        <time>2018-06-21T19:52:33Z</time>
      </trkpt>
      <trkpt lat="44.02642" lon="1.8107">
        <ele>350.8</ele>
        <time>2018-06-21T19:52:34Z</time>
      </trkpt>
      <trkpt lat="44.02637" lon="1.81081">
        <ele>351.1</ele>
        <time>2018-06-21T19:52:35Z</time>
      </trkpt>
      <trkpt lat="44.02632" lon="1.81091">
        <ele>351.5</ele>
        <time>2018-06-21T19:52:36Z</time>
      </trkpt>
      <trkpt lat="44.02629" lon="1.811">
        <ele>351.8</ele>
        <time>2018-06-21T19:52:37Z</time>
      </trkpt>
      <trkpt lat="44.02626" lon="1.81109">
        <ele>352</ele>
        <time>2018-06-21T19:52:38Z</time>
      </trkpt>
      <trkpt lat="44.02623" lon="1.81117">
        <ele>352.3</ele>
        <time>2018-06-21T19:52:39Z</time>
      </trkpt>
      <trkpt lat="44.0262" lon="1.81124">
        <ele>352.6</ele>
        <time>2018-06-21T19:52:40Z</time>
      </trkpt>
      <trkpt lat="44.02618" lon="1.81131">
        <ele>352.9</ele>
        <time>2018-06-21T19:52:41Z</time>
      </trkpt>
      <trkpt lat="44.02616" lon="1.81136">
        <ele>353.2</ele>
        <time>2018-06-21T19:52:42Z</time>
      </trkpt>
      <trkpt lat="44.02614" lon="1.8114">
        <ele>353.4</ele>
        <time>2018-06-21T19:52:43Z</time>
      </trkpt>
      <trkpt lat="44.02613" lon="1.81145">
        <ele>353.6</ele>
        <time>2018-06-21T19:52:44Z</time>
      </trkpt>
      <trkpt lat="44.02612" lon="1.81149">
        <ele>353.8</ele>
        <time>2018-06-21T19:52:45Z</time>
      </trkpt>
      <trkpt lat="44.02611" lon="1.81154">
        <ele>354</ele>
        <time>2018-06-21T19:52:46Z</time>
      </trkpt>
      <trkpt lat="44.02609" lon="1.81158">
        <ele>354.2</ele>
        <time>2018-06-21T19:52:47Z</time>
      </trkpt>
      <trkpt lat="44.02608" lon="1.81162">
        <ele>354.3</ele>
        <time>2018-06-21T19:52:48Z</time>
      </trkpt>
      <trkpt lat="44.02607" lon="1.81166">
        <ele>354.5</ele>
        <time>2018-06-21T19:52:49Z</time>
      </trkpt>
      <trkpt lat="44.02606" lon="1.8117">
        <ele>354.7</ele>
        <time>2018-06-21T19:52:50Z</time>
      </trkpt>
      <trkpt lat="44.02605" lon="1.81174">
        <ele>354.8</ele>
        <time>2018-06-21T19:52:51Z</time>
      </trkpt>
      <trkpt lat="44.02604" lon="1.81178">
        <ele>355</ele>
        <time>2018-06-21T19:52:52Z</time>
      </trkpt>
      <trkpt lat="44.02603" lon="1.81182">
        <ele>355.2</ele>
        <time>2018-06-21T19:52:53Z</time>
      </trkpt>
      <trkpt lat="44.02602" lon="1.81186">
        <ele>355.4</ele>
        <time>2018-06-21T19:52:54Z</time>
      </trkpt>
      <trkpt lat="44.02601" lon="1.8119">
        <ele>355.5</ele>
        <time>2018-06-21T19:52:55Z</time>
      </trkpt>
      <trkpt lat="44.02601" lon="1.81195">
        <ele>355.7</ele>
        <time>2018-06-21T19:52:56Z</time>
      </trkpt>
      <trkpt lat="44.026" lon="1.81199">
        <ele>355.8</ele>
        <time>2018-06-21T19:52:57Z</time>
      </trkpt>
      <trkpt lat="44.02599" lon="1.81203">
        <ele>356</ele>
        <time>2018-06-21T19:52:58Z</time>
      </trkpt>
      <trkpt lat="44.02598" lon="1.81207">
        <ele>356.1</ele>
        <time>2018-06-21T19:52:59Z</time>
      </trkpt>
      <trkpt lat="44.02597" lon="1.81212">
        <ele>356.2</ele>
        <time>2018-06-21T19:53:00Z</time>
      </trkpt>
      <trkpt lat="44.02596" lon="1.81216">
        <ele>356.3</ele>
        <time>2018-06-21T19:53:01Z</time>
      </trkpt>
      <trkpt lat="44.02595" lon="1.8122">
        <ele>356.4</ele>
        <time>2018-06-21T19:53:02Z</time>
      </trkpt>
      <trkpt lat="44.02594" lon="1.81224">
        <ele>356.5</ele>
        <time>2018-06-21T19:53:03Z</time>
      </trkpt>
      <trkpt lat="44.02593" lon="1.81228">
        <ele>356.6</ele>
        <time>2018-06-21T19:53:04Z</time>
      </trkpt>
      <trkpt lat="44.02592" lon="1.81232">
        <ele>356.7</ele>
        <time>2018-06-21T19:53:05Z</time>
      </trkpt>
      <trkpt lat="44.02591" lon="1.81236">
        <ele>356.8</ele>
        <time>2018-06-21T19:53:06Z</time>
      </trkpt>
      <trkpt lat="44.0259" lon="1.8124">
        <ele>356.9</ele>
        <time>2018-06-21T19:53:07Z</time>
      </trkpt>
      <trkpt lat="44.02589" lon="1.81243">
        <ele>356.9</ele>
        <time>2018-06-21T19:53:08Z</time>
      </trkpt>
      <trkpt lat="44.02587" lon="1.8125">
        <ele>357</ele>
        <time>2018-06-21T19:53:10Z</time>
      </trkpt>
      <trkpt lat="44.02584" lon="1.81257">
        <ele>357.1</ele>
        <time>2018-06-21T19:53:12Z</time>
      </trkpt>
      <trkpt lat="44.02582" lon="1.81263">
        <ele>357.3</ele>
        <time>2018-06-21T19:53:14Z</time>
      </trkpt>
      <trkpt lat="44.02581" lon="1.81268">
        <ele>357.5</ele>
        <time>2018-06-21T19:53:16Z</time>
      </trkpt>
      <trkpt lat="44.02579" lon="1.81273">
        <ele>357.7</ele>
        <time>2018-06-21T19:53:18Z</time>
      </trkpt>
      <trkpt lat="44.02577" lon="1.81275">
        <ele>357.9</ele>
        <time>2018-06-21T19:53:21Z</time>
      </trkpt>
      <trkpt lat="44.02574" lon="1.81274">
        <ele>357.9</ele>
        <time>2018-06-21T19:53:24Z</time>
      </trkpt>
      <trkpt lat="44.02571" lon="1.81271">
        <ele>357.8</ele>
        <time>2018-06-21T19:53:26Z</time>
      </trkpt>
      <trkpt lat="44.02567" lon="1.8127">
        <ele>357.7</ele>
        <time>2018-06-21T19:53:28Z</time>
      </trkpt>
      <trkpt lat="44.02562" lon="1.81271">
        <ele>357.7</ele>
        <time>2018-06-21T19:53:30Z</time>
      </trkpt>
      <trkpt lat="44.02558" lon="1.81271">
        <ele>357.6</ele>
        <time>2018-06-21T19:53:31Z</time>
      </trkpt>
      <trkpt lat="44.02555" lon="1.81271">
        <ele>357.6</ele>
        <time>2018-06-21T19:53:32Z</time>
      </trkpt>
      <trkpt lat="44.0255" lon="1.8127">
        <ele>357.5</ele>
        <time>2018-06-21T19:53:34Z</time>
      </trkpt>
      <trkpt lat="44.02546" lon="1.81269">
        <ele>357.4</ele>
        <time>2018-06-21T19:53:36Z</time>
      </trkpt>
      <trkpt lat="44.02542" lon="1.81268">
        <ele>357.4</ele>
        <time>2018-06-21T19:53:38Z</time>
      </trkpt>
      <trkpt lat="44.02539" lon="1.81268">
        <ele>357.4</ele>
        <time>2018-06-21T19:53:39Z</time>
      </trkpt>
      <trkpt lat="44.02536" lon="1.81267">
        <ele>357.4</ele>
        <time>2018-06-21T19:53:40Z</time>
      </trkpt>
      <trkpt lat="44.02533" lon="1.81267">
        <ele>357.4</ele>
        <time>2018-06-21T19:53:41Z</time>
      </trkpt>
      <trkpt lat="44.0253" lon="1.81267">
        <ele>357.4</ele>
        <time>2018-06-21T19:53:42Z</time>
      </trkpt>
      <trkpt lat="44.02525" lon="1.81266">
        <ele>357.4</ele>
        <time>2018-06-21T19:53:44Z</time>
      </trkpt>
      <trkpt lat="44.02522" lon="1.81265">
        <ele>357.4</ele>
        <time>2018-06-21T19:53:45Z</time>
      </trkpt>
      <trkpt lat="44.02517" lon="1.81265">
        <ele>357.4</ele>
        <time>2018-06-21T19:53:47Z</time>
      </trkpt>
      <trkpt lat="44.02511" lon="1.81263">
        <ele>357.6</ele>
        <time>2018-06-21T19:53:49Z</time>
      </trkpt>
      <trkpt lat="44.02508" lon="1.81263">
        <ele>357.7</ele>
        <time>2018-06-21T19:53:50Z</time>
      </trkpt>
      <trkpt lat="44.02505" lon="1.81263">
        <ele>357.7</ele>
        <time>2018-06-21T19:53:51Z</time>
      </trkpt>
      <trkpt lat="44.02502" lon="1.81263">
        <ele>357.8</ele>
        <time>2018-06-21T19:53:52Z</time>
      </trkpt>
      <trkpt lat="44.02497" lon="1.81263">
        <ele>357.9</ele>
        <time>2018-06-21T19:53:54Z</time>
      </trkpt>
      <trkpt lat="44.02492" lon="1.81264">
        <ele>357.9</ele>
        <time>2018-06-21T19:53:56Z</time>
      </trkpt>
      <trkpt lat="44.02487" lon="1.81265">
        <ele>357.9</ele>
        <time>2018-06-21T19:53:58Z</time>
      </trkpt>
      <trkpt lat="44.02484" lon="1.81265">
        <ele>357.9</ele>
        <time>2018-06-21T19:53:59Z</time>
      </trkpt>
      <trkpt lat="44.02481" lon="1.81265">
        <ele>357.9</ele>
        <time>2018-06-21T19:54:00Z</time>
      </trkpt>
      <trkpt lat="44.02475" lon="1.81264">
        <ele>357.9</ele>
        <time>2018-06-21T19:54:02Z</time>
      </trkpt>
      <trkpt lat="44.02472" lon="1.81264">
        <ele>357.8</ele>
        <time>2018-06-21T19:54:03Z</time>
      </trkpt>
      <trkpt lat="44.02468" lon="1.81263">
        <ele>357.8</ele>
        <time>2018-06-21T19:54:04Z</time>
      </trkpt>
      <trkpt lat="44.02462" lon="1.81263">
        <ele>357.7</ele>
        <time>2018-06-21T19:54:06Z</time>
      </trkpt>
      <trkpt lat="44.02459" lon="1.81263">
        <ele>357.7</ele>
        <time>2018-06-21T19:54:07Z</time>
      </trkpt>
      <trkpt lat="44.02455" lon="1.81263">
        <ele>357.7</ele>
        <time>2018-06-21T19:54:08Z</time>
      </trkpt>
      <trkpt lat="44.02451" lon="1.81262">
        <ele>357.6</ele>
        <time>2018-06-21T19:54:09Z</time>
      </trkpt>
      <trkpt lat="44.02448" lon="1.81262">
        <ele>357.6</ele>
        <time>2018-06-21T19:54:10Z</time>
      </trkpt>
      <trkpt lat="44.02445" lon="1.81261">
        <ele>357.6</ele>
        <time>2018-06-21T19:54:11Z</time>
      </trkpt>
      <trkpt lat="44.02442" lon="1.81261">
        <ele>357.5</ele>
        <time>2018-06-21T19:54:12Z</time>
      </trkpt>
      <trkpt lat="44.02439" lon="1.81261">
        <ele>357.5</ele>
        <time>2018-06-21T19:54:13Z</time>
      </trkpt>
      <trkpt lat="44.02436" lon="1.81261">
        <ele>357.5</ele>
        <time>2018-06-21T19:54:14Z</time>
      </trkpt>
      <trkpt lat="44.02431" lon="1.81261">
        <ele>357.4</ele>
        <time>2018-06-21T19:54:16Z</time>
      </trkpt>
      <trkpt lat="44.02428" lon="1.8126">
        <ele>357.4</ele>
        <time>2018-06-21T19:54:17Z</time>
      </trkpt>
      <trkpt lat="44.02425" lon="1.8126">
        <ele>357.4</ele>
        <time>2018-06-21T19:54:18Z</time>
      </trkpt>
      <trkpt lat="44.02422" lon="1.8126">
        <ele>357.3</ele>
        <time>2018-06-21T19:54:19Z</time>
      </trkpt>
      <trkpt lat="44.02417" lon="1.81259">
        <ele>357.3</ele>
        <time>2018-06-21T19:54:21Z</time>
      </trkpt>
      <trkpt lat="44.02414" lon="1.81259">
        <ele>357.2</ele>
        <time>2018-06-21T19:54:22Z</time>
      </trkpt>
      <trkpt lat="44.02411" lon="1.81258">
        <ele>357.2</ele>
        <time>2018-06-21T19:54:23Z</time>
      </trkpt>
      <trkpt lat="44.02406" lon="1.81258">
        <ele>357.1</ele>
        <time>2018-06-21T19:54:25Z</time>
      </trkpt>
      <trkpt lat="44.02402" lon="1.81258">
        <ele>357.1</ele>
        <time>2018-06-21T19:54:27Z</time>
      </trkpt>
      <trkpt lat="44.02395" lon="1.81257">
        <ele>357</ele>
        <time>2018-06-21T19:54:29Z</time>
      </trkpt>
      <trkpt lat="44.02392" lon="1.81257">
        <ele>356.9</ele>
        <time>2018-06-21T19:54:30Z</time>
      </trkpt>
      <trkpt lat="44.02388" lon="1.81257">
        <ele>356.9</ele>
        <time>2018-06-21T19:54:31Z</time>
      </trkpt>
      <trkpt lat="44.02385" lon="1.81256">
        <ele>356.9</ele>
        <time>2018-06-21T19:54:32Z</time>
      </trkpt>
      <trkpt lat="44.02382" lon="1.81255">
        <ele>356.8</ele>
        <time>2018-06-21T19:54:33Z</time>
      </trkpt>
      <trkpt lat="44.02377" lon="1.81255">
        <ele>356.7</ele>
        <time>2018-06-21T19:54:35Z</time>
      </trkpt>
      <trkpt lat="44.02372" lon="1.81254">
        <ele>356.7</ele>
        <time>2018-06-21T19:54:37Z</time>
      </trkpt>
      <trkpt lat="44.02368" lon="1.81254">
        <ele>356.6</ele>
        <time>2018-06-21T19:54:38Z</time>
      </trkpt>
      <trkpt lat="44.02363" lon="1.81254">
        <ele>356.5</ele>
        <time>2018-06-21T19:54:40Z</time>
      </trkpt>
      <trkpt lat="44.02359" lon="1.81254">
        <ele>356.5</ele>
        <time>2018-06-21T19:54:41Z</time>
      </trkpt>
      <trkpt lat="44.02355" lon="1.81253">
        <ele>356.4</ele>
        <time>2018-06-21T19:54:42Z</time>
      </trkpt>
      <trkpt lat="44.02351" lon="1.81253">
        <ele>356.3</ele>
        <time>2018-06-21T19:54:43Z</time>
      </trkpt>
      <trkpt lat="44.02347" lon="1.81253">
        <ele>356.3</ele>
        <time>2018-06-21T19:54:44Z</time>
      </trkpt>
      <trkpt lat="44.02343" lon="1.81254">
        <ele>356.2</ele>
        <time>2018-06-21T19:54:45Z</time>
      </trkpt>
      <trkpt lat="44.02339" lon="1.81254">
        <ele>356.2</ele>
        <time>2018-06-21T19:54:46Z</time>
      </trkpt>
      <trkpt lat="44.02335" lon="1.81254">
        <ele>356.2</ele>
        <time>2018-06-21T19:54:47Z</time>
      </trkpt>
      <trkpt lat="44.02331" lon="1.81255">
        <ele>356.1</ele>
        <time>2018-06-21T19:54:48Z</time>
      </trkpt>
      <trkpt lat="44.02328" lon="1.81256">
        <ele>356.1</ele>
        <time>2018-06-21T19:54:49Z</time>
      </trkpt>
      <trkpt lat="44.02324" lon="1.81257">
        <ele>356</ele>
        <time>2018-06-21T19:54:50Z</time>
      </trkpt>
      <trkpt lat="44.0232" lon="1.81257">
        <ele>356</ele>
        <time>2018-06-21T19:54:51Z</time>
      </trkpt>
      <trkpt lat="44.02316" lon="1.81257">
        <ele>355.9</ele>
        <time>2018-06-21T19:54:52Z</time>
      </trkpt>
      <trkpt lat="44.02311" lon="1.81256">
        <ele>355.8</ele>
        <time>2018-06-21T19:54:53Z</time>
      </trkpt>
      <trkpt lat="44.02308" lon="1.81256">
        <ele>355.8</ele>
        <time>2018-06-21T19:54:54Z</time>
      </trkpt>
      <trkpt lat="44.02303" lon="1.81255">
        <ele>355.7</ele>
        <time>2018-06-21T19:54:55Z</time>
      </trkpt>
      <trkpt lat="44.02299" lon="1.81253">
        <ele>355.6</ele>
        <time>2018-06-21T19:54:56Z</time>
      </trkpt>
      <trkpt lat="44.02294" lon="1.81252">
        <ele>355.5</ele>
        <time>2018-06-21T19:54:57Z</time>
      </trkpt>
      <trkpt lat="44.0229" lon="1.81251">
        <ele>355.4</ele>
        <time>2018-06-21T19:54:58Z</time>
      </trkpt>
      <trkpt lat="44.02285" lon="1.8125">
        <ele>355.2</ele>
        <time>2018-06-21T19:54:59Z</time>
      </trkpt>
      <trkpt lat="44.02281" lon="1.81251">
        <ele>355</ele>
        <time>2018-06-21T19:55:00Z</time>
      </trkpt>
      <trkpt lat="44.02275" lon="1.81252">
        <ele>354.6</ele>
        <time>2018-06-21T19:55:01Z</time>
      </trkpt>
      <trkpt lat="44.0227" lon="1.81252">
        <ele>353.9</ele>
        <time>2018-06-21T19:55:02Z</time>
      </trkpt>
      <trkpt lat="44.02266" lon="1.81255">
        <ele>353.3</ele>
        <time>2018-06-21T19:55:03Z</time>
      </trkpt>
      <trkpt lat="44.02262" lon="1.81258">
        <ele>352.9</ele>
        <time>2018-06-21T19:55:04Z</time>
      </trkpt>
      <trkpt lat="44.02258" lon="1.81263">
        <ele>352.6</ele>
        <time>2018-06-21T19:55:05Z</time>
      </trkpt>
      <trkpt lat="44.02255" lon="1.81269">
        <ele>352.2</ele>
        <time>2018-06-21T19:55:06Z</time>
      </trkpt>
      <trkpt lat="44.02251" lon="1.81274">
        <ele>351.6</ele>
        <time>2018-06-21T19:55:07Z</time>
      </trkpt>
      <trkpt lat="44.02246" lon="1.81279">
        <ele>350.5</ele>
        <time>2018-06-21T19:55:08Z</time>
      </trkpt>
      <trkpt lat="44.02242" lon="1.81281">
        <ele>349.8</ele>
        <time>2018-06-21T19:55:09Z</time>
      </trkpt>
      <trkpt lat="44.02238" lon="1.81279">
        <ele>348.7</ele>
        <time>2018-06-21T19:55:10Z</time>
      </trkpt>
      <trkpt lat="44.02234" lon="1.81275">
        <ele>347.3</ele>
        <time>2018-06-21T19:55:11Z</time>
      </trkpt>
      <trkpt lat="44.02228" lon="1.8127">
        <ele>346.8</ele>
        <time>2018-06-21T19:55:12Z</time>
      </trkpt>
      <trkpt lat="44.02224" lon="1.81269">
        <ele>345.9</ele>
        <time>2018-06-21T19:55:13Z</time>
      </trkpt>
      <trkpt lat="44.0222" lon="1.81271">
        <ele>345.2</ele>
        <time>2018-06-21T19:55:14Z</time>
      </trkpt>
      <trkpt lat="44.02216" lon="1.81275">
        <ele>344.8</ele>
        <time>2018-06-21T19:55:15Z</time>
      </trkpt>
      <trkpt lat="44.02215" lon="1.81279">
        <ele>344.3</ele>
        <time>2018-06-21T19:55:16Z</time>
      </trkpt>
      <trkpt lat="44.02213" lon="1.81285">
        <ele>343.6</ele>
        <time>2018-06-21T19:55:17Z</time>
      </trkpt>
      <trkpt lat="44.02212" lon="1.81291">
        <ele>342.5</ele>
        <time>2018-06-21T19:55:18Z</time>
      </trkpt>
      <trkpt lat="44.02211" lon="1.81297">
        <ele>342.2</ele>
        <time>2018-06-21T19:55:19Z</time>
      </trkpt>
      <trkpt lat="44.02209" lon="1.81302">
        <ele>341.8</ele>
        <time>2018-06-21T19:55:20Z</time>
      </trkpt>
      <trkpt lat="44.02207" lon="1.81308">
        <ele>341.5</ele>
        <time>2018-06-21T19:55:21Z</time>
      </trkpt>
      <trkpt lat="44.02203" lon="1.81313">
        <ele>340.8</ele>
        <time>2018-06-21T19:55:22Z</time>
      </trkpt>
      <trkpt lat="44.02199" lon="1.8132">
        <ele>339.9</ele>
        <time>2018-06-21T19:55:23Z</time>
      </trkpt>
      <trkpt lat="44.02196" lon="1.81328">
        <ele>339.2</ele>
        <time>2018-06-21T19:55:24Z</time>
      </trkpt>
      <trkpt lat="44.02193" lon="1.81334">
        <ele>338.1</ele>
        <time>2018-06-21T19:55:25Z</time>
      </trkpt>
      <trkpt lat="44.02189" lon="1.8134">
        <ele>337.7</ele>
        <time>2018-06-21T19:55:26Z</time>
      </trkpt>
      <trkpt lat="44.02186" lon="1.81346">
        <ele>337.2</ele>
        <time>2018-06-21T19:55:27Z</time>
      </trkpt>
      <trkpt lat="44.02182" lon="1.81352">
        <ele>336.2</ele>
        <time>2018-06-21T19:55:28Z</time>
      </trkpt>
      <trkpt lat="44.02178" lon="1.81358">
        <ele>335.2</ele>
        <time>2018-06-21T19:55:29Z</time>
      </trkpt>
      <trkpt lat="44.02173" lon="1.81365">
        <ele>334.4</ele>
        <time>2018-06-21T19:55:30Z</time>
      </trkpt>
      <trkpt lat="44.02169" lon="1.81372">
        <ele>333.3</ele>
        <time>2018-06-21T19:55:31Z</time>
      </trkpt>
      <trkpt lat="44.02163" lon="1.81377">
        <ele>332.4</ele>
        <time>2018-06-21T19:55:32Z</time>
      </trkpt>
      <trkpt lat="44.02157" lon="1.81381">
        <ele>331.2</ele>
        <time>2018-06-21T19:55:33Z</time>
      </trkpt>
      <trkpt lat="44.0215" lon="1.81385">
        <ele>330.2</ele>
        <time>2018-06-21T19:55:34Z</time>
      </trkpt>
      <trkpt lat="44.02139" lon="1.81388">
        <ele>328.4</ele>
        <time>2018-06-21T19:55:35Z</time>
      </trkpt>
      <trkpt lat="44.02129" lon="1.8139">
        <ele>327.4</ele>
        <time>2018-06-21T19:55:36Z</time>
      </trkpt>
      <trkpt lat="44.0212" lon="1.81392">
        <ele>326.2</ele>
        <time>2018-06-21T19:55:37Z</time>
      </trkpt>
      <trkpt lat="44.02111" lon="1.81393">
        <ele>325.5</ele>
        <time>2018-06-21T19:55:38Z</time>
      </trkpt>
      <trkpt lat="44.02102" lon="1.81395">
        <ele>324.7</ele>
        <time>2018-06-21T19:55:39Z</time>
      </trkpt>
      <trkpt lat="44.02094" lon="1.81396">
        <ele>323.6</ele>
        <time>2018-06-21T19:55:40Z</time>
      </trkpt>
      <trkpt lat="44.02086" lon="1.81397">
        <ele>323</ele>
        <time>2018-06-21T19:55:41Z</time>
      </trkpt>
      <trkpt lat="44.02078" lon="1.81399">
        <ele>322.7</ele>
        <time>2018-06-21T19:55:42Z</time>
      </trkpt>
      <trkpt lat="44.0207" lon="1.81401">
        <ele>322.1</ele>
        <time>2018-06-21T19:55:43Z</time>
      </trkpt>
      <trkpt lat="44.02062" lon="1.81402">
        <ele>321.3</ele>
        <time>2018-06-21T19:55:44Z</time>
      </trkpt>
      <trkpt lat="44.02053" lon="1.81401">
        <ele>320.9</ele>
        <time>2018-06-21T19:55:45Z</time>
      </trkpt>
      <trkpt lat="44.02045" lon="1.81402">
        <ele>320.8</ele>
        <time>2018-06-21T19:55:46Z</time>
      </trkpt>
      <trkpt lat="44.02037" lon="1.81401">
        <ele>320.6</ele>
        <time>2018-06-21T19:55:47Z</time>
      </trkpt>
      <trkpt lat="44.02029" lon="1.814">
        <ele>320.4</ele>
        <time>2018-06-21T19:55:48Z</time>
      </trkpt>
      <trkpt lat="44.02021" lon="1.814">
        <ele>320.3</ele>
        <time>2018-06-21T19:55:49Z</time>
      </trkpt>
      <trkpt lat="44.02013" lon="1.814">
        <ele>320.1</ele>
        <time>2018-06-21T19:55:50Z</time>
      </trkpt>
      <trkpt lat="44.02005" lon="1.814">
        <ele>319.9</ele>
        <time>2018-06-21T19:55:51Z</time>
      </trkpt>
      <trkpt lat="44.01998" lon="1.81398">
        <ele>319.7</ele>
        <time>2018-06-21T19:55:52Z</time>
      </trkpt>
      <trkpt lat="44.01991" lon="1.81399">
        <ele>319.3</ele>
        <time>2018-06-21T19:55:53Z</time>
      </trkpt>
      <trkpt lat="44.01984" lon="1.81398">
        <ele>318.6</ele>
        <time>2018-06-21T19:55:54Z</time>
      </trkpt>
      <trkpt lat="44.01976" lon="1.81397">
        <ele>318.1</ele>
        <time>2018-06-21T19:55:55Z</time>
      </trkpt>
      <trkpt lat="44.01969" lon="1.81395">
        <ele>317.7</ele>
        <time>2018-06-21T19:55:56Z</time>
      </trkpt>
      <trkpt lat="44.01961" lon="1.81393">
        <ele>317</ele>
        <time>2018-06-21T19:55:57Z</time>
      </trkpt>
      <trkpt lat="44.01954" lon="1.81392">
        <ele>316.2</ele>
        <time>2018-06-21T19:55:58Z</time>
      </trkpt>
      <trkpt lat="44.01946" lon="1.81391">
        <ele>315.8</ele>
        <time>2018-06-21T19:55:59Z</time>
      </trkpt>
      <trkpt lat="44.01938" lon="1.81389">
        <ele>315.6</ele>
        <time>2018-06-21T19:56:00Z</time>
      </trkpt>
      <trkpt lat="44.0193" lon="1.81386">
        <ele>315.3</ele>
        <time>2018-06-21T19:56:01Z</time>
      </trkpt>
      <trkpt lat="44.01922" lon="1.81385">
        <ele>315.1</ele>
        <time>2018-06-21T19:56:02Z</time>
      </trkpt>
      <trkpt lat="44.01914" lon="1.81383">
        <ele>314.4</ele>
        <time>2018-06-21T19:56:03Z</time>
      </trkpt>
      <trkpt lat="44.01906" lon="1.81382">
        <ele>313.9</ele>
        <time>2018-06-21T19:56:04Z</time>
      </trkpt>
      <trkpt lat="44.01899" lon="1.81378">
        <ele>313.7</ele>
        <time>2018-06-21T19:56:05Z</time>
      </trkpt>
      <trkpt lat="44.01892" lon="1.81375">
        <ele>313.5</ele>
        <time>2018-06-21T19:56:06Z</time>
      </trkpt>
      <trkpt lat="44.01885" lon="1.81374">
        <ele>313.4</ele>
        <time>2018-06-21T19:56:07Z</time>
      </trkpt>
      <trkpt lat="44.01878" lon="1.81373">
        <ele>313.3</ele>
        <time>2018-06-21T19:56:08Z</time>
      </trkpt>
      <trkpt lat="44.01871" lon="1.8137">
        <ele>313.2</ele>
        <time>2018-06-21T19:56:09Z</time>
      </trkpt>
      <trkpt lat="44.01864" lon="1.81368">
        <ele>313.1</ele>
        <time>2018-06-21T19:56:10Z</time>
      </trkpt>
      <trkpt lat="44.01857" lon="1.81367">
        <ele>313</ele>
        <time>2018-06-21T19:56:11Z</time>
      </trkpt>
      <trkpt lat="44.01849" lon="1.81366">
        <ele>312.8</ele>
        <time>2018-06-21T19:56:12Z</time>
      </trkpt>
      <trkpt lat="44.01841" lon="1.81365">
        <ele>312.6</ele>
        <time>2018-06-21T19:56:13Z</time>
      </trkpt>
      <trkpt lat="44.01833" lon="1.81364">
        <ele>312.3</ele>
        <time>2018-06-21T19:56:14Z</time>
      </trkpt>
      <trkpt lat="44.01825" lon="1.81363">
        <ele>311.4</ele>
        <time>2018-06-21T19:56:15Z</time>
      </trkpt>
      <trkpt lat="44.01817" lon="1.81363">
        <ele>310.9</ele>
        <time>2018-06-21T19:56:16Z</time>
      </trkpt>
      <trkpt lat="44.0181" lon="1.81363">
        <ele>309.9</ele>
        <time>2018-06-21T19:56:17Z</time>
      </trkpt>
      <trkpt lat="44.01803" lon="1.81362">
        <ele>308.6</ele>
        <time>2018-06-21T19:56:18Z</time>
      </trkpt>
      <trkpt lat="44.01798" lon="1.8136">
        <ele>308.2</ele>
        <time>2018-06-21T19:56:19Z</time>
      </trkpt>
      <trkpt lat="44.01792" lon="1.81359">
        <ele>307.5</ele>
        <time>2018-06-21T19:56:20Z</time>
      </trkpt>
      <trkpt lat="44.01784" lon="1.81358">
        <ele>306.3</ele>
        <time>2018-06-21T19:56:21Z</time>
      </trkpt>
      <trkpt lat="44.01776" lon="1.81356">
        <ele>305.4</ele>
        <time>2018-06-21T19:56:22Z</time>
      </trkpt>
      <trkpt lat="44.01768" lon="1.81355">
        <ele>304</ele>
        <time>2018-06-21T19:56:23Z</time>
      </trkpt>
      <trkpt lat="44.0176" lon="1.81357">
        <ele>303.4</ele>
        <time>2018-06-21T19:56:24Z</time>
      </trkpt>
      <trkpt lat="44.01751" lon="1.81358">
        <ele>302.1</ele>
        <time>2018-06-21T19:56:25Z</time>
      </trkpt>
      <trkpt lat="44.01742" lon="1.81357">
        <ele>301.4</ele>
        <time>2018-06-21T19:56:26Z</time>
      </trkpt>
      <trkpt lat="44.01733" lon="1.81356">
        <ele>301.1</ele>
        <time>2018-06-21T19:56:27Z</time>
      </trkpt>
      <trkpt lat="44.01724" lon="1.81357">
        <ele>300.5</ele>
        <time>2018-06-21T19:56:28Z</time>
      </trkpt>
      <trkpt lat="44.01715" lon="1.81358">
        <ele>299.7</ele>
        <time>2018-06-21T19:56:29Z</time>
      </trkpt>
      <trkpt lat="44.01705" lon="1.8136">
        <ele>298.2</ele>
        <time>2018-06-21T19:56:30Z</time>
      </trkpt>
      <trkpt lat="44.01696" lon="1.81361">
        <ele>297.6</ele>
        <time>2018-06-21T19:56:31Z</time>
      </trkpt>
      <trkpt lat="44.01688" lon="1.81358">
        <ele>296.3</ele>
        <time>2018-06-21T19:56:32Z</time>
      </trkpt>
      <trkpt lat="44.01679" lon="1.81353">
        <ele>295</ele>
        <time>2018-06-21T19:56:33Z</time>
      </trkpt>
      <trkpt lat="44.0167" lon="1.81347">
        <ele>294.4</ele>
        <time>2018-06-21T19:56:34Z</time>
      </trkpt>
      <trkpt lat="44.0166" lon="1.81341">
        <ele>293.3</ele>
        <time>2018-06-21T19:56:35Z</time>
      </trkpt>
      <trkpt lat="44.01651" lon="1.81335">
        <ele>291.6</ele>
        <time>2018-06-21T19:56:36Z</time>
      </trkpt>
      <trkpt lat="44.01641" lon="1.81331">
        <ele>289.9</ele>
        <time>2018-06-21T19:56:37Z</time>
      </trkpt>
      <trkpt lat="44.0163" lon="1.81328">
        <ele>288.8</ele>
        <time>2018-06-21T19:56:38Z</time>
      </trkpt>
      <trkpt lat="44.0162" lon="1.81324">
        <ele>287.3</ele>
        <time>2018-06-21T19:56:39Z</time>
      </trkpt>
      <trkpt lat="44.0161" lon="1.81321">
        <ele>286.5</ele>
        <time>2018-06-21T19:56:40Z</time>
      </trkpt>
      <trkpt lat="44.01601" lon="1.81316">
        <ele>285.4</ele>
        <time>2018-06-21T19:56:41Z</time>
      </trkpt>
      <trkpt lat="44.01593" lon="1.81312">
        <ele>284.1</ele>
        <time>2018-06-21T19:56:42Z</time>
      </trkpt>
      <trkpt lat="44.01584" lon="1.81309">
        <ele>283.2</ele>
        <time>2018-06-21T19:56:43Z</time>
      </trkpt>
      <trkpt lat="44.01576" lon="1.81306">
        <ele>281.8</ele>
        <time>2018-06-21T19:56:44Z</time>
      </trkpt>
      <trkpt lat="44.01569" lon="1.81304">
        <ele>280.8</ele>
        <time>2018-06-21T19:56:45Z</time>
      </trkpt>
      <trkpt lat="44.01563" lon="1.81303">
        <ele>279.8</ele>
        <time>2018-06-21T19:56:46Z</time>
      </trkpt>
      <trkpt lat="44.01559" lon="1.81303">
        <ele>279</ele>
        <time>2018-06-21T19:56:47Z</time>
      </trkpt>
      <trkpt lat="44.01556" lon="1.81302">
        <ele>279</ele>
        <time>2018-06-21T19:56:48Z</time>
      </trkpt>
      <trkpt lat="44.01551" lon="1.81302">
        <ele>279</ele>
        <time>2018-06-21T19:56:49Z</time>
      </trkpt>
      <trkpt lat="44.01546" lon="1.81299">
        <ele>279</ele>
        <time>2018-06-21T19:56:50Z</time>
      </trkpt>
      <trkpt lat="44.01542" lon="1.81297">
        <ele>279</ele>
        <time>2018-06-21T19:56:51Z</time>
      </trkpt>
      <trkpt lat="44.01538" lon="1.81296">
        <ele>279</ele>
        <time>2018-06-21T19:56:52Z</time>
      </trkpt>
      <trkpt lat="44.01536" lon="1.81295">
        <ele>278.9</ele>
        <time>2018-06-21T19:56:53Z</time>
      </trkpt>
      <trkpt lat="44.01533" lon="1.81299">
        <ele>278.9</ele>
        <time>2018-06-21T19:57:05Z</time>
      </trkpt>
      <trkpt lat="44.01528" lon="1.81296">
        <ele>278.9</ele>
        <time>2018-06-21T19:57:07Z</time>
      </trkpt>
      <trkpt lat="44.01525" lon="1.81294">
        <ele>278.8</ele>
        <time>2018-06-21T19:57:08Z</time>
      </trkpt>
      <trkpt lat="44.0152" lon="1.81292">
        <ele>278.8</ele>
        <time>2018-06-21T19:57:09Z</time>
      </trkpt>
      <trkpt lat="44.01515" lon="1.81291">
        <ele>278.7</ele>
        <time>2018-06-21T19:57:10Z</time>
      </trkpt>
      <trkpt lat="44.0151" lon="1.81291">
        <ele>278.7</ele>
        <time>2018-06-21T19:57:11Z</time>
      </trkpt>
      <trkpt lat="44.01505" lon="1.81291">
        <ele>278.6</ele>
        <time>2018-06-21T19:57:12Z</time>
      </trkpt>
      <trkpt lat="44.01499" lon="1.81291">
        <ele>278.5</ele>
        <time>2018-06-21T19:57:13Z</time>
      </trkpt>
      <trkpt lat="44.01493" lon="1.81291">
        <ele>278.4</ele>
        <time>2018-06-21T19:57:14Z</time>
      </trkpt>
      <trkpt lat="44.01487" lon="1.81292">
        <ele>278.3</ele>
        <time>2018-06-21T19:57:15Z</time>
      </trkpt>
      <trkpt lat="44.01481" lon="1.81292">
        <ele>278.2</ele>
        <time>2018-06-21T19:57:16Z</time>
      </trkpt>
      <trkpt lat="44.01475" lon="1.81292">
        <ele>278.1</ele>
        <time>2018-06-21T19:57:17Z</time>
      </trkpt>
      <trkpt lat="44.0147" lon="1.81292">
        <ele>278</ele>
        <time>2018-06-21T19:57:18Z</time>
      </trkpt>
      <trkpt lat="44.01464" lon="1.8129">
        <ele>278</ele>
        <time>2018-06-21T19:57:19Z</time>
      </trkpt>
      <trkpt lat="44.01459" lon="1.81289">
        <ele>278</ele>
        <time>2018-06-21T19:57:20Z</time>
      </trkpt>
      <trkpt lat="44.01454" lon="1.81287">
        <ele>278.1</ele>
        <time>2018-06-21T19:57:21Z</time>
      </trkpt>
      <trkpt lat="44.01449" lon="1.81286">
        <ele>278.1</ele>
        <time>2018-06-21T19:57:22Z</time>
      </trkpt>
      <trkpt lat="44.01444" lon="1.81284">
        <ele>278.2</ele>
        <time>2018-06-21T19:57:23Z</time>
      </trkpt>
      <trkpt lat="44.0144" lon="1.81281">
        <ele>278.3</ele>
        <time>2018-06-21T19:57:24Z</time>
      </trkpt>
      <trkpt lat="44.01435" lon="1.81278">
        <ele>278.4</ele>
        <time>2018-06-21T19:57:25Z</time>
      </trkpt>
      <trkpt lat="44.0143" lon="1.81275">
        <ele>278.5</ele>
        <time>2018-06-21T19:57:26Z</time>
      </trkpt>
      <trkpt lat="44.01426" lon="1.81273">
        <ele>278.6</ele>
        <time>2018-06-21T19:57:27Z</time>
      </trkpt>
      <trkpt lat="44.01421" lon="1.81271">
        <ele>278.6</ele>
        <time>2018-06-21T19:57:28Z</time>
      </trkpt>
      <trkpt lat="44.01417" lon="1.81268">
        <ele>278.7</ele>
        <time>2018-06-21T19:57:29Z</time>
      </trkpt>
      <trkpt lat="44.01413" lon="1.81266">
        <ele>278.8</ele>
        <time>2018-06-21T19:57:30Z</time>
      </trkpt>
      <trkpt lat="44.01409" lon="1.81264">
        <ele>278.9</ele>
        <time>2018-06-21T19:57:31Z</time>
      </trkpt>
      <trkpt lat="44.01405" lon="1.81261">
        <ele>279</ele>
        <time>2018-06-21T19:57:32Z</time>
      </trkpt>
      <trkpt lat="44.01401" lon="1.8126">
        <ele>278.9</ele>
        <time>2018-06-21T19:57:33Z</time>
      </trkpt>
      <trkpt lat="44.01397" lon="1.81258">
        <ele>278.7</ele>
        <time>2018-06-21T19:57:34Z</time>
      </trkpt>
      <trkpt lat="44.01393" lon="1.81257">
        <ele>278.6</ele>
        <time>2018-06-21T19:57:35Z</time>
      </trkpt>
      <trkpt lat="44.01389" lon="1.81255">
        <ele>278.4</ele>
        <time>2018-06-21T19:57:36Z</time>
      </trkpt>
      <trkpt lat="44.01384" lon="1.81254">
        <ele>278.2</ele>
        <time>2018-06-21T19:57:37Z</time>
      </trkpt>
      <trkpt lat="44.0138" lon="1.81254">
        <ele>278.1</ele>
        <time>2018-06-21T19:57:38Z</time>
      </trkpt>
      <trkpt lat="44.01375" lon="1.81253">
        <ele>277.9</ele>
        <time>2018-06-21T19:57:39Z</time>
      </trkpt>
      <trkpt lat="44.01371" lon="1.81251">
        <ele>277.7</ele>
        <time>2018-06-21T19:57:40Z</time>
      </trkpt>
      <trkpt lat="44.01367" lon="1.8125">
        <ele>277.5</ele>
        <time>2018-06-21T19:57:41Z</time>
      </trkpt>
      <trkpt lat="44.01363" lon="1.81249">
        <ele>277.2</ele>
        <time>2018-06-21T19:57:42Z</time>
      </trkpt>
      <trkpt lat="44.01359" lon="1.81248">
        <ele>277</ele>
        <time>2018-06-21T19:57:43Z</time>
      </trkpt>
      <trkpt lat="44.01354" lon="1.81247">
        <ele>276.8</ele>
        <time>2018-06-21T19:57:44Z</time>
      </trkpt>
      <trkpt lat="44.01349" lon="1.81246">
        <ele>276.3</ele>
        <time>2018-06-21T19:57:45Z</time>
      </trkpt>
      <trkpt lat="44.01344" lon="1.81244">
        <ele>275.4</ele>
        <time>2018-06-21T19:57:46Z</time>
      </trkpt>
      <trkpt lat="44.01339" lon="1.81243">
        <ele>274.4</ele>
        <time>2018-06-21T19:57:47Z</time>
      </trkpt>
      <trkpt lat="44.01334" lon="1.81242">
        <ele>273.7</ele>
        <time>2018-06-21T19:57:48Z</time>
      </trkpt>
      <trkpt lat="44.01329" lon="1.81241">
        <ele>273.3</ele>
        <time>2018-06-21T19:57:49Z</time>
      </trkpt>
      <trkpt lat="44.01323" lon="1.81241">
        <ele>272.9</ele>
        <time>2018-06-21T19:57:50Z</time>
      </trkpt>
      <trkpt lat="44.01317" lon="1.81241">
        <ele>272.5</ele>
        <time>2018-06-21T19:57:51Z</time>
      </trkpt>
      <trkpt lat="44.01312" lon="1.81241">
        <ele>272.3</ele>
        <time>2018-06-21T19:57:52Z</time>
      </trkpt>
      <trkpt lat="44.01306" lon="1.8124">
        <ele>272</ele>
        <time>2018-06-21T19:57:53Z</time>
      </trkpt>
      <trkpt lat="44.013" lon="1.81239">
        <ele>271.7</ele>
        <time>2018-06-21T19:57:54Z</time>
      </trkpt>
      <trkpt lat="44.01293" lon="1.81238">
        <ele>271.4</ele>
        <time>2018-06-21T19:57:55Z</time>
      </trkpt>
      <trkpt lat="44.01287" lon="1.81236">
        <ele>271.2</ele>
        <time>2018-06-21T19:57:56Z</time>
      </trkpt>
      <trkpt lat="44.01281" lon="1.81234">
        <ele>271</ele>
        <time>2018-06-21T19:57:57Z</time>
      </trkpt>
      <trkpt lat="44.01275" lon="1.81231">
        <ele>270.8</ele>
        <time>2018-06-21T19:57:58Z</time>
      </trkpt>
      <trkpt lat="44.01269" lon="1.81228">
        <ele>270.6</ele>
        <time>2018-06-21T19:57:59Z</time>
      </trkpt>
      <trkpt lat="44.01263" lon="1.81226">
        <ele>270.4</ele>
        <time>2018-06-21T19:58:00Z</time>
      </trkpt>
      <trkpt lat="44.01258" lon="1.81223">
        <ele>270.3</ele>
        <time>2018-06-21T19:58:01Z</time>
      </trkpt>
      <trkpt lat="44.01252" lon="1.8122">
        <ele>270.1</ele>
        <time>2018-06-21T19:58:02Z</time>
      </trkpt>
      <trkpt lat="44.01247" lon="1.81217">
        <ele>269.8</ele>
        <time>2018-06-21T19:58:03Z</time>
      </trkpt>
      <trkpt lat="44.01242" lon="1.81214">
        <ele>269.6</ele>
        <time>2018-06-21T19:58:04Z</time>
      </trkpt>
      <trkpt lat="44.01236" lon="1.81212">
        <ele>269.4</ele>
        <time>2018-06-21T19:58:05Z</time>
      </trkpt>
      <trkpt lat="44.01231" lon="1.8121">
        <ele>269.2</ele>
        <time>2018-06-21T19:58:06Z</time>
      </trkpt>
      <trkpt lat="44.01226" lon="1.81208">
        <ele>269</ele>
        <time>2018-06-21T19:58:07Z</time>
      </trkpt>
      <trkpt lat="44.01221" lon="1.81206">
        <ele>269</ele>
        <time>2018-06-21T19:58:08Z</time>
      </trkpt>
      <trkpt lat="44.01215" lon="1.81206">
        <ele>269</ele>
        <time>2018-06-21T19:58:09Z</time>
      </trkpt>
      <trkpt lat="44.01209" lon="1.81206">
        <ele>269</ele>
        <time>2018-06-21T19:58:10Z</time>
      </trkpt>
      <trkpt lat="44.01204" lon="1.81207">
        <ele>269</ele>
        <time>2018-06-21T19:58:11Z</time>
      </trkpt>
      <trkpt lat="44.01198" lon="1.81209">
        <ele>269</ele>
        <time>2018-06-21T19:58:12Z</time>
      </trkpt>
      <trkpt lat="44.01192" lon="1.81211">
        <ele>269</ele>
        <time>2018-06-21T19:58:13Z</time>
      </trkpt>
      <trkpt lat="44.01186" lon="1.81214">
        <ele>269</ele>
        <time>2018-06-21T19:58:14Z</time>
      </trkpt>
      <trkpt lat="44.01181" lon="1.81217">
        <ele>269</ele>
        <time>2018-06-21T19:58:15Z</time>
      </trkpt>
      <trkpt lat="44.01176" lon="1.81223">
        <ele>269.6</ele>
        <time>2018-06-21T19:58:16Z</time>
      </trkpt>
      <trkpt lat="44.01173" lon="1.81229">
        <ele>270.3</ele>
        <time>2018-06-21T19:58:17Z</time>
      </trkpt>
      <trkpt lat="44.01173" lon="1.81237">
        <ele>271</ele>
        <time>2018-06-21T19:58:18Z</time>
      </trkpt>
      <trkpt lat="44.01173" lon="1.81244">
        <ele>271.5</ele>
        <time>2018-06-21T19:58:19Z</time>
      </trkpt>
      <trkpt lat="44.01173" lon="1.81251">
        <ele>272</ele>
        <time>2018-06-21T19:58:20Z</time>
      </trkpt>
      <trkpt lat="44.01173" lon="1.81256">
        <ele>272.4</ele>
        <time>2018-06-21T19:58:21Z</time>
      </trkpt>
      <trkpt lat="44.01174" lon="1.81262">
        <ele>272.8</ele>
        <time>2018-06-21T19:58:22Z</time>
      </trkpt>
      <trkpt lat="44.01174" lon="1.81266">
        <ele>273.1</ele>
        <time>2018-06-21T19:58:23Z</time>
      </trkpt>
      <trkpt lat="44.01175" lon="1.8127">
        <ele>273.4</ele>
        <time>2018-06-21T19:58:24Z</time>
      </trkpt>
      <trkpt lat="44.01176" lon="1.81275">
        <ele>273.7</ele>
        <time>2018-06-21T19:58:25Z</time>
      </trkpt>
      <trkpt lat="44.01176" lon="1.81279">
        <ele>274</ele>
        <time>2018-06-21T19:58:26Z</time>
      </trkpt>
      <trkpt lat="44.01176" lon="1.81284">
        <ele>274.3</ele>
        <time>2018-06-21T19:58:28Z</time>
      </trkpt>
      <trkpt lat="44.01175" lon="1.8129">
        <ele>274.7</ele>
        <time>2018-06-21T19:58:30Z</time>
      </trkpt>
      <trkpt lat="44.01172" lon="1.81295">
        <ele>275.1</ele>
        <time>2018-06-21T19:58:32Z</time>
      </trkpt>
      <trkpt lat="44.0117" lon="1.81299">
        <ele>275.4</ele>
        <time>2018-06-21T19:58:34Z</time>
      </trkpt>
      <trkpt lat="44.01167" lon="1.81304">
        <ele>275.7</ele>
        <time>2018-06-21T19:58:36Z</time>
      </trkpt>
      <trkpt lat="44.01165" lon="1.81309">
        <ele>276.1</ele>
        <time>2018-06-21T19:58:38Z</time>
      </trkpt>
      <trkpt lat="44.01162" lon="1.81314">
        <ele>276.4</ele>
        <time>2018-06-21T19:58:40Z</time>
      </trkpt>
      <trkpt lat="44.01161" lon="1.81321">
        <ele>276.8</ele>
        <time>2018-06-21T19:58:42Z</time>
      </trkpt>
      <trkpt lat="44.01159" lon="1.81327">
        <ele>277.2</ele>
        <time>2018-06-21T19:58:44Z</time>
      </trkpt>
      <trkpt lat="44.01158" lon="1.81334">
        <ele>277.6</ele>
        <time>2018-06-21T19:58:46Z</time>
      </trkpt>
      <trkpt lat="44.01158" lon="1.81341">
        <ele>278</ele>
        <time>2018-06-21T19:58:48Z</time>
      </trkpt>
      <trkpt lat="44.01158" lon="1.81346">
        <ele>278.3</ele>
        <time>2018-06-21T19:58:50Z</time>
      </trkpt>
      <trkpt lat="44.01158" lon="1.81352">
        <ele>278.6</ele>
        <time>2018-06-21T19:58:53Z</time>
      </trkpt>
      <trkpt lat="44.01157" lon="1.81358">
        <ele>278.9</ele>
        <time>2018-06-21T19:58:55Z</time>
      </trkpt>
      <trkpt lat="44.01156" lon="1.81362">
        <ele>279.1</ele>
        <time>2018-06-21T19:58:57Z</time>
      </trkpt>
      <trkpt lat="44.01155" lon="1.81367">
        <ele>279.4</ele>
        <time>2018-06-21T19:58:59Z</time>
      </trkpt>
      <trkpt lat="44.01154" lon="1.81372">
        <ele>279.6</ele>
        <time>2018-06-21T19:59:01Z</time>
      </trkpt>
      <trkpt lat="44.01152" lon="1.81378">
        <ele>279.9</ele>
        <time>2018-06-21T19:59:03Z</time>
      </trkpt>
      <trkpt lat="44.01151" lon="1.81383">
        <ele>280</ele>
        <time>2018-06-21T19:59:05Z</time>
      </trkpt>
      <trkpt lat="44.01149" lon="1.81389">
        <ele>280.2</ele>
        <time>2018-06-21T19:59:07Z</time>
      </trkpt>
      <trkpt lat="44.01147" lon="1.81395">
        <ele>280.3</ele>
        <time>2018-06-21T19:59:09Z</time>
      </trkpt>
      <trkpt lat="44.01145" lon="1.814">
        <ele>280.5</ele>
        <time>2018-06-21T19:59:11Z</time>
      </trkpt>
      <trkpt lat="44.01142" lon="1.81406">
        <ele>280.6</ele>
        <time>2018-06-21T19:59:13Z</time>
      </trkpt>
      <trkpt lat="44.01141" lon="1.8141">
        <ele>280.7</ele>
        <time>2018-06-21T19:59:14Z</time>
      </trkpt>
      <trkpt lat="44.01138" lon="1.81415">
        <ele>280.8</ele>
        <time>2018-06-21T19:59:16Z</time>
      </trkpt>
      <trkpt lat="44.01135" lon="1.81419">
        <ele>280.9</ele>
        <time>2018-06-21T19:59:18Z</time>
      </trkpt>
      <trkpt lat="44.01133" lon="1.81424">
        <ele>281</ele>
        <time>2018-06-21T19:59:20Z</time>
      </trkpt>
      <trkpt lat="44.01129" lon="1.81429">
        <ele>281</ele>
        <time>2018-06-21T19:59:22Z</time>
      </trkpt>
      <trkpt lat="44.01126" lon="1.81435">
        <ele>281.1</ele>
        <time>2018-06-21T19:59:24Z</time>
      </trkpt>
      <trkpt lat="44.01124" lon="1.81438">
        <ele>281.1</ele>
        <time>2018-06-21T19:59:25Z</time>
      </trkpt>
      <trkpt lat="44.01123" lon="1.81442">
        <ele>281.1</ele>
        <time>2018-06-21T19:59:26Z</time>
      </trkpt>
      <trkpt lat="44.01121" lon="1.81445">
        <ele>281.1</ele>
        <time>2018-06-21T19:59:27Z</time>
      </trkpt>
      <trkpt lat="44.01119" lon="1.81449">
        <ele>281.1</ele>
        <time>2018-06-21T19:59:28Z</time>
      </trkpt>
      <trkpt lat="44.01117" lon="1.81453">
        <ele>281.1</ele>
        <time>2018-06-21T19:59:29Z</time>
      </trkpt>
      <trkpt lat="44.01116" lon="1.81456">
        <ele>281.1</ele>
        <time>2018-06-21T19:59:30Z</time>
      </trkpt>
      <trkpt lat="44.01114" lon="1.8146">
        <ele>281.1</ele>
        <time>2018-06-21T19:59:31Z</time>
      </trkpt>
      <trkpt lat="44.01112" lon="1.81465">
        <ele>281</ele>
        <time>2018-06-21T19:59:32Z</time>
      </trkpt>
      <trkpt lat="44.0111" lon="1.8147">
        <ele>281</ele>
        <time>2018-06-21T19:59:33Z</time>
      </trkpt>
      <trkpt lat="44.01108" lon="1.81475">
        <ele>281</ele>
        <time>2018-06-21T19:59:34Z</time>
      </trkpt>
      <trkpt lat="44.01106" lon="1.81481">
        <ele>280.9</ele>
        <time>2018-06-21T19:59:35Z</time>
      </trkpt>
      <trkpt lat="44.01104" lon="1.81487">
        <ele>280.7</ele>
        <time>2018-06-21T19:59:36Z</time>
      </trkpt>
      <trkpt lat="44.01102" lon="1.81494">
        <ele>280.4</ele>
        <time>2018-06-21T19:59:37Z</time>
      </trkpt>
      <trkpt lat="44.011" lon="1.81501">
        <ele>280.2</ele>
        <time>2018-06-21T19:59:38Z</time>
      </trkpt>
      <trkpt lat="44.01099" lon="1.81508">
        <ele>280</ele>
        <time>2018-06-21T19:59:39Z</time>
      </trkpt>
      <trkpt lat="44.01099" lon="1.81515">
        <ele>279.8</ele>
        <time>2018-06-21T19:59:40Z</time>
      </trkpt>
      <trkpt lat="44.01098" lon="1.81521">
        <ele>279.6</ele>
        <time>2018-06-21T19:59:41Z</time>
      </trkpt>
      <trkpt lat="44.01098" lon="1.81527">
        <ele>279.3</ele>
        <time>2018-06-21T19:59:42Z</time>
      </trkpt>
      <trkpt lat="44.01098" lon="1.81534">
        <ele>278.6</ele>
        <time>2018-06-21T19:59:43Z</time>
      </trkpt>
      <trkpt lat="44.01098" lon="1.81541">
        <ele>277.8</ele>
        <time>2018-06-21T19:59:44Z</time>
      </trkpt>
      <trkpt lat="44.01096" lon="1.81549">
        <ele>276.9</ele>
        <time>2018-06-21T19:59:45Z</time>
      </trkpt>
      <trkpt lat="44.01095" lon="1.81556">
        <ele>275.8</ele>
        <time>2018-06-21T19:59:46Z</time>
      </trkpt>
      <trkpt lat="44.01094" lon="1.81563">
        <ele>274.7</ele>
        <time>2018-06-21T19:59:47Z</time>
      </trkpt>
      <trkpt lat="44.01093" lon="1.8157">
        <ele>273.7</ele>
        <time>2018-06-21T19:59:48Z</time>
      </trkpt>
      <trkpt lat="44.01093" lon="1.81578">
        <ele>272.6</ele>
        <time>2018-06-21T19:59:49Z</time>
      </trkpt>
      <trkpt lat="44.01091" lon="1.81585">
        <ele>272</ele>
        <time>2018-06-21T19:59:50Z</time>
      </trkpt>
      <trkpt lat="44.0109" lon="1.81592">
        <ele>271.3</ele>
        <time>2018-06-21T19:59:51Z</time>
      </trkpt>
      <trkpt lat="44.01089" lon="1.81598">
        <ele>270.4</ele>
        <time>2018-06-21T19:59:52Z</time>
      </trkpt>
      <trkpt lat="44.01089" lon="1.81607">
        <ele>269.3</ele>
        <time>2018-06-21T19:59:53Z</time>
      </trkpt>
      <trkpt lat="44.01088" lon="1.81616">
        <ele>268.6</ele>
        <time>2018-06-21T19:59:54Z</time>
      </trkpt>
      <trkpt lat="44.01086" lon="1.81627">
        <ele>268</ele>
        <time>2018-06-21T19:59:55Z</time>
      </trkpt>
      <trkpt lat="44.01084" lon="1.81637">
        <ele>267.7</ele>
        <time>2018-06-21T19:59:56Z</time>
      </trkpt>
      <trkpt lat="44.01082" lon="1.81646">
        <ele>267.4</ele>
        <time>2018-06-21T19:59:57Z</time>
      </trkpt>
      <trkpt lat="44.01079" lon="1.81655">
        <ele>267.1</ele>
        <time>2018-06-21T19:59:58Z</time>
      </trkpt>
      <trkpt lat="44.01075" lon="1.81664">
        <ele>267.4</ele>
        <time>2018-06-21T19:59:59Z</time>
      </trkpt>
      <trkpt lat="44.01071" lon="1.81672">
        <ele>268.3</ele>
        <time>2018-06-21T20:00:00Z</time>
      </trkpt>
      <trkpt lat="44.01067" lon="1.81681">
        <ele>269.1</ele>
        <time>2018-06-21T20:00:01Z</time>
      </trkpt>
      <trkpt lat="44.01063" lon="1.81688">
        <ele>269.9</ele>
        <time>2018-06-21T20:00:02Z</time>
      </trkpt>
      <trkpt lat="44.01058" lon="1.81695">
        <ele>269.6</ele>
        <time>2018-06-21T20:00:03Z</time>
      </trkpt>
      <trkpt lat="44.01054" lon="1.81701">
        <ele>269.2</ele>
        <time>2018-06-21T20:00:04Z</time>
      </trkpt>
      <trkpt lat="44.01048" lon="1.81705">
        <ele>269.1</ele>
        <time>2018-06-21T20:00:05Z</time>
      </trkpt>
      <trkpt lat="44.01042" lon="1.8171">
        <ele>269</ele>
        <time>2018-06-21T20:00:06Z</time>
      </trkpt>
      <trkpt lat="44.01036" lon="1.81714">
        <ele>268.9</ele>
        <time>2018-06-21T20:00:07Z</time>
      </trkpt>
      <trkpt lat="44.01029" lon="1.81718">
        <ele>268.7</ele>
        <time>2018-06-21T20:00:08Z</time>
      </trkpt>
      <trkpt lat="44.01023" lon="1.81721">
        <ele>268.3</ele>
        <time>2018-06-21T20:00:09Z</time>
      </trkpt>
      <trkpt lat="44.01016" lon="1.81724">
        <ele>267.9</ele>
        <time>2018-06-21T20:00:10Z</time>
      </trkpt>
      <trkpt lat="44.01009" lon="1.81727">
        <ele>267.5</ele>
        <time>2018-06-21T20:00:11Z</time>
      </trkpt>
      <trkpt lat="44.01002" lon="1.81729">
        <ele>267.3</ele>
        <time>2018-06-21T20:00:12Z</time>
      </trkpt>
      <trkpt lat="44.00995" lon="1.81732">
        <ele>267.2</ele>
        <time>2018-06-21T20:00:13Z</time>
      </trkpt>
      <trkpt lat="44.00989" lon="1.81734">
        <ele>267.2</ele>
        <time>2018-06-21T20:00:14Z</time>
      </trkpt>
      <trkpt lat="44.00982" lon="1.81735">
        <ele>267.1</ele>
        <time>2018-06-21T20:00:15Z</time>
      </trkpt>
      <trkpt lat="44.00975" lon="1.81736">
        <ele>267</ele>
        <time>2018-06-21T20:00:16Z</time>
      </trkpt>
      <trkpt lat="44.00969" lon="1.81736">
        <ele>267</ele>
        <time>2018-06-21T20:00:17Z</time>
      </trkpt>
      <trkpt lat="44.00963" lon="1.81736">
        <ele>267</ele>
        <time>2018-06-21T20:00:18Z</time>
      </trkpt>
      <trkpt lat="44.00957" lon="1.81737">
        <ele>267</ele>
        <time>2018-06-21T20:00:19Z</time>
      </trkpt>
      <trkpt lat="44.00951" lon="1.81739">
        <ele>266.9</ele>
        <time>2018-06-21T20:00:20Z</time>
      </trkpt>
      <trkpt lat="44.00946" lon="1.81741">
        <ele>266.9</ele>
        <time>2018-06-21T20:00:21Z</time>
      </trkpt>
      <trkpt lat="44.00942" lon="1.81744">
        <ele>266.9</ele>
        <time>2018-06-21T20:00:22Z</time>
      </trkpt>
      <trkpt lat="44.00938" lon="1.81746">
        <ele>266.9</ele>
        <time>2018-06-21T20:00:23Z</time>
      </trkpt>
      <trkpt lat="44.00934" lon="1.81748">
        <ele>266.9</ele>
        <time>2018-06-21T20:00:24Z</time>
      </trkpt>
      <trkpt lat="44.0093" lon="1.81749">
        <ele>266.9</ele>
        <time>2018-06-21T20:00:25Z</time>
      </trkpt>
      <trkpt lat="44.00926" lon="1.81752">
        <ele>266.8</ele>
        <time>2018-06-21T20:00:26Z</time>
      </trkpt>
      <trkpt lat="44.00923" lon="1.81755">
        <ele>266.8</ele>
        <time>2018-06-21T20:00:27Z</time>
      </trkpt>
      <trkpt lat="44.0092" lon="1.81758">
        <ele>266.8</ele>
        <time>2018-06-21T20:00:28Z</time>
      </trkpt>
      <trkpt lat="44.00917" lon="1.8176">
        <ele>266.7</ele>
        <time>2018-06-21T20:00:29Z</time>
      </trkpt>
      <trkpt lat="44.00914" lon="1.81762">
        <ele>266.7</ele>
        <time>2018-06-21T20:00:30Z</time>
      </trkpt>
      <trkpt lat="44.00911" lon="1.81764">
        <ele>266.6</ele>
        <time>2018-06-21T20:00:31Z</time>
      </trkpt>
      <trkpt lat="44.00909" lon="1.81766">
        <ele>266.6</ele>
        <time>2018-06-21T20:00:32Z</time>
      </trkpt>
      <trkpt lat="44.00907" lon="1.81769">
        <ele>266.4</ele>
        <time>2018-06-21T20:00:33Z</time>
      </trkpt>
      <trkpt lat="44.00904" lon="1.81773">
        <ele>266</ele>
        <time>2018-06-21T20:00:34Z</time>
      </trkpt>
      <trkpt lat="44.00903" lon="1.81777">
        <ele>265.7</ele>
        <time>2018-06-21T20:00:35Z</time>
      </trkpt>
      <trkpt lat="44.00901" lon="1.81781">
        <ele>265.4</ele>
        <time>2018-06-21T20:00:36Z</time>
      </trkpt>
      <trkpt lat="44.00899" lon="1.81787">
        <ele>265.1</ele>
        <time>2018-06-21T20:00:38Z</time>
      </trkpt>
      <trkpt lat="44.00898" lon="1.81792">
        <ele>264.9</ele>
        <time>2018-06-21T20:00:40Z</time>
      </trkpt>
      <trkpt lat="44.00897" lon="1.81797">
        <ele>264.8</ele>
        <time>2018-06-21T20:00:42Z</time>
      </trkpt>
      <trkpt lat="44.00896" lon="1.81802">
        <ele>264.8</ele>
        <time>2018-06-21T20:00:44Z</time>
      </trkpt>
      <trkpt lat="44.00897" lon="1.81806">
        <ele>265.1</ele>
        <time>2018-06-21T20:00:46Z</time>
      </trkpt>
      <trkpt lat="44.00895" lon="1.8181">
        <ele>265.2</ele>
        <time>2018-06-21T20:00:48Z</time>
      </trkpt>
      <trkpt lat="44.00891" lon="1.81814">
        <ele>265.1</ele>
        <time>2018-06-21T20:00:50Z</time>
      </trkpt>
      <trkpt lat="44.00887" lon="1.81818">
        <ele>265.1</ele>
        <time>2018-06-21T20:00:52Z</time>
      </trkpt>
      <trkpt lat="44.00884" lon="1.81823">
        <ele>265</ele>
        <time>2018-06-21T20:00:54Z</time>
      </trkpt>
      <trkpt lat="44.00881" lon="1.81828">
        <ele>264.9</ele>
        <time>2018-06-21T20:00:56Z</time>
      </trkpt>
      <trkpt lat="44.00878" lon="1.81832">
        <ele>264.8</ele>
        <time>2018-06-21T20:00:58Z</time>
      </trkpt>
      <trkpt lat="44.00875" lon="1.81836">
        <ele>264.7</ele>
        <time>2018-06-21T20:01:00Z</time>
      </trkpt>
      <trkpt lat="44.00872" lon="1.8184">
        <ele>264.7</ele>
        <time>2018-06-21T20:01:02Z</time>
      </trkpt>
      <trkpt lat="44.00871" lon="1.81844">
        <ele>264.7</ele>
        <time>2018-06-21T20:01:04Z</time>
      </trkpt>
      <trkpt lat="44.00872" lon="1.8185">
        <ele>265.9</ele>
        <time>2018-06-21T20:01:07Z</time>
      </trkpt>
      <trkpt lat="44.00872" lon="1.81854">
        <ele>266.3</ele>
        <time>2018-06-21T20:01:09Z</time>
      </trkpt>
      <trkpt lat="44.00872" lon="1.81858">
        <ele>266.7</ele>
        <time>2018-06-21T20:01:11Z</time>
      </trkpt>
      <trkpt lat="44.00872" lon="1.81864">
        <ele>267.1</ele>
        <time>2018-06-21T20:01:14Z</time>
      </trkpt>
      <trkpt lat="44.00872" lon="1.81869">
        <ele>267.5</ele>
        <time>2018-06-21T20:01:17Z</time>
      </trkpt>
      <trkpt lat="44.00876" lon="1.81871">
        <ele>267.8</ele>
        <time>2018-06-21T20:01:19Z</time>
      </trkpt>
      <trkpt lat="44.00879" lon="1.81871">
        <ele>268.2</ele>
        <time>2018-06-21T20:01:21Z</time>
      </trkpt>
      <trkpt lat="44.00883" lon="1.81873">
        <ele>268.4</ele>
        <time>2018-06-21T20:01:23Z</time>
      </trkpt>
      <trkpt lat="44.00884" lon="1.81879">
        <ele>268.8</ele>
        <time>2018-06-21T20:01:25Z</time>
      </trkpt>
      <trkpt lat="44.00881" lon="1.81881">
        <ele>268.9</ele>
        <time>2018-06-21T20:01:27Z</time>
      </trkpt>
      <trkpt lat="44.00877" lon="1.81883">
        <ele>268.7</ele>
        <time>2018-06-21T20:01:29Z</time>
      </trkpt>
      <trkpt lat="44.00874" lon="1.81884">
        <ele>268.9</ele>
        <time>2018-06-21T20:01:30Z</time>
      </trkpt>
      <trkpt lat="44.0087" lon="1.81889">
        <ele>269.1</ele>
        <time>2018-06-21T20:01:32Z</time>
      </trkpt>
      <trkpt lat="44.00871" lon="1.81895">
        <ele>269.4</ele>
        <time>2018-06-21T20:01:34Z</time>
      </trkpt>
      <trkpt lat="44.00874" lon="1.81899">
        <ele>269.8</ele>
        <time>2018-06-21T20:01:36Z</time>
      </trkpt>
      <trkpt lat="44.00877" lon="1.81905">
        <ele>270.1</ele>
        <time>2018-06-21T20:01:38Z</time>
      </trkpt>
      <trkpt lat="44.0088" lon="1.81907">
        <ele>270.4</ele>
        <time>2018-06-21T20:01:39Z</time>
      </trkpt>
      <trkpt lat="44.00881" lon="1.8191">
        <ele>270.6</ele>
        <time>2018-06-21T20:01:40Z</time>
      </trkpt>
      <trkpt lat="44.00881" lon="1.81914">
        <ele>270.8</ele>
        <time>2018-06-21T20:01:41Z</time>
      </trkpt>
      <trkpt lat="44.0088" lon="1.81918">
        <ele>271</ele>
        <time>2018-06-21T20:01:43Z</time>
      </trkpt>
      <trkpt lat="44.00876" lon="1.8192">
        <ele>271.1</ele>
        <time>2018-06-21T20:01:45Z</time>
      </trkpt>
      <trkpt lat="44.00874" lon="1.81924">
        <ele>271.4</ele>
        <time>2018-06-21T20:01:47Z</time>
      </trkpt>
      <trkpt lat="44.00877" lon="1.81927">
        <ele>271.4</ele>
        <time>2018-06-21T20:01:49Z</time>
      </trkpt>
      <trkpt lat="44.00879" lon="1.81929">
        <ele>271.5</ele>
        <time>2018-06-21T20:01:50Z</time>
      </trkpt>
      <trkpt lat="44.00882" lon="1.81931">
        <ele>271.4</ele>
        <time>2018-06-21T20:01:51Z</time>
      </trkpt>
      <trkpt lat="44.00884" lon="1.81933">
        <ele>271.4</ele>
        <time>2018-06-21T20:01:52Z</time>
      </trkpt>
      <trkpt lat="44.00886" lon="1.81935">
        <ele>271.4</ele>
        <time>2018-06-21T20:01:53Z</time>
      </trkpt>
      <trkpt lat="44.0089" lon="1.81941">
        <ele>270.9</ele>
        <time>2018-06-21T20:01:55Z</time>
      </trkpt>
      <trkpt lat="44.00891" lon="1.81946">
        <ele>270.9</ele>
        <time>2018-06-21T20:01:56Z</time>
      </trkpt>
      <trkpt lat="44.00891" lon="1.8195">
        <ele>270.7</ele>
        <time>2018-06-21T20:01:57Z</time>
      </trkpt>
      <trkpt lat="44.00887" lon="1.81954">
        <ele>271.3</ele>
        <time>2018-06-21T20:01:59Z</time>
      </trkpt>
      <trkpt lat="44.00882" lon="1.81954">
        <ele>271.8</ele>
        <time>2018-06-21T20:02:01Z</time>
      </trkpt>
      <trkpt lat="44.00879" lon="1.81952">
        <ele>272.1</ele>
        <time>2018-06-21T20:02:03Z</time>
      </trkpt>
      <trkpt lat="44.00875" lon="1.8195">
        <ele>272.4</ele>
        <time>2018-06-21T20:02:05Z</time>
      </trkpt>
      <trkpt lat="44.0087" lon="1.81952">
        <ele>272.9</ele>
        <time>2018-06-21T20:02:07Z</time>
      </trkpt>
      <trkpt lat="44.00869" lon="1.8196">
        <ele>273.2</ele>
        <time>2018-06-21T20:02:09Z</time>
      </trkpt>
      <trkpt lat="44.00869" lon="1.81966">
        <ele>273.4</ele>
        <time>2018-06-21T20:02:11Z</time>
      </trkpt>
      <trkpt lat="44.0087" lon="1.81972">
        <ele>273.5</ele>
        <time>2018-06-21T20:02:13Z</time>
      </trkpt>
      <trkpt lat="44.00875" lon="1.81976">
        <ele>272.8</ele>
        <time>2018-06-21T20:02:15Z</time>
      </trkpt>
      <trkpt lat="44.00877" lon="1.81981">
        <ele>272.8</ele>
        <time>2018-06-21T20:02:17Z</time>
      </trkpt>
      <trkpt lat="44.00877" lon="1.81986">
        <ele>272.8</ele>
        <time>2018-06-21T20:02:19Z</time>
      </trkpt>
      <trkpt lat="44.00874" lon="1.8199">
        <ele>273.2</ele>
        <time>2018-06-21T20:02:21Z</time>
      </trkpt>
      <trkpt lat="44.00872" lon="1.81994">
        <ele>273.1</ele>
        <time>2018-06-21T20:02:23Z</time>
      </trkpt>
      <trkpt lat="44.00871" lon="1.81998">
        <ele>273.4</ele>
        <time>2018-06-21T20:02:24Z</time>
      </trkpt>
      <trkpt lat="44.0087" lon="1.82002">
        <ele>273.3</ele>
        <time>2018-06-21T20:02:25Z</time>
      </trkpt>
      <trkpt lat="44.00868" lon="1.82005">
        <ele>273.6</ele>
        <time>2018-06-21T20:02:26Z</time>
      </trkpt>
      <trkpt lat="44.00864" lon="1.82009">
        <ele>274</ele>
        <time>2018-06-21T20:02:28Z</time>
      </trkpt>
      <trkpt lat="44.00861" lon="1.82011">
        <ele>274.8</ele>
        <time>2018-06-21T20:02:29Z</time>
      </trkpt>
      <trkpt lat="44.00858" lon="1.82012">
        <ele>275.4</ele>
        <time>2018-06-21T20:02:30Z</time>
      </trkpt>
      <trkpt lat="44.00854" lon="1.82013">
        <ele>275.7</ele>
        <time>2018-06-21T20:02:31Z</time>
      </trkpt>
      <trkpt lat="44.00849" lon="1.82016">
        <ele>276.4</ele>
        <time>2018-06-21T20:02:33Z</time>
      </trkpt>
      <trkpt lat="44.00847" lon="1.82017">
        <ele>276.8</ele>
        <time>2018-06-21T20:02:34Z</time>
      </trkpt>
      <trkpt lat="44.00844" lon="1.82018">
        <ele>276.7</ele>
        <time>2018-06-21T20:02:35Z</time>
      </trkpt>
      <trkpt lat="44.00841" lon="1.82019">
        <ele>277.1</ele>
        <time>2018-06-21T20:02:36Z</time>
      </trkpt>
      <trkpt lat="44.00838" lon="1.82021">
        <ele>277.5</ele>
        <time>2018-06-21T20:02:37Z</time>
      </trkpt>
      <trkpt lat="44.00835" lon="1.82023">
        <ele>277.8</ele>
        <time>2018-06-21T20:02:38Z</time>
      </trkpt>
      <trkpt lat="44.00832" lon="1.82026">
        <ele>278</ele>
        <time>2018-06-21T20:02:39Z</time>
      </trkpt>
      <trkpt lat="44.0083" lon="1.82029">
        <ele>278.3</ele>
        <time>2018-06-21T20:02:40Z</time>
      </trkpt>
      <trkpt lat="44.00827" lon="1.82032">
        <ele>278.4</ele>
        <time>2018-06-21T20:02:41Z</time>
      </trkpt>
      <trkpt lat="44.00824" lon="1.82035">
        <ele>278.5</ele>
        <time>2018-06-21T20:02:42Z</time>
      </trkpt>
      <trkpt lat="44.00822" lon="1.82039">
        <ele>278.6</ele>
        <time>2018-06-21T20:02:43Z</time>
      </trkpt>
      <trkpt lat="44.0082" lon="1.82045">
        <ele>278.3</ele>
        <time>2018-06-21T20:02:45Z</time>
      </trkpt>
      <trkpt lat="44.00818" lon="1.82048">
        <ele>278.3</ele>
        <time>2018-06-21T20:02:46Z</time>
      </trkpt>
      <trkpt lat="44.00816" lon="1.82051">
        <ele>278.3</ele>
        <time>2018-06-21T20:02:47Z</time>
      </trkpt>
      <trkpt lat="44.00814" lon="1.82055">
        <ele>278.4</ele>
        <time>2018-06-21T20:02:48Z</time>
      </trkpt>
      <trkpt lat="44.00812" lon="1.82059">
        <ele>278.4</ele>
        <time>2018-06-21T20:02:49Z</time>
      </trkpt>
      <trkpt lat="44.00809" lon="1.82062">
        <ele>278.5</ele>
        <time>2018-06-21T20:02:50Z</time>
      </trkpt>
      <trkpt lat="44.00806" lon="1.82062">
        <ele>279</ele>
        <time>2018-06-21T20:02:51Z</time>
      </trkpt>
      <trkpt lat="44.00801" lon="1.82062">
        <ele>279.4</ele>
        <time>2018-06-21T20:02:53Z</time>
      </trkpt>
      <trkpt lat="44.00798" lon="1.82063">
        <ele>279.8</ele>
        <time>2018-06-21T20:02:54Z</time>
      </trkpt>
      <trkpt lat="44.00794" lon="1.82064">
        <ele>279.9</ele>
        <time>2018-06-21T20:02:55Z</time>
      </trkpt>
      <trkpt lat="44.00789" lon="1.82065">
        <ele>280.5</ele>
        <time>2018-06-21T20:02:57Z</time>
      </trkpt>
      <trkpt lat="44.00786" lon="1.82066">
        <ele>280.8</ele>
        <time>2018-06-21T20:02:58Z</time>
      </trkpt>
      <trkpt lat="44.00783" lon="1.82067">
        <ele>281.1</ele>
        <time>2018-06-21T20:02:59Z</time>
      </trkpt>
      <trkpt lat="44.00779" lon="1.82068">
        <ele>281.4</ele>
        <time>2018-06-21T20:03:00Z</time>
      </trkpt>
      <trkpt lat="44.00776" lon="1.8207">
        <ele>281.3</ele>
        <time>2018-06-21T20:03:01Z</time>
      </trkpt>
      <trkpt lat="44.00773" lon="1.82072">
        <ele>281.6</ele>
        <time>2018-06-21T20:03:02Z</time>
      </trkpt>
      <trkpt lat="44.0077" lon="1.82073">
        <ele>281.4</ele>
        <time>2018-06-21T20:03:03Z</time>
      </trkpt>
      <trkpt lat="44.00767" lon="1.82074">
        <ele>281.6</ele>
        <time>2018-06-21T20:03:04Z</time>
      </trkpt>
      <trkpt lat="44.00764" lon="1.82074">
        <ele>281.8</ele>
        <time>2018-06-21T20:03:05Z</time>
      </trkpt>
      <trkpt lat="44.00761" lon="1.82074">
        <ele>282</ele>
        <time>2018-06-21T20:03:06Z</time>
      </trkpt>
      <trkpt lat="44.00758" lon="1.82075">
        <ele>282.2</ele>
        <time>2018-06-21T20:03:07Z</time>
      </trkpt>
      <trkpt lat="44.00753" lon="1.82075">
        <ele>282.5</ele>
        <time>2018-06-21T20:03:09Z</time>
      </trkpt>
      <trkpt lat="44.00749" lon="1.82071">
        <ele>282.9</ele>
        <time>2018-06-21T20:03:11Z</time>
      </trkpt>
      <trkpt lat="44.00746" lon="1.82071">
        <ele>283</ele>
        <time>2018-06-21T20:03:12Z</time>
      </trkpt>
      <trkpt lat="44.00742" lon="1.82072">
        <ele>283.1</ele>
        <time>2018-06-21T20:03:13Z</time>
      </trkpt>
      <trkpt lat="44.00739" lon="1.82073">
        <ele>283.1</ele>
        <time>2018-06-21T20:03:14Z</time>
      </trkpt>
      <trkpt lat="44.00734" lon="1.82078">
        <ele>283.1</ele>
        <time>2018-06-21T20:03:16Z</time>
      </trkpt>
      <trkpt lat="44.00733" lon="1.82081">
        <ele>283.1</ele>
        <time>2018-06-21T20:03:17Z</time>
      </trkpt>
      <trkpt lat="44.00731" lon="1.82084">
        <ele>283</ele>
        <time>2018-06-21T20:03:18Z</time>
      </trkpt>
      <trkpt lat="44.0073" lon="1.8209">
        <ele>282.3</ele>
        <time>2018-06-21T20:03:20Z</time>
      </trkpt>
      <trkpt lat="44.00727" lon="1.82096">
        <ele>282</ele>
        <time>2018-06-21T20:03:22Z</time>
      </trkpt>
      <trkpt lat="44.00724" lon="1.82101">
        <ele>281.5</ele>
        <time>2018-06-21T20:03:24Z</time>
      </trkpt>
      <trkpt lat="44.00723" lon="1.82107">
        <ele>280.1</ele>
        <time>2018-06-21T20:03:26Z</time>
      </trkpt>
      <trkpt lat="44.00721" lon="1.82114">
        <ele>279.2</ele>
        <time>2018-06-21T20:03:28Z</time>
      </trkpt>
      <trkpt lat="44.00719" lon="1.82117">
        <ele>278.4</ele>
        <time>2018-06-21T20:03:29Z</time>
      </trkpt>
      <trkpt lat="44.00715" lon="1.82119">
        <ele>278.6</ele>
        <time>2018-06-21T20:03:30Z</time>
      </trkpt>
      <trkpt lat="44.00712" lon="1.82122">
        <ele>277.9</ele>
        <time>2018-06-21T20:03:31Z</time>
      </trkpt>
      <trkpt lat="44.00709" lon="1.82124">
        <ele>278.1</ele>
        <time>2018-06-21T20:03:32Z</time>
      </trkpt>
      <trkpt lat="44.00706" lon="1.82125">
        <ele>277.6</ele>
        <time>2018-06-21T20:03:33Z</time>
      </trkpt>
      <trkpt lat="44.00703" lon="1.82126">
        <ele>277.9</ele>
        <time>2018-06-21T20:03:34Z</time>
      </trkpt>
      <trkpt lat="44.00699" lon="1.82125">
        <ele>278.2</ele>
        <time>2018-06-21T20:03:35Z</time>
      </trkpt>
      <trkpt lat="44.00696" lon="1.82125">
        <ele>278.5</ele>
        <time>2018-06-21T20:03:36Z</time>
      </trkpt>
      <trkpt lat="44.00693" lon="1.82126">
        <ele>278.8</ele>
        <time>2018-06-21T20:03:37Z</time>
      </trkpt>
      <trkpt lat="44.00689" lon="1.82127">
        <ele>279.4</ele>
        <time>2018-06-21T20:03:38Z</time>
      </trkpt>
      <trkpt lat="44.00686" lon="1.82127">
        <ele>279.7</ele>
        <time>2018-06-21T20:03:39Z</time>
      </trkpt>
      <trkpt lat="44.00683" lon="1.82127">
        <ele>279.9</ele>
        <time>2018-06-21T20:03:40Z</time>
      </trkpt>
      <trkpt lat="44.00679" lon="1.82127">
        <ele>280.2</ele>
        <time>2018-06-21T20:03:41Z</time>
      </trkpt>
      <trkpt lat="44.00675" lon="1.82129">
        <ele>279.7</ele>
        <time>2018-06-21T20:03:42Z</time>
      </trkpt>
      <trkpt lat="44.00672" lon="1.82133">
        <ele>279.9</ele>
        <time>2018-06-21T20:03:43Z</time>
      </trkpt>
      <trkpt lat="44.0067" lon="1.82136">
        <ele>279.5</ele>
        <time>2018-06-21T20:03:44Z</time>
      </trkpt>
      <trkpt lat="44.00667" lon="1.82138">
        <ele>279.1</ele>
        <time>2018-06-21T20:03:45Z</time>
      </trkpt>
      <trkpt lat="44.00664" lon="1.82139">
        <ele>279.2</ele>
        <time>2018-06-21T20:03:46Z</time>
      </trkpt>
      <trkpt lat="44.0066" lon="1.82138">
        <ele>279.4</ele>
        <time>2018-06-21T20:03:47Z</time>
      </trkpt>
      <trkpt lat="44.00657" lon="1.82138">
        <ele>279.5</ele>
        <time>2018-06-21T20:03:48Z</time>
      </trkpt>
      <trkpt lat="44.00653" lon="1.8214">
        <ele>279.5</ele>
        <time>2018-06-21T20:03:49Z</time>
      </trkpt>
      <trkpt lat="44.00649" lon="1.82142">
        <ele>278.9</ele>
        <time>2018-06-21T20:03:50Z</time>
      </trkpt>
      <trkpt lat="44.00645" lon="1.82144">
        <ele>278.9</ele>
        <time>2018-06-21T20:03:51Z</time>
      </trkpt>
      <trkpt lat="44.00642" lon="1.82145">
        <ele>279</ele>
        <time>2018-06-21T20:03:52Z</time>
      </trkpt>
      <trkpt lat="44.00638" lon="1.82145">
        <ele>279</ele>
        <time>2018-06-21T20:03:53Z</time>
      </trkpt>
      <trkpt lat="44.00635" lon="1.82147">
        <ele>278.3</ele>
        <time>2018-06-21T20:03:54Z</time>
      </trkpt>
      <trkpt lat="44.00632" lon="1.82149">
        <ele>278.4</ele>
        <time>2018-06-21T20:03:55Z</time>
      </trkpt>
      <trkpt lat="44.00628" lon="1.82151">
        <ele>277.7</ele>
        <time>2018-06-21T20:03:56Z</time>
      </trkpt>
      <trkpt lat="44.00623" lon="1.82151">
        <ele>277.8</ele>
        <time>2018-06-21T20:03:57Z</time>
      </trkpt>
      <trkpt lat="44.00619" lon="1.82152">
        <ele>277.9</ele>
        <time>2018-06-21T20:03:58Z</time>
      </trkpt>
      <trkpt lat="44.00614" lon="1.82152">
        <ele>278.2</ele>
        <time>2018-06-21T20:03:59Z</time>
      </trkpt>
      <trkpt lat="44.0061" lon="1.82153">
        <ele>278.4</ele>
        <time>2018-06-21T20:04:00Z</time>
      </trkpt>
      <trkpt lat="44.00607" lon="1.82153">
        <ele>278.5</ele>
        <time>2018-06-21T20:04:01Z</time>
      </trkpt>
      <trkpt lat="44.00603" lon="1.82154">
        <ele>278.9</ele>
        <time>2018-06-21T20:04:02Z</time>
      </trkpt>
      <trkpt lat="44.00599" lon="1.82157">
        <ele>278.3</ele>
        <time>2018-06-21T20:04:03Z</time>
      </trkpt>
      <trkpt lat="44.00595" lon="1.82161">
        <ele>277.7</ele>
        <time>2018-06-21T20:04:04Z</time>
      </trkpt>
      <trkpt lat="44.00592" lon="1.82164">
        <ele>277</ele>
        <time>2018-06-21T20:04:05Z</time>
      </trkpt>
      <trkpt lat="44.0059" lon="1.82168">
        <ele>276.2</ele>
        <time>2018-06-21T20:04:06Z</time>
      </trkpt>
      <trkpt lat="44.00587" lon="1.82173">
        <ele>275.3</ele>
        <time>2018-06-21T20:04:07Z</time>
      </trkpt>
      <trkpt lat="44.00585" lon="1.82178">
        <ele>274.6</ele>
        <time>2018-06-21T20:04:08Z</time>
      </trkpt>
      <trkpt lat="44.00583" lon="1.82184">
        <ele>273.8</ele>
        <time>2018-06-21T20:04:09Z</time>
      </trkpt>
      <trkpt lat="44.00581" lon="1.82188">
        <ele>273.2</ele>
        <time>2018-06-21T20:04:10Z</time>
      </trkpt>
      <trkpt lat="44.00577" lon="1.82189">
        <ele>272.6</ele>
        <time>2018-06-21T20:04:11Z</time>
      </trkpt>
      <trkpt lat="44.00574" lon="1.8219">
        <ele>272.7</ele>
        <time>2018-06-21T20:04:12Z</time>
      </trkpt>
      <trkpt lat="44.0057" lon="1.82192">
        <ele>272.8</ele>
        <time>2018-06-21T20:04:13Z</time>
      </trkpt>
      <trkpt lat="44.00568" lon="1.82195">
        <ele>272.3</ele>
        <time>2018-06-21T20:04:14Z</time>
      </trkpt>
      <trkpt lat="44.00565" lon="1.822">
        <ele>271.8</ele>
        <time>2018-06-21T20:04:15Z</time>
      </trkpt>
      <trkpt lat="44.00563" lon="1.82204">
        <ele>271.3</ele>
        <time>2018-06-21T20:04:16Z</time>
      </trkpt>
      <trkpt lat="44.00559" lon="1.82208">
        <ele>270.8</ele>
        <time>2018-06-21T20:04:17Z</time>
      </trkpt>
      <trkpt lat="44.00554" lon="1.82209">
        <ele>270.9</ele>
        <time>2018-06-21T20:04:18Z</time>
      </trkpt>
      <trkpt lat="44.0055" lon="1.82209">
        <ele>271</ele>
        <time>2018-06-21T20:04:19Z</time>
      </trkpt>
      <trkpt lat="44.00546" lon="1.8221">
        <ele>270.4</ele>
        <time>2018-06-21T20:04:20Z</time>
      </trkpt>
      <trkpt lat="44.00543" lon="1.82212">
        <ele>270.5</ele>
        <time>2018-06-21T20:04:21Z</time>
      </trkpt>
      <trkpt lat="44.00539" lon="1.82213">
        <ele>270.6</ele>
        <time>2018-06-21T20:04:22Z</time>
      </trkpt>
      <trkpt lat="44.00535" lon="1.82212">
        <ele>270.7</ele>
        <time>2018-06-21T20:04:23Z</time>
      </trkpt>
      <trkpt lat="44.00532" lon="1.82206">
        <ele>271.4</ele>
        <time>2018-06-21T20:04:25Z</time>
      </trkpt>
      <trkpt lat="44.00529" lon="1.82201">
        <ele>272.6</ele>
        <time>2018-06-21T20:04:27Z</time>
      </trkpt>
      <trkpt lat="44.00527" lon="1.82198">
        <ele>272.7</ele>
        <time>2018-06-21T20:04:28Z</time>
      </trkpt>
      <trkpt lat="44.00526" lon="1.82194">
        <ele>273.2</ele>
        <time>2018-06-21T20:04:29Z</time>
      </trkpt>
      <trkpt lat="44.00524" lon="1.82188">
        <ele>274.3</ele>
        <time>2018-06-21T20:04:31Z</time>
      </trkpt>
      <trkpt lat="44.00522" lon="1.82183">
        <ele>274.8</ele>
        <time>2018-06-21T20:04:33Z</time>
      </trkpt>
      <trkpt lat="44.00517" lon="1.82185">
        <ele>274.3</ele>
        <time>2018-06-21T20:04:35Z</time>
      </trkpt>
      <trkpt lat="44.00514" lon="1.82186">
        <ele>274.3</ele>
        <time>2018-06-21T20:04:36Z</time>
      </trkpt>
      <trkpt lat="44.0051" lon="1.82188">
        <ele>274.2</ele>
        <time>2018-06-21T20:04:37Z</time>
      </trkpt>
      <trkpt lat="44.00506" lon="1.8219">
        <ele>273.7</ele>
        <time>2018-06-21T20:04:38Z</time>
      </trkpt>
      <trkpt lat="44.00502" lon="1.82189">
        <ele>273.6</ele>
        <time>2018-06-21T20:04:39Z</time>
      </trkpt>
      <trkpt lat="44.005" lon="1.82188">
        <ele>274</ele>
        <time>2018-06-21T20:04:40Z</time>
      </trkpt>
      <trkpt lat="44.00493" lon="1.82188">
        <ele>273.6</ele>
        <time>2018-06-21T20:04:42Z</time>
      </trkpt>
      <trkpt lat="44.0049" lon="1.82189">
        <ele>273.1</ele>
        <time>2018-06-21T20:04:43Z</time>
      </trkpt>
      <trkpt lat="44.00488" lon="1.82192">
        <ele>272.9</ele>
        <time>2018-06-21T20:04:44Z</time>
      </trkpt>
      <trkpt lat="44.00483" lon="1.82193">
        <ele>272.7</ele>
        <time>2018-06-21T20:04:47Z</time>
      </trkpt>
      <trkpt lat="44.0048" lon="1.82195">
        <ele>272.1</ele>
        <time>2018-06-21T20:04:48Z</time>
      </trkpt>
      <trkpt lat="44.00475" lon="1.82198">
        <ele>271.2</ele>
        <time>2018-06-21T20:04:49Z</time>
      </trkpt>
      <trkpt lat="44.00471" lon="1.82201">
        <ele>271</ele>
        <time>2018-06-21T20:04:50Z</time>
      </trkpt>
      <trkpt lat="44.00468" lon="1.82205">
        <ele>270.4</ele>
        <time>2018-06-21T20:04:51Z</time>
      </trkpt>
      <trkpt lat="44.00467" lon="1.82208">
        <ele>269.7</ele>
        <time>2018-06-21T20:04:52Z</time>
      </trkpt>
      <trkpt lat="44.00469" lon="1.82212">
        <ele>269.6</ele>
        <time>2018-06-21T20:04:54Z</time>
      </trkpt>
      <trkpt lat="44.0047" lon="1.82219">
        <ele>268.8</ele>
        <time>2018-06-21T20:04:56Z</time>
      </trkpt>
      <trkpt lat="44.0047" lon="1.82223">
        <ele>268.2</ele>
        <time>2018-06-21T20:04:57Z</time>
      </trkpt>
      <trkpt lat="44.00468" lon="1.82227">
        <ele>268.2</ele>
        <time>2018-06-21T20:04:58Z</time>
      </trkpt>
      <trkpt lat="44.00467" lon="1.82234">
        <ele>267.2</ele>
        <time>2018-06-21T20:05:00Z</time>
      </trkpt>
      <trkpt lat="44.00469" lon="1.82237">
        <ele>266.7</ele>
        <time>2018-06-21T20:05:01Z</time>
      </trkpt>
      <trkpt lat="44.00471" lon="1.82241">
        <ele>266.3</ele>
        <time>2018-06-21T20:05:02Z</time>
      </trkpt>
      <trkpt lat="44.00472" lon="1.82245">
        <ele>265.8</ele>
        <time>2018-06-21T20:05:03Z</time>
      </trkpt>
      <trkpt lat="44.00473" lon="1.82249">
        <ele>265.2</ele>
        <time>2018-06-21T20:05:04Z</time>
      </trkpt>
      <trkpt lat="44.00474" lon="1.82253">
        <ele>264.6</ele>
        <time>2018-06-21T20:05:05Z</time>
      </trkpt>
      <trkpt lat="44.00477" lon="1.82256">
        <ele>264.7</ele>
        <time>2018-06-21T20:05:06Z</time>
      </trkpt>
      <trkpt lat="44.0048" lon="1.82256">
        <ele>264.8</ele>
        <time>2018-06-21T20:05:07Z</time>
      </trkpt>
      <trkpt lat="44.00482" lon="1.82254">
        <ele>264.9</ele>
        <time>2018-06-21T20:05:08Z</time>
      </trkpt>
      <trkpt lat="44.00486" lon="1.82253">
        <ele>265</ele>
        <time>2018-06-21T20:05:10Z</time>
      </trkpt>
      <trkpt lat="44.00487" lon="1.8226">
        <ele>264.3</ele>
        <time>2018-06-21T20:05:12Z</time>
      </trkpt>
      <trkpt lat="44.00487" lon="1.82264">
        <ele>263.7</ele>
        <time>2018-06-21T20:05:13Z</time>
      </trkpt>
      <trkpt lat="44.00488" lon="1.82268">
        <ele>263</ele>
        <time>2018-06-21T20:05:14Z</time>
      </trkpt>
      <trkpt lat="44.00488" lon="1.82272">
        <ele>262.4</ele>
        <time>2018-06-21T20:05:15Z</time>
      </trkpt>
      <trkpt lat="44.00487" lon="1.82276">
        <ele>261.8</ele>
        <time>2018-06-21T20:05:16Z</time>
      </trkpt>
      <trkpt lat="44.00485" lon="1.8228">
        <ele>261.2</ele>
        <time>2018-06-21T20:05:17Z</time>
      </trkpt>
      <trkpt lat="44.00482" lon="1.82284">
        <ele>260.7</ele>
        <time>2018-06-21T20:05:18Z</time>
      </trkpt>
      <trkpt lat="44.0048" lon="1.82288">
        <ele>260.1</ele>
        <time>2018-06-21T20:05:19Z</time>
      </trkpt>
      <trkpt lat="44.00478" lon="1.82292">
        <ele>259.5</ele>
        <time>2018-06-21T20:05:20Z</time>
      </trkpt>
      <trkpt lat="44.00481" lon="1.82299">
        <ele>258.9</ele>
        <time>2018-06-21T20:05:22Z</time>
      </trkpt>
      <trkpt lat="44.00483" lon="1.82303">
        <ele>258.3</ele>
        <time>2018-06-21T20:05:23Z</time>
      </trkpt>
      <trkpt lat="44.00483" lon="1.82308">
        <ele>257.6</ele>
        <time>2018-06-21T20:05:24Z</time>
      </trkpt>
      <trkpt lat="44.00483" lon="1.82314">
        <ele>256.7</ele>
        <time>2018-06-21T20:05:25Z</time>
      </trkpt>
      <trkpt lat="44.00482" lon="1.82319">
        <ele>256</ele>
        <time>2018-06-21T20:05:26Z</time>
      </trkpt>
      <trkpt lat="44.00482" lon="1.82325">
        <ele>255.6</ele>
        <time>2018-06-21T20:05:27Z</time>
      </trkpt>
      <trkpt lat="44.00481" lon="1.82329">
        <ele>255.2</ele>
        <time>2018-06-21T20:05:28Z</time>
      </trkpt>
      <trkpt lat="44.00478" lon="1.82333">
        <ele>255</ele>
        <time>2018-06-21T20:05:30Z</time>
      </trkpt>
      <trkpt lat="44.00475" lon="1.82334">
        <ele>254.8</ele>
        <time>2018-06-21T20:05:31Z</time>
      </trkpt>
      <trkpt lat="44.00471" lon="1.82336">
        <ele>254.4</ele>
        <time>2018-06-21T20:05:32Z</time>
      </trkpt>
      <trkpt lat="44.00467" lon="1.82337">
        <ele>254</ele>
        <time>2018-06-21T20:05:33Z</time>
      </trkpt>
      <trkpt lat="44.00463" lon="1.82338">
        <ele>253.6</ele>
        <time>2018-06-21T20:05:34Z</time>
      </trkpt>
      <trkpt lat="44.00461" lon="1.82341">
        <ele>253.3</ele>
        <time>2018-06-21T20:05:35Z</time>
      </trkpt>
      <trkpt lat="44.00457" lon="1.82341">
        <ele>253.5</ele>
        <time>2018-06-21T20:06:35Z</time>
      </trkpt>
      <trkpt lat="44.00453" lon="1.82337">
        <ele>256</ele>
        <time>2018-06-21T20:06:37Z</time>
      </trkpt>
      <trkpt lat="44.00451" lon="1.82334">
        <ele>257.7</ele>
        <time>2018-06-21T20:06:38Z</time>
      </trkpt>
      <trkpt lat="44.00448" lon="1.82331">
        <ele>259.4</ele>
        <time>2018-06-21T20:06:39Z</time>
      </trkpt>
      <trkpt lat="44.00446" lon="1.82328">
        <ele>261.1</ele>
        <time>2018-06-21T20:06:40Z</time>
      </trkpt>
      <trkpt lat="44.00443" lon="1.82326">
        <ele>262.8</ele>
        <time>2018-06-21T20:06:41Z</time>
      </trkpt>
      <trkpt lat="44.00441" lon="1.82323">
        <ele>262.5</ele>
        <time>2018-06-21T20:06:42Z</time>
      </trkpt>
      <trkpt lat="44.00438" lon="1.8232">
        <ele>262</ele>
        <time>2018-06-21T20:06:43Z</time>
      </trkpt>
      <trkpt lat="44.00435" lon="1.82317">
        <ele>261.5</ele>
        <time>2018-06-21T20:06:44Z</time>
      </trkpt>
      <trkpt lat="44.00432" lon="1.82315">
        <ele>261.1</ele>
        <time>2018-06-21T20:06:45Z</time>
      </trkpt>
      <trkpt lat="44.00429" lon="1.82312">
        <ele>260.5</ele>
        <time>2018-06-21T20:06:46Z</time>
      </trkpt>
      <trkpt lat="44.00426" lon="1.82309">
        <ele>259.9</ele>
        <time>2018-06-21T20:06:47Z</time>
      </trkpt>
      <trkpt lat="44.00422" lon="1.82306">
        <ele>259.3</ele>
        <time>2018-06-21T20:06:48Z</time>
      </trkpt>
      <trkpt lat="44.00419" lon="1.82304">
        <ele>258.8</ele>
        <time>2018-06-21T20:06:49Z</time>
      </trkpt>
      <trkpt lat="44.00415" lon="1.823">
        <ele>258.2</ele>
        <time>2018-06-21T20:06:50Z</time>
      </trkpt>
      <trkpt lat="44.00412" lon="1.82298">
        <ele>257.7</ele>
        <time>2018-06-21T20:06:51Z</time>
      </trkpt>
      <trkpt lat="44.00407" lon="1.82295">
        <ele>256.9</ele>
        <time>2018-06-21T20:06:52Z</time>
      </trkpt>
      <trkpt lat="44.00403" lon="1.82292">
        <ele>255.9</ele>
        <time>2018-06-21T20:06:53Z</time>
      </trkpt>
      <trkpt lat="44.00399" lon="1.8229">
        <ele>254.8</ele>
        <time>2018-06-21T20:06:54Z</time>
      </trkpt>
      <trkpt lat="44.00394" lon="1.82289">
        <ele>253.7</ele>
        <time>2018-06-21T20:06:55Z</time>
      </trkpt>
      <trkpt lat="44.00389" lon="1.82289">
        <ele>252.6</ele>
        <time>2018-06-21T20:06:56Z</time>
      </trkpt>
      <trkpt lat="44.00383" lon="1.82289">
        <ele>251.6</ele>
        <time>2018-06-21T20:06:57Z</time>
      </trkpt>
      <trkpt lat="44.00376" lon="1.8229">
        <ele>250.1</ele>
        <time>2018-06-21T20:06:58Z</time>
      </trkpt>
      <trkpt lat="44.00368" lon="1.8229">
        <ele>250.2</ele>
        <time>2018-06-21T20:06:59Z</time>
      </trkpt>
      <trkpt lat="44.00358" lon="1.82288">
        <ele>250.3</ele>
        <time>2018-06-21T20:07:00Z</time>
      </trkpt>
      <trkpt lat="44.00349" lon="1.82287">
        <ele>250.4</ele>
        <time>2018-06-21T20:07:01Z</time>
      </trkpt>
      <trkpt lat="44.00342" lon="1.82286">
        <ele>250.5</ele>
        <time>2018-06-21T20:07:02Z</time>
      </trkpt>
      <trkpt lat="44.00335" lon="1.82285">
        <ele>250.5</ele>
        <time>2018-06-21T20:07:03Z</time>
      </trkpt>
      <trkpt lat="44.00329" lon="1.82284">
        <ele>250.6</ele>
        <time>2018-06-21T20:07:04Z</time>
      </trkpt>
      <trkpt lat="44.00322" lon="1.82284">
        <ele>250.6</ele>
        <time>2018-06-21T20:07:05Z</time>
      </trkpt>
      <trkpt lat="44.00316" lon="1.82284">
        <ele>250.7</ele>
        <time>2018-06-21T20:07:06Z</time>
      </trkpt>
      <trkpt lat="44.0031" lon="1.82285">
        <ele>250.7</ele>
        <time>2018-06-21T20:07:07Z</time>
      </trkpt>
      <trkpt lat="44.00304" lon="1.82285">
        <ele>250.7</ele>
        <time>2018-06-21T20:07:08Z</time>
      </trkpt>
      <trkpt lat="44.003" lon="1.82285">
        <ele>250.8</ele>
        <time>2018-06-21T20:07:09Z</time>
      </trkpt>
      <trkpt lat="44.00296" lon="1.82287">
        <ele>250.8</ele>
        <time>2018-06-21T20:07:10Z</time>
      </trkpt>
      <trkpt lat="44.00291" lon="1.82288">
        <ele>250.9</ele>
        <time>2018-06-21T20:07:11Z</time>
      </trkpt>
      <trkpt lat="44.00286" lon="1.82289">
        <ele>251</ele>
        <time>2018-06-21T20:07:12Z</time>
      </trkpt>
      <trkpt lat="44.00281" lon="1.82291">
        <ele>251</ele>
        <time>2018-06-21T20:07:13Z</time>
      </trkpt>
      <trkpt lat="44.00277" lon="1.82291">
        <ele>251.1</ele>
        <time>2018-06-21T20:07:14Z</time>
      </trkpt>
      <trkpt lat="44.00272" lon="1.82294">
        <ele>251.1</ele>
        <time>2018-06-21T20:07:15Z</time>
      </trkpt>
      <trkpt lat="44.00268" lon="1.82296">
        <ele>251.2</ele>
        <time>2018-06-21T20:07:16Z</time>
      </trkpt>
      <trkpt lat="44.00265" lon="1.82298">
        <ele>251.2</ele>
        <time>2018-06-21T20:07:17Z</time>
      </trkpt>
      <trkpt lat="44.00261" lon="1.823">
        <ele>251.2</ele>
        <time>2018-06-21T20:07:18Z</time>
      </trkpt>
      <trkpt lat="44.00257" lon="1.82301">
        <ele>251.3</ele>
        <time>2018-06-21T20:07:19Z</time>
      </trkpt>
      <trkpt lat="44.00254" lon="1.82302">
        <ele>251.3</ele>
        <time>2018-06-21T20:07:20Z</time>
      </trkpt>
      <trkpt lat="44.0025" lon="1.82303">
        <ele>251.3</ele>
        <time>2018-06-21T20:07:21Z</time>
      </trkpt>
      <trkpt lat="44.00247" lon="1.82303">
        <ele>251.3</ele>
        <time>2018-06-21T20:07:22Z</time>
      </trkpt>
      <trkpt lat="44.00243" lon="1.82304">
        <ele>251.4</ele>
        <time>2018-06-21T20:07:23Z</time>
      </trkpt>
      <trkpt lat="44.0024" lon="1.82305">
        <ele>251.4</ele>
        <time>2018-06-21T20:07:24Z</time>
      </trkpt>
      <trkpt lat="44.00237" lon="1.82307">
        <ele>251.4</ele>
        <time>2018-06-21T20:07:25Z</time>
      </trkpt>
      <trkpt lat="44.00234" lon="1.82308">
        <ele>251.4</ele>
        <time>2018-06-21T20:07:26Z</time>
      </trkpt>
      <trkpt lat="44.00231" lon="1.82311">
        <ele>251.4</ele>
        <time>2018-06-21T20:07:27Z</time>
      </trkpt>
      <trkpt lat="44.00228" lon="1.82313">
        <ele>251.4</ele>
        <time>2018-06-21T20:07:28Z</time>
      </trkpt>
      <trkpt lat="44.00224" lon="1.82316">
        <ele>251.5</ele>
        <time>2018-06-21T20:07:29Z</time>
      </trkpt>
      <trkpt lat="44.00221" lon="1.82319">
        <ele>251.5</ele>
        <time>2018-06-21T20:07:30Z</time>
      </trkpt>
      <trkpt lat="44.00217" lon="1.82322">
        <ele>251.5</ele>
        <time>2018-06-21T20:07:31Z</time>
      </trkpt>
      <trkpt lat="44.00212" lon="1.82325">
        <ele>251.5</ele>
        <time>2018-06-21T20:07:32Z</time>
      </trkpt>
      <trkpt lat="44.00207" lon="1.82329">
        <ele>251.5</ele>
        <time>2018-06-21T20:07:33Z</time>
      </trkpt>
      <trkpt lat="44.00201" lon="1.82333">
        <ele>251.5</ele>
        <time>2018-06-21T20:07:34Z</time>
      </trkpt>
      <trkpt lat="44.00195" lon="1.82336">
        <ele>251.6</ele>
        <time>2018-06-21T20:07:35Z</time>
      </trkpt>
      <trkpt lat="44.00189" lon="1.82339">
        <ele>251.6</ele>
        <time>2018-06-21T20:07:36Z</time>
      </trkpt>
      <trkpt lat="44.00184" lon="1.82341">
        <ele>251.6</ele>
        <time>2018-06-21T20:07:37Z</time>
      </trkpt>
      <trkpt lat="44.00179" lon="1.82343">
        <ele>251.6</ele>
        <time>2018-06-21T20:07:38Z</time>
      </trkpt>
      <trkpt lat="44.00173" lon="1.82347">
        <ele>251.6</ele>
        <time>2018-06-21T20:07:39Z</time>
      </trkpt>
      <trkpt lat="44.00167" lon="1.8235">
        <ele>251.6</ele>
        <time>2018-06-21T20:07:40Z</time>
      </trkpt>
      <trkpt lat="44.00161" lon="1.82353">
        <ele>251.6</ele>
        <time>2018-06-21T20:07:41Z</time>
      </trkpt>
      <trkpt lat="44.00155" lon="1.82357">
        <ele>251.6</ele>
        <time>2018-06-21T20:07:42Z</time>
      </trkpt>
      <trkpt lat="44.00149" lon="1.82361">
        <ele>251.6</ele>
        <time>2018-06-21T20:07:43Z</time>
      </trkpt>
      <trkpt lat="44.00144" lon="1.82365">
        <ele>251.6</ele>
        <time>2018-06-21T20:07:44Z</time>
      </trkpt>
      <trkpt lat="44.00137" lon="1.82369">
        <ele>251.6</ele>
        <time>2018-06-21T20:07:45Z</time>
      </trkpt>
      <trkpt lat="44.00131" lon="1.82373">
        <ele>251.6</ele>
        <time>2018-06-21T20:07:46Z</time>
      </trkpt>
      <trkpt lat="44.00126" lon="1.82377">
        <ele>251.5</ele>
        <time>2018-06-21T20:07:47Z</time>
      </trkpt>
      <trkpt lat="44.00121" lon="1.82381">
        <ele>251.5</ele>
        <time>2018-06-21T20:07:48Z</time>
      </trkpt>
      <trkpt lat="44.00115" lon="1.82385">
        <ele>251.5</ele>
        <time>2018-06-21T20:07:49Z</time>
      </trkpt>
      <trkpt lat="44.0011" lon="1.82389">
        <ele>251.3</ele>
        <time>2018-06-21T20:07:50Z</time>
      </trkpt>
      <trkpt lat="44.00104" lon="1.82394">
        <ele>251.1</ele>
        <time>2018-06-21T20:07:51Z</time>
      </trkpt>
      <trkpt lat="44.00099" lon="1.82398">
        <ele>250.7</ele>
        <time>2018-06-21T20:07:52Z</time>
      </trkpt>
      <trkpt lat="44.00094" lon="1.82403">
        <ele>250.2</ele>
        <time>2018-06-21T20:07:53Z</time>
      </trkpt>
      <trkpt lat="44.0009" lon="1.82406">
        <ele>249.6</ele>
        <time>2018-06-21T20:07:54Z</time>
      </trkpt>
      <trkpt lat="44.00086" lon="1.82409">
        <ele>249.2</ele>
        <time>2018-06-21T20:07:55Z</time>
      </trkpt>
      <trkpt lat="44.00083" lon="1.8241">
        <ele>248.6</ele>
        <time>2018-06-21T20:07:56Z</time>
      </trkpt>
      <trkpt lat="44.0008" lon="1.82408">
        <ele>248</ele>
        <time>2018-06-21T20:07:57Z</time>
      </trkpt>
      <trkpt lat="44.00077" lon="1.82406">
        <ele>247.8</ele>
        <time>2018-06-21T20:07:58Z</time>
      </trkpt>
      <trkpt lat="44.00073" lon="1.82403">
        <ele>247.6</ele>
        <time>2018-06-21T20:07:59Z</time>
      </trkpt>
      <trkpt lat="44.00069" lon="1.824">
        <ele>247.4</ele>
        <time>2018-06-21T20:08:00Z</time>
      </trkpt>
      <trkpt lat="44.00065" lon="1.82394">
        <ele>247.2</ele>
        <time>2018-06-21T20:08:01Z</time>
      </trkpt>
      <trkpt lat="44.0006" lon="1.82387">
        <ele>245.3</ele>
        <time>2018-06-21T20:08:02Z</time>
      </trkpt>
      <trkpt lat="44.00055" lon="1.82381">
        <ele>243</ele>
        <time>2018-06-21T20:08:03Z</time>
      </trkpt>
      <trkpt lat="44.0005" lon="1.82374">
        <ele>240.8</ele>
        <time>2018-06-21T20:08:04Z</time>
      </trkpt>
      <trkpt lat="44.00044" lon="1.82367">
        <ele>238</ele>
        <time>2018-06-21T20:08:05Z</time>
      </trkpt>
      <trkpt lat="44.00039" lon="1.8236">
        <ele>235.6</ele>
        <time>2018-06-21T20:08:06Z</time>
      </trkpt>
      <trkpt lat="44.00033" lon="1.82355">
        <ele>233</ele>
        <time>2018-06-21T20:08:07Z</time>
      </trkpt>
      <trkpt lat="44.00026" lon="1.82349">
        <ele>230.5</ele>
        <time>2018-06-21T20:08:08Z</time>
      </trkpt>
      <trkpt lat="44.0002" lon="1.82343">
        <ele>227.7</ele>
        <time>2018-06-21T20:08:09Z</time>
      </trkpt>
      <trkpt lat="44.00014" lon="1.82335">
        <ele>225.1</ele>
        <time>2018-06-21T20:08:10Z</time>
      </trkpt>
      <trkpt lat="44.00008" lon="1.82327">
        <ele>222.1</ele>
        <time>2018-06-21T20:08:11Z</time>
      </trkpt>
      <trkpt lat="44.00004" lon="1.82319">
        <ele>219</ele>
        <time>2018-06-21T20:08:12Z</time>
      </trkpt>
      <trkpt lat="43.99999" lon="1.82313">
        <ele>219</ele>
        <time>2018-06-21T20:08:13Z</time>
      </trkpt>
      <trkpt lat="43.99996" lon="1.8231">
        <ele>219</ele>
        <time>2018-06-21T20:08:14Z</time>
      </trkpt>
      <trkpt lat="43.99992" lon="1.82306">
        <ele>218.9</ele>
        <time>2018-06-21T20:08:16Z</time>
      </trkpt>
      <trkpt lat="43.99991" lon="1.82299">
        <ele>218.9</ele>
        <time>2018-06-21T20:08:18Z</time>
      </trkpt>
      <trkpt lat="43.99992" lon="1.82295">
        <ele>218.8</ele>
        <time>2018-06-21T20:08:19Z</time>
      </trkpt>
      <trkpt lat="43.99994" lon="1.82291">
        <ele>218.7</ele>
        <time>2018-06-21T20:08:20Z</time>
      </trkpt>
      <trkpt lat="43.99996" lon="1.82287">
        <ele>218.6</ele>
        <time>2018-06-21T20:08:21Z</time>
      </trkpt>
      <trkpt lat="43.99999" lon="1.82283">
        <ele>218.3</ele>
        <time>2018-06-21T20:08:22Z</time>
      </trkpt>
      <trkpt lat="44.00003" lon="1.82278">
        <ele>218.1</ele>
        <time>2018-06-21T20:08:23Z</time>
      </trkpt>
      <trkpt lat="44.00007" lon="1.82273">
        <ele>217.7</ele>
        <time>2018-06-21T20:08:24Z</time>
      </trkpt>
      <trkpt lat="44.0001" lon="1.82268">
        <ele>217.5</ele>
        <time>2018-06-21T20:08:25Z</time>
      </trkpt>
      <trkpt lat="44.00013" lon="1.82264">
        <ele>217.3</ele>
        <time>2018-06-21T20:08:26Z</time>
      </trkpt>
      <trkpt lat="44.00017" lon="1.82257">
        <ele>217.1</ele>
        <time>2018-06-21T20:08:27Z</time>
      </trkpt>
      <trkpt lat="44.0002" lon="1.82251">
        <ele>216.9</ele>
        <time>2018-06-21T20:08:28Z</time>
      </trkpt>
      <trkpt lat="44.00024" lon="1.82245">
        <ele>216.5</ele>
        <time>2018-06-21T20:08:29Z</time>
      </trkpt>
      <trkpt lat="44.00027" lon="1.82238">
        <ele>216.1</ele>
        <time>2018-06-21T20:08:30Z</time>
      </trkpt>
      <trkpt lat="44.00029" lon="1.82231">
        <ele>215.8</ele>
        <time>2018-06-21T20:08:31Z</time>
      </trkpt>
      <trkpt lat="44.00031" lon="1.82223">
        <ele>215.7</ele>
        <time>2018-06-21T20:08:32Z</time>
      </trkpt>
      <trkpt lat="44.00033" lon="1.82213">
        <ele>215.6</ele>
        <time>2018-06-21T20:08:33Z</time>
      </trkpt>
      <trkpt lat="44.00035" lon="1.82205">
        <ele>215.5</ele>
        <time>2018-06-21T20:08:34Z</time>
      </trkpt>
      <trkpt lat="44.00038" lon="1.82195">
        <ele>215.3</ele>
        <time>2018-06-21T20:08:35Z</time>
      </trkpt>
      <trkpt lat="44.00041" lon="1.82186">
        <ele>215.2</ele>
        <time>2018-06-21T20:08:36Z</time>
      </trkpt>
      <trkpt lat="44.00044" lon="1.82176">
        <ele>215</ele>
        <time>2018-06-21T20:08:37Z</time>
      </trkpt>
      <trkpt lat="44.00048" lon="1.82166">
        <ele>214.5</ele>
        <time>2018-06-21T20:08:38Z</time>
      </trkpt>
      <trkpt lat="44.00051" lon="1.82156">
        <ele>214</ele>
        <time>2018-06-21T20:08:39Z</time>
      </trkpt>
      <trkpt lat="44.00054" lon="1.82148">
        <ele>213.5</ele>
        <time>2018-06-21T20:08:40Z</time>
      </trkpt>
      <trkpt lat="44.00055" lon="1.8214">
        <ele>213</ele>
        <time>2018-06-21T20:08:41Z</time>
      </trkpt>
      <trkpt lat="44.00057" lon="1.82132">
        <ele>212.5</ele>
        <time>2018-06-21T20:08:42Z</time>
      </trkpt>
      <trkpt lat="44.00058" lon="1.82123">
        <ele>211.9</ele>
        <time>2018-06-21T20:08:43Z</time>
      </trkpt>
      <trkpt lat="44.00059" lon="1.82113">
        <ele>211.4</ele>
        <time>2018-06-21T20:08:44Z</time>
      </trkpt>
      <trkpt lat="44.0006" lon="1.82103">
        <ele>210.9</ele>
        <time>2018-06-21T20:08:45Z</time>
      </trkpt>
      <trkpt lat="44.00062" lon="1.82092">
        <ele>210.4</ele>
        <time>2018-06-21T20:08:46Z</time>
      </trkpt>
      <trkpt lat="44.00064" lon="1.82079">
        <ele>209.8</ele>
        <time>2018-06-21T20:08:47Z</time>
      </trkpt>
      <trkpt lat="44.00067" lon="1.82065">
        <ele>209.1</ele>
        <time>2018-06-21T20:08:48Z</time>
      </trkpt>
      <trkpt lat="44.0007" lon="1.82051">
        <ele>208.5</ele>
        <time>2018-06-21T20:08:49Z</time>
      </trkpt>
      <trkpt lat="44.00074" lon="1.82037">
        <ele>207.9</ele>
        <time>2018-06-21T20:08:50Z</time>
      </trkpt>
      <trkpt lat="44.00078" lon="1.82024">
        <ele>207.3</ele>
        <time>2018-06-21T20:08:51Z</time>
      </trkpt>
      <trkpt lat="44.00082" lon="1.8201">
        <ele>207</ele>
        <time>2018-06-21T20:08:52Z</time>
      </trkpt>
      <trkpt lat="44.00087" lon="1.81999">
        <ele>207</ele>
        <time>2018-06-21T20:08:53Z</time>
      </trkpt>
      <trkpt lat="44.00092" lon="1.81988">
        <ele>207</ele>
        <time>2018-06-21T20:08:54Z</time>
      </trkpt>
      <trkpt lat="44.00097" lon="1.81979">
        <ele>207</ele>
        <time>2018-06-21T20:08:55Z</time>
      </trkpt>
      <trkpt lat="44.00103" lon="1.81969">
        <ele>207</ele>
        <time>2018-06-21T20:08:56Z</time>
      </trkpt>
      <trkpt lat="44.00108" lon="1.81958">
        <ele>207</ele>
        <time>2018-06-21T20:08:57Z</time>
      </trkpt>
      <trkpt lat="44.00113" lon="1.81948">
        <ele>207.1</ele>
        <time>2018-06-21T20:08:58Z</time>
      </trkpt>
      <trkpt lat="44.00117" lon="1.81938">
        <ele>207.2</ele>
        <time>2018-06-21T20:08:59Z</time>
      </trkpt>
      <trkpt lat="44.00121" lon="1.81928">
        <ele>207.4</ele>
        <time>2018-06-21T20:09:00Z</time>
      </trkpt>
      <trkpt lat="44.00124" lon="1.81916">
        <ele>207.7</ele>
        <time>2018-06-21T20:09:01Z</time>
      </trkpt>
      <trkpt lat="44.00127" lon="1.81905">
        <ele>208.1</ele>
        <time>2018-06-21T20:09:02Z</time>
      </trkpt>
      <trkpt lat="44.0013" lon="1.81894">
        <ele>208.4</ele>
        <time>2018-06-21T20:09:03Z</time>
      </trkpt>
      <trkpt lat="44.00132" lon="1.81885">
        <ele>208.7</ele>
        <time>2018-06-21T20:09:04Z</time>
      </trkpt>
      <trkpt lat="44.00135" lon="1.81876">
        <ele>209</ele>
        <time>2018-06-21T20:09:05Z</time>
      </trkpt>
      <trkpt lat="44.00138" lon="1.81868">
        <ele>209.3</ele>
        <time>2018-06-21T20:09:06Z</time>
      </trkpt>
      <trkpt lat="44.00141" lon="1.8186">
        <ele>209.6</ele>
        <time>2018-06-21T20:09:07Z</time>
      </trkpt>
      <trkpt lat="44.00145" lon="1.81854">
        <ele>209.9</ele>
        <time>2018-06-21T20:09:08Z</time>
      </trkpt>
      <trkpt lat="44.00149" lon="1.81846">
        <ele>210.3</ele>
        <time>2018-06-21T20:09:09Z</time>
      </trkpt>
      <trkpt lat="44.00153" lon="1.81841">
        <ele>210.7</ele>
        <time>2018-06-21T20:09:10Z</time>
      </trkpt>
      <trkpt lat="44.00157" lon="1.81834">
        <ele>211.1</ele>
        <time>2018-06-21T20:09:11Z</time>
      </trkpt>
      <trkpt lat="44.0016" lon="1.81829">
        <ele>211.4</ele>
        <time>2018-06-21T20:09:12Z</time>
      </trkpt>
      <trkpt lat="44.00164" lon="1.81823">
        <ele>211.8</ele>
        <time>2018-06-21T20:09:13Z</time>
      </trkpt>
      <trkpt lat="44.00167" lon="1.81818">
        <ele>212.2</ele>
        <time>2018-06-21T20:09:14Z</time>
      </trkpt>
      <trkpt lat="44.0017" lon="1.81813">
        <ele>212.5</ele>
        <time>2018-06-21T20:09:15Z</time>
      </trkpt>
      <trkpt lat="44.00173" lon="1.81809">
        <ele>212.8</ele>
        <time>2018-06-21T20:09:16Z</time>
      </trkpt>
      <trkpt lat="44.00177" lon="1.81805">
        <ele>213.2</ele>
        <time>2018-06-21T20:09:17Z</time>
      </trkpt>
      <trkpt lat="44.0018" lon="1.81801">
        <ele>213.5</ele>
        <time>2018-06-21T20:09:18Z</time>
      </trkpt>
      <trkpt lat="44.00183" lon="1.81796">
        <ele>213.7</ele>
        <time>2018-06-21T20:09:19Z</time>
      </trkpt>
      <trkpt lat="44.00186" lon="1.81792">
        <ele>214</ele>
        <time>2018-06-21T20:09:20Z</time>
      </trkpt>
      <trkpt lat="44.00188" lon="1.81788">
        <ele>214.2</ele>
        <time>2018-06-21T20:09:21Z</time>
      </trkpt>
      <trkpt lat="44.0019" lon="1.81784">
        <ele>214.4</ele>
        <time>2018-06-21T20:09:22Z</time>
      </trkpt>
      <trkpt lat="44.00192" lon="1.8178">
        <ele>214.5</ele>
        <time>2018-06-21T20:09:23Z</time>
      </trkpt>
      <trkpt lat="44.00195" lon="1.81776">
        <ele>214.6</ele>
        <time>2018-06-21T20:09:24Z</time>
      </trkpt>
      <trkpt lat="44.00197" lon="1.81772">
        <ele>214.8</ele>
        <time>2018-06-21T20:09:25Z</time>
      </trkpt>
      <trkpt lat="44.00199" lon="1.81768">
        <ele>214.9</ele>
        <time>2018-06-21T20:09:26Z</time>
      </trkpt>
      <trkpt lat="44.00201" lon="1.81765">
        <ele>215</ele>
        <time>2018-06-21T20:09:27Z</time>
      </trkpt>
      <trkpt lat="44.00204" lon="1.81761">
        <ele>215.2</ele>
        <time>2018-06-21T20:09:28Z</time>
      </trkpt>
      <trkpt lat="44.00206" lon="1.81758">
        <ele>215.4</ele>
        <time>2018-06-21T20:09:29Z</time>
      </trkpt>
      <trkpt lat="44.00208" lon="1.81754">
        <ele>215.5</ele>
        <time>2018-06-21T20:09:30Z</time>
      </trkpt>
      <trkpt lat="44.0021" lon="1.81751">
        <ele>215.6</ele>
        <time>2018-06-21T20:09:31Z</time>
      </trkpt>
      <trkpt lat="44.00212" lon="1.81748">
        <ele>215.7</ele>
        <time>2018-06-21T20:09:32Z</time>
      </trkpt>
      <trkpt lat="44.00215" lon="1.81745">
        <ele>215.9</ele>
        <time>2018-06-21T20:09:33Z</time>
      </trkpt>
      <trkpt lat="44.00217" lon="1.81743">
        <ele>216</ele>
        <time>2018-06-21T20:09:34Z</time>
      </trkpt>
      <trkpt lat="44.00221" lon="1.81738">
        <ele>216.2</ele>
        <time>2018-06-21T20:09:36Z</time>
      </trkpt>
      <trkpt lat="44.00223" lon="1.81736">
        <ele>216.3</ele>
        <time>2018-06-21T20:09:37Z</time>
      </trkpt>
      <trkpt lat="44.00226" lon="1.81734">
        <ele>216.5</ele>
        <time>2018-06-21T20:09:38Z</time>
      </trkpt>
      <trkpt lat="44.00229" lon="1.81732">
        <ele>216.7</ele>
        <time>2018-06-21T20:09:39Z</time>
      </trkpt>
      <trkpt lat="44.00232" lon="1.8173">
        <ele>216.9</ele>
        <time>2018-06-21T20:09:40Z</time>
      </trkpt>
      <trkpt lat="44.00235" lon="1.81728">
        <ele>217.1</ele>
        <time>2018-06-21T20:09:41Z</time>
      </trkpt>
      <trkpt lat="44.00237" lon="1.81726">
        <ele>217.4</ele>
        <time>2018-06-21T20:09:42Z</time>
      </trkpt>
      <trkpt lat="44.0024" lon="1.81724">
        <ele>217.6</ele>
        <time>2018-06-21T20:09:43Z</time>
      </trkpt>
      <trkpt lat="44.00243" lon="1.81722">
        <ele>217.8</ele>
        <time>2018-06-21T20:09:44Z</time>
      </trkpt>
      <trkpt lat="44.00246" lon="1.8172">
        <ele>218</ele>
        <time>2018-06-21T20:09:45Z</time>
      </trkpt>
      <trkpt lat="44.00248" lon="1.81717">
        <ele>218.3</ele>
        <time>2018-06-21T20:09:46Z</time>
      </trkpt>
      <trkpt lat="44.00251" lon="1.81715">
        <ele>218.6</ele>
        <time>2018-06-21T20:09:47Z</time>
      </trkpt>
      <trkpt lat="44.00253" lon="1.81713">
        <ele>218.8</ele>
        <time>2018-06-21T20:09:48Z</time>
      </trkpt>
      <trkpt lat="44.00256" lon="1.81711">
        <ele>219.1</ele>
        <time>2018-06-21T20:09:49Z</time>
      </trkpt>
      <trkpt lat="44.00259" lon="1.81708">
        <ele>219.4</ele>
        <time>2018-06-21T20:09:50Z</time>
      </trkpt>
      <trkpt lat="44.00261" lon="1.81706">
        <ele>219.7</ele>
        <time>2018-06-21T20:09:51Z</time>
      </trkpt>
      <trkpt lat="44.00264" lon="1.81703">
        <ele>220</ele>
        <time>2018-06-21T20:09:52Z</time>
      </trkpt>
      <trkpt lat="44.00267" lon="1.817">
        <ele>220.3</ele>
        <time>2018-06-21T20:09:53Z</time>
      </trkpt>
      <trkpt lat="44.0027" lon="1.81697">
        <ele>220.6</ele>
        <time>2018-06-21T20:09:54Z</time>
      </trkpt>
      <trkpt lat="44.00272" lon="1.81694">
        <ele>220.9</ele>
        <time>2018-06-21T20:09:55Z</time>
      </trkpt>
      <trkpt lat="44.00275" lon="1.81691">
        <ele>221.2</ele>
        <time>2018-06-21T20:09:56Z</time>
      </trkpt>
      <trkpt lat="44.00278" lon="1.81688">
        <ele>221.5</ele>
        <time>2018-06-21T20:09:57Z</time>
      </trkpt>
      <trkpt lat="44.00281" lon="1.81685">
        <ele>221.9</ele>
        <time>2018-06-21T20:09:58Z</time>
      </trkpt>
      <trkpt lat="44.00284" lon="1.81681">
        <ele>222.2</ele>
        <time>2018-06-21T20:09:59Z</time>
      </trkpt>
      <trkpt lat="44.00287" lon="1.81679">
        <ele>222.5</ele>
        <time>2018-06-21T20:10:00Z</time>
      </trkpt>
      <trkpt lat="44.00289" lon="1.81676">
        <ele>222.8</ele>
        <time>2018-06-21T20:10:01Z</time>
      </trkpt>
      <trkpt lat="44.00292" lon="1.81674">
        <ele>223.1</ele>
        <time>2018-06-21T20:10:02Z</time>
      </trkpt>
      <trkpt lat="44.00295" lon="1.81672">
        <ele>223.4</ele>
        <time>2018-06-21T20:10:03Z</time>
      </trkpt>
      <trkpt lat="44.00298" lon="1.8167">
        <ele>223.7</ele>
        <time>2018-06-21T20:10:04Z</time>
      </trkpt>
      <trkpt lat="44.003" lon="1.81668">
        <ele>223.9</ele>
        <time>2018-06-21T20:10:05Z</time>
      </trkpt>
      <trkpt lat="44.00305" lon="1.81665">
        <ele>224.4</ele>
        <time>2018-06-21T20:10:07Z</time>
      </trkpt>
      <trkpt lat="44.0031" lon="1.81663">
        <ele>224.8</ele>
        <time>2018-06-21T20:10:09Z</time>
      </trkpt>
      <trkpt lat="44.00315" lon="1.81662">
        <ele>225.2</ele>
        <time>2018-06-21T20:10:11Z</time>
      </trkpt>
      <trkpt lat="44.00319" lon="1.8166">
        <ele>225.6</ele>
        <time>2018-06-21T20:10:13Z</time>
      </trkpt>
      <trkpt lat="44.00324" lon="1.81659">
        <ele>226</ele>
        <time>2018-06-21T20:10:15Z</time>
      </trkpt>
      <trkpt lat="44.00328" lon="1.81658">
        <ele>226.3</ele>
        <time>2018-06-21T20:10:17Z</time>
      </trkpt>
      <trkpt lat="44.00332" lon="1.81657">
        <ele>226.7</ele>
        <time>2018-06-21T20:10:19Z</time>
      </trkpt>
      <trkpt lat="44.00336" lon="1.81657">
        <ele>227</ele>
        <time>2018-06-21T20:10:21Z</time>
      </trkpt>
      <trkpt lat="44.0034" lon="1.81657">
        <ele>227.3</ele>
        <time>2018-06-21T20:10:23Z</time>
      </trkpt>
      <trkpt lat="44.00344" lon="1.81657">
        <ele>227.6</ele>
        <time>2018-06-21T20:10:25Z</time>
      </trkpt>
      <trkpt lat="44.00348" lon="1.81656">
        <ele>227.9</ele>
        <time>2018-06-21T20:10:27Z</time>
      </trkpt>
      <trkpt lat="44.00352" lon="1.81656">
        <ele>228.2</ele>
        <time>2018-06-21T20:10:29Z</time>
      </trkpt>
      <trkpt lat="44.00356" lon="1.81654">
        <ele>228.6</ele>
        <time>2018-06-21T20:10:31Z</time>
      </trkpt>
      <trkpt lat="44.0036" lon="1.81651">
        <ele>229</ele>
        <time>2018-06-21T20:10:33Z</time>
      </trkpt>
      <trkpt lat="44.00365" lon="1.81648">
        <ele>229.4</ele>
        <time>2018-06-21T20:10:35Z</time>
      </trkpt>
      <trkpt lat="44.00368" lon="1.81644">
        <ele>229.9</ele>
        <time>2018-06-21T20:10:37Z</time>
      </trkpt>
      <trkpt lat="44.00372" lon="1.81639">
        <ele>230.5</ele>
        <time>2018-06-21T20:10:39Z</time>
      </trkpt>
      <trkpt lat="44.00375" lon="1.81635">
        <ele>231</ele>
        <time>2018-06-21T20:10:41Z</time>
      </trkpt>
      <trkpt lat="44.00377" lon="1.81629">
        <ele>231.5</ele>
        <time>2018-06-21T20:10:43Z</time>
      </trkpt>
      <trkpt lat="44.00378" lon="1.81623">
        <ele>232</ele>
        <time>2018-06-21T20:10:45Z</time>
      </trkpt>
      <trkpt lat="44.0038" lon="1.81617">
        <ele>232.5</ele>
        <time>2018-06-21T20:10:47Z</time>
      </trkpt>
      <trkpt lat="44.00381" lon="1.81612">
        <ele>233</ele>
        <time>2018-06-21T20:10:49Z</time>
      </trkpt>
      <trkpt lat="44.00381" lon="1.81606">
        <ele>233.4</ele>
        <time>2018-06-21T20:10:51Z</time>
      </trkpt>
      <trkpt lat="44.00382" lon="1.81601">
        <ele>233.8</ele>
        <time>2018-06-21T20:10:53Z</time>
      </trkpt>
      <trkpt lat="44.00383" lon="1.81597">
        <ele>234.1</ele>
        <time>2018-06-21T20:10:55Z</time>
      </trkpt>
      <trkpt lat="44.00384" lon="1.81592">
        <ele>234.4</ele>
        <time>2018-06-21T20:10:57Z</time>
      </trkpt>
      <trkpt lat="44.00385" lon="1.81587">
        <ele>234.7</ele>
        <time>2018-06-21T20:10:59Z</time>
      </trkpt>
      <trkpt lat="44.00386" lon="1.81581">
        <ele>235.1</ele>
        <time>2018-06-21T20:11:01Z</time>
      </trkpt>
      <trkpt lat="44.00387" lon="1.81576">
        <ele>235.4</ele>
        <time>2018-06-21T20:11:03Z</time>
      </trkpt>
      <trkpt lat="44.00387" lon="1.8157">
        <ele>235.7</ele>
        <time>2018-06-21T20:11:05Z</time>
      </trkpt>
      <trkpt lat="44.00388" lon="1.81562">
        <ele>236.1</ele>
        <time>2018-06-21T20:11:07Z</time>
      </trkpt>
      <trkpt lat="44.00389" lon="1.81559">
        <ele>236.3</ele>
        <time>2018-06-21T20:11:08Z</time>
      </trkpt>
      <trkpt lat="44.00389" lon="1.81555">
        <ele>236.5</ele>
        <time>2018-06-21T20:11:09Z</time>
      </trkpt>
      <trkpt lat="44.00389" lon="1.81548">
        <ele>236.8</ele>
        <time>2018-06-21T20:11:11Z</time>
      </trkpt>
      <trkpt lat="44.0039" lon="1.81541">
        <ele>237.2</ele>
        <time>2018-06-21T20:11:13Z</time>
      </trkpt>
      <trkpt lat="44.00389" lon="1.81535">
        <ele>237.5</ele>
        <time>2018-06-21T20:11:15Z</time>
      </trkpt>
      <trkpt lat="44.00389" lon="1.81528">
        <ele>237.8</ele>
        <time>2018-06-21T20:11:17Z</time>
      </trkpt>
      <trkpt lat="44.00389" lon="1.8152">
        <ele>238.1</ele>
        <time>2018-06-21T20:11:19Z</time>
      </trkpt>
      <trkpt lat="44.00389" lon="1.81514">
        <ele>238.4</ele>
        <time>2018-06-21T20:11:21Z</time>
      </trkpt>
      <trkpt lat="44.00388" lon="1.81508">
        <ele>238.7</ele>
        <time>2018-06-21T20:11:23Z</time>
      </trkpt>
      <trkpt lat="44.00387" lon="1.81501">
        <ele>239.1</ele>
        <time>2018-06-21T20:11:25Z</time>
      </trkpt>
      <trkpt lat="44.00385" lon="1.81494">
        <ele>239.4</ele>
        <time>2018-06-21T20:11:27Z</time>
      </trkpt>
      <trkpt lat="44.00384" lon="1.81488">
        <ele>239.7</ele>
        <time>2018-06-21T20:11:29Z</time>
      </trkpt>
      <trkpt lat="44.00384" lon="1.81482">
        <ele>240</ele>
        <time>2018-06-21T20:11:31Z</time>
      </trkpt>
      <trkpt lat="44.00383" lon="1.81475">
        <ele>240.3</ele>
        <time>2018-06-21T20:11:33Z</time>
      </trkpt>
      <trkpt lat="44.00383" lon="1.81469">
        <ele>240.6</ele>
        <time>2018-06-21T20:11:35Z</time>
      </trkpt>
      <trkpt lat="44.00382" lon="1.81463">
        <ele>240.8</ele>
        <time>2018-06-21T20:11:37Z</time>
      </trkpt>
      <trkpt lat="44.00383" lon="1.81457">
        <ele>241.1</ele>
        <time>2018-06-21T20:11:39Z</time>
      </trkpt>
      <trkpt lat="44.00383" lon="1.81451">
        <ele>241.3</ele>
        <time>2018-06-21T20:11:41Z</time>
      </trkpt>
      <trkpt lat="44.00383" lon="1.81444">
        <ele>241.5</ele>
        <time>2018-06-21T20:11:43Z</time>
      </trkpt>
      <trkpt lat="44.00384" lon="1.81438">
        <ele>241.7</ele>
        <time>2018-06-21T20:11:45Z</time>
      </trkpt>
      <trkpt lat="44.00384" lon="1.81431">
        <ele>241.8</ele>
        <time>2018-06-21T20:11:47Z</time>
      </trkpt>
      <trkpt lat="44.00384" lon="1.81425">
        <ele>242</ele>
        <time>2018-06-21T20:11:49Z</time>
      </trkpt>
      <trkpt lat="44.00383" lon="1.8142">
        <ele>242.1</ele>
        <time>2018-06-21T20:11:51Z</time>
      </trkpt>
      <trkpt lat="44.00381" lon="1.81417">
        <ele>242.8</ele>
        <time>2018-06-21T20:11:53Z</time>
      </trkpt>
      <trkpt lat="44.00377" lon="1.81412">
        <ele>243.6</ele>
        <time>2018-06-21T20:11:55Z</time>
      </trkpt>
      <trkpt lat="44.00374" lon="1.81408">
        <ele>244.5</ele>
        <time>2018-06-21T20:11:57Z</time>
      </trkpt>
      <trkpt lat="44.0037" lon="1.81403">
        <ele>245.3</ele>
        <time>2018-06-21T20:11:59Z</time>
      </trkpt>
      <trkpt lat="44.00366" lon="1.81399">
        <ele>246.2</ele>
        <time>2018-06-21T20:12:01Z</time>
      </trkpt>
      <trkpt lat="44.00362" lon="1.81395">
        <ele>247</ele>
        <time>2018-06-21T20:12:03Z</time>
      </trkpt>
      <trkpt lat="44.0036" lon="1.81391">
        <ele>247.6</ele>
        <time>2018-06-21T20:12:05Z</time>
      </trkpt>
      <trkpt lat="44.00358" lon="1.81386">
        <ele>248.3</ele>
        <time>2018-06-21T20:12:07Z</time>
      </trkpt>
      <trkpt lat="44.00356" lon="1.81382">
        <ele>248.9</ele>
        <time>2018-06-21T20:12:09Z</time>
      </trkpt>
      <trkpt lat="44.00354" lon="1.81378">
        <ele>249.4</ele>
        <time>2018-06-21T20:12:11Z</time>
      </trkpt>
      <trkpt lat="44.00353" lon="1.81374">
        <ele>249.9</ele>
        <time>2018-06-21T20:12:13Z</time>
      </trkpt>
      <trkpt lat="44.00351" lon="1.8137">
        <ele>250.5</ele>
        <time>2018-06-21T20:12:15Z</time>
      </trkpt>
      <trkpt lat="44.00349" lon="1.81365">
        <ele>251.1</ele>
        <time>2018-06-21T20:12:18Z</time>
      </trkpt>
      <trkpt lat="44.00347" lon="1.81362">
        <ele>251.6</ele>
        <time>2018-06-21T20:12:20Z</time>
      </trkpt>
      <trkpt lat="44.00345" lon="1.81359">
        <ele>252</ele>
        <time>2018-06-21T20:12:22Z</time>
      </trkpt>
      <trkpt lat="44.00343" lon="1.81355">
        <ele>252.6</ele>
        <time>2018-06-21T20:12:25Z</time>
      </trkpt>
      <trkpt lat="44.00341" lon="1.81353">
        <ele>253.1</ele>
        <time>2018-06-21T20:12:27Z</time>
      </trkpt>
      <trkpt lat="44.00337" lon="1.81349">
        <ele>253.7</ele>
        <time>2018-06-21T20:12:29Z</time>
      </trkpt>
      <trkpt lat="44.00334" lon="1.81346">
        <ele>254.3</ele>
        <time>2018-06-21T20:12:31Z</time>
      </trkpt>
      <trkpt lat="44.00331" lon="1.81343">
        <ele>254.9</ele>
        <time>2018-06-21T20:12:33Z</time>
      </trkpt>
      <trkpt lat="44.00328" lon="1.81341">
        <ele>255.3</ele>
        <time>2018-06-21T20:12:35Z</time>
      </trkpt>
      <trkpt lat="44.00326" lon="1.81339">
        <ele>255.7</ele>
        <time>2018-06-21T20:12:37Z</time>
      </trkpt>
      <trkpt lat="44.00322" lon="1.81336">
        <ele>256.3</ele>
        <time>2018-06-21T20:12:39Z</time>
      </trkpt>
      <trkpt lat="44.00319" lon="1.81333">
        <ele>256.9</ele>
        <time>2018-06-21T20:12:41Z</time>
      </trkpt>
      <trkpt lat="44.00315" lon="1.8133">
        <ele>257.4</ele>
        <time>2018-06-21T20:12:43Z</time>
      </trkpt>
      <trkpt lat="44.00312" lon="1.81326">
        <ele>257.9</ele>
        <time>2018-06-21T20:12:45Z</time>
      </trkpt>
      <trkpt lat="44.00308" lon="1.81324">
        <ele>258.5</ele>
        <time>2018-06-21T20:12:47Z</time>
      </trkpt>
      <trkpt lat="44.00305" lon="1.81322">
        <ele>258.9</ele>
        <time>2018-06-21T20:12:49Z</time>
      </trkpt>
      <trkpt lat="44.00301" lon="1.81322">
        <ele>258.6</ele>
        <time>2018-06-21T20:12:51Z</time>
      </trkpt>
      <trkpt lat="44.00297" lon="1.81322">
        <ele>258.4</ele>
        <time>2018-06-21T20:12:53Z</time>
      </trkpt>
      <trkpt lat="44.00292" lon="1.81323">
        <ele>258.1</ele>
        <time>2018-06-21T20:12:55Z</time>
      </trkpt>
      <trkpt lat="44.00287" lon="1.81323">
        <ele>257.8</ele>
        <time>2018-06-21T20:12:57Z</time>
      </trkpt>
      <trkpt lat="44.00284" lon="1.81324">
        <ele>257.6</ele>
        <time>2018-06-21T20:12:58Z</time>
      </trkpt>
      <trkpt lat="44.0028" lon="1.81325">
        <ele>257.4</ele>
        <time>2018-06-21T20:12:59Z</time>
      </trkpt>
      <trkpt lat="44.00277" lon="1.81326">
        <ele>257.1</ele>
        <time>2018-06-21T20:13:00Z</time>
      </trkpt>
      <trkpt lat="44.00273" lon="1.81327">
        <ele>256.6</ele>
        <time>2018-06-21T20:13:01Z</time>
      </trkpt>
      <trkpt lat="44.0027" lon="1.81328">
        <ele>256.1</ele>
        <time>2018-06-21T20:13:02Z</time>
      </trkpt>
      <trkpt lat="44.00266" lon="1.81329">
        <ele>255.5</ele>
        <time>2018-06-21T20:13:03Z</time>
      </trkpt>
      <trkpt lat="44.00263" lon="1.8133">
        <ele>254.9</ele>
        <time>2018-06-21T20:13:04Z</time>
      </trkpt>
      <trkpt lat="44.00259" lon="1.81331">
        <ele>254.3</ele>
        <time>2018-06-21T20:13:05Z</time>
      </trkpt>
      <trkpt lat="44.00255" lon="1.81332">
        <ele>253.7</ele>
        <time>2018-06-21T20:13:06Z</time>
      </trkpt>
      <trkpt lat="44.00251" lon="1.81333">
        <ele>252.8</ele>
        <time>2018-06-21T20:13:07Z</time>
      </trkpt>
      <trkpt lat="44.00246" lon="1.81335">
        <ele>252.1</ele>
        <time>2018-06-21T20:13:08Z</time>
      </trkpt>
      <trkpt lat="44.00241" lon="1.81336">
        <ele>251.6</ele>
        <time>2018-06-21T20:13:09Z</time>
      </trkpt>
      <trkpt lat="44.00235" lon="1.81338">
        <ele>251</ele>
        <time>2018-06-21T20:13:10Z</time>
      </trkpt>
      <trkpt lat="44.0023" lon="1.81342">
        <ele>250.4</ele>
        <time>2018-06-21T20:13:11Z</time>
      </trkpt>
      <trkpt lat="44.00225" lon="1.81346">
        <ele>249.9</ele>
        <time>2018-06-21T20:13:12Z</time>
      </trkpt>
      <trkpt lat="44.0022" lon="1.81352">
        <ele>249.7</ele>
        <time>2018-06-21T20:13:13Z</time>
      </trkpt>
      <trkpt lat="44.00215" lon="1.81359">
        <ele>249.6</ele>
        <time>2018-06-21T20:13:14Z</time>
      </trkpt>
      <trkpt lat="44.0021" lon="1.81367">
        <ele>249.4</ele>
        <time>2018-06-21T20:13:15Z</time>
      </trkpt>
      <trkpt lat="44.00205" lon="1.81374">
        <ele>249</ele>
        <time>2018-06-21T20:13:16Z</time>
      </trkpt>
      <trkpt lat="44.00201" lon="1.81383">
        <ele>248.7</ele>
        <time>2018-06-21T20:13:17Z</time>
      </trkpt>
      <trkpt lat="44.00197" lon="1.81391">
        <ele>248.2</ele>
        <time>2018-06-21T20:13:18Z</time>
      </trkpt>
      <trkpt lat="44.00193" lon="1.81399">
        <ele>247.7</ele>
        <time>2018-06-21T20:13:19Z</time>
      </trkpt>
      <trkpt lat="44.00189" lon="1.81407">
        <ele>247</ele>
        <time>2018-06-21T20:13:20Z</time>
      </trkpt>
      <trkpt lat="44.00186" lon="1.81415">
        <ele>246.4</ele>
        <time>2018-06-21T20:13:21Z</time>
      </trkpt>
      <trkpt lat="44.00182" lon="1.81422">
        <ele>245.7</ele>
        <time>2018-06-21T20:13:22Z</time>
      </trkpt>
      <trkpt lat="44.00178" lon="1.8143">
        <ele>245</ele>
        <time>2018-06-21T20:13:23Z</time>
      </trkpt>
      <trkpt lat="44.00174" lon="1.81438">
        <ele>244.2</ele>
        <time>2018-06-21T20:13:24Z</time>
      </trkpt>
      <trkpt lat="44.0017" lon="1.81446">
        <ele>243.7</ele>
        <time>2018-06-21T20:13:25Z</time>
      </trkpt>
      <trkpt lat="44.00166" lon="1.81454">
        <ele>243.2</ele>
        <time>2018-06-21T20:13:26Z</time>
      </trkpt>
      <trkpt lat="44.00162" lon="1.81462">
        <ele>243</ele>
        <time>2018-06-21T20:13:27Z</time>
      </trkpt>
      <trkpt lat="44.00157" lon="1.8147">
        <ele>242.8</ele>
        <time>2018-06-21T20:13:28Z</time>
      </trkpt>
      <trkpt lat="44.00152" lon="1.81477">
        <ele>242.6</ele>
        <time>2018-06-21T20:13:29Z</time>
      </trkpt>
      <trkpt lat="44.00149" lon="1.81486">
        <ele>242.3</ele>
        <time>2018-06-21T20:13:30Z</time>
      </trkpt>
      <trkpt lat="44.00144" lon="1.81492">
        <ele>241.9</ele>
        <time>2018-06-21T20:13:31Z</time>
      </trkpt>
      <trkpt lat="44.00138" lon="1.81499">
        <ele>241.5</ele>
        <time>2018-06-21T20:13:32Z</time>
      </trkpt>
      <trkpt lat="44.00133" lon="1.81506">
        <ele>241.1</ele>
        <time>2018-06-21T20:13:33Z</time>
      </trkpt>
      <trkpt lat="44.00127" lon="1.81512">
        <ele>240.8</ele>
        <time>2018-06-21T20:13:34Z</time>
      </trkpt>
      <trkpt lat="44.00121" lon="1.81518">
        <ele>240.5</ele>
        <time>2018-06-21T20:13:35Z</time>
      </trkpt>
      <trkpt lat="44.00115" lon="1.81522">
        <ele>240.2</ele>
        <time>2018-06-21T20:13:36Z</time>
      </trkpt>
      <trkpt lat="44.00108" lon="1.81527">
        <ele>239.8</ele>
        <time>2018-06-21T20:13:37Z</time>
      </trkpt>
      <trkpt lat="44.00102" lon="1.81532">
        <ele>239.6</ele>
        <time>2018-06-21T20:13:38Z</time>
      </trkpt>
      <trkpt lat="44.00096" lon="1.81537">
        <ele>239.4</ele>
        <time>2018-06-21T20:13:39Z</time>
      </trkpt>
      <trkpt lat="44.0009" lon="1.81542">
        <ele>239.2</ele>
        <time>2018-06-21T20:13:40Z</time>
      </trkpt>
      <trkpt lat="44.00085" lon="1.81547">
        <ele>239.1</ele>
        <time>2018-06-21T20:13:41Z</time>
      </trkpt>
      <trkpt lat="44.00079" lon="1.81552">
        <ele>239</ele>
        <time>2018-06-21T20:13:42Z</time>
      </trkpt>
      <trkpt lat="44.00073" lon="1.81555">
        <ele>239</ele>
        <time>2018-06-21T20:13:43Z</time>
      </trkpt>
      <trkpt lat="44.00068" lon="1.81559">
        <ele>239.1</ele>
        <time>2018-06-21T20:13:44Z</time>
      </trkpt>
      <trkpt lat="44.00062" lon="1.81561">
        <ele>239.1</ele>
        <time>2018-06-21T20:13:45Z</time>
      </trkpt>
      <trkpt lat="44.00056" lon="1.81564">
        <ele>239.1</ele>
        <time>2018-06-21T20:13:46Z</time>
      </trkpt>
      <trkpt lat="44.0005" lon="1.81566">
        <ele>239.2</ele>
        <time>2018-06-21T20:13:47Z</time>
      </trkpt>
      <trkpt lat="44.00045" lon="1.81567">
        <ele>239.2</ele>
        <time>2018-06-21T20:13:48Z</time>
      </trkpt>
      <trkpt lat="44.0004" lon="1.81569">
        <ele>239.3</ele>
        <time>2018-06-21T20:13:49Z</time>
      </trkpt>
      <trkpt lat="44.00035" lon="1.8157">
        <ele>239.2</ele>
        <time>2018-06-21T20:13:50Z</time>
      </trkpt>
      <trkpt lat="44.0003" lon="1.81572">
        <ele>239.1</ele>
        <time>2018-06-21T20:13:51Z</time>
      </trkpt>
      <trkpt lat="44.00026" lon="1.81573">
        <ele>239</ele>
        <time>2018-06-21T20:13:52Z</time>
      </trkpt>
      <trkpt lat="44.00022" lon="1.81574">
        <ele>238.9</ele>
        <time>2018-06-21T20:13:53Z</time>
      </trkpt>
      <trkpt lat="44.00018" lon="1.81576">
        <ele>238.9</ele>
        <time>2018-06-21T20:13:54Z</time>
      </trkpt>
      <trkpt lat="44.00014" lon="1.81577">
        <ele>238.9</ele>
        <time>2018-06-21T20:13:55Z</time>
      </trkpt>
      <trkpt lat="44.00011" lon="1.81579">
        <ele>238.8</ele>
        <time>2018-06-21T20:13:56Z</time>
      </trkpt>
      <trkpt lat="44.00008" lon="1.8158">
        <ele>238.7</ele>
        <time>2018-06-21T20:13:57Z</time>
      </trkpt>
      <trkpt lat="44.00004" lon="1.81581">
        <ele>238.6</ele>
        <time>2018-06-21T20:13:58Z</time>
      </trkpt>
      <trkpt lat="44" lon="1.81583">
        <ele>238.2</ele>
        <time>2018-06-21T20:13:59Z</time>
      </trkpt>
      <trkpt lat="43.99996" lon="1.81585">
        <ele>237.8</ele>
        <time>2018-06-21T20:14:00Z</time>
      </trkpt>
      <trkpt lat="43.99992" lon="1.81587">
        <ele>237.5</ele>
        <time>2018-06-21T20:14:01Z</time>
      </trkpt>
      <trkpt lat="43.99987" lon="1.81591">
        <ele>237.4</ele>
        <time>2018-06-21T20:14:02Z</time>
      </trkpt>
      <trkpt lat="43.99983" lon="1.81596">
        <ele>237.3</ele>
        <time>2018-06-21T20:14:03Z</time>
      </trkpt>
      <trkpt lat="43.99979" lon="1.81603">
        <ele>237.5</ele>
        <time>2018-06-21T20:14:04Z</time>
      </trkpt>
      <trkpt lat="43.99976" lon="1.8161">
        <ele>237.4</ele>
        <time>2018-06-21T20:14:05Z</time>
      </trkpt>
      <trkpt lat="43.99972" lon="1.81618">
        <ele>237</ele>
        <time>2018-06-21T20:14:06Z</time>
      </trkpt>
      <trkpt lat="43.99969" lon="1.81626">
        <ele>236.9</ele>
        <time>2018-06-21T20:14:07Z</time>
      </trkpt>
      <trkpt lat="43.99965" lon="1.81635">
        <ele>236.9</ele>
        <time>2018-06-21T20:14:08Z</time>
      </trkpt>
      <trkpt lat="43.99961" lon="1.81644">
        <ele>236.4</ele>
        <time>2018-06-21T20:14:09Z</time>
      </trkpt>
      <trkpt lat="43.99956" lon="1.81653">
        <ele>236.3</ele>
        <time>2018-06-21T20:14:10Z</time>
      </trkpt>
      <trkpt lat="43.9995" lon="1.81664">
        <ele>235.4</ele>
        <time>2018-06-21T20:14:11Z</time>
      </trkpt>
      <trkpt lat="43.99942" lon="1.81675">
        <ele>234.9</ele>
        <time>2018-06-21T20:14:12Z</time>
      </trkpt>
      <trkpt lat="43.99935" lon="1.81685">
        <ele>234.7</ele>
        <time>2018-06-21T20:14:13Z</time>
      </trkpt>
      <trkpt lat="43.99927" lon="1.81694">
        <ele>234.6</ele>
        <time>2018-06-21T20:14:14Z</time>
      </trkpt>
      <trkpt lat="43.99918" lon="1.81703">
        <ele>234.8</ele>
        <time>2018-06-21T20:14:15Z</time>
      </trkpt>
      <trkpt lat="43.9991" lon="1.81714">
        <ele>235.1</ele>
        <time>2018-06-21T20:14:16Z</time>
      </trkpt>
      <trkpt lat="43.99902" lon="1.81724">
        <ele>235.1</ele>
        <time>2018-06-21T20:14:17Z</time>
      </trkpt>
      <trkpt lat="43.99893" lon="1.81734">
        <ele>235</ele>
        <time>2018-06-21T20:14:18Z</time>
      </trkpt>
      <trkpt lat="43.99885" lon="1.81744">
        <ele>234.9</ele>
        <time>2018-06-21T20:14:19Z</time>
      </trkpt>
      <trkpt lat="43.99876" lon="1.81752">
        <ele>234.8</ele>
        <time>2018-06-21T20:14:20Z</time>
      </trkpt>
      <trkpt lat="43.99867" lon="1.81759">
        <ele>234.6</ele>
        <time>2018-06-21T20:14:21Z</time>
      </trkpt>
      <trkpt lat="43.99858" lon="1.81766">
        <ele>234.5</ele>
        <time>2018-06-21T20:14:22Z</time>
      </trkpt>
      <trkpt lat="43.99849" lon="1.81772">
        <ele>234.2</ele>
        <time>2018-06-21T20:14:23Z</time>
      </trkpt>
      <trkpt lat="43.9984" lon="1.81778">
        <ele>233.9</ele>
        <time>2018-06-21T20:14:24Z</time>
      </trkpt>
      <trkpt lat="43.99831" lon="1.81784">
        <ele>233.7</ele>
        <time>2018-06-21T20:14:25Z</time>
      </trkpt>
      <trkpt lat="43.99823" lon="1.81791">
        <ele>233.5</ele>
        <time>2018-06-21T20:14:26Z</time>
      </trkpt>
      <trkpt lat="43.99814" lon="1.81798">
        <ele>233.2</ele>
        <time>2018-06-21T20:14:27Z</time>
      </trkpt>
      <trkpt lat="43.99804" lon="1.81805">
        <ele>233</ele>
        <time>2018-06-21T20:14:28Z</time>
      </trkpt>
      <trkpt lat="43.99794" lon="1.81813">
        <ele>232.7</ele>
        <time>2018-06-21T20:14:29Z</time>
      </trkpt>
      <trkpt lat="43.99784" lon="1.81818">
        <ele>232.2</ele>
        <time>2018-06-21T20:14:30Z</time>
      </trkpt>
      <trkpt lat="43.99774" lon="1.81824">
        <ele>231.8</ele>
        <time>2018-06-21T20:14:31Z</time>
      </trkpt>
      <trkpt lat="43.99763" lon="1.8183">
        <ele>231.2</ele>
        <time>2018-06-21T20:14:32Z</time>
      </trkpt>
      <trkpt lat="43.99753" lon="1.81837">
        <ele>230.5</ele>
        <time>2018-06-21T20:14:33Z</time>
      </trkpt>
      <trkpt lat="43.99743" lon="1.81844">
        <ele>229.6</ele>
        <time>2018-06-21T20:14:34Z</time>
      </trkpt>
      <trkpt lat="43.99733" lon="1.81849">
        <ele>228.9</ele>
        <time>2018-06-21T20:14:35Z</time>
      </trkpt>
      <trkpt lat="43.99722" lon="1.81854">
        <ele>228.2</ele>
        <time>2018-06-21T20:14:36Z</time>
      </trkpt>
      <trkpt lat="43.99712" lon="1.81858">
        <ele>227.5</ele>
        <time>2018-06-21T20:14:37Z</time>
      </trkpt>
      <trkpt lat="43.99701" lon="1.81861">
        <ele>226.9</ele>
        <time>2018-06-21T20:14:38Z</time>
      </trkpt>
      <trkpt lat="43.99691" lon="1.81861">
        <ele>226.5</ele>
        <time>2018-06-21T20:14:39Z</time>
      </trkpt>
      <trkpt lat="43.99681" lon="1.8186">
        <ele>226.1</ele>
        <time>2018-06-21T20:14:40Z</time>
      </trkpt>
      <trkpt lat="43.99671" lon="1.81857">
        <ele>225.6</ele>
        <time>2018-06-21T20:14:41Z</time>
      </trkpt>
      <trkpt lat="43.99662" lon="1.81854">
        <ele>225.3</ele>
        <time>2018-06-21T20:14:42Z</time>
      </trkpt>
      <trkpt lat="43.99653" lon="1.81851">
        <ele>225</ele>
        <time>2018-06-21T20:14:43Z</time>
      </trkpt>
      <trkpt lat="43.99645" lon="1.81848">
        <ele>224.8</ele>
        <time>2018-06-21T20:14:44Z</time>
      </trkpt>
      <trkpt lat="43.99637" lon="1.81846">
        <ele>224.7</ele>
        <time>2018-06-21T20:14:45Z</time>
      </trkpt>
      <trkpt lat="43.99629" lon="1.81845">
        <ele>224.7</ele>
        <time>2018-06-21T20:14:46Z</time>
      </trkpt>
      <trkpt lat="43.99622" lon="1.81845">
        <ele>224.9</ele>
        <time>2018-06-21T20:14:47Z</time>
      </trkpt>
      <trkpt lat="43.99615" lon="1.81845">
        <ele>225.1</ele>
        <time>2018-06-21T20:14:48Z</time>
      </trkpt>
      <trkpt lat="43.99608" lon="1.81845">
        <ele>225.3</ele>
        <time>2018-06-21T20:14:49Z</time>
      </trkpt>
      <trkpt lat="43.99602" lon="1.81845">
        <ele>225.5</ele>
        <time>2018-06-21T20:14:50Z</time>
      </trkpt>
      <trkpt lat="43.99596" lon="1.81846">
        <ele>225.7</ele>
        <time>2018-06-21T20:14:51Z</time>
      </trkpt>
      <trkpt lat="43.9959" lon="1.81847">
        <ele>226</ele>
        <time>2018-06-21T20:14:52Z</time>
      </trkpt>
      <trkpt lat="43.99585" lon="1.81848">
        <ele>226.2</ele>
        <time>2018-06-21T20:14:53Z</time>
      </trkpt>
      <trkpt lat="43.9958" lon="1.81849">
        <ele>226.4</ele>
        <time>2018-06-21T20:14:54Z</time>
      </trkpt>
      <trkpt lat="43.99575" lon="1.8185">
        <ele>226.6</ele>
        <time>2018-06-21T20:14:55Z</time>
      </trkpt>
      <trkpt lat="43.9957" lon="1.8185">
        <ele>226.7</ele>
        <time>2018-06-21T20:14:56Z</time>
      </trkpt>
      <trkpt lat="43.99565" lon="1.81851">
        <ele>226.8</ele>
        <time>2018-06-21T20:14:57Z</time>
      </trkpt>
      <trkpt lat="43.9956" lon="1.81852">
        <ele>226.8</ele>
        <time>2018-06-21T20:14:58Z</time>
      </trkpt>
      <trkpt lat="43.99555" lon="1.81853">
        <ele>226.9</ele>
        <time>2018-06-21T20:14:59Z</time>
      </trkpt>
      <trkpt lat="43.9955" lon="1.81854">
        <ele>226.9</ele>
        <time>2018-06-21T20:15:00Z</time>
      </trkpt>
      <trkpt lat="43.99545" lon="1.81854">
        <ele>226.8</ele>
        <time>2018-06-21T20:15:01Z</time>
      </trkpt>
      <trkpt lat="43.9954" lon="1.81855">
        <ele>226.6</ele>
        <time>2018-06-21T20:15:02Z</time>
      </trkpt>
      <trkpt lat="43.99534" lon="1.81857">
        <ele>226.4</ele>
        <time>2018-06-21T20:15:03Z</time>
      </trkpt>
      <trkpt lat="43.99527" lon="1.81859">
        <ele>226.1</ele>
        <time>2018-06-21T20:15:04Z</time>
      </trkpt>
      <trkpt lat="43.9952" lon="1.81861">
        <ele>225.9</ele>
        <time>2018-06-21T20:15:05Z</time>
      </trkpt>
      <trkpt lat="43.99513" lon="1.81865">
        <ele>225.6</ele>
        <time>2018-06-21T20:15:06Z</time>
      </trkpt>
      <trkpt lat="43.99506" lon="1.81869">
        <ele>225.3</ele>
        <time>2018-06-21T20:15:07Z</time>
      </trkpt>
      <trkpt lat="43.99498" lon="1.81874">
        <ele>225.1</ele>
        <time>2018-06-21T20:15:08Z</time>
      </trkpt>
      <trkpt lat="43.99491" lon="1.8188">
        <ele>224.7</ele>
        <time>2018-06-21T20:15:09Z</time>
      </trkpt>
      <trkpt lat="43.99484" lon="1.81887">
        <ele>224.5</ele>
        <time>2018-06-21T20:15:10Z</time>
      </trkpt>
      <trkpt lat="43.99479" lon="1.81896">
        <ele>224.3</ele>
        <time>2018-06-21T20:15:11Z</time>
      </trkpt>
      <trkpt lat="43.99475" lon="1.81906">
        <ele>224.3</ele>
        <time>2018-06-21T20:15:12Z</time>
      </trkpt>
      <trkpt lat="43.99473" lon="1.81916">
        <ele>224.4</ele>
        <time>2018-06-21T20:15:13Z</time>
      </trkpt>
      <trkpt lat="43.99473" lon="1.81927">
        <ele>224.4</ele>
        <time>2018-06-21T20:15:14Z</time>
      </trkpt>
      <trkpt lat="43.99474" lon="1.81938">
        <ele>224.4</ele>
        <time>2018-06-21T20:15:15Z</time>
      </trkpt>
      <trkpt lat="43.99475" lon="1.81948">
        <ele>224.4</ele>
        <time>2018-06-21T20:15:16Z</time>
      </trkpt>
      <trkpt lat="43.99475" lon="1.81958">
        <ele>224.3</ele>
        <time>2018-06-21T20:15:17Z</time>
      </trkpt>
      <trkpt lat="43.99475" lon="1.81968">
        <ele>224.2</ele>
        <time>2018-06-21T20:15:18Z</time>
      </trkpt>
      <trkpt lat="43.99473" lon="1.81976">
        <ele>224.1</ele>
        <time>2018-06-21T20:15:19Z</time>
      </trkpt>
      <trkpt lat="43.9947" lon="1.81984">
        <ele>223.9</ele>
        <time>2018-06-21T20:15:20Z</time>
      </trkpt>
      <trkpt lat="43.99465" lon="1.8199">
        <ele>223.6</ele>
        <time>2018-06-21T20:15:21Z</time>
      </trkpt>
      <trkpt lat="43.99459" lon="1.81994">
        <ele>223.4</ele>
        <time>2018-06-21T20:15:22Z</time>
      </trkpt>
      <trkpt lat="43.99453" lon="1.81998">
        <ele>223.1</ele>
        <time>2018-06-21T20:15:23Z</time>
      </trkpt>
      <trkpt lat="43.99447" lon="1.82002">
        <ele>222.9</ele>
        <time>2018-06-21T20:15:24Z</time>
      </trkpt>
      <trkpt lat="43.99441" lon="1.82007">
        <ele>222.6</ele>
        <time>2018-06-21T20:15:25Z</time>
      </trkpt>
      <trkpt lat="43.99435" lon="1.82011">
        <ele>222.3</ele>
        <time>2018-06-21T20:15:26Z</time>
      </trkpt>
      <trkpt lat="43.99429" lon="1.82015">
        <ele>222</ele>
        <time>2018-06-21T20:15:27Z</time>
      </trkpt>
      <trkpt lat="43.99423" lon="1.82019">
        <ele>221.8</ele>
        <time>2018-06-21T20:15:28Z</time>
      </trkpt>
      <trkpt lat="43.99417" lon="1.82024">
        <ele>221.5</ele>
        <time>2018-06-21T20:15:29Z</time>
      </trkpt>
      <trkpt lat="43.99411" lon="1.82028">
        <ele>221.3</ele>
        <time>2018-06-21T20:15:30Z</time>
      </trkpt>
      <trkpt lat="43.99405" lon="1.82032">
        <ele>221.2</ele>
        <time>2018-06-21T20:15:31Z</time>
      </trkpt>
      <trkpt lat="43.994" lon="1.82035">
        <ele>221.1</ele>
        <time>2018-06-21T20:15:32Z</time>
      </trkpt>
      <trkpt lat="43.99394" lon="1.82039">
        <ele>220.9</ele>
        <time>2018-06-21T20:15:33Z</time>
      </trkpt>
      <trkpt lat="43.99389" lon="1.82043">
        <ele>220.7</ele>
        <time>2018-06-21T20:15:34Z</time>
      </trkpt>
      <trkpt lat="43.99384" lon="1.82046">
        <ele>220.6</ele>
        <time>2018-06-21T20:15:35Z</time>
      </trkpt>
      <trkpt lat="43.99379" lon="1.82049">
        <ele>220.4</ele>
        <time>2018-06-21T20:15:36Z</time>
      </trkpt>
      <trkpt lat="43.99374" lon="1.82053">
        <ele>220.2</ele>
        <time>2018-06-21T20:15:37Z</time>
      </trkpt>
      <trkpt lat="43.99369" lon="1.82057">
        <ele>220.2</ele>
        <time>2018-06-21T20:15:38Z</time>
      </trkpt>
      <trkpt lat="43.99364" lon="1.82062">
        <ele>219.9</ele>
        <time>2018-06-21T20:15:39Z</time>
      </trkpt>
      <trkpt lat="43.99359" lon="1.82066">
        <ele>219.8</ele>
        <time>2018-06-21T20:15:40Z</time>
      </trkpt>
      <trkpt lat="43.99354" lon="1.82071">
        <ele>219.6</ele>
        <time>2018-06-21T20:15:41Z</time>
      </trkpt>
      <trkpt lat="43.99349" lon="1.82076">
        <ele>219.3</ele>
        <time>2018-06-21T20:15:42Z</time>
      </trkpt>
      <trkpt lat="43.99345" lon="1.82079">
        <ele>219.2</ele>
        <time>2018-06-21T20:15:43Z</time>
      </trkpt>
      <trkpt lat="43.99341" lon="1.82082">
        <ele>219.1</ele>
        <time>2018-06-21T20:15:44Z</time>
      </trkpt>
      <trkpt lat="43.99337" lon="1.82085">
        <ele>218.8</ele>
        <time>2018-06-21T20:15:45Z</time>
      </trkpt>
      <trkpt lat="43.99333" lon="1.82088">
        <ele>218.6</ele>
        <time>2018-06-21T20:15:46Z</time>
      </trkpt>
      <trkpt lat="43.99329" lon="1.82091">
        <ele>218.5</ele>
        <time>2018-06-21T20:15:47Z</time>
      </trkpt>
      <trkpt lat="43.99324" lon="1.82094">
        <ele>218.1</ele>
        <time>2018-06-21T20:15:48Z</time>
      </trkpt>
      <trkpt lat="43.9932" lon="1.82098">
        <ele>218</ele>
        <time>2018-06-21T20:15:49Z</time>
      </trkpt>
      <trkpt lat="43.99315" lon="1.82103">
        <ele>217.7</ele>
        <time>2018-06-21T20:15:50Z</time>
      </trkpt>
      <trkpt lat="43.9931" lon="1.82108">
        <ele>217.6</ele>
        <time>2018-06-21T20:15:51Z</time>
      </trkpt>
      <trkpt lat="43.99306" lon="1.82114">
        <ele>217.5</ele>
        <time>2018-06-21T20:15:52Z</time>
      </trkpt>
      <trkpt lat="43.99303" lon="1.8212">
        <ele>217.3</ele>
        <time>2018-06-21T20:15:53Z</time>
      </trkpt>
      <trkpt lat="43.993" lon="1.82128">
        <ele>217.3</ele>
        <time>2018-06-21T20:15:54Z</time>
      </trkpt>
      <trkpt lat="43.99298" lon="1.82136">
        <ele>217.3</ele>
        <time>2018-06-21T20:15:55Z</time>
      </trkpt>
      <trkpt lat="43.99296" lon="1.82144">
        <ele>217.3</ele>
        <time>2018-06-21T20:15:56Z</time>
      </trkpt>
      <trkpt lat="43.99294" lon="1.82151">
        <ele>217.2</ele>
        <time>2018-06-21T20:15:57Z</time>
      </trkpt>
      <trkpt lat="43.99292" lon="1.82159">
        <ele>217.2</ele>
        <time>2018-06-21T20:15:58Z</time>
      </trkpt>
      <trkpt lat="43.9929" lon="1.82167">
        <ele>217.1</ele>
        <time>2018-06-21T20:15:59Z</time>
      </trkpt>
      <trkpt lat="43.99288" lon="1.82175">
        <ele>216.9</ele>
        <time>2018-06-21T20:16:00Z</time>
      </trkpt>
      <trkpt lat="43.99285" lon="1.82183">
        <ele>216.7</ele>
        <time>2018-06-21T20:16:01Z</time>
      </trkpt>
      <trkpt lat="43.99283" lon="1.82191">
        <ele>216.3</ele>
        <time>2018-06-21T20:16:02Z</time>
      </trkpt>
      <trkpt lat="43.99281" lon="1.82199">
        <ele>216</ele>
        <time>2018-06-21T20:16:03Z</time>
      </trkpt>
      <trkpt lat="43.99279" lon="1.82208">
        <ele>215.7</ele>
        <time>2018-06-21T20:16:04Z</time>
      </trkpt>
      <trkpt lat="43.99277" lon="1.82217">
        <ele>215.3</ele>
        <time>2018-06-21T20:16:05Z</time>
      </trkpt>
      <trkpt lat="43.99276" lon="1.82225">
        <ele>215</ele>
        <time>2018-06-21T20:16:06Z</time>
      </trkpt>
      <trkpt lat="43.99275" lon="1.82233">
        <ele>214.7</ele>
        <time>2018-06-21T20:16:07Z</time>
      </trkpt>
      <trkpt lat="43.99274" lon="1.82241">
        <ele>214.4</ele>
        <time>2018-06-21T20:16:08Z</time>
      </trkpt>
      <trkpt lat="43.99272" lon="1.82249">
        <ele>214.3</ele>
        <time>2018-06-21T20:16:09Z</time>
      </trkpt>
      <trkpt lat="43.99268" lon="1.82257">
        <ele>214</ele>
        <time>2018-06-21T20:16:10Z</time>
      </trkpt>
      <trkpt lat="43.99262" lon="1.82263">
        <ele>213.8</ele>
        <time>2018-06-21T20:16:11Z</time>
      </trkpt>
      <trkpt lat="43.99256" lon="1.8227">
        <ele>213.5</ele>
        <time>2018-06-21T20:16:12Z</time>
      </trkpt>
      <trkpt lat="43.9925" lon="1.82278">
        <ele>213.4</ele>
        <time>2018-06-21T20:16:13Z</time>
      </trkpt>
      <trkpt lat="43.99243" lon="1.82286">
        <ele>213.1</ele>
        <time>2018-06-21T20:16:14Z</time>
      </trkpt>
      <trkpt lat="43.99237" lon="1.82294">
        <ele>212.9</ele>
        <time>2018-06-21T20:16:15Z</time>
      </trkpt>
      <trkpt lat="43.99231" lon="1.82303">
        <ele>212.6</ele>
        <time>2018-06-21T20:16:16Z</time>
      </trkpt>
      <trkpt lat="43.99224" lon="1.82312">
        <ele>212.3</ele>
        <time>2018-06-21T20:16:17Z</time>
      </trkpt>
      <trkpt lat="43.99218" lon="1.8232">
        <ele>211.9</ele>
        <time>2018-06-21T20:16:18Z</time>
      </trkpt>
      <trkpt lat="43.9921" lon="1.82327">
        <ele>211.5</ele>
        <time>2018-06-21T20:16:19Z</time>
      </trkpt>
      <trkpt lat="43.99203" lon="1.82333">
        <ele>211.1</ele>
        <time>2018-06-21T20:16:20Z</time>
      </trkpt>
      <trkpt lat="43.99196" lon="1.8234">
        <ele>210.5</ele>
        <time>2018-06-21T20:16:21Z</time>
      </trkpt>
      <trkpt lat="43.99191" lon="1.82347">
        <ele>209.8</ele>
        <time>2018-06-21T20:16:22Z</time>
      </trkpt>
      <trkpt lat="43.99187" lon="1.82356">
        <ele>209.3</ele>
        <time>2018-06-21T20:16:23Z</time>
      </trkpt>
      <trkpt lat="43.99184" lon="1.82366">
        <ele>208.8</ele>
        <time>2018-06-21T20:16:24Z</time>
      </trkpt>
      <trkpt lat="43.99183" lon="1.82377">
        <ele>208.4</ele>
        <time>2018-06-21T20:16:25Z</time>
      </trkpt>
      <trkpt lat="43.99182" lon="1.82387">
        <ele>207.5</ele>
        <time>2018-06-21T20:16:26Z</time>
      </trkpt>
      <trkpt lat="43.9918" lon="1.82397">
        <ele>207</ele>
        <time>2018-06-21T20:16:27Z</time>
      </trkpt>
      <trkpt lat="43.99176" lon="1.82405">
        <ele>206</ele>
        <time>2018-06-21T20:16:28Z</time>
      </trkpt>
      <trkpt lat="43.99172" lon="1.82412">
        <ele>205.3</ele>
        <time>2018-06-21T20:16:29Z</time>
      </trkpt>
      <trkpt lat="43.99166" lon="1.82417">
        <ele>204.5</ele>
        <time>2018-06-21T20:16:30Z</time>
      </trkpt>
      <trkpt lat="43.9916" lon="1.82423">
        <ele>203.9</ele>
        <time>2018-06-21T20:16:31Z</time>
      </trkpt>
      <trkpt lat="43.99153" lon="1.82427">
        <ele>203.3</ele>
        <time>2018-06-21T20:16:32Z</time>
      </trkpt>
      <trkpt lat="43.99146" lon="1.82431">
        <ele>202.7</ele>
        <time>2018-06-21T20:16:33Z</time>
      </trkpt>
      <trkpt lat="43.99139" lon="1.82435">
        <ele>202</ele>
        <time>2018-06-21T20:16:34Z</time>
      </trkpt>
      <trkpt lat="43.99133" lon="1.82439">
        <ele>201.4</ele>
        <time>2018-06-21T20:16:35Z</time>
      </trkpt>
      <trkpt lat="43.99126" lon="1.82443">
        <ele>200.9</ele>
        <time>2018-06-21T20:16:36Z</time>
      </trkpt>
      <trkpt lat="43.99119" lon="1.82447">
        <ele>200.4</ele>
        <time>2018-06-21T20:16:37Z</time>
      </trkpt>
      <trkpt lat="43.99114" lon="1.82451">
        <ele>199.9</ele>
        <time>2018-06-21T20:16:38Z</time>
      </trkpt>
      <trkpt lat="43.99108" lon="1.82456">
        <ele>199.4</ele>
        <time>2018-06-21T20:16:39Z</time>
      </trkpt>
      <trkpt lat="43.99104" lon="1.82463">
        <ele>199.1</ele>
        <time>2018-06-21T20:16:40Z</time>
      </trkpt>
      <trkpt lat="43.99098" lon="1.8247">
        <ele>198.6</ele>
        <time>2018-06-21T20:16:41Z</time>
      </trkpt>
      <trkpt lat="43.99093" lon="1.82477">
        <ele>198.1</ele>
        <time>2018-06-21T20:16:42Z</time>
      </trkpt>
      <trkpt lat="43.99088" lon="1.82484">
        <ele>197.8</ele>
        <time>2018-06-21T20:16:43Z</time>
      </trkpt>
      <trkpt lat="43.99082" lon="1.8249">
        <ele>197.2</ele>
        <time>2018-06-21T20:16:44Z</time>
      </trkpt>
      <trkpt lat="43.99077" lon="1.82497">
        <ele>196.7</ele>
        <time>2018-06-21T20:16:45Z</time>
      </trkpt>
      <trkpt lat="43.99072" lon="1.82503">
        <ele>196.2</ele>
        <time>2018-06-21T20:16:46Z</time>
      </trkpt>
      <trkpt lat="43.99067" lon="1.82509">
        <ele>195.7</ele>
        <time>2018-06-21T20:16:47Z</time>
      </trkpt>
      <trkpt lat="43.99062" lon="1.82516">
        <ele>194.9</ele>
        <time>2018-06-21T20:16:48Z</time>
      </trkpt>
      <trkpt lat="43.99056" lon="1.82523">
        <ele>194.3</ele>
        <time>2018-06-21T20:16:49Z</time>
      </trkpt>
      <trkpt lat="43.9905" lon="1.8253">
        <ele>193.4</ele>
        <time>2018-06-21T20:16:50Z</time>
      </trkpt>
      <trkpt lat="43.99043" lon="1.82536">
        <ele>192.6</ele>
        <time>2018-06-21T20:16:51Z</time>
      </trkpt>
      <trkpt lat="43.99036" lon="1.82543">
        <ele>192.1</ele>
        <time>2018-06-21T20:16:52Z</time>
      </trkpt>
      <trkpt lat="43.9903" lon="1.82551">
        <ele>191.4</ele>
        <time>2018-06-21T20:16:53Z</time>
      </trkpt>
      <trkpt lat="43.99024" lon="1.82561">
        <ele>190.7</ele>
        <time>2018-06-21T20:16:54Z</time>
      </trkpt>
      <trkpt lat="43.99017" lon="1.8257">
        <ele>190</ele>
        <time>2018-06-21T20:16:55Z</time>
      </trkpt>
      <trkpt lat="43.99011" lon="1.82579">
        <ele>189.3</ele>
        <time>2018-06-21T20:16:56Z</time>
      </trkpt>
      <trkpt lat="43.99006" lon="1.82588">
        <ele>188.3</ele>
        <time>2018-06-21T20:16:57Z</time>
      </trkpt>
      <trkpt lat="43.99" lon="1.82597">
        <ele>187.5</ele>
        <time>2018-06-21T20:16:58Z</time>
      </trkpt>
      <trkpt lat="43.98995" lon="1.82606">
        <ele>187</ele>
        <time>2018-06-21T20:16:59Z</time>
      </trkpt>
      <trkpt lat="43.98991" lon="1.82615">
        <ele>186.3</ele>
        <time>2018-06-21T20:17:00Z</time>
      </trkpt>
      <trkpt lat="43.98986" lon="1.82623">
        <ele>185.8</ele>
        <time>2018-06-21T20:17:01Z</time>
      </trkpt>
      <trkpt lat="43.98982" lon="1.82632">
        <ele>185.4</ele>
        <time>2018-06-21T20:17:02Z</time>
      </trkpt>
      <trkpt lat="43.98978" lon="1.82641">
        <ele>184.9</ele>
        <time>2018-06-21T20:17:03Z</time>
      </trkpt>
      <trkpt lat="43.98973" lon="1.82648">
        <ele>184.4</ele>
        <time>2018-06-21T20:17:04Z</time>
      </trkpt>
      <trkpt lat="43.98967" lon="1.82656">
        <ele>184.2</ele>
        <time>2018-06-21T20:17:05Z</time>
      </trkpt>
      <trkpt lat="43.98962" lon="1.82665">
        <ele>183.5</ele>
        <time>2018-06-21T20:17:06Z</time>
      </trkpt>
      <trkpt lat="43.98958" lon="1.82676">
        <ele>183</ele>
        <time>2018-06-21T20:17:07Z</time>
      </trkpt>
      <trkpt lat="43.98953" lon="1.82686">
        <ele>182.5</ele>
        <time>2018-06-21T20:17:08Z</time>
      </trkpt>
      <trkpt lat="43.98948" lon="1.82697">
        <ele>181.9</ele>
        <time>2018-06-21T20:17:09Z</time>
      </trkpt>
      <trkpt lat="43.98943" lon="1.82707">
        <ele>181.3</ele>
        <time>2018-06-21T20:17:10Z</time>
      </trkpt>
      <trkpt lat="43.98939" lon="1.82719">
        <ele>180.4</ele>
        <time>2018-06-21T20:17:11Z</time>
      </trkpt>
      <trkpt lat="43.98933" lon="1.8273">
        <ele>179.6</ele>
        <time>2018-06-21T20:17:12Z</time>
      </trkpt>
      <trkpt lat="43.98927" lon="1.82741">
        <ele>179</ele>
        <time>2018-06-21T20:17:13Z</time>
      </trkpt>
      <trkpt lat="43.9892" lon="1.82751">
        <ele>178.2</ele>
        <time>2018-06-21T20:17:14Z</time>
      </trkpt>
      <trkpt lat="43.98914" lon="1.82762">
        <ele>177.6</ele>
        <time>2018-06-21T20:17:15Z</time>
      </trkpt>
      <trkpt lat="43.98907" lon="1.82774">
        <ele>177</ele>
        <time>2018-06-21T20:17:16Z</time>
      </trkpt>
      <trkpt lat="43.98899" lon="1.82785">
        <ele>176.6</ele>
        <time>2018-06-21T20:17:17Z</time>
      </trkpt>
      <trkpt lat="43.98892" lon="1.82796">
        <ele>175.9</ele>
        <time>2018-06-21T20:17:18Z</time>
      </trkpt>
      <trkpt lat="43.98884" lon="1.82807">
        <ele>175.1</ele>
        <time>2018-06-21T20:17:19Z</time>
      </trkpt>
      <trkpt lat="43.98877" lon="1.82817">
        <ele>174.5</ele>
        <time>2018-06-21T20:17:20Z</time>
      </trkpt>
      <trkpt lat="43.98871" lon="1.82826">
        <ele>174</ele>
        <time>2018-06-21T20:17:21Z</time>
      </trkpt>
      <trkpt lat="43.98865" lon="1.82834">
        <ele>173.5</ele>
        <time>2018-06-21T20:17:22Z</time>
      </trkpt>
      <trkpt lat="43.98859" lon="1.82841">
        <ele>173</ele>
        <time>2018-06-21T20:17:23Z</time>
      </trkpt>
      <trkpt lat="43.98854" lon="1.82847">
        <ele>172.6</ele>
        <time>2018-06-21T20:17:24Z</time>
      </trkpt>
      <trkpt lat="43.9885" lon="1.82852">
        <ele>172.5</ele>
        <time>2018-06-21T20:17:25Z</time>
      </trkpt>
      <trkpt lat="43.98845" lon="1.82857">
        <ele>172.2</ele>
        <time>2018-06-21T20:17:26Z</time>
      </trkpt>
      <trkpt lat="43.98841" lon="1.8286">
        <ele>172.1</ele>
        <time>2018-06-21T20:17:27Z</time>
      </trkpt>
      <trkpt lat="43.98838" lon="1.82859">
        <ele>172</ele>
        <time>2018-06-21T20:17:28Z</time>
      </trkpt>
      <trkpt lat="43.98835" lon="1.82856">
        <ele>171.9</ele>
        <time>2018-06-21T20:17:29Z</time>
      </trkpt>
      <trkpt lat="43.98834" lon="1.8285">
        <ele>171.8</ele>
        <time>2018-06-21T20:17:30Z</time>
      </trkpt>
      <trkpt lat="43.98834" lon="1.82845">
        <ele>171.8</ele>
        <time>2018-06-21T20:17:31Z</time>
      </trkpt>
      <trkpt lat="43.98833" lon="1.8284">
        <ele>171.8</ele>
        <time>2018-06-21T20:17:32Z</time>
      </trkpt>
      <trkpt lat="43.98832" lon="1.82835">
        <ele>171.8</ele>
        <time>2018-06-21T20:17:33Z</time>
      </trkpt>
      <trkpt lat="43.9883" lon="1.8283">
        <ele>171.8</ele>
        <time>2018-06-21T20:17:34Z</time>
      </trkpt>
      <trkpt lat="43.98829" lon="1.82825">
        <ele>171.8</ele>
        <time>2018-06-21T20:17:35Z</time>
      </trkpt>
      <trkpt lat="43.98827" lon="1.8282">
        <ele>171.8</ele>
        <time>2018-06-21T20:17:36Z</time>
      </trkpt>
      <trkpt lat="43.98826" lon="1.82814">
        <ele>171.8</ele>
        <time>2018-06-21T20:17:37Z</time>
      </trkpt>
      <trkpt lat="43.98824" lon="1.82808">
        <ele>171.8</ele>
        <time>2018-06-21T20:17:38Z</time>
      </trkpt>
      <trkpt lat="43.98822" lon="1.82803">
        <ele>171.8</ele>
        <time>2018-06-21T20:17:39Z</time>
      </trkpt>
      <trkpt lat="43.9882" lon="1.82798">
        <ele>171.8</ele>
        <time>2018-06-21T20:17:40Z</time>
      </trkpt>
      <trkpt lat="43.98818" lon="1.82792">
        <ele>171.8</ele>
        <time>2018-06-21T20:17:41Z</time>
      </trkpt>
      <trkpt lat="43.98816" lon="1.82787">
        <ele>171.8</ele>
        <time>2018-06-21T20:17:42Z</time>
      </trkpt>
      <trkpt lat="43.98813" lon="1.82782">
        <ele>171.9</ele>
        <time>2018-06-21T20:17:43Z</time>
      </trkpt>
      <trkpt lat="43.98811" lon="1.82777">
        <ele>171.9</ele>
        <time>2018-06-21T20:17:44Z</time>
      </trkpt>
      <trkpt lat="43.98808" lon="1.82771">
        <ele>171.9</ele>
        <time>2018-06-21T20:17:45Z</time>
      </trkpt>
      <trkpt lat="43.98805" lon="1.82767">
        <ele>171.9</ele>
        <time>2018-06-21T20:17:46Z</time>
      </trkpt>
      <trkpt lat="43.98803" lon="1.82762">
        <ele>171.9</ele>
        <time>2018-06-21T20:17:47Z</time>
      </trkpt>
      <trkpt lat="43.988" lon="1.82758">
        <ele>171.9</ele>
        <time>2018-06-21T20:17:48Z</time>
      </trkpt>
      <trkpt lat="43.98796" lon="1.82754">
        <ele>172</ele>
        <time>2018-06-21T20:17:49Z</time>
      </trkpt>
      <trkpt lat="43.98792" lon="1.82751">
        <ele>172</ele>
        <time>2018-06-21T20:17:50Z</time>
      </trkpt>
      <trkpt lat="43.98787" lon="1.82748">
        <ele>172</ele>
        <time>2018-06-21T20:17:51Z</time>
      </trkpt>
      <trkpt lat="43.98782" lon="1.82748">
        <ele>171.8</ele>
        <time>2018-06-21T20:17:52Z</time>
      </trkpt>
      <trkpt lat="43.98777" lon="1.82749">
        <ele>171.8</ele>
        <time>2018-06-21T20:17:53Z</time>
      </trkpt>
      <trkpt lat="43.98771" lon="1.82752">
        <ele>171.7</ele>
        <time>2018-06-21T20:17:54Z</time>
      </trkpt>
      <trkpt lat="43.98765" lon="1.82756">
        <ele>171.7</ele>
        <time>2018-06-21T20:17:55Z</time>
      </trkpt>
      <trkpt lat="43.98759" lon="1.8276">
        <ele>171.6</ele>
        <time>2018-06-21T20:17:56Z</time>
      </trkpt>
      <trkpt lat="43.98752" lon="1.82764">
        <ele>171.5</ele>
        <time>2018-06-21T20:17:57Z</time>
      </trkpt>
      <trkpt lat="43.98745" lon="1.82767">
        <ele>171.4</ele>
        <time>2018-06-21T20:17:58Z</time>
      </trkpt>
      <trkpt lat="43.98738" lon="1.8277">
        <ele>171.4</ele>
        <time>2018-06-21T20:17:59Z</time>
      </trkpt>
      <trkpt lat="43.98731" lon="1.82773">
        <ele>171.3</ele>
        <time>2018-06-21T20:18:00Z</time>
      </trkpt>
      <trkpt lat="43.98723" lon="1.82776">
        <ele>171.3</ele>
        <time>2018-06-21T20:18:01Z</time>
      </trkpt>
      <trkpt lat="43.98717" lon="1.82778">
        <ele>171.3</ele>
        <time>2018-06-21T20:18:02Z</time>
      </trkpt>
      <trkpt lat="43.9871" lon="1.82781">
        <ele>171.2</ele>
        <time>2018-06-21T20:18:03Z</time>
      </trkpt>
      <trkpt lat="43.98703" lon="1.82784">
        <ele>171.2</ele>
        <time>2018-06-21T20:18:04Z</time>
      </trkpt>
      <trkpt lat="43.98697" lon="1.82786">
        <ele>171.1</ele>
        <time>2018-06-21T20:18:05Z</time>
      </trkpt>
      <trkpt lat="43.9869" lon="1.82789">
        <ele>171.1</ele>
        <time>2018-06-21T20:18:06Z</time>
      </trkpt>
      <trkpt lat="43.98684" lon="1.82791">
        <ele>171.1</ele>
        <time>2018-06-21T20:18:07Z</time>
      </trkpt>
      <trkpt lat="43.98677" lon="1.82793">
        <ele>171</ele>
        <time>2018-06-21T20:18:08Z</time>
      </trkpt>
      <trkpt lat="43.98671" lon="1.82795">
        <ele>171</ele>
        <time>2018-06-21T20:18:09Z</time>
      </trkpt>
      <trkpt lat="43.98664" lon="1.82798">
        <ele>170.9</ele>
        <time>2018-06-21T20:18:10Z</time>
      </trkpt>
      <trkpt lat="43.98657" lon="1.828">
        <ele>170.9</ele>
        <time>2018-06-21T20:18:11Z</time>
      </trkpt>
      <trkpt lat="43.9865" lon="1.828">
        <ele>170.8</ele>
        <time>2018-06-21T20:18:12Z</time>
      </trkpt>
      <trkpt lat="43.98644" lon="1.82799">
        <ele>170.8</ele>
        <time>2018-06-21T20:18:13Z</time>
      </trkpt>
      <trkpt lat="43.98637" lon="1.82798">
        <ele>170.7</ele>
        <time>2018-06-21T20:18:14Z</time>
      </trkpt>
      <trkpt lat="43.98631" lon="1.82796">
        <ele>170.7</ele>
        <time>2018-06-21T20:18:15Z</time>
      </trkpt>
      <trkpt lat="43.98624" lon="1.82794">
        <ele>170.7</ele>
        <time>2018-06-21T20:18:16Z</time>
      </trkpt>
      <trkpt lat="43.98617" lon="1.82792">
        <ele>170.7</ele>
        <time>2018-06-21T20:18:17Z</time>
      </trkpt>
      <trkpt lat="43.98611" lon="1.82789">
        <ele>170.6</ele>
        <time>2018-06-21T20:18:18Z</time>
      </trkpt>
      <trkpt lat="43.98605" lon="1.82786">
        <ele>170.6</ele>
        <time>2018-06-21T20:18:19Z</time>
      </trkpt>
      <trkpt lat="43.98599" lon="1.82784">
        <ele>170.6</ele>
        <time>2018-06-21T20:18:20Z</time>
      </trkpt>
      <trkpt lat="43.98593" lon="1.82783">
        <ele>170.5</ele>
        <time>2018-06-21T20:18:21Z</time>
      </trkpt>
      <trkpt lat="43.98587" lon="1.8278">
        <ele>170.5</ele>
        <time>2018-06-21T20:18:22Z</time>
      </trkpt>
      <trkpt lat="43.9858" lon="1.82778">
        <ele>170.5</ele>
        <time>2018-06-21T20:18:23Z</time>
      </trkpt>
      <trkpt lat="43.98574" lon="1.82776">
        <ele>170.4</ele>
        <time>2018-06-21T20:18:24Z</time>
      </trkpt>
      <trkpt lat="43.98568" lon="1.82775">
        <ele>170.4</ele>
        <time>2018-06-21T20:18:25Z</time>
      </trkpt>
      <trkpt lat="43.98562" lon="1.82774">
        <ele>170.4</ele>
        <time>2018-06-21T20:18:26Z</time>
      </trkpt>
      <trkpt lat="43.98555" lon="1.82772">
        <ele>170.4</ele>
        <time>2018-06-21T20:18:27Z</time>
      </trkpt>
      <trkpt lat="43.98549" lon="1.82772">
        <ele>170.3</ele>
        <time>2018-06-21T20:18:28Z</time>
      </trkpt>
      <trkpt lat="43.98543" lon="1.82771">
        <ele>170.3</ele>
        <time>2018-06-21T20:18:29Z</time>
      </trkpt>
      <trkpt lat="43.98537" lon="1.82769">
        <ele>170.3</ele>
        <time>2018-06-21T20:18:30Z</time>
      </trkpt>
      <trkpt lat="43.98531" lon="1.82768">
        <ele>170.2</ele>
        <time>2018-06-21T20:18:31Z</time>
      </trkpt>
      <trkpt lat="43.98525" lon="1.82767">
        <ele>170.2</ele>
        <time>2018-06-21T20:18:32Z</time>
      </trkpt>
      <trkpt lat="43.9852" lon="1.82765">
        <ele>170.2</ele>
        <time>2018-06-21T20:18:33Z</time>
      </trkpt>
      <trkpt lat="43.98514" lon="1.82764">
        <ele>170.2</ele>
        <time>2018-06-21T20:18:34Z</time>
      </trkpt>
      <trkpt lat="43.98508" lon="1.82762">
        <ele>170.1</ele>
        <time>2018-06-21T20:18:35Z</time>
      </trkpt>
      <trkpt lat="43.98503" lon="1.8276">
        <ele>170.1</ele>
        <time>2018-06-21T20:18:36Z</time>
      </trkpt>
      <trkpt lat="43.98498" lon="1.82757">
        <ele>170.1</ele>
        <time>2018-06-21T20:18:37Z</time>
      </trkpt>
      <trkpt lat="43.98492" lon="1.82756">
        <ele>170.1</ele>
        <time>2018-06-21T20:18:38Z</time>
      </trkpt>
      <trkpt lat="43.98487" lon="1.82755">
        <ele>170.1</ele>
        <time>2018-06-21T20:18:39Z</time>
      </trkpt>
      <trkpt lat="43.98483" lon="1.82754">
        <ele>170</ele>
        <time>2018-06-21T20:18:40Z</time>
      </trkpt>
      <trkpt lat="43.98478" lon="1.82754">
        <ele>170</ele>
        <time>2018-06-21T20:18:41Z</time>
      </trkpt>
      <trkpt lat="43.98475" lon="1.82756">
        <ele>170</ele>
        <time>2018-06-21T20:18:42Z</time>
      </trkpt>
      <trkpt lat="43.98471" lon="1.82758">
        <ele>170</ele>
        <time>2018-06-21T20:18:43Z</time>
      </trkpt>
      <trkpt lat="43.98467" lon="1.8276">
        <ele>170</ele>
        <time>2018-06-21T20:18:44Z</time>
      </trkpt>
      <trkpt lat="43.98464" lon="1.8276">
        <ele>170</ele>
        <time>2018-06-21T20:18:45Z</time>
      </trkpt>
      <trkpt lat="43.98459" lon="1.8276">
        <ele>170.6</ele>
        <time>2018-06-21T20:18:46Z</time>
      </trkpt>
      <trkpt lat="43.98455" lon="1.82758">
        <ele>171.3</ele>
        <time>2018-06-21T20:18:47Z</time>
      </trkpt>
      <trkpt lat="43.98451" lon="1.82754">
        <ele>172</ele>
        <time>2018-06-21T20:18:48Z</time>
      </trkpt>
      <trkpt lat="43.98447" lon="1.82748">
        <ele>173.1</ele>
        <time>2018-06-21T20:18:49Z</time>
      </trkpt>
      <trkpt lat="43.98441" lon="1.82743">
        <ele>173.7</ele>
        <time>2018-06-21T20:18:50Z</time>
      </trkpt>
      <trkpt lat="43.98435" lon="1.82738">
        <ele>174.3</ele>
        <time>2018-06-21T20:18:51Z</time>
      </trkpt>
      <trkpt lat="43.98429" lon="1.82735">
        <ele>174.9</ele>
        <time>2018-06-21T20:18:52Z</time>
      </trkpt>
      <trkpt lat="43.98424" lon="1.82731">
        <ele>175.6</ele>
        <time>2018-06-21T20:18:53Z</time>
      </trkpt>
      <trkpt lat="43.98418" lon="1.82728">
        <ele>176.2</ele>
        <time>2018-06-21T20:18:54Z</time>
      </trkpt>
      <trkpt lat="43.98413" lon="1.82726">
        <ele>176.6</ele>
        <time>2018-06-21T20:18:55Z</time>
      </trkpt>
      <trkpt lat="43.98407" lon="1.82723">
        <ele>177</ele>
        <time>2018-06-21T20:18:56Z</time>
      </trkpt>
      <trkpt lat="43.98401" lon="1.8272">
        <ele>177.4</ele>
        <time>2018-06-21T20:18:57Z</time>
      </trkpt>
      <trkpt lat="43.98394" lon="1.82717">
        <ele>177.8</ele>
        <time>2018-06-21T20:18:58Z</time>
      </trkpt>
      <trkpt lat="43.98388" lon="1.82714">
        <ele>178.2</ele>
        <time>2018-06-21T20:18:59Z</time>
      </trkpt>
      <trkpt lat="43.98382" lon="1.82712">
        <ele>178.6</ele>
        <time>2018-06-21T20:19:00Z</time>
      </trkpt>
      <trkpt lat="43.98376" lon="1.8271">
        <ele>179</ele>
        <time>2018-06-21T20:19:01Z</time>
      </trkpt>
      <trkpt lat="43.9837" lon="1.82708">
        <ele>180</ele>
        <time>2018-06-21T20:19:02Z</time>
      </trkpt>
      <trkpt lat="43.98364" lon="1.82706">
        <ele>181.1</ele>
        <time>2018-06-21T20:19:03Z</time>
      </trkpt>
      <trkpt lat="43.98358" lon="1.82704">
        <ele>182.3</ele>
        <time>2018-06-21T20:19:04Z</time>
      </trkpt>
      <trkpt lat="43.98353" lon="1.82702">
        <ele>183.4</ele>
        <time>2018-06-21T20:19:05Z</time>
      </trkpt>
      <trkpt lat="43.98349" lon="1.827">
        <ele>184.3</ele>
        <time>2018-06-21T20:19:06Z</time>
      </trkpt>
      <trkpt lat="43.98345" lon="1.82699">
        <ele>185.2</ele>
        <time>2018-06-21T20:19:07Z</time>
      </trkpt>
      <trkpt lat="43.98342" lon="1.82696">
        <ele>186</ele>
        <time>2018-06-21T20:19:08Z</time>
      </trkpt>
      <trkpt lat="43.98339" lon="1.82695">
        <ele>186.7</ele>
        <time>2018-06-21T20:19:09Z</time>
      </trkpt>
      <trkpt lat="43.98336" lon="1.82694">
        <ele>187.3</ele>
        <time>2018-06-21T20:19:10Z</time>
      </trkpt>
      <trkpt lat="43.98331" lon="1.82692">
        <ele>188.4</ele>
        <time>2018-06-21T20:19:12Z</time>
      </trkpt>
      <trkpt lat="43.98327" lon="1.82689">
        <ele>189.4</ele>
        <time>2018-06-21T20:19:14Z</time>
      </trkpt>
      <trkpt lat="43.98323" lon="1.82686">
        <ele>189.9</ele>
        <time>2018-06-21T20:19:16Z</time>
      </trkpt>
      <trkpt lat="43.98319" lon="1.82684">
        <ele>189.6</ele>
        <time>2018-06-21T20:19:18Z</time>
      </trkpt>
      <trkpt lat="43.98315" lon="1.82682">
        <ele>189.3</ele>
        <time>2018-06-21T20:19:20Z</time>
      </trkpt>
      <trkpt lat="43.9831" lon="1.8268">
        <ele>189</ele>
        <time>2018-06-21T20:19:22Z</time>
      </trkpt>
      <trkpt lat="43.98306" lon="1.82677">
        <ele>188.7</ele>
        <time>2018-06-21T20:19:24Z</time>
      </trkpt>
      <trkpt lat="43.98301" lon="1.82675">
        <ele>188.4</ele>
        <time>2018-06-21T20:19:26Z</time>
      </trkpt>
      <trkpt lat="43.98297" lon="1.82673">
        <ele>188.1</ele>
        <time>2018-06-21T20:19:28Z</time>
      </trkpt>
      <trkpt lat="43.98292" lon="1.82671">
        <ele>187.9</ele>
        <time>2018-06-21T20:19:30Z</time>
      </trkpt>
      <trkpt lat="43.98288" lon="1.82668">
        <ele>187.6</ele>
        <time>2018-06-21T20:19:32Z</time>
      </trkpt>
      <trkpt lat="43.98284" lon="1.82665">
        <ele>187.4</ele>
        <time>2018-06-21T20:19:34Z</time>
      </trkpt>
      <trkpt lat="43.9828" lon="1.82662">
        <ele>187.2</ele>
        <time>2018-06-21T20:19:36Z</time>
      </trkpt>
      <trkpt lat="43.98277" lon="1.82658">
        <ele>186.9</ele>
        <time>2018-06-21T20:19:38Z</time>
      </trkpt>
      <trkpt lat="43.98273" lon="1.82652">
        <ele>186.7</ele>
        <time>2018-06-21T20:19:40Z</time>
      </trkpt>
      <trkpt lat="43.98271" lon="1.82647">
        <ele>186.5</ele>
        <time>2018-06-21T20:19:42Z</time>
      </trkpt>
      <trkpt lat="43.98269" lon="1.82644">
        <ele>186.4</ele>
        <time>2018-06-21T20:19:43Z</time>
      </trkpt>
      <trkpt lat="43.98268" lon="1.82638">
        <ele>186.2</ele>
        <time>2018-06-21T20:19:45Z</time>
      </trkpt>
      <trkpt lat="43.98265" lon="1.82632">
        <ele>186</ele>
        <time>2018-06-21T20:19:47Z</time>
      </trkpt>
      <trkpt lat="43.98263" lon="1.82627">
        <ele>185.8</ele>
        <time>2018-06-21T20:19:49Z</time>
      </trkpt>
      <trkpt lat="43.98261" lon="1.82622">
        <ele>185.7</ele>
        <time>2018-06-21T20:19:51Z</time>
      </trkpt>
      <trkpt lat="43.98258" lon="1.82617">
        <ele>185.6</ele>
        <time>2018-06-21T20:19:53Z</time>
      </trkpt>
      <trkpt lat="43.98256" lon="1.82612">
        <ele>185.5</ele>
        <time>2018-06-21T20:19:55Z</time>
      </trkpt>
      <trkpt lat="43.98252" lon="1.82606">
        <ele>185.5</ele>
        <time>2018-06-21T20:19:57Z</time>
      </trkpt>
      <trkpt lat="43.98249" lon="1.82602">
        <ele>185.4</ele>
        <time>2018-06-21T20:19:59Z</time>
      </trkpt>
      <trkpt lat="43.98246" lon="1.82598">
        <ele>185.3</ele>
        <time>2018-06-21T20:20:01Z</time>
      </trkpt>
      <trkpt lat="43.98243" lon="1.82594">
        <ele>185.1</ele>
        <time>2018-06-21T20:20:03Z</time>
      </trkpt>
      <trkpt lat="43.98239" lon="1.82589">
        <ele>184.9</ele>
        <time>2018-06-21T20:20:05Z</time>
      </trkpt>
      <trkpt lat="43.98236" lon="1.82585">
        <ele>184.7</ele>
        <time>2018-06-21T20:20:07Z</time>
      </trkpt>
      <trkpt lat="43.98233" lon="1.8258">
        <ele>184.5</ele>
        <time>2018-06-21T20:20:09Z</time>
      </trkpt>
      <trkpt lat="43.9823" lon="1.82576">
        <ele>184.4</ele>
        <time>2018-06-21T20:20:11Z</time>
      </trkpt>
      <trkpt lat="43.98227" lon="1.82573">
        <ele>184.3</ele>
        <time>2018-06-21T20:20:13Z</time>
      </trkpt>
      <trkpt lat="43.98224" lon="1.82569">
        <ele>184.2</ele>
        <time>2018-06-21T20:20:15Z</time>
      </trkpt>
      <trkpt lat="43.98221" lon="1.82565">
        <ele>184.1</ele>
        <time>2018-06-21T20:20:17Z</time>
      </trkpt>
      <trkpt lat="43.98219" lon="1.82562">
        <ele>184</ele>
        <time>2018-06-21T20:20:19Z</time>
      </trkpt>
      <trkpt lat="43.98216" lon="1.82559">
        <ele>183.8</ele>
        <time>2018-06-21T20:20:21Z</time>
      </trkpt>
      <trkpt lat="43.98214" lon="1.82555">
        <ele>183.7</ele>
        <time>2018-06-21T20:20:23Z</time>
      </trkpt>
      <trkpt lat="43.98212" lon="1.82551">
        <ele>183.4</ele>
        <time>2018-06-21T20:20:25Z</time>
      </trkpt>
      <trkpt lat="43.9821" lon="1.82547">
        <ele>183.1</ele>
        <time>2018-06-21T20:20:27Z</time>
      </trkpt>
      <trkpt lat="43.98207" lon="1.82541">
        <ele>182.8</ele>
        <time>2018-06-21T20:20:29Z</time>
      </trkpt>
      <trkpt lat="43.98205" lon="1.82535">
        <ele>182.6</ele>
        <time>2018-06-21T20:20:31Z</time>
      </trkpt>
      <trkpt lat="43.98204" lon="1.82531">
        <ele>182.4</ele>
        <time>2018-06-21T20:20:32Z</time>
      </trkpt>
      <trkpt lat="43.98202" lon="1.82525">
        <ele>182.3</ele>
        <time>2018-06-21T20:20:34Z</time>
      </trkpt>
      <trkpt lat="43.98201" lon="1.82521">
        <ele>182.2</ele>
        <time>2018-06-21T20:20:35Z</time>
      </trkpt>
      <trkpt lat="43.98199" lon="1.82516">
        <ele>182.1</ele>
        <time>2018-06-21T20:20:37Z</time>
      </trkpt>
      <trkpt lat="43.98197" lon="1.8251">
        <ele>182</ele>
        <time>2018-06-21T20:20:39Z</time>
      </trkpt>
      <trkpt lat="43.98195" lon="1.82504">
        <ele>181.9</ele>
        <time>2018-06-21T20:20:41Z</time>
      </trkpt>
      <trkpt lat="43.98193" lon="1.82499">
        <ele>181.8</ele>
        <time>2018-06-21T20:20:43Z</time>
      </trkpt>
      <trkpt lat="43.98191" lon="1.82493">
        <ele>181.7</ele>
        <time>2018-06-21T20:20:45Z</time>
      </trkpt>
      <trkpt lat="43.98189" lon="1.82487">
        <ele>181.6</ele>
        <time>2018-06-21T20:20:47Z</time>
      </trkpt>
      <trkpt lat="43.98188" lon="1.82484">
        <ele>181.5</ele>
        <time>2018-06-21T20:20:48Z</time>
      </trkpt>
      <trkpt lat="43.98186" lon="1.82481">
        <ele>181.4</ele>
        <time>2018-06-21T20:20:49Z</time>
      </trkpt>
      <trkpt lat="43.98184" lon="1.82478">
        <ele>181.3</ele>
        <time>2018-06-21T20:20:50Z</time>
      </trkpt>
      <trkpt lat="43.98181" lon="1.82472">
        <ele>181.2</ele>
        <time>2018-06-21T20:20:52Z</time>
      </trkpt>
      <trkpt lat="43.98178" lon="1.82467">
        <ele>181.1</ele>
        <time>2018-06-21T20:20:54Z</time>
      </trkpt>
      <trkpt lat="43.98175" lon="1.82462">
        <ele>181</ele>
        <time>2018-06-21T20:20:56Z</time>
      </trkpt>
      <trkpt lat="43.98171" lon="1.82457">
        <ele>180.6</ele>
        <time>2018-06-21T20:20:58Z</time>
      </trkpt>
      <trkpt lat="43.98166" lon="1.82453">
        <ele>180.4</ele>
        <time>2018-06-21T20:21:00Z</time>
      </trkpt>
      <trkpt lat="43.98163" lon="1.82452">
        <ele>180.3</ele>
        <time>2018-06-21T20:21:01Z</time>
      </trkpt>
      <trkpt lat="43.9816" lon="1.82451">
        <ele>180.1</ele>
        <time>2018-06-21T20:21:02Z</time>
      </trkpt>
      <trkpt lat="43.98157" lon="1.82452">
        <ele>180.3</ele>
        <time>2018-06-21T20:21:03Z</time>
      </trkpt>
      <trkpt lat="43.98155" lon="1.82454">
        <ele>180.5</ele>
        <time>2018-06-21T20:21:04Z</time>
      </trkpt>
      <trkpt lat="43.98154" lon="1.8246">
        <ele>180.8</ele>
        <time>2018-06-21T20:21:06Z</time>
      </trkpt>
      <trkpt lat="43.98154" lon="1.82466">
        <ele>181.2</ele>
        <time>2018-06-21T20:21:08Z</time>
      </trkpt>
      <trkpt lat="43.98155" lon="1.8247">
        <ele>181.6</ele>
        <time>2018-06-21T20:21:10Z</time>
      </trkpt>
      <trkpt lat="43.98155" lon="1.82474">
        <ele>182</ele>
        <time>2018-06-21T20:21:12Z</time>
      </trkpt>
      <trkpt lat="43.98157" lon="1.82479">
        <ele>182.8</ele>
        <time>2018-06-21T20:21:14Z</time>
      </trkpt>
      <trkpt lat="43.98158" lon="1.82484">
        <ele>183.4</ele>
        <time>2018-06-21T20:21:16Z</time>
      </trkpt>
      <trkpt lat="43.98159" lon="1.8249">
        <ele>184</ele>
        <time>2018-06-21T20:21:18Z</time>
      </trkpt>
      <trkpt lat="43.9816" lon="1.82494">
        <ele>184.3</ele>
        <time>2018-06-21T20:21:19Z</time>
      </trkpt>
      <trkpt lat="43.98161" lon="1.82498">
        <ele>184.6</ele>
        <time>2018-06-21T20:21:20Z</time>
      </trkpt>
      <trkpt lat="43.98161" lon="1.82502">
        <ele>184.8</ele>
        <time>2018-06-21T20:21:21Z</time>
      </trkpt>
      <trkpt lat="43.98162" lon="1.82505">
        <ele>185</ele>
        <time>2018-06-21T20:21:22Z</time>
      </trkpt>
      <trkpt lat="43.98162" lon="1.82509">
        <ele>185.3</ele>
        <time>2018-06-21T20:21:23Z</time>
      </trkpt>
      <trkpt lat="43.98163" lon="1.82513">
        <ele>185.5</ele>
        <time>2018-06-21T20:21:24Z</time>
      </trkpt>
      <trkpt lat="43.98165" lon="1.8252">
        <ele>185.9</ele>
        <time>2018-06-21T20:21:26Z</time>
      </trkpt>
      <trkpt lat="43.98166" lon="1.82527">
        <ele>186.3</ele>
        <time>2018-06-21T20:21:28Z</time>
      </trkpt>
      <trkpt lat="43.98166" lon="1.82531">
        <ele>186.5</ele>
        <time>2018-06-21T20:21:29Z</time>
      </trkpt>
      <trkpt lat="43.98167" lon="1.82535">
        <ele>186.7</ele>
        <time>2018-06-21T20:21:30Z</time>
      </trkpt>
      <trkpt lat="43.98167" lon="1.82539">
        <ele>187</ele>
        <time>2018-06-21T20:21:31Z</time>
      </trkpt>
      <trkpt lat="43.98168" lon="1.82545">
        <ele>187.4</ele>
        <time>2018-06-21T20:21:33Z</time>
      </trkpt>
      <trkpt lat="43.9817" lon="1.82552">
        <ele>187.8</ele>
        <time>2018-06-21T20:21:35Z</time>
      </trkpt>
      <trkpt lat="43.98171" lon="1.82559">
        <ele>188.3</ele>
        <time>2018-06-21T20:21:37Z</time>
      </trkpt>
      <trkpt lat="43.98172" lon="1.82563">
        <ele>188.5</ele>
        <time>2018-06-21T20:21:38Z</time>
      </trkpt>
      <trkpt lat="43.98174" lon="1.8257">
        <ele>189.1</ele>
        <time>2018-06-21T20:21:40Z</time>
      </trkpt>
      <trkpt lat="43.98174" lon="1.82574">
        <ele>189.3</ele>
        <time>2018-06-21T20:21:41Z</time>
      </trkpt>
      <trkpt lat="43.98177" lon="1.8258">
        <ele>189.9</ele>
        <time>2018-06-21T20:21:43Z</time>
      </trkpt>
      <trkpt lat="43.9818" lon="1.82586">
        <ele>190.4</ele>
        <time>2018-06-21T20:21:45Z</time>
      </trkpt>
      <trkpt lat="43.98182" lon="1.82593">
        <ele>190.9</ele>
        <time>2018-06-21T20:21:47Z</time>
      </trkpt>
      <trkpt lat="43.98183" lon="1.82596">
        <ele>191.2</ele>
        <time>2018-06-21T20:21:48Z</time>
      </trkpt>
      <trkpt lat="43.98186" lon="1.82603">
        <ele>191.8</ele>
        <time>2018-06-21T20:21:50Z</time>
      </trkpt>
      <trkpt lat="43.98186" lon="1.82606">
        <ele>192.1</ele>
        <time>2018-06-21T20:21:51Z</time>
      </trkpt>
      <trkpt lat="43.98188" lon="1.82613">
        <ele>192.6</ele>
        <time>2018-06-21T20:21:53Z</time>
      </trkpt>
      <trkpt lat="43.98189" lon="1.82617">
        <ele>193</ele>
        <time>2018-06-21T20:21:54Z</time>
      </trkpt>
      <trkpt lat="43.9819" lon="1.82624">
        <ele>193.6</ele>
        <time>2018-06-21T20:21:56Z</time>
      </trkpt>
      <trkpt lat="43.98191" lon="1.82628">
        <ele>193.9</ele>
        <time>2018-06-21T20:21:57Z</time>
      </trkpt>
      <trkpt lat="43.98193" lon="1.82634">
        <ele>194.4</ele>
        <time>2018-06-21T20:21:59Z</time>
      </trkpt>
      <trkpt lat="43.98195" lon="1.82641">
        <ele>195</ele>
        <time>2018-06-21T20:22:01Z</time>
      </trkpt>
      <trkpt lat="43.98197" lon="1.82646">
        <ele>195.5</ele>
        <time>2018-06-21T20:22:03Z</time>
      </trkpt>
      <trkpt lat="43.98199" lon="1.82651">
        <ele>195.9</ele>
        <time>2018-06-21T20:22:05Z</time>
      </trkpt>
      <trkpt lat="43.98202" lon="1.82657">
        <ele>196.4</ele>
        <time>2018-06-21T20:22:07Z</time>
      </trkpt>
      <trkpt lat="43.98204" lon="1.82663">
        <ele>196.8</ele>
        <time>2018-06-21T20:22:09Z</time>
      </trkpt>
      <trkpt lat="43.98206" lon="1.82669">
        <ele>197.2</ele>
        <time>2018-06-21T20:22:11Z</time>
      </trkpt>
      <trkpt lat="43.98208" lon="1.82675">
        <ele>197.6</ele>
        <time>2018-06-21T20:22:13Z</time>
      </trkpt>
      <trkpt lat="43.9821" lon="1.8268">
        <ele>198</ele>
        <time>2018-06-21T20:22:15Z</time>
      </trkpt>
      <trkpt lat="43.98212" lon="1.82686">
        <ele>198.3</ele>
        <time>2018-06-21T20:22:17Z</time>
      </trkpt>
      <trkpt lat="43.98214" lon="1.82692">
        <ele>198.7</ele>
        <time>2018-06-21T20:22:19Z</time>
      </trkpt>
      <trkpt lat="43.98215" lon="1.827">
        <ele>199</ele>
        <time>2018-06-21T20:22:21Z</time>
      </trkpt>
      <trkpt lat="43.98216" lon="1.82706">
        <ele>199.3</ele>
        <time>2018-06-21T20:22:23Z</time>
      </trkpt>
      <trkpt lat="43.98216" lon="1.8271">
        <ele>199.5</ele>
        <time>2018-06-21T20:22:24Z</time>
      </trkpt>
      <trkpt lat="43.98217" lon="1.82717">
        <ele>199.6</ele>
        <time>2018-06-21T20:22:26Z</time>
      </trkpt>
      <trkpt lat="43.98217" lon="1.82721">
        <ele>199.7</ele>
        <time>2018-06-21T20:22:27Z</time>
      </trkpt>
      <trkpt lat="43.98218" lon="1.82728">
        <ele>199.9</ele>
        <time>2018-06-21T20:22:29Z</time>
      </trkpt>
      <trkpt lat="43.98219" lon="1.82733">
        <ele>200.1</ele>
        <time>2018-06-21T20:22:30Z</time>
      </trkpt>
      <trkpt lat="43.9822" lon="1.82738">
        <ele>200.3</ele>
        <time>2018-06-21T20:22:31Z</time>
      </trkpt>
      <trkpt lat="43.9822" lon="1.82743">
        <ele>200.5</ele>
        <time>2018-06-21T20:22:32Z</time>
      </trkpt>
      <trkpt lat="43.98221" lon="1.82748">
        <ele>200.7</ele>
        <time>2018-06-21T20:22:33Z</time>
      </trkpt>
      <trkpt lat="43.98222" lon="1.82753">
        <ele>200.9</ele>
        <time>2018-06-21T20:22:34Z</time>
      </trkpt>
      <trkpt lat="43.98222" lon="1.82758">
        <ele>201.1</ele>
        <time>2018-06-21T20:22:35Z</time>
      </trkpt>
      <trkpt lat="43.98222" lon="1.82762">
        <ele>201.3</ele>
        <time>2018-06-21T20:22:36Z</time>
      </trkpt>
      <trkpt lat="43.98222" lon="1.82767">
        <ele>201.4</ele>
        <time>2018-06-21T20:22:37Z</time>
      </trkpt>
      <trkpt lat="43.98222" lon="1.82772">
        <ele>201.6</ele>
        <time>2018-06-21T20:22:38Z</time>
      </trkpt>
      <trkpt lat="43.98222" lon="1.82776">
        <ele>201.7</ele>
        <time>2018-06-21T20:22:39Z</time>
      </trkpt>
      <trkpt lat="43.98221" lon="1.82781">
        <ele>201.8</ele>
        <time>2018-06-21T20:22:40Z</time>
      </trkpt>
      <trkpt lat="43.98221" lon="1.82786">
        <ele>201.9</ele>
        <time>2018-06-21T20:22:41Z</time>
      </trkpt>
      <trkpt lat="43.9822" lon="1.82793">
        <ele>201.9</ele>
        <time>2018-06-21T20:22:43Z</time>
      </trkpt>
      <trkpt lat="43.9822" lon="1.82798">
        <ele>202</ele>
        <time>2018-06-21T20:22:44Z</time>
      </trkpt>
      <trkpt lat="43.98219" lon="1.82802">
        <ele>202</ele>
        <time>2018-06-21T20:22:45Z</time>
      </trkpt>
      <trkpt lat="43.98219" lon="1.82806">
        <ele>202</ele>
        <time>2018-06-21T20:22:46Z</time>
      </trkpt>
      <trkpt lat="43.98219" lon="1.82811">
        <ele>202.1</ele>
        <time>2018-06-21T20:22:47Z</time>
      </trkpt>
      <trkpt lat="43.98219" lon="1.82815">
        <ele>202.1</ele>
        <time>2018-06-21T20:22:48Z</time>
      </trkpt>
      <trkpt lat="43.98218" lon="1.82819">
        <ele>202.1</ele>
        <time>2018-06-21T20:22:49Z</time>
      </trkpt>
      <trkpt lat="43.98218" lon="1.82824">
        <ele>202.2</ele>
        <time>2018-06-21T20:22:50Z</time>
      </trkpt>
      <trkpt lat="43.98218" lon="1.82829">
        <ele>202.2</ele>
        <time>2018-06-21T20:22:51Z</time>
      </trkpt>
      <trkpt lat="43.98218" lon="1.82834">
        <ele>202.2</ele>
        <time>2018-06-21T20:22:52Z</time>
      </trkpt>
      <trkpt lat="43.98218" lon="1.82839">
        <ele>202.2</ele>
        <time>2018-06-21T20:22:53Z</time>
      </trkpt>
      <trkpt lat="43.98218" lon="1.82844">
        <ele>202.2</ele>
        <time>2018-06-21T20:22:54Z</time>
      </trkpt>
      <trkpt lat="43.98217" lon="1.82849">
        <ele>202.2</ele>
        <time>2018-06-21T20:22:55Z</time>
      </trkpt>
      <trkpt lat="43.98216" lon="1.82854">
        <ele>202.3</ele>
        <time>2018-06-21T20:22:56Z</time>
      </trkpt>
      <trkpt lat="43.98216" lon="1.82859">
        <ele>202.3</ele>
        <time>2018-06-21T20:22:57Z</time>
      </trkpt>
      <trkpt lat="43.98215" lon="1.82864">
        <ele>202.3</ele>
        <time>2018-06-21T20:22:58Z</time>
      </trkpt>
      <trkpt lat="43.98214" lon="1.82869">
        <ele>202.3</ele>
        <time>2018-06-21T20:22:59Z</time>
      </trkpt>
      <trkpt lat="43.98213" lon="1.82874">
        <ele>202.3</ele>
        <time>2018-06-21T20:23:00Z</time>
      </trkpt>
      <trkpt lat="43.98211" lon="1.82878">
        <ele>202.3</ele>
        <time>2018-06-21T20:23:01Z</time>
      </trkpt>
      <trkpt lat="43.9821" lon="1.82883">
        <ele>202.4</ele>
        <time>2018-06-21T20:23:02Z</time>
      </trkpt>
      <trkpt lat="43.98209" lon="1.82889">
        <ele>202.4</ele>
        <time>2018-06-21T20:23:03Z</time>
      </trkpt>
      <trkpt lat="43.98208" lon="1.82895">
        <ele>202.4</ele>
        <time>2018-06-21T20:23:04Z</time>
      </trkpt>
      <trkpt lat="43.98207" lon="1.82901">
        <ele>202.4</ele>
        <time>2018-06-21T20:23:05Z</time>
      </trkpt>
      <trkpt lat="43.98207" lon="1.82907">
        <ele>202.4</ele>
        <time>2018-06-21T20:23:06Z</time>
      </trkpt>
      <trkpt lat="43.98206" lon="1.82913">
        <ele>202.4</ele>
        <time>2018-06-21T20:23:07Z</time>
      </trkpt>
      <trkpt lat="43.98205" lon="1.82919">
        <ele>202.4</ele>
        <time>2018-06-21T20:23:08Z</time>
      </trkpt>
      <trkpt lat="43.98204" lon="1.82926">
        <ele>202.5</ele>
        <time>2018-06-21T20:23:09Z</time>
      </trkpt>
      <trkpt lat="43.98203" lon="1.82932">
        <ele>202.5</ele>
        <time>2018-06-21T20:23:10Z</time>
      </trkpt>
      <trkpt lat="43.98203" lon="1.82938">
        <ele>202.5</ele>
        <time>2018-06-21T20:23:11Z</time>
      </trkpt>
      <trkpt lat="43.98202" lon="1.82945">
        <ele>202.5</ele>
        <time>2018-06-21T20:23:12Z</time>
      </trkpt>
      <trkpt lat="43.98201" lon="1.82952">
        <ele>202.5</ele>
        <time>2018-06-21T20:23:13Z</time>
      </trkpt>
      <trkpt lat="43.982" lon="1.82958">
        <ele>202.5</ele>
        <time>2018-06-21T20:23:14Z</time>
      </trkpt>
      <trkpt lat="43.982" lon="1.82967">
        <ele>202.6</ele>
        <time>2018-06-21T20:23:15Z</time>
      </trkpt>
      <trkpt lat="43.98199" lon="1.82974">
        <ele>202.6</ele>
        <time>2018-06-21T20:23:16Z</time>
      </trkpt>
      <trkpt lat="43.98198" lon="1.82981">
        <ele>202.6</ele>
        <time>2018-06-21T20:23:17Z</time>
      </trkpt>
      <trkpt lat="43.98197" lon="1.82988">
        <ele>202.6</ele>
        <time>2018-06-21T20:23:18Z</time>
      </trkpt>
      <trkpt lat="43.98196" lon="1.82996">
        <ele>202.6</ele>
        <time>2018-06-21T20:23:19Z</time>
      </trkpt>
      <trkpt lat="43.98195" lon="1.83004">
        <ele>202.7</ele>
        <time>2018-06-21T20:23:20Z</time>
      </trkpt>
      <trkpt lat="43.98195" lon="1.83013">
        <ele>202.7</ele>
        <time>2018-06-21T20:23:21Z</time>
      </trkpt>
      <trkpt lat="43.98194" lon="1.8302">
        <ele>202.7</ele>
        <time>2018-06-21T20:23:22Z</time>
      </trkpt>
      <trkpt lat="43.98193" lon="1.83027">
        <ele>202.8</ele>
        <time>2018-06-21T20:23:23Z</time>
      </trkpt>
      <trkpt lat="43.98192" lon="1.83036">
        <ele>202.8</ele>
        <time>2018-06-21T20:23:24Z</time>
      </trkpt>
      <trkpt lat="43.9819" lon="1.83045">
        <ele>202.9</ele>
        <time>2018-06-21T20:23:25Z</time>
      </trkpt>
      <trkpt lat="43.98189" lon="1.83052">
        <ele>202.9</ele>
        <time>2018-06-21T20:23:26Z</time>
      </trkpt>
      <trkpt lat="43.98189" lon="1.83059">
        <ele>202.9</ele>
        <time>2018-06-21T20:23:27Z</time>
      </trkpt>
      <trkpt lat="43.98188" lon="1.83066">
        <ele>203</ele>
        <time>2018-06-21T20:23:28Z</time>
      </trkpt>
      <trkpt lat="43.98187" lon="1.83074">
        <ele>203.1</ele>
        <time>2018-06-21T20:23:29Z</time>
      </trkpt>
      <trkpt lat="43.98187" lon="1.83082">
        <ele>203.2</ele>
        <time>2018-06-21T20:23:30Z</time>
      </trkpt>
      <trkpt lat="43.98186" lon="1.83089">
        <ele>203.3</ele>
        <time>2018-06-21T20:23:31Z</time>
      </trkpt>
      <trkpt lat="43.98185" lon="1.83097">
        <ele>203.5</ele>
        <time>2018-06-21T20:23:32Z</time>
      </trkpt>
      <trkpt lat="43.98185" lon="1.83105">
        <ele>203.8</ele>
        <time>2018-06-21T20:23:33Z</time>
      </trkpt>
      <trkpt lat="43.98185" lon="1.83113">
        <ele>204.1</ele>
        <time>2018-06-21T20:23:34Z</time>
      </trkpt>
      <trkpt lat="43.98185" lon="1.8312">
        <ele>204.4</ele>
        <time>2018-06-21T20:23:35Z</time>
      </trkpt>
      <trkpt lat="43.98184" lon="1.83129">
        <ele>204.7</ele>
        <time>2018-06-21T20:23:36Z</time>
      </trkpt>
      <trkpt lat="43.98184" lon="1.83137">
        <ele>205</ele>
        <time>2018-06-21T20:23:37Z</time>
      </trkpt>
      <trkpt lat="43.98184" lon="1.83145">
        <ele>205.1</ele>
        <time>2018-06-21T20:23:38Z</time>
      </trkpt>
      <trkpt lat="43.98184" lon="1.83153">
        <ele>205.2</ele>
        <time>2018-06-21T20:23:39Z</time>
      </trkpt>
      <trkpt lat="43.98183" lon="1.83159">
        <ele>205.3</ele>
        <time>2018-06-21T20:23:40Z</time>
      </trkpt>
      <trkpt lat="43.98183" lon="1.83166">
        <ele>205.4</ele>
        <time>2018-06-21T20:23:41Z</time>
      </trkpt>
      <trkpt lat="43.98182" lon="1.83172">
        <ele>205.5</ele>
        <time>2018-06-21T20:23:42Z</time>
      </trkpt>
      <trkpt lat="43.98182" lon="1.83179">
        <ele>205.7</ele>
        <time>2018-06-21T20:23:43Z</time>
      </trkpt>
      <trkpt lat="43.9818" lon="1.83186">
        <ele>205.9</ele>
        <time>2018-06-21T20:23:44Z</time>
      </trkpt>
      <trkpt lat="43.98179" lon="1.83192">
        <ele>206.1</ele>
        <time>2018-06-21T20:23:45Z</time>
      </trkpt>
      <trkpt lat="43.98178" lon="1.83199">
        <ele>206.5</ele>
        <time>2018-06-21T20:23:46Z</time>
      </trkpt>
      <trkpt lat="43.98177" lon="1.83206">
        <ele>206.8</ele>
        <time>2018-06-21T20:23:47Z</time>
      </trkpt>
      <trkpt lat="43.98176" lon="1.83213">
        <ele>207.2</ele>
        <time>2018-06-21T20:23:48Z</time>
      </trkpt>
      <trkpt lat="43.98174" lon="1.8322">
        <ele>207.6</ele>
        <time>2018-06-21T20:23:49Z</time>
      </trkpt>
      <trkpt lat="43.98173" lon="1.83226">
        <ele>208</ele>
        <time>2018-06-21T20:23:50Z</time>
      </trkpt>
      <trkpt lat="43.98171" lon="1.83232">
        <ele>208.4</ele>
        <time>2018-06-21T20:23:51Z</time>
      </trkpt>
      <trkpt lat="43.9817" lon="1.83237">
        <ele>208.7</ele>
        <time>2018-06-21T20:23:52Z</time>
      </trkpt>
      <trkpt lat="43.98169" lon="1.83242">
        <ele>209.1</ele>
        <time>2018-06-21T20:23:53Z</time>
      </trkpt>
      <trkpt lat="43.98165" lon="1.83247">
        <ele>209.4</ele>
        <time>2018-06-21T20:23:54Z</time>
      </trkpt>
      <trkpt lat="43.98163" lon="1.83253">
        <ele>209.8</ele>
        <time>2018-06-21T20:23:55Z</time>
      </trkpt>
      <trkpt lat="43.98161" lon="1.83259">
        <ele>210.2</ele>
        <time>2018-06-21T20:23:56Z</time>
      </trkpt>
      <trkpt lat="43.9816" lon="1.83265">
        <ele>210.5</ele>
        <time>2018-06-21T20:23:57Z</time>
      </trkpt>
      <trkpt lat="43.98159" lon="1.8327">
        <ele>210.8</ele>
        <time>2018-06-21T20:23:58Z</time>
      </trkpt>
      <trkpt lat="43.98158" lon="1.83276">
        <ele>211.1</ele>
        <time>2018-06-21T20:23:59Z</time>
      </trkpt>
      <trkpt lat="43.98157" lon="1.83281">
        <ele>211.4</ele>
        <time>2018-06-21T20:24:00Z</time>
      </trkpt>
      <trkpt lat="43.98157" lon="1.83286">
        <ele>211.6</ele>
        <time>2018-06-21T20:24:01Z</time>
      </trkpt>
      <trkpt lat="43.98156" lon="1.83291">
        <ele>211.8</ele>
        <time>2018-06-21T20:24:02Z</time>
      </trkpt>
      <trkpt lat="43.98155" lon="1.83296">
        <ele>212</ele>
        <time>2018-06-21T20:24:03Z</time>
      </trkpt>
      <trkpt lat="43.98154" lon="1.83301">
        <ele>212.2</ele>
        <time>2018-06-21T20:24:04Z</time>
      </trkpt>
      <trkpt lat="43.98154" lon="1.83306">
        <ele>212.3</ele>
        <time>2018-06-21T20:24:05Z</time>
      </trkpt>
      <trkpt lat="43.98154" lon="1.8331">
        <ele>212.3</ele>
        <time>2018-06-21T20:24:06Z</time>
      </trkpt>
      <trkpt lat="43.98153" lon="1.83315">
        <ele>212.4</ele>
        <time>2018-06-21T20:24:07Z</time>
      </trkpt>
      <trkpt lat="43.98152" lon="1.83319">
        <ele>212.5</ele>
        <time>2018-06-21T20:24:08Z</time>
      </trkpt>
      <trkpt lat="43.98152" lon="1.83324">
        <ele>212.6</ele>
        <time>2018-06-21T20:24:09Z</time>
      </trkpt>
      <trkpt lat="43.98151" lon="1.83329">
        <ele>212.6</ele>
        <time>2018-06-21T20:24:10Z</time>
      </trkpt>
      <trkpt lat="43.98151" lon="1.83334">
        <ele>212.7</ele>
        <time>2018-06-21T20:24:11Z</time>
      </trkpt>
      <trkpt lat="43.9815" lon="1.83339">
        <ele>212.8</ele>
        <time>2018-06-21T20:24:12Z</time>
      </trkpt>
      <trkpt lat="43.9815" lon="1.83345">
        <ele>212.8</ele>
        <time>2018-06-21T20:24:13Z</time>
      </trkpt>
      <trkpt lat="43.98149" lon="1.8335">
        <ele>212.9</ele>
        <time>2018-06-21T20:24:14Z</time>
      </trkpt>
      <trkpt lat="43.98149" lon="1.83356">
        <ele>212.9</ele>
        <time>2018-06-21T20:24:15Z</time>
      </trkpt>
      <trkpt lat="43.98148" lon="1.83361">
        <ele>212.9</ele>
        <time>2018-06-21T20:24:16Z</time>
      </trkpt>
      <trkpt lat="43.98147" lon="1.83366">
        <ele>213</ele>
        <time>2018-06-21T20:24:17Z</time>
      </trkpt>
      <trkpt lat="43.98147" lon="1.8337">
        <ele>213</ele>
        <time>2018-06-21T20:24:18Z</time>
      </trkpt>
      <trkpt lat="43.98146" lon="1.83376">
        <ele>213</ele>
        <time>2018-06-21T20:24:19Z</time>
      </trkpt>
      <trkpt lat="43.98145" lon="1.83381">
        <ele>213</ele>
        <time>2018-06-21T20:24:20Z</time>
      </trkpt>
      <trkpt lat="43.98144" lon="1.83386">
        <ele>213.1</ele>
        <time>2018-06-21T20:24:21Z</time>
      </trkpt>
      <trkpt lat="43.98143" lon="1.8339">
        <ele>213.1</ele>
        <time>2018-06-21T20:24:22Z</time>
      </trkpt>
      <trkpt lat="43.98142" lon="1.83395">
        <ele>213.1</ele>
        <time>2018-06-21T20:24:23Z</time>
      </trkpt>
      <trkpt lat="43.98141" lon="1.834">
        <ele>213.1</ele>
        <time>2018-06-21T20:24:24Z</time>
      </trkpt>
      <trkpt lat="43.9814" lon="1.83405">
        <ele>213.2</ele>
        <time>2018-06-21T20:24:25Z</time>
      </trkpt>
      <trkpt lat="43.98139" lon="1.83411">
        <ele>213.2</ele>
        <time>2018-06-21T20:24:26Z</time>
      </trkpt>
      <trkpt lat="43.98138" lon="1.83416">
        <ele>213.2</ele>
        <time>2018-06-21T20:24:27Z</time>
      </trkpt>
      <trkpt lat="43.98137" lon="1.83421">
        <ele>213.2</ele>
        <time>2018-06-21T20:24:28Z</time>
      </trkpt>
      <trkpt lat="43.98136" lon="1.83426">
        <ele>213.3</ele>
        <time>2018-06-21T20:24:29Z</time>
      </trkpt>
      <trkpt lat="43.98134" lon="1.83432">
        <ele>213.3</ele>
        <time>2018-06-21T20:24:30Z</time>
      </trkpt>
      <trkpt lat="43.98133" lon="1.83438">
        <ele>213.3</ele>
        <time>2018-06-21T20:24:31Z</time>
      </trkpt>
      <trkpt lat="43.98131" lon="1.83445">
        <ele>213.4</ele>
        <time>2018-06-21T20:24:32Z</time>
      </trkpt>
      <trkpt lat="43.9813" lon="1.83451">
        <ele>213.4</ele>
        <time>2018-06-21T20:24:33Z</time>
      </trkpt>
      <trkpt lat="43.9813" lon="1.83456">
        <ele>213.4</ele>
        <time>2018-06-21T20:24:34Z</time>
      </trkpt>
      <trkpt lat="43.98128" lon="1.83462">
        <ele>213.5</ele>
        <time>2018-06-21T20:24:35Z</time>
      </trkpt>
      <trkpt lat="43.98127" lon="1.8347">
        <ele>213.5</ele>
        <time>2018-06-21T20:24:36Z</time>
      </trkpt>
      <trkpt lat="43.98125" lon="1.83477">
        <ele>213.6</ele>
        <time>2018-06-21T20:24:37Z</time>
      </trkpt>
      <trkpt lat="43.98124" lon="1.83484">
        <ele>213.7</ele>
        <time>2018-06-21T20:24:38Z</time>
      </trkpt>
      <trkpt lat="43.98121" lon="1.83492">
        <ele>213.9</ele>
        <time>2018-06-21T20:24:39Z</time>
      </trkpt>
      <trkpt lat="43.98119" lon="1.83499">
        <ele>214.2</ele>
        <time>2018-06-21T20:24:40Z</time>
      </trkpt>
      <trkpt lat="43.98117" lon="1.83506">
        <ele>214.5</ele>
        <time>2018-06-21T20:24:41Z</time>
      </trkpt>
      <trkpt lat="43.98115" lon="1.83514">
        <ele>214.9</ele>
        <time>2018-06-21T20:24:42Z</time>
      </trkpt>
      <trkpt lat="43.98113" lon="1.83521">
        <ele>215.3</ele>
        <time>2018-06-21T20:24:43Z</time>
      </trkpt>
      <trkpt lat="43.98111" lon="1.8353">
        <ele>215.6</ele>
        <time>2018-06-21T20:24:44Z</time>
      </trkpt>
      <trkpt lat="43.98109" lon="1.83537">
        <ele>215.8</ele>
        <time>2018-06-21T20:24:45Z</time>
      </trkpt>
      <trkpt lat="43.98107" lon="1.83544">
        <ele>216</ele>
        <time>2018-06-21T20:24:46Z</time>
      </trkpt>
      <trkpt lat="43.98106" lon="1.83551">
        <ele>216.3</ele>
        <time>2018-06-21T20:24:47Z</time>
      </trkpt>
      <trkpt lat="43.98104" lon="1.83559">
        <ele>216.5</ele>
        <time>2018-06-21T20:24:48Z</time>
      </trkpt>
      <trkpt lat="43.98103" lon="1.83565">
        <ele>216.9</ele>
        <time>2018-06-21T20:24:49Z</time>
      </trkpt>
      <trkpt lat="43.98101" lon="1.83572">
        <ele>217.4</ele>
        <time>2018-06-21T20:24:50Z</time>
      </trkpt>
      <trkpt lat="43.981" lon="1.83578">
        <ele>217.8</ele>
        <time>2018-06-21T20:24:51Z</time>
      </trkpt>
      <trkpt lat="43.98098" lon="1.83585">
        <ele>218.3</ele>
        <time>2018-06-21T20:24:52Z</time>
      </trkpt>
      <trkpt lat="43.98097" lon="1.83591">
        <ele>218.8</ele>
        <time>2018-06-21T20:24:53Z</time>
      </trkpt>
      <trkpt lat="43.98096" lon="1.83597">
        <ele>219.2</ele>
        <time>2018-06-21T20:24:54Z</time>
      </trkpt>
      <trkpt lat="43.98095" lon="1.83603">
        <ele>219.7</ele>
        <time>2018-06-21T20:24:55Z</time>
      </trkpt>
      <trkpt lat="43.98094" lon="1.83608">
        <ele>220</ele>
        <time>2018-06-21T20:24:56Z</time>
      </trkpt>
      <trkpt lat="43.98094" lon="1.83614">
        <ele>220.4</ele>
        <time>2018-06-21T20:24:57Z</time>
      </trkpt>
      <trkpt lat="43.98095" lon="1.83619">
        <ele>220.7</ele>
        <time>2018-06-21T20:24:58Z</time>
      </trkpt>
      <trkpt lat="43.98096" lon="1.83624">
        <ele>221.1</ele>
        <time>2018-06-21T20:24:59Z</time>
      </trkpt>
      <trkpt lat="43.98096" lon="1.8363">
        <ele>221.5</ele>
        <time>2018-06-21T20:25:00Z</time>
      </trkpt>
      <trkpt lat="43.98098" lon="1.83635">
        <ele>221.8</ele>
        <time>2018-06-21T20:25:01Z</time>
      </trkpt>
      <trkpt lat="43.981" lon="1.8364">
        <ele>222.1</ele>
        <time>2018-06-21T20:25:02Z</time>
      </trkpt>
      <trkpt lat="43.98101" lon="1.83645">
        <ele>222.5</ele>
        <time>2018-06-21T20:25:03Z</time>
      </trkpt>
      <trkpt lat="43.98102" lon="1.8365">
        <ele>222.8</ele>
        <time>2018-06-21T20:25:04Z</time>
      </trkpt>
      <trkpt lat="43.98103" lon="1.83654">
        <ele>223</ele>
        <time>2018-06-21T20:25:05Z</time>
      </trkpt>
      <trkpt lat="43.98104" lon="1.83659">
        <ele>223.3</ele>
        <time>2018-06-21T20:25:06Z</time>
      </trkpt>
      <trkpt lat="43.98104" lon="1.83664">
        <ele>223.6</ele>
        <time>2018-06-21T20:25:07Z</time>
      </trkpt>
      <trkpt lat="43.98104" lon="1.83669">
        <ele>223.9</ele>
        <time>2018-06-21T20:25:08Z</time>
      </trkpt>
      <trkpt lat="43.98104" lon="1.83674">
        <ele>224.2</ele>
        <time>2018-06-21T20:25:09Z</time>
      </trkpt>
      <trkpt lat="43.98104" lon="1.83679">
        <ele>224.5</ele>
        <time>2018-06-21T20:25:10Z</time>
      </trkpt>
      <trkpt lat="43.98104" lon="1.83684">
        <ele>224.8</ele>
        <time>2018-06-21T20:25:11Z</time>
      </trkpt>
      <trkpt lat="43.98103" lon="1.8369">
        <ele>225</ele>
        <time>2018-06-21T20:25:12Z</time>
      </trkpt>
      <trkpt lat="43.98102" lon="1.83695">
        <ele>225.1</ele>
        <time>2018-06-21T20:25:13Z</time>
      </trkpt>
      <trkpt lat="43.98101" lon="1.83701">
        <ele>225.2</ele>
        <time>2018-06-21T20:25:14Z</time>
      </trkpt>
      <trkpt lat="43.98101" lon="1.83707">
        <ele>225.4</ele>
        <time>2018-06-21T20:25:15Z</time>
      </trkpt>
      <trkpt lat="43.981" lon="1.83712">
        <ele>225.5</ele>
        <time>2018-06-21T20:25:16Z</time>
      </trkpt>
      <trkpt lat="43.981" lon="1.83718">
        <ele>225.6</ele>
        <time>2018-06-21T20:25:17Z</time>
      </trkpt>
      <trkpt lat="43.98099" lon="1.83723">
        <ele>225.6</ele>
        <time>2018-06-21T20:25:18Z</time>
      </trkpt>
      <trkpt lat="43.98099" lon="1.83729">
        <ele>225.7</ele>
        <time>2018-06-21T20:25:19Z</time>
      </trkpt>
      <trkpt lat="43.98099" lon="1.83736">
        <ele>225.8</ele>
        <time>2018-06-21T20:25:20Z</time>
      </trkpt>
      <trkpt lat="43.98098" lon="1.83742">
        <ele>225.9</ele>
        <time>2018-06-21T20:25:21Z</time>
      </trkpt>
      <trkpt lat="43.98098" lon="1.83748">
        <ele>226</ele>
        <time>2018-06-21T20:25:22Z</time>
      </trkpt>
      <trkpt lat="43.98098" lon="1.83753">
        <ele>226</ele>
        <time>2018-06-21T20:25:23Z</time>
      </trkpt>
      <trkpt lat="43.98099" lon="1.83757">
        <ele>226</ele>
        <time>2018-06-21T20:25:24Z</time>
      </trkpt>
      <trkpt lat="43.98099" lon="1.83762">
        <ele>226</ele>
        <time>2018-06-21T20:25:25Z</time>
      </trkpt>
      <trkpt lat="43.98099" lon="1.83766">
        <ele>226</ele>
        <time>2018-06-21T20:25:26Z</time>
      </trkpt>
      <trkpt lat="43.98099" lon="1.83773">
        <ele>226.1</ele>
        <time>2018-06-21T20:25:28Z</time>
      </trkpt>
      <trkpt lat="43.98099" lon="1.8378">
        <ele>226.2</ele>
        <time>2018-06-21T20:25:29Z</time>
      </trkpt>
      <trkpt lat="43.98099" lon="1.83787">
        <ele>226</ele>
        <time>2018-06-21T20:25:30Z</time>
      </trkpt>
      <trkpt lat="43.98098" lon="1.83791">
        <ele>225.8</ele>
        <time>2018-06-21T20:25:31Z</time>
      </trkpt>
      <trkpt lat="43.98097" lon="1.83797">
        <ele>225.5</ele>
        <time>2018-06-21T20:25:32Z</time>
      </trkpt>
      <trkpt lat="43.98096" lon="1.83802">
        <ele>225.3</ele>
        <time>2018-06-21T20:25:33Z</time>
      </trkpt>
      <trkpt lat="43.98096" lon="1.83806">
        <ele>225.1</ele>
        <time>2018-06-21T20:25:34Z</time>
      </trkpt>
      <trkpt lat="43.98095" lon="1.83812">
        <ele>224.8</ele>
        <time>2018-06-21T20:25:35Z</time>
      </trkpt>
      <trkpt lat="43.98095" lon="1.83817">
        <ele>224.5</ele>
        <time>2018-06-21T20:25:36Z</time>
      </trkpt>
      <trkpt lat="43.98095" lon="1.83823">
        <ele>224.1</ele>
        <time>2018-06-21T20:25:37Z</time>
      </trkpt>
      <trkpt lat="43.98094" lon="1.83827">
        <ele>223.9</ele>
        <time>2018-06-21T20:25:38Z</time>
      </trkpt>
      <trkpt lat="43.98094" lon="1.83832">
        <ele>223.6</ele>
        <time>2018-06-21T20:25:39Z</time>
      </trkpt>
      <trkpt lat="43.98094" lon="1.83838">
        <ele>223.2</ele>
        <time>2018-06-21T20:25:41Z</time>
      </trkpt>
      <trkpt lat="43.98093" lon="1.83841">
        <ele>223</ele>
        <time>2018-06-21T20:25:44Z</time>
      </trkpt>
      <trkpt lat="43.98092" lon="1.8384">
        <ele>223</ele>
        <time>2018-06-21T20:26:30Z</time>
      </trkpt>
      <trkpt lat="43.98092" lon="1.8384">
        <ele>223.1</ele>
        <time>2018-06-21T20:26:32Z</time>
      </trkpt>
      <trkpt lat="43.98091" lon="1.83839">
        <ele>223.1</ele>
        <time>2018-06-21T20:27:00Z</time>
      </trkpt>
      <trkpt lat="43.9809" lon="1.83838">
        <ele>223.1</ele>
        <time>2018-06-21T20:27:01Z</time>
      </trkpt>
      <trkpt lat="43.98089" lon="1.83847">
        <ele>222.8</ele>
        <time>2018-06-21T20:27:02Z</time>
      </trkpt>
      <trkpt lat="43.98089" lon="1.83856">
        <ele>222.3</ele>
        <time>2018-06-21T20:27:03Z</time>
      </trkpt>
      <trkpt lat="43.98086" lon="1.83869">
        <ele>221.5</ele>
        <time>2018-06-21T20:27:04Z</time>
      </trkpt>
      <trkpt lat="43.98085" lon="1.8388">
        <ele>220.7</ele>
        <time>2018-06-21T20:27:05Z</time>
      </trkpt>
      <trkpt lat="43.98083" lon="1.83891">
        <ele>219.8</ele>
        <time>2018-06-21T20:27:06Z</time>
      </trkpt>
      <trkpt lat="43.98082" lon="1.83902">
        <ele>219.3</ele>
        <time>2018-06-21T20:27:07Z</time>
      </trkpt>
      <trkpt lat="43.9808" lon="1.83913">
        <ele>218.7</ele>
        <time>2018-06-21T20:27:08Z</time>
      </trkpt>
      <trkpt lat="43.9808" lon="1.83925">
        <ele>218.1</ele>
        <time>2018-06-21T20:27:09Z</time>
      </trkpt>
      <trkpt lat="43.9808" lon="1.83937">
        <ele>217.6</ele>
        <time>2018-06-21T20:27:10Z</time>
      </trkpt>
      <trkpt lat="43.98081" lon="1.83949">
        <ele>217.3</ele>
        <time>2018-06-21T20:27:11Z</time>
      </trkpt>
      <trkpt lat="43.98083" lon="1.83961">
        <ele>216.9</ele>
        <time>2018-06-21T20:27:12Z</time>
      </trkpt>
      <trkpt lat="43.98084" lon="1.83973">
        <ele>216.6</ele>
        <time>2018-06-21T20:27:13Z</time>
      </trkpt>
      <trkpt lat="43.98085" lon="1.83985">
        <ele>216</ele>
        <time>2018-06-21T20:27:14Z</time>
      </trkpt>
      <trkpt lat="43.98087" lon="1.83996">
        <ele>215.8</ele>
        <time>2018-06-21T20:27:15Z</time>
      </trkpt>
      <trkpt lat="43.98088" lon="1.84007">
        <ele>215.6</ele>
        <time>2018-06-21T20:27:16Z</time>
      </trkpt>
      <trkpt lat="43.98087" lon="1.84017">
        <ele>215.4</ele>
        <time>2018-06-21T20:27:17Z</time>
      </trkpt>
      <trkpt lat="43.98086" lon="1.84025">
        <ele>215.2</ele>
        <time>2018-06-21T20:27:18Z</time>
      </trkpt>
      <trkpt lat="43.98085" lon="1.84034">
        <ele>215.1</ele>
        <time>2018-06-21T20:27:19Z</time>
      </trkpt>
      <trkpt lat="43.98083" lon="1.84041">
        <ele>215.2</ele>
        <time>2018-06-21T20:27:20Z</time>
      </trkpt>
      <trkpt lat="43.98081" lon="1.84047">
        <ele>215.3</ele>
        <time>2018-06-21T20:27:21Z</time>
      </trkpt>
      <trkpt lat="43.98077" lon="1.84049">
        <ele>215.4</ele>
        <time>2018-06-21T20:27:22Z</time>
      </trkpt>
      <trkpt lat="43.98072" lon="1.84048">
        <ele>215.5</ele>
        <time>2018-06-21T20:27:23Z</time>
      </trkpt>
      <trkpt lat="43.98068" lon="1.84047">
        <ele>215.6</ele>
        <time>2018-06-21T20:27:24Z</time>
      </trkpt>
      <trkpt lat="43.98062" lon="1.84047">
        <ele>215.6</ele>
        <time>2018-06-21T20:27:25Z</time>
      </trkpt>
      <trkpt lat="43.98056" lon="1.84046">
        <ele>215.7</ele>
        <time>2018-06-21T20:27:26Z</time>
      </trkpt>
      <trkpt lat="43.98049" lon="1.84046">
        <ele>215.5</ele>
        <time>2018-06-21T20:27:27Z</time>
      </trkpt>
      <trkpt lat="43.98042" lon="1.84046">
        <ele>215.2</ele>
        <time>2018-06-21T20:27:28Z</time>
      </trkpt>
      <trkpt lat="43.98033" lon="1.84046">
        <ele>214.5</ele>
        <time>2018-06-21T20:27:29Z</time>
      </trkpt>
      <trkpt lat="43.98025" lon="1.84046">
        <ele>214</ele>
        <time>2018-06-21T20:27:30Z</time>
      </trkpt>
      <trkpt lat="43.98017" lon="1.84047">
        <ele>213.2</ele>
        <time>2018-06-21T20:27:31Z</time>
      </trkpt>
      <trkpt lat="43.98008" lon="1.84047">
        <ele>212.4</ele>
        <time>2018-06-21T20:27:32Z</time>
      </trkpt>
      <trkpt lat="43.97999" lon="1.84048">
        <ele>211.9</ele>
        <time>2018-06-21T20:27:33Z</time>
      </trkpt>
      <trkpt lat="43.9799" lon="1.84048">
        <ele>211.5</ele>
        <time>2018-06-21T20:27:34Z</time>
      </trkpt>
      <trkpt lat="43.97982" lon="1.84049">
        <ele>211.3</ele>
        <time>2018-06-21T20:27:35Z</time>
      </trkpt>
      <trkpt lat="43.97974" lon="1.84049">
        <ele>210.8</ele>
        <time>2018-06-21T20:27:36Z</time>
      </trkpt>
      <trkpt lat="43.97966" lon="1.84049">
        <ele>210.3</ele>
        <time>2018-06-21T20:27:37Z</time>
      </trkpt>
      <trkpt lat="43.97957" lon="1.84048">
        <ele>209.8</ele>
        <time>2018-06-21T20:27:38Z</time>
      </trkpt>
      <trkpt lat="43.97948" lon="1.84049">
        <ele>209.3</ele>
        <time>2018-06-21T20:27:39Z</time>
      </trkpt>
      <trkpt lat="43.97939" lon="1.84049">
        <ele>208.8</ele>
        <time>2018-06-21T20:27:40Z</time>
      </trkpt>
      <trkpt lat="43.97931" lon="1.8405">
        <ele>208.4</ele>
        <time>2018-06-21T20:27:41Z</time>
      </trkpt>
      <trkpt lat="43.97922" lon="1.84051">
        <ele>208.1</ele>
        <time>2018-06-21T20:27:42Z</time>
      </trkpt>
      <trkpt lat="43.97915" lon="1.84051">
        <ele>207.7</ele>
        <time>2018-06-21T20:27:43Z</time>
      </trkpt>
      <trkpt lat="43.97908" lon="1.84054">
        <ele>207.4</ele>
        <time>2018-06-21T20:27:44Z</time>
      </trkpt>
      <trkpt lat="43.97902" lon="1.84057">
        <ele>206.8</ele>
        <time>2018-06-21T20:27:45Z</time>
      </trkpt>
      <trkpt lat="43.97897" lon="1.84057">
        <ele>206.3</ele>
        <time>2018-06-21T20:27:46Z</time>
      </trkpt>
      <trkpt lat="43.97893" lon="1.84054">
        <ele>206.2</ele>
        <time>2018-06-21T20:27:47Z</time>
      </trkpt>
      <trkpt lat="43.97889" lon="1.8405">
        <ele>206</ele>
        <time>2018-06-21T20:27:48Z</time>
      </trkpt>
      <trkpt lat="43.97887" lon="1.84046">
        <ele>205.8</ele>
        <time>2018-06-21T20:27:49Z</time>
      </trkpt>
      <trkpt lat="43.97884" lon="1.84042">
        <ele>205.5</ele>
        <time>2018-06-21T20:27:50Z</time>
      </trkpt>
      <trkpt lat="43.9788" lon="1.8404">
        <ele>205</ele>
        <time>2018-06-21T20:27:51Z</time>
      </trkpt>
      <trkpt lat="43.97875" lon="1.84041">
        <ele>204</ele>
        <time>2018-06-21T20:27:52Z</time>
      </trkpt>
      <trkpt lat="43.97872" lon="1.8404">
        <ele>203.5</ele>
        <time>2018-06-21T20:27:53Z</time>
      </trkpt>
      <trkpt lat="43.97866" lon="1.84039">
        <ele>202.3</ele>
        <time>2018-06-21T20:27:54Z</time>
      </trkpt>
      <trkpt lat="43.97858" lon="1.84039">
        <ele>200.1</ele>
        <time>2018-06-21T20:27:55Z</time>
      </trkpt>
      <trkpt lat="43.97847" lon="1.8404">
        <ele>198.1</ele>
        <time>2018-06-21T20:27:56Z</time>
      </trkpt>
      <trkpt lat="43.97835" lon="1.84039">
        <ele>195.5</ele>
        <time>2018-06-21T20:27:57Z</time>
      </trkpt>
      <trkpt lat="43.97823" lon="1.84037">
        <ele>193.3</ele>
        <time>2018-06-21T20:27:58Z</time>
      </trkpt>
      <trkpt lat="43.97811" lon="1.84037">
        <ele>191.2</ele>
        <time>2018-06-21T20:27:59Z</time>
      </trkpt>
      <trkpt lat="43.97802" lon="1.84036">
        <ele>189.8</ele>
        <time>2018-06-21T20:28:00Z</time>
      </trkpt>
      <trkpt lat="43.97796" lon="1.84036">
        <ele>189.8</ele>
        <time>2018-06-21T20:28:01Z</time>
      </trkpt>
      <trkpt lat="43.97792" lon="1.84036">
        <ele>189.8</ele>
        <time>2018-06-21T20:28:02Z</time>
      </trkpt>
      <trkpt lat="43.97789" lon="1.84036">
        <ele>189.8</ele>
        <time>2018-06-21T20:28:03Z</time>
      </trkpt>
      <trkpt lat="43.97785" lon="1.84034">
        <ele>189.8</ele>
        <time>2018-06-21T20:28:06Z</time>
      </trkpt>
      <trkpt lat="43.97784" lon="1.84032">
        <ele>189.7</ele>
        <time>2018-06-21T20:28:08Z</time>
      </trkpt>
      <trkpt lat="43.97782" lon="1.84029">
        <ele>189.7</ele>
        <time>2018-06-21T20:28:09Z</time>
      </trkpt>
      <trkpt lat="43.97779" lon="1.84026">
        <ele>189.7</ele>
        <time>2018-06-21T20:28:10Z</time>
      </trkpt>
      <trkpt lat="43.97776" lon="1.84021">
        <ele>189.7</ele>
        <time>2018-06-21T20:28:11Z</time>
      </trkpt>
      <trkpt lat="43.97774" lon="1.84017">
        <ele>189.7</ele>
        <time>2018-06-21T20:28:12Z</time>
      </trkpt>
      <trkpt lat="43.9777" lon="1.84013">
        <ele>189.7</ele>
        <time>2018-06-21T20:28:13Z</time>
      </trkpt>
      <trkpt lat="43.97766" lon="1.84009">
        <ele>189.7</ele>
        <time>2018-06-21T20:28:14Z</time>
      </trkpt>
      <trkpt lat="43.97763" lon="1.84003">
        <ele>189.7</ele>
        <time>2018-06-21T20:28:15Z</time>
      </trkpt>
      <trkpt lat="43.9776" lon="1.83997">
        <ele>189.6</ele>
        <time>2018-06-21T20:28:16Z</time>
      </trkpt>
      <trkpt lat="43.97758" lon="1.83993">
        <ele>189.6</ele>
        <time>2018-06-21T20:28:17Z</time>
      </trkpt>
      <trkpt lat="43.97755" lon="1.83989">
        <ele>189.6</ele>
        <time>2018-06-21T20:28:18Z</time>
      </trkpt>
      <trkpt lat="43.97753" lon="1.83985">
        <ele>189.6</ele>
        <time>2018-06-21T20:28:19Z</time>
      </trkpt>
      <trkpt lat="43.9775" lon="1.8398">
        <ele>189.6</ele>
        <time>2018-06-21T20:28:20Z</time>
      </trkpt>
      <trkpt lat="43.97747" lon="1.83976">
        <ele>189.5</ele>
        <time>2018-06-21T20:28:21Z</time>
      </trkpt>
      <trkpt lat="43.97745" lon="1.83971">
        <ele>189.5</ele>
        <time>2018-06-21T20:28:22Z</time>
      </trkpt>
      <trkpt lat="43.97743" lon="1.83967">
        <ele>189.5</ele>
        <time>2018-06-21T20:28:23Z</time>
      </trkpt>
      <trkpt lat="43.97741" lon="1.83961">
        <ele>189.4</ele>
        <time>2018-06-21T20:28:24Z</time>
      </trkpt>
      <trkpt lat="43.97739" lon="1.83955">
        <ele>189.3</ele>
        <time>2018-06-21T20:28:25Z</time>
      </trkpt>
      <trkpt lat="43.97738" lon="1.83948">
        <ele>189.2</ele>
        <time>2018-06-21T20:28:26Z</time>
      </trkpt>
      <trkpt lat="43.97738" lon="1.8394">
        <ele>189.1</ele>
        <time>2018-06-21T20:28:27Z</time>
      </trkpt>
      <trkpt lat="43.97738" lon="1.83932">
        <ele>189</ele>
        <time>2018-06-21T20:28:28Z</time>
      </trkpt>
      <trkpt lat="43.97739" lon="1.83925">
        <ele>188.7</ele>
        <time>2018-06-21T20:28:29Z</time>
      </trkpt>
      <trkpt lat="43.9774" lon="1.83917">
        <ele>188.3</ele>
        <time>2018-06-21T20:28:30Z</time>
      </trkpt>
      <trkpt lat="43.97741" lon="1.83911">
        <ele>188</ele>
        <time>2018-06-21T20:28:31Z</time>
      </trkpt>
      <trkpt lat="43.97742" lon="1.83904">
        <ele>187.8</ele>
        <time>2018-06-21T20:28:32Z</time>
      </trkpt>
      <trkpt lat="43.97742" lon="1.83892">
        <ele>187.6</ele>
        <time>2018-06-21T20:28:33Z</time>
      </trkpt>
      <trkpt lat="43.97743" lon="1.83883">
        <ele>187.5</ele>
        <time>2018-06-21T20:28:34Z</time>
      </trkpt>
      <trkpt lat="43.97746" lon="1.83875">
        <ele>187.4</ele>
        <time>2018-06-21T20:28:35Z</time>
      </trkpt>
      <trkpt lat="43.97748" lon="1.8387">
        <ele>187.3</ele>
        <time>2018-06-21T20:28:36Z</time>
      </trkpt>
      <trkpt lat="43.9775" lon="1.83865">
        <ele>187.3</ele>
        <time>2018-06-21T20:28:37Z</time>
      </trkpt>
      <trkpt lat="43.97752" lon="1.8386">
        <ele>187.2</ele>
        <time>2018-06-21T20:28:38Z</time>
      </trkpt>
      <trkpt lat="43.97755" lon="1.83856">
        <ele>187.1</ele>
        <time>2018-06-21T20:28:39Z</time>
      </trkpt>
      <trkpt lat="43.97757" lon="1.83852">
        <ele>187.1</ele>
        <time>2018-06-21T20:28:40Z</time>
      </trkpt>
      <trkpt lat="43.97759" lon="1.83849">
        <ele>187.1</ele>
        <time>2018-06-21T20:28:41Z</time>
      </trkpt>
      <trkpt lat="43.97759" lon="1.83844">
        <ele>187.1</ele>
        <time>2018-06-21T20:28:42Z</time>
      </trkpt>
      <trkpt lat="43.97761" lon="1.83838">
        <ele>187</ele>
        <time>2018-06-21T20:28:43Z</time>
      </trkpt>
      <trkpt lat="43.97762" lon="1.83832">
        <ele>187</ele>
        <time>2018-06-21T20:28:44Z</time>
      </trkpt>
      <trkpt lat="43.97762" lon="1.83827">
        <ele>187</ele>
        <time>2018-06-21T20:28:45Z</time>
      </trkpt>
      <trkpt lat="43.97763" lon="1.83821">
        <ele>187</ele>
        <time>2018-06-21T20:28:46Z</time>
      </trkpt>
      <trkpt lat="43.97764" lon="1.83815">
        <ele>187</ele>
        <time>2018-06-21T20:28:47Z</time>
      </trkpt>
      <trkpt lat="43.97765" lon="1.83809">
        <ele>187</ele>
        <time>2018-06-21T20:28:48Z</time>
      </trkpt>
      <trkpt lat="43.97765" lon="1.83803">
        <ele>187</ele>
        <time>2018-06-21T20:28:49Z</time>
      </trkpt>
      <trkpt lat="43.97766" lon="1.83798">
        <ele>186.9</ele>
        <time>2018-06-21T20:28:50Z</time>
      </trkpt>
      <trkpt lat="43.97766" lon="1.83794">
        <ele>186.9</ele>
        <time>2018-06-21T20:28:51Z</time>
      </trkpt>
      <trkpt lat="43.97767" lon="1.8379">
        <ele>186.9</ele>
        <time>2018-06-21T20:28:52Z</time>
      </trkpt>
      <trkpt lat="43.97767" lon="1.83785">
        <ele>186.9</ele>
        <time>2018-06-21T20:28:53Z</time>
      </trkpt>
      <trkpt lat="43.97768" lon="1.8378">
        <ele>186.9</ele>
        <time>2018-06-21T20:28:54Z</time>
      </trkpt>
      <trkpt lat="43.97769" lon="1.83775">
        <ele>186.9</ele>
        <time>2018-06-21T20:28:55Z</time>
      </trkpt>
      <trkpt lat="43.9777" lon="1.83771">
        <ele>186.9</ele>
        <time>2018-06-21T20:28:56Z</time>
      </trkpt>
      <trkpt lat="43.97771" lon="1.83765">
        <ele>186.9</ele>
        <time>2018-06-21T20:28:58Z</time>
      </trkpt>
      <trkpt lat="43.97772" lon="1.83761">
        <ele>186.8</ele>
        <time>2018-06-21T20:28:59Z</time>
      </trkpt>
      <trkpt lat="43.97773" lon="1.83757">
        <ele>186.8</ele>
        <time>2018-06-21T20:29:00Z</time>
      </trkpt>
      <trkpt lat="43.97775" lon="1.83753">
        <ele>186.8</ele>
        <time>2018-06-21T20:29:01Z</time>
      </trkpt>
      <trkpt lat="43.97776" lon="1.83749">
        <ele>186.8</ele>
        <time>2018-06-21T20:29:02Z</time>
      </trkpt>
      <trkpt lat="43.97778" lon="1.83742">
        <ele>186.8</ele>
        <time>2018-06-21T20:29:04Z</time>
      </trkpt>
      <trkpt lat="43.9778" lon="1.83736">
        <ele>186.8</ele>
        <time>2018-06-21T20:29:06Z</time>
      </trkpt>
      <trkpt lat="43.97781" lon="1.83732">
        <ele>186.8</ele>
        <time>2018-06-21T20:29:07Z</time>
      </trkpt>
      <trkpt lat="43.97784" lon="1.83725">
        <ele>186.7</ele>
        <time>2018-06-21T20:29:09Z</time>
      </trkpt>
      <trkpt lat="43.97785" lon="1.83722">
        <ele>186.7</ele>
        <time>2018-06-21T20:29:10Z</time>
      </trkpt>
      <trkpt lat="43.97787" lon="1.83715">
        <ele>186.7</ele>
        <time>2018-06-21T20:29:12Z</time>
      </trkpt>
      <trkpt lat="43.9779" lon="1.83708">
        <ele>186.7</ele>
        <time>2018-06-21T20:29:14Z</time>
      </trkpt>
      <trkpt lat="43.97791" lon="1.83702">
        <ele>186.6</ele>
        <time>2018-06-21T20:29:16Z</time>
      </trkpt>
      <trkpt lat="43.97793" lon="1.83696">
        <ele>186.6</ele>
        <time>2018-06-21T20:29:18Z</time>
      </trkpt>
      <trkpt lat="43.97794" lon="1.83692">
        <ele>186.6</ele>
        <time>2018-06-21T20:29:19Z</time>
      </trkpt>
      <trkpt lat="43.97795" lon="1.83689">
        <ele>186.6</ele>
        <time>2018-06-21T20:29:20Z</time>
      </trkpt>
      <trkpt lat="43.97797" lon="1.83684">
        <ele>186.6</ele>
        <time>2018-06-21T20:29:21Z</time>
      </trkpt>
      <trkpt lat="43.97798" lon="1.83678">
        <ele>186.6</ele>
        <time>2018-06-21T20:29:22Z</time>
      </trkpt>
      <trkpt lat="43.978" lon="1.8367">
        <ele>186.5</ele>
        <time>2018-06-21T20:29:23Z</time>
      </trkpt>
      <trkpt lat="43.97801" lon="1.83665">
        <ele>186.5</ele>
        <time>2018-06-21T20:29:24Z</time>
      </trkpt>
      <trkpt lat="43.97802" lon="1.83661">
        <ele>186.5</ele>
        <time>2018-06-21T20:29:25Z</time>
      </trkpt>
      <trkpt lat="43.97803" lon="1.83656">
        <ele>186.5</ele>
        <time>2018-06-21T20:29:26Z</time>
      </trkpt>
      <trkpt lat="43.97805" lon="1.83653">
        <ele>186.5</ele>
        <time>2018-06-21T20:29:27Z</time>
      </trkpt>
      <trkpt lat="43.97805" lon="1.83649">
        <ele>186.5</ele>
        <time>2018-06-21T20:29:28Z</time>
      </trkpt>
      <trkpt lat="43.97806" lon="1.83644">
        <ele>186.4</ele>
        <time>2018-06-21T20:29:29Z</time>
      </trkpt>
      <trkpt lat="43.97807" lon="1.8364">
        <ele>186.4</ele>
        <time>2018-06-21T20:29:30Z</time>
      </trkpt>
      <trkpt lat="43.97808" lon="1.83636">
        <ele>186.4</ele>
        <time>2018-06-21T20:29:31Z</time>
      </trkpt>
      <trkpt lat="43.97808" lon="1.83632">
        <ele>186.4</ele>
        <time>2018-06-21T20:29:32Z</time>
      </trkpt>
      <trkpt lat="43.97809" lon="1.83628">
        <ele>186.4</ele>
        <time>2018-06-21T20:29:33Z</time>
      </trkpt>
      <trkpt lat="43.9781" lon="1.83623">
        <ele>186.4</ele>
        <time>2018-06-21T20:29:34Z</time>
      </trkpt>
      <trkpt lat="43.97811" lon="1.83619">
        <ele>186.4</ele>
        <time>2018-06-21T20:29:35Z</time>
      </trkpt>
      <trkpt lat="43.97812" lon="1.83615">
        <ele>186.3</ele>
        <time>2018-06-21T20:29:36Z</time>
      </trkpt>
      <trkpt lat="43.97813" lon="1.8361">
        <ele>186.3</ele>
        <time>2018-06-21T20:29:37Z</time>
      </trkpt>
      <trkpt lat="43.97815" lon="1.83606">
        <ele>186.3</ele>
        <time>2018-06-21T20:29:38Z</time>
      </trkpt>
      <trkpt lat="43.97816" lon="1.83602">
        <ele>186.2</ele>
        <time>2018-06-21T20:29:39Z</time>
      </trkpt>
      <trkpt lat="43.97818" lon="1.83598">
        <ele>186.2</ele>
        <time>2018-06-21T20:29:40Z</time>
      </trkpt>
      <trkpt lat="43.9782" lon="1.83592">
        <ele>186.1</ele>
        <time>2018-06-21T20:29:41Z</time>
      </trkpt>
      <trkpt lat="43.97821" lon="1.83586">
        <ele>186</ele>
        <time>2018-06-21T20:29:42Z</time>
      </trkpt>
      <trkpt lat="43.97822" lon="1.83581">
        <ele>185.9</ele>
        <time>2018-06-21T20:29:43Z</time>
      </trkpt>
      <trkpt lat="43.97824" lon="1.83575">
        <ele>185.9</ele>
        <time>2018-06-21T20:29:44Z</time>
      </trkpt>
      <trkpt lat="43.97827" lon="1.83569">
        <ele>185.8</ele>
        <time>2018-06-21T20:29:45Z</time>
      </trkpt>
      <trkpt lat="43.97829" lon="1.83563">
        <ele>185.8</ele>
        <time>2018-06-21T20:29:46Z</time>
      </trkpt>
      <trkpt lat="43.97831" lon="1.83558">
        <ele>185.8</ele>
        <time>2018-06-21T20:29:47Z</time>
      </trkpt>
      <trkpt lat="43.97832" lon="1.83552">
        <ele>185.7</ele>
        <time>2018-06-21T20:29:48Z</time>
      </trkpt>
      <trkpt lat="43.97834" lon="1.83547">
        <ele>185.7</ele>
        <time>2018-06-21T20:29:49Z</time>
      </trkpt>
      <trkpt lat="43.97836" lon="1.83542">
        <ele>185.7</ele>
        <time>2018-06-21T20:29:50Z</time>
      </trkpt>
      <trkpt lat="43.97837" lon="1.83537">
        <ele>185.7</ele>
        <time>2018-06-21T20:29:51Z</time>
      </trkpt>
      <trkpt lat="43.97839" lon="1.83532">
        <ele>185.7</ele>
        <time>2018-06-21T20:29:52Z</time>
      </trkpt>
      <trkpt lat="43.9784" lon="1.83529">
        <ele>185.6</ele>
        <time>2018-06-21T20:29:53Z</time>
      </trkpt>
      <trkpt lat="43.97841" lon="1.83525">
        <ele>185.6</ele>
        <time>2018-06-21T20:29:54Z</time>
      </trkpt>
      <trkpt lat="43.97843" lon="1.83518">
        <ele>185.6</ele>
        <time>2018-06-21T20:29:56Z</time>
      </trkpt>
      <trkpt lat="43.97844" lon="1.83513">
        <ele>185.6</ele>
        <time>2018-06-21T20:29:58Z</time>
      </trkpt>
      <trkpt lat="43.97844" lon="1.83508">
        <ele>185.6</ele>
        <time>2018-06-21T20:30:00Z</time>
      </trkpt>
      <trkpt lat="43.97846" lon="1.83503">
        <ele>185.6</ele>
        <time>2018-06-21T20:30:03Z</time>
      </trkpt>
      <trkpt lat="43.97846" lon="1.83499">
        <ele>185.6</ele>
        <time>2018-06-21T20:30:05Z</time>
      </trkpt>
      <trkpt lat="43.97847" lon="1.83495">
        <ele>185.6</ele>
        <time>2018-06-21T20:30:07Z</time>
      </trkpt>
      <trkpt lat="43.97848" lon="1.83491">
        <ele>185.6</ele>
        <time>2018-06-21T20:30:09Z</time>
      </trkpt>
      <trkpt lat="43.97849" lon="1.83487">
        <ele>185.6</ele>
        <time>2018-06-21T20:30:11Z</time>
      </trkpt>
      <trkpt lat="43.97851" lon="1.83482">
        <ele>185.6</ele>
        <time>2018-06-21T20:30:13Z</time>
      </trkpt>
      <trkpt lat="43.97851" lon="1.83478">
        <ele>185.6</ele>
        <time>2018-06-21T20:30:15Z</time>
      </trkpt>
      <trkpt lat="43.97853" lon="1.83472">
        <ele>185.5</ele>
        <time>2018-06-21T20:30:17Z</time>
      </trkpt>
      <trkpt lat="43.97854" lon="1.83466">
        <ele>185.5</ele>
        <time>2018-06-21T20:30:19Z</time>
      </trkpt>
      <trkpt lat="43.97856" lon="1.83459">
        <ele>185.5</ele>
        <time>2018-06-21T20:30:21Z</time>
      </trkpt>
      <trkpt lat="43.97857" lon="1.83455">
        <ele>185.5</ele>
        <time>2018-06-21T20:30:22Z</time>
      </trkpt>
      <trkpt lat="43.97858" lon="1.83451">
        <ele>185.5</ele>
        <time>2018-06-21T20:30:23Z</time>
      </trkpt>
      <trkpt lat="43.97859" lon="1.83447">
        <ele>185.5</ele>
        <time>2018-06-21T20:30:24Z</time>
      </trkpt>
      <trkpt lat="43.9786" lon="1.83443">
        <ele>185.5</ele>
        <time>2018-06-21T20:30:25Z</time>
      </trkpt>
      <trkpt lat="43.97861" lon="1.83439">
        <ele>185.5</ele>
        <time>2018-06-21T20:30:26Z</time>
      </trkpt>
      <trkpt lat="43.97861" lon="1.83434">
        <ele>185.5</ele>
        <time>2018-06-21T20:30:27Z</time>
      </trkpt>
      <trkpt lat="43.97862" lon="1.8343">
        <ele>185.6</ele>
        <time>2018-06-21T20:30:28Z</time>
      </trkpt>
      <trkpt lat="43.97861" lon="1.83425">
        <ele>185.6</ele>
        <time>2018-06-21T20:30:29Z</time>
      </trkpt>
      <trkpt lat="43.97861" lon="1.83421">
        <ele>185.6</ele>
        <time>2018-06-21T20:30:30Z</time>
      </trkpt>
      <trkpt lat="43.97861" lon="1.83417">
        <ele>185.6</ele>
        <time>2018-06-21T20:30:31Z</time>
      </trkpt>
      <trkpt lat="43.9786" lon="1.83412">
        <ele>185.6</ele>
        <time>2018-06-21T20:30:32Z</time>
      </trkpt>
      <trkpt lat="43.9786" lon="1.83408">
        <ele>185.7</ele>
        <time>2018-06-21T20:30:33Z</time>
      </trkpt>
      <trkpt lat="43.97859" lon="1.83404">
        <ele>185.8</ele>
        <time>2018-06-21T20:30:34Z</time>
      </trkpt>
      <trkpt lat="43.97858" lon="1.834">
        <ele>185.9</ele>
        <time>2018-06-21T20:30:35Z</time>
      </trkpt>
      <trkpt lat="43.97855" lon="1.83394">
        <ele>186.2</ele>
        <time>2018-06-21T20:30:37Z</time>
      </trkpt>
      <trkpt lat="43.97854" lon="1.8339">
        <ele>186.4</ele>
        <time>2018-06-21T20:30:38Z</time>
      </trkpt>
      <trkpt lat="43.97853" lon="1.83386">
        <ele>186.6</ele>
        <time>2018-06-21T20:30:39Z</time>
      </trkpt>
      <trkpt lat="43.97851" lon="1.83382">
        <ele>186.8</ele>
        <time>2018-06-21T20:30:40Z</time>
      </trkpt>
      <trkpt lat="43.9785" lon="1.83378">
        <ele>187.1</ele>
        <time>2018-06-21T20:30:41Z</time>
      </trkpt>
      <trkpt lat="43.97848" lon="1.83373">
        <ele>187.4</ele>
        <time>2018-06-21T20:30:42Z</time>
      </trkpt>
      <trkpt lat="43.97846" lon="1.83369">
        <ele>187.6</ele>
        <time>2018-06-21T20:30:43Z</time>
      </trkpt>
      <trkpt lat="43.97844" lon="1.83365">
        <ele>187.9</ele>
        <time>2018-06-21T20:30:44Z</time>
      </trkpt>
      <trkpt lat="43.97842" lon="1.83362">
        <ele>188</ele>
        <time>2018-06-21T20:30:45Z</time>
      </trkpt>
      <trkpt lat="43.9784" lon="1.83358">
        <ele>188.2</ele>
        <time>2018-06-21T20:30:46Z</time>
      </trkpt>
      <trkpt lat="43.97839" lon="1.83355">
        <ele>188.4</ele>
        <time>2018-06-21T20:30:47Z</time>
      </trkpt>
      <trkpt lat="43.97837" lon="1.83351">
        <ele>188.5</ele>
        <time>2018-06-21T20:30:48Z</time>
      </trkpt>
      <trkpt lat="43.97835" lon="1.83348">
        <ele>188.5</ele>
        <time>2018-06-21T20:30:49Z</time>
      </trkpt>
      <trkpt lat="43.97833" lon="1.83345">
        <ele>188.6</ele>
        <time>2018-06-21T20:30:50Z</time>
      </trkpt>
      <trkpt lat="43.97832" lon="1.83342">
        <ele>188.7</ele>
        <time>2018-06-21T20:30:51Z</time>
      </trkpt>
      <trkpt lat="43.9783" lon="1.83339">
        <ele>188.7</ele>
        <time>2018-06-21T20:30:52Z</time>
      </trkpt>
      <trkpt lat="43.97827" lon="1.83332">
        <ele>188.8</ele>
        <time>2018-06-21T20:30:54Z</time>
      </trkpt>
      <trkpt lat="43.97825" lon="1.83329">
        <ele>188.8</ele>
        <time>2018-06-21T20:30:55Z</time>
      </trkpt>
      <trkpt lat="43.97823" lon="1.83326">
        <ele>188.9</ele>
        <time>2018-06-21T20:30:56Z</time>
      </trkpt>
      <trkpt lat="43.97821" lon="1.83322">
        <ele>188.9</ele>
        <time>2018-06-21T20:30:57Z</time>
      </trkpt>
      <trkpt lat="43.97817" lon="1.83317">
        <ele>188.9</ele>
        <time>2018-06-21T20:30:59Z</time>
      </trkpt>
      <trkpt lat="43.97815" lon="1.83314">
        <ele>188.9</ele>
        <time>2018-06-21T20:31:00Z</time>
      </trkpt>
      <trkpt lat="43.97812" lon="1.83307">
        <ele>188.9</ele>
        <time>2018-06-21T20:31:02Z</time>
      </trkpt>
      <trkpt lat="43.97809" lon="1.83301">
        <ele>188.8</ele>
        <time>2018-06-21T20:31:04Z</time>
      </trkpt>
      <trkpt lat="43.97805" lon="1.83295">
        <ele>188.8</ele>
        <time>2018-06-21T20:31:06Z</time>
      </trkpt>
      <trkpt lat="43.97804" lon="1.83292">
        <ele>188.8</ele>
        <time>2018-06-21T20:31:07Z</time>
      </trkpt>
      <trkpt lat="43.978" lon="1.83286">
        <ele>188.8</ele>
        <time>2018-06-21T20:31:09Z</time>
      </trkpt>
      <trkpt lat="43.97797" lon="1.8328">
        <ele>188.7</ele>
        <time>2018-06-21T20:31:11Z</time>
      </trkpt>
      <trkpt lat="43.97794" lon="1.83274">
        <ele>188.7</ele>
        <time>2018-06-21T20:31:13Z</time>
      </trkpt>
      <trkpt lat="43.97793" lon="1.83271">
        <ele>188.7</ele>
        <time>2018-06-21T20:31:14Z</time>
      </trkpt>
      <trkpt lat="43.97791" lon="1.83268">
        <ele>188.6</ele>
        <time>2018-06-21T20:31:15Z</time>
      </trkpt>
      <trkpt lat="43.97788" lon="1.83261">
        <ele>188.6</ele>
        <time>2018-06-21T20:31:17Z</time>
      </trkpt>
      <trkpt lat="43.97786" lon="1.83257">
        <ele>188.5</ele>
        <time>2018-06-21T20:31:18Z</time>
      </trkpt>
      <trkpt lat="43.97785" lon="1.83253">
        <ele>188.5</ele>
        <time>2018-06-21T20:31:19Z</time>
      </trkpt>
      <trkpt lat="43.97782" lon="1.83246">
        <ele>188.4</ele>
        <time>2018-06-21T20:31:20Z</time>
      </trkpt>
      <trkpt lat="43.97781" lon="1.8324">
        <ele>188.3</ele>
        <time>2018-06-21T20:31:21Z</time>
      </trkpt>
      <trkpt lat="43.97779" lon="1.83234">
        <ele>188.1</ele>
        <time>2018-06-21T20:31:22Z</time>
      </trkpt>
      <trkpt lat="43.97776" lon="1.83227">
        <ele>187.6</ele>
        <time>2018-06-21T20:31:23Z</time>
      </trkpt>
      <trkpt lat="43.97773" lon="1.83219">
        <ele>187.1</ele>
        <time>2018-06-21T20:31:24Z</time>
      </trkpt>
      <trkpt lat="43.9777" lon="1.83212">
        <ele>186.9</ele>
        <time>2018-06-21T20:31:25Z</time>
      </trkpt>
      <trkpt lat="43.97767" lon="1.83205">
        <ele>186.7</ele>
        <time>2018-06-21T20:31:26Z</time>
      </trkpt>
      <trkpt lat="43.97763" lon="1.83198">
        <ele>186.5</ele>
        <time>2018-06-21T20:31:27Z</time>
      </trkpt>
      <trkpt lat="43.97758" lon="1.83192">
        <ele>186.3</ele>
        <time>2018-06-21T20:31:28Z</time>
      </trkpt>
      <trkpt lat="43.97753" lon="1.83188">
        <ele>186.3</ele>
        <time>2018-06-21T20:31:29Z</time>
      </trkpt>
      <trkpt lat="43.97747" lon="1.83185">
        <ele>186.2</ele>
        <time>2018-06-21T20:31:30Z</time>
      </trkpt>
      <trkpt lat="43.97741" lon="1.83182">
        <ele>186.2</ele>
        <time>2018-06-21T20:31:31Z</time>
      </trkpt>
      <trkpt lat="43.97736" lon="1.83179">
        <ele>186.1</ele>
        <time>2018-06-21T20:31:32Z</time>
      </trkpt>
      <trkpt lat="43.97732" lon="1.83177">
        <ele>186.1</ele>
        <time>2018-06-21T20:31:33Z</time>
      </trkpt>
      <trkpt lat="43.97727" lon="1.83174">
        <ele>186.1</ele>
        <time>2018-06-21T20:31:34Z</time>
      </trkpt>
      <trkpt lat="43.97723" lon="1.83172">
        <ele>186.1</ele>
        <time>2018-06-21T20:31:35Z</time>
      </trkpt>
      <trkpt lat="43.97719" lon="1.8317">
        <ele>186.1</ele>
        <time>2018-06-21T20:31:36Z</time>
      </trkpt>
      <trkpt lat="43.97715" lon="1.83168">
        <ele>186.1</ele>
        <time>2018-06-21T20:31:37Z</time>
      </trkpt>
      <trkpt lat="43.97711" lon="1.83165">
        <ele>186</ele>
        <time>2018-06-21T20:31:38Z</time>
      </trkpt>
      <trkpt lat="43.97707" lon="1.83163">
        <ele>186</ele>
        <time>2018-06-21T20:31:39Z</time>
      </trkpt>
      <trkpt lat="43.97703" lon="1.83161">
        <ele>186</ele>
        <time>2018-06-21T20:31:40Z</time>
      </trkpt>
      <trkpt lat="43.977" lon="1.83159">
        <ele>186</ele>
        <time>2018-06-21T20:31:41Z</time>
      </trkpt>
      <trkpt lat="43.97696" lon="1.83157">
        <ele>186</ele>
        <time>2018-06-21T20:31:42Z</time>
      </trkpt>
      <trkpt lat="43.97692" lon="1.83156">
        <ele>186.1</ele>
        <time>2018-06-21T20:31:43Z</time>
      </trkpt>
      <trkpt lat="43.97689" lon="1.83155">
        <ele>186.1</ele>
        <time>2018-06-21T20:31:44Z</time>
      </trkpt>
      <trkpt lat="43.97685" lon="1.83154">
        <ele>186.1</ele>
        <time>2018-06-21T20:31:45Z</time>
      </trkpt>
      <trkpt lat="43.97681" lon="1.83153">
        <ele>186.1</ele>
        <time>2018-06-21T20:31:46Z</time>
      </trkpt>
      <trkpt lat="43.97677" lon="1.83152">
        <ele>186.1</ele>
        <time>2018-06-21T20:31:47Z</time>
      </trkpt>
      <trkpt lat="43.97674" lon="1.83152">
        <ele>186.2</ele>
        <time>2018-06-21T20:31:48Z</time>
      </trkpt>
      <trkpt lat="43.97671" lon="1.83151">
        <ele>186.2</ele>
        <time>2018-06-21T20:31:49Z</time>
      </trkpt>
      <trkpt lat="43.97665" lon="1.83151">
        <ele>186.2</ele>
        <time>2018-06-21T20:31:51Z</time>
      </trkpt>
      <trkpt lat="43.97662" lon="1.83151">
        <ele>186.2</ele>
        <time>2018-06-21T20:31:52Z</time>
      </trkpt>
      <trkpt lat="43.97657" lon="1.83152">
        <ele>186.2</ele>
        <time>2018-06-21T20:31:54Z</time>
      </trkpt>
      <trkpt lat="43.97653" lon="1.83152">
        <ele>186.1</ele>
        <time>2018-06-21T20:31:55Z</time>
      </trkpt>
      <trkpt lat="43.9765" lon="1.83152">
        <ele>186.1</ele>
        <time>2018-06-21T20:31:56Z</time>
      </trkpt>
      <trkpt lat="43.97647" lon="1.8315">
        <ele>186.1</ele>
        <time>2018-06-21T20:31:57Z</time>
      </trkpt>
      <trkpt lat="43.97644" lon="1.8315">
        <ele>186.1</ele>
        <time>2018-06-21T20:31:58Z</time>
      </trkpt>
      <trkpt lat="43.9764" lon="1.8315">
        <ele>186.1</ele>
        <time>2018-06-21T20:31:59Z</time>
      </trkpt>
      <trkpt lat="43.97636" lon="1.8315">
        <ele>186.1</ele>
        <time>2018-06-21T20:32:00Z</time>
      </trkpt>
      <trkpt lat="43.97632" lon="1.8315">
        <ele>186.1</ele>
        <time>2018-06-21T20:32:01Z</time>
      </trkpt>
      <trkpt lat="43.97626" lon="1.8315">
        <ele>186.1</ele>
        <time>2018-06-21T20:32:03Z</time>
      </trkpt>
      <trkpt lat="43.97622" lon="1.8315">
        <ele>186</ele>
        <time>2018-06-21T20:32:04Z</time>
      </trkpt>
      <trkpt lat="43.97618" lon="1.8315">
        <ele>186</ele>
        <time>2018-06-21T20:32:05Z</time>
      </trkpt>
      <trkpt lat="43.97614" lon="1.83151">
        <ele>186</ele>
        <time>2018-06-21T20:32:06Z</time>
      </trkpt>
      <trkpt lat="43.9761" lon="1.8315">
        <ele>186</ele>
        <time>2018-06-21T20:32:07Z</time>
      </trkpt>
      <trkpt lat="43.97606" lon="1.83151">
        <ele>186</ele>
        <time>2018-06-21T20:32:08Z</time>
      </trkpt>
      <trkpt lat="43.97601" lon="1.83151">
        <ele>185.9</ele>
        <time>2018-06-21T20:32:09Z</time>
      </trkpt>
      <trkpt lat="43.97597" lon="1.83152">
        <ele>185.9</ele>
        <time>2018-06-21T20:32:10Z</time>
      </trkpt>
      <trkpt lat="43.97593" lon="1.83152">
        <ele>185.9</ele>
        <time>2018-06-21T20:32:11Z</time>
      </trkpt>
      <trkpt lat="43.97588" lon="1.83153">
        <ele>185.9</ele>
        <time>2018-06-21T20:32:12Z</time>
      </trkpt>
      <trkpt lat="43.97584" lon="1.83154">
        <ele>185.9</ele>
        <time>2018-06-21T20:32:13Z</time>
      </trkpt>
      <trkpt lat="43.9758" lon="1.83154">
        <ele>185.9</ele>
        <time>2018-06-21T20:32:14Z</time>
      </trkpt>
      <trkpt lat="43.97576" lon="1.83154">
        <ele>186</ele>
        <time>2018-06-21T20:32:15Z</time>
      </trkpt>
      <trkpt lat="43.97573" lon="1.83153">
        <ele>186</ele>
        <time>2018-06-21T20:32:16Z</time>
      </trkpt>
      <trkpt lat="43.9757" lon="1.83152">
        <ele>186.2</ele>
        <time>2018-06-21T20:32:17Z</time>
      </trkpt>
      <trkpt lat="43.97567" lon="1.8315">
        <ele>186.4</ele>
        <time>2018-06-21T20:32:18Z</time>
      </trkpt>
      <trkpt lat="43.97564" lon="1.83147">
        <ele>186.9</ele>
        <time>2018-06-21T20:32:19Z</time>
      </trkpt>
      <trkpt lat="43.97561" lon="1.83144">
        <ele>187.4</ele>
        <time>2018-06-21T20:32:20Z</time>
      </trkpt>
      <trkpt lat="43.97559" lon="1.8314">
        <ele>187.9</ele>
        <time>2018-06-21T20:32:21Z</time>
      </trkpt>
      <trkpt lat="43.97556" lon="1.83137">
        <ele>188.3</ele>
        <time>2018-06-21T20:32:22Z</time>
      </trkpt>
      <trkpt lat="43.97554" lon="1.83134">
        <ele>188.6</ele>
        <time>2018-06-21T20:32:23Z</time>
      </trkpt>
      <trkpt lat="43.97552" lon="1.83131">
        <ele>188.8</ele>
        <time>2018-06-21T20:32:24Z</time>
      </trkpt>
      <trkpt lat="43.97549" lon="1.83126">
        <ele>189.2</ele>
        <time>2018-06-21T20:32:26Z</time>
      </trkpt>
      <trkpt lat="43.97546" lon="1.8312">
        <ele>189.7</ele>
        <time>2018-06-21T20:32:28Z</time>
      </trkpt>
      <trkpt lat="43.97544" lon="1.83118">
        <ele>189.9</ele>
        <time>2018-06-21T20:32:29Z</time>
      </trkpt>
      <trkpt lat="43.97541" lon="1.83115">
        <ele>190.1</ele>
        <time>2018-06-21T20:32:30Z</time>
      </trkpt>
      <trkpt lat="43.97538" lon="1.8311">
        <ele>190.6</ele>
        <time>2018-06-21T20:32:32Z</time>
      </trkpt>
      <trkpt lat="43.97535" lon="1.83107">
        <ele>190.8</ele>
        <time>2018-06-21T20:32:33Z</time>
      </trkpt>
      <trkpt lat="43.97533" lon="1.83104">
        <ele>191.1</ele>
        <time>2018-06-21T20:32:34Z</time>
      </trkpt>
      <trkpt lat="43.97531" lon="1.83101">
        <ele>191.4</ele>
        <time>2018-06-21T20:32:35Z</time>
      </trkpt>
      <trkpt lat="43.97528" lon="1.83099">
        <ele>191.6</ele>
        <time>2018-06-21T20:32:36Z</time>
      </trkpt>
      <trkpt lat="43.97526" lon="1.83096">
        <ele>191.9</ele>
        <time>2018-06-21T20:32:37Z</time>
      </trkpt>
      <trkpt lat="43.97524" lon="1.83094">
        <ele>192.1</ele>
        <time>2018-06-21T20:32:38Z</time>
      </trkpt>
      <trkpt lat="43.97522" lon="1.83091">
        <ele>192.4</ele>
        <time>2018-06-21T20:32:39Z</time>
      </trkpt>
      <trkpt lat="43.97519" lon="1.83089">
        <ele>192.6</ele>
        <time>2018-06-21T20:32:40Z</time>
      </trkpt>
      <trkpt lat="43.97516" lon="1.83084">
        <ele>193</ele>
        <time>2018-06-21T20:32:42Z</time>
      </trkpt>
      <trkpt lat="43.97512" lon="1.83079">
        <ele>193.5</ele>
        <time>2018-06-21T20:32:44Z</time>
      </trkpt>
      <trkpt lat="43.97508" lon="1.83074">
        <ele>194</ele>
        <time>2018-06-21T20:32:46Z</time>
      </trkpt>
      <trkpt lat="43.97505" lon="1.8307">
        <ele>194.4</ele>
        <time>2018-06-21T20:32:48Z</time>
      </trkpt>
      <trkpt lat="43.97501" lon="1.83065">
        <ele>194.8</ele>
        <time>2018-06-21T20:32:50Z</time>
      </trkpt>
      <trkpt lat="43.97498" lon="1.83059">
        <ele>195.3</ele>
        <time>2018-06-21T20:32:52Z</time>
      </trkpt>
      <trkpt lat="43.97495" lon="1.83054">
        <ele>195.7</ele>
        <time>2018-06-21T20:32:54Z</time>
      </trkpt>
      <trkpt lat="43.97493" lon="1.83049">
        <ele>196.2</ele>
        <time>2018-06-21T20:32:56Z</time>
      </trkpt>
      <trkpt lat="43.9749" lon="1.83044">
        <ele>196.6</ele>
        <time>2018-06-21T20:32:58Z</time>
      </trkpt>
      <trkpt lat="43.97488" lon="1.8304">
        <ele>197</ele>
        <time>2018-06-21T20:33:00Z</time>
      </trkpt>
      <trkpt lat="43.97486" lon="1.83035">
        <ele>197.5</ele>
        <time>2018-06-21T20:33:02Z</time>
      </trkpt>
      <trkpt lat="43.97484" lon="1.8303">
        <ele>198</ele>
        <time>2018-06-21T20:33:04Z</time>
      </trkpt>
      <trkpt lat="43.97481" lon="1.83026">
        <ele>198.5</ele>
        <time>2018-06-21T20:33:06Z</time>
      </trkpt>
      <trkpt lat="43.97478" lon="1.83022">
        <ele>199</ele>
        <time>2018-06-21T20:33:08Z</time>
      </trkpt>
      <trkpt lat="43.97474" lon="1.83019">
        <ele>199.5</ele>
        <time>2018-06-21T20:33:10Z</time>
      </trkpt>
      <trkpt lat="43.97471" lon="1.83017">
        <ele>199.9</ele>
        <time>2018-06-21T20:33:12Z</time>
      </trkpt>
      <trkpt lat="43.97467" lon="1.83014">
        <ele>200.4</ele>
        <time>2018-06-21T20:33:14Z</time>
      </trkpt>
      <trkpt lat="43.97463" lon="1.83013">
        <ele>200.9</ele>
        <time>2018-06-21T20:33:16Z</time>
      </trkpt>
      <trkpt lat="43.97459" lon="1.83012">
        <ele>201.4</ele>
        <time>2018-06-21T20:33:18Z</time>
      </trkpt>
      <trkpt lat="43.97456" lon="1.83011">
        <ele>201.8</ele>
        <time>2018-06-21T20:33:20Z</time>
      </trkpt>
      <trkpt lat="43.97452" lon="1.8301">
        <ele>202.2</ele>
        <time>2018-06-21T20:33:22Z</time>
      </trkpt>
      <trkpt lat="43.97448" lon="1.83009">
        <ele>202.6</ele>
        <time>2018-06-21T20:33:24Z</time>
      </trkpt>
      <trkpt lat="43.97445" lon="1.83008">
        <ele>202.9</ele>
        <time>2018-06-21T20:33:26Z</time>
      </trkpt>
      <trkpt lat="43.97441" lon="1.83007">
        <ele>203.3</ele>
        <time>2018-06-21T20:33:28Z</time>
      </trkpt>
      <trkpt lat="43.97437" lon="1.83005">
        <ele>203.7</ele>
        <time>2018-06-21T20:33:30Z</time>
      </trkpt>
      <trkpt lat="43.97433" lon="1.83004">
        <ele>204</ele>
        <time>2018-06-21T20:33:32Z</time>
      </trkpt>
      <trkpt lat="43.97429" lon="1.83003">
        <ele>204.3</ele>
        <time>2018-06-21T20:33:34Z</time>
      </trkpt>
      <trkpt lat="43.97425" lon="1.83001">
        <ele>204.7</ele>
        <time>2018-06-21T20:33:36Z</time>
      </trkpt>
      <trkpt lat="43.97421" lon="1.82999">
        <ele>205</ele>
        <time>2018-06-21T20:33:38Z</time>
      </trkpt>
      <trkpt lat="43.97418" lon="1.82997">
        <ele>205.3</ele>
        <time>2018-06-21T20:33:40Z</time>
      </trkpt>
      <trkpt lat="43.97414" lon="1.82994">
        <ele>205.6</ele>
        <time>2018-06-21T20:33:42Z</time>
      </trkpt>
      <trkpt lat="43.97411" lon="1.82991">
        <ele>205.9</ele>
        <time>2018-06-21T20:33:44Z</time>
      </trkpt>
      <trkpt lat="43.97408" lon="1.82989">
        <ele>206.2</ele>
        <time>2018-06-21T20:33:46Z</time>
      </trkpt>
      <trkpt lat="43.97404" lon="1.82986">
        <ele>206.4</ele>
        <time>2018-06-21T20:33:48Z</time>
      </trkpt>
      <trkpt lat="43.97402" lon="1.82983">
        <ele>206.7</ele>
        <time>2018-06-21T20:33:50Z</time>
      </trkpt>
      <trkpt lat="43.97399" lon="1.8298">
        <ele>206.9</ele>
        <time>2018-06-21T20:33:52Z</time>
      </trkpt>
      <trkpt lat="43.97396" lon="1.82977">
        <ele>207.2</ele>
        <time>2018-06-21T20:33:54Z</time>
      </trkpt>
      <trkpt lat="43.97393" lon="1.82974">
        <ele>207.4</ele>
        <time>2018-06-21T20:33:56Z</time>
      </trkpt>
      <trkpt lat="43.9739" lon="1.82971">
        <ele>207.7</ele>
        <time>2018-06-21T20:33:58Z</time>
      </trkpt>
      <trkpt lat="43.97387" lon="1.82968">
        <ele>207.9</ele>
        <time>2018-06-21T20:34:00Z</time>
      </trkpt>
      <trkpt lat="43.97384" lon="1.82966">
        <ele>208.1</ele>
        <time>2018-06-21T20:34:02Z</time>
      </trkpt>
      <trkpt lat="43.97381" lon="1.82963">
        <ele>208.4</ele>
        <time>2018-06-21T20:34:04Z</time>
      </trkpt>
      <trkpt lat="43.97378" lon="1.8296">
        <ele>208.6</ele>
        <time>2018-06-21T20:34:06Z</time>
      </trkpt>
      <trkpt lat="43.97375" lon="1.82957">
        <ele>208.8</ele>
        <time>2018-06-21T20:34:08Z</time>
      </trkpt>
      <trkpt lat="43.97371" lon="1.82955">
        <ele>209.1</ele>
        <time>2018-06-21T20:34:10Z</time>
      </trkpt>
      <trkpt lat="43.97368" lon="1.82952">
        <ele>209.3</ele>
        <time>2018-06-21T20:34:12Z</time>
      </trkpt>
      <trkpt lat="43.97365" lon="1.82949">
        <ele>209.5</ele>
        <time>2018-06-21T20:34:14Z</time>
      </trkpt>
      <trkpt lat="43.97362" lon="1.82945">
        <ele>209.8</ele>
        <time>2018-06-21T20:34:16Z</time>
      </trkpt>
      <trkpt lat="43.97359" lon="1.82943">
        <ele>210</ele>
        <time>2018-06-21T20:34:18Z</time>
      </trkpt>
      <trkpt lat="43.97355" lon="1.82941">
        <ele>210.3</ele>
        <time>2018-06-21T20:34:21Z</time>
      </trkpt>
      <trkpt lat="43.97352" lon="1.82937">
        <ele>210.6</ele>
        <time>2018-06-21T20:34:24Z</time>
      </trkpt>
      <trkpt lat="43.9735" lon="1.82934">
        <ele>210.8</ele>
        <time>2018-06-21T20:34:26Z</time>
      </trkpt>
      <trkpt lat="43.97348" lon="1.82931">
        <ele>211</ele>
        <time>2018-06-21T20:34:28Z</time>
      </trkpt>
      <trkpt lat="43.97346" lon="1.82927">
        <ele>211.3</ele>
        <time>2018-06-21T20:34:30Z</time>
      </trkpt>
      <trkpt lat="43.97344" lon="1.82922">
        <ele>211.6</ele>
        <time>2018-06-21T20:34:32Z</time>
      </trkpt>
      <trkpt lat="43.97342" lon="1.82918">
        <ele>211.9</ele>
        <time>2018-06-21T20:34:34Z</time>
      </trkpt>
      <trkpt lat="43.9734" lon="1.82914">
        <ele>212.2</ele>
        <time>2018-06-21T20:34:36Z</time>
      </trkpt>
      <trkpt lat="43.97339" lon="1.82909">
        <ele>212.6</ele>
        <time>2018-06-21T20:34:38Z</time>
      </trkpt>
      <trkpt lat="43.97337" lon="1.82905">
        <ele>213</ele>
        <time>2018-06-21T20:34:40Z</time>
      </trkpt>
      <trkpt lat="43.97335" lon="1.82901">
        <ele>213.3</ele>
        <time>2018-06-21T20:34:42Z</time>
      </trkpt>
      <trkpt lat="43.97334" lon="1.82897">
        <ele>213.6</ele>
        <time>2018-06-21T20:34:44Z</time>
      </trkpt>
      <trkpt lat="43.97332" lon="1.82892">
        <ele>214</ele>
        <time>2018-06-21T20:34:46Z</time>
      </trkpt>
      <trkpt lat="43.9733" lon="1.82888">
        <ele>214.3</ele>
        <time>2018-06-21T20:34:48Z</time>
      </trkpt>
      <trkpt lat="43.97328" lon="1.82884">
        <ele>214.6</ele>
        <time>2018-06-21T20:34:50Z</time>
      </trkpt>
      <trkpt lat="43.97326" lon="1.8288">
        <ele>215</ele>
        <time>2018-06-21T20:34:52Z</time>
      </trkpt>
      <trkpt lat="43.97324" lon="1.82875">
        <ele>215.3</ele>
        <time>2018-06-21T20:34:54Z</time>
      </trkpt>
      <trkpt lat="43.97322" lon="1.8287">
        <ele>215.6</ele>
        <time>2018-06-21T20:34:56Z</time>
      </trkpt>
      <trkpt lat="43.9732" lon="1.82866">
        <ele>215.9</ele>
        <time>2018-06-21T20:34:58Z</time>
      </trkpt>
      <trkpt lat="43.97318" lon="1.82862">
        <ele>216.1</ele>
        <time>2018-06-21T20:35:00Z</time>
      </trkpt>
      <trkpt lat="43.97316" lon="1.82858">
        <ele>216.4</ele>
        <time>2018-06-21T20:35:02Z</time>
      </trkpt>
      <trkpt lat="43.97314" lon="1.82855">
        <ele>216.6</ele>
        <time>2018-06-21T20:35:04Z</time>
      </trkpt>
      <trkpt lat="43.97313" lon="1.82851">
        <ele>216.7</ele>
        <time>2018-06-21T20:35:06Z</time>
      </trkpt>
      <trkpt lat="43.9731" lon="1.82847">
        <ele>217</ele>
        <time>2018-06-21T20:35:10Z</time>
      </trkpt>
      <trkpt lat="43.97309" lon="1.82843">
        <ele>217.1</ele>
        <time>2018-06-21T20:35:13Z</time>
      </trkpt>
      <trkpt lat="43.97307" lon="1.82838">
        <ele>217.3</ele>
        <time>2018-06-21T20:35:16Z</time>
      </trkpt>
      <trkpt lat="43.9731" lon="1.82835">
        <ele>217.5</ele>
        <time>2018-06-21T20:35:19Z</time>
      </trkpt>
      <trkpt lat="43.97309" lon="1.82831">
        <ele>217.7</ele>
        <time>2018-06-21T20:35:21Z</time>
      </trkpt>
      <trkpt lat="43.97309" lon="1.82827">
        <ele>217.8</ele>
        <time>2018-06-21T20:35:23Z</time>
      </trkpt>
      <trkpt lat="43.97308" lon="1.82823">
        <ele>218</ele>
        <time>2018-06-21T20:35:25Z</time>
      </trkpt>
      <trkpt lat="43.97307" lon="1.82818">
        <ele>218.2</ele>
        <time>2018-06-21T20:35:27Z</time>
      </trkpt>
      <trkpt lat="43.97305" lon="1.82813">
        <ele>218.4</ele>
        <time>2018-06-21T20:35:29Z</time>
      </trkpt>
      <trkpt lat="43.97304" lon="1.82809">
        <ele>218.5</ele>
        <time>2018-06-21T20:35:31Z</time>
      </trkpt>
      <trkpt lat="43.97304" lon="1.82805">
        <ele>218.7</ele>
        <time>2018-06-21T20:35:33Z</time>
      </trkpt>
      <trkpt lat="43.97303" lon="1.82801">
        <ele>218.9</ele>
        <time>2018-06-21T20:35:35Z</time>
      </trkpt>
      <trkpt lat="43.97302" lon="1.82797">
        <ele>219.1</ele>
        <time>2018-06-21T20:35:37Z</time>
      </trkpt>
      <trkpt lat="43.97301" lon="1.82793">
        <ele>219.3</ele>
        <time>2018-06-21T20:35:39Z</time>
      </trkpt>
      <trkpt lat="43.97299" lon="1.82789">
        <ele>219.5</ele>
        <time>2018-06-21T20:35:41Z</time>
      </trkpt>
      <trkpt lat="43.97298" lon="1.82784">
        <ele>219.8</ele>
        <time>2018-06-21T20:35:43Z</time>
      </trkpt>
      <trkpt lat="43.97296" lon="1.82779">
        <ele>220</ele>
        <time>2018-06-21T20:35:45Z</time>
      </trkpt>
      <trkpt lat="43.97294" lon="1.82774">
        <ele>220.3</ele>
        <time>2018-06-21T20:35:47Z</time>
      </trkpt>
      <trkpt lat="43.97293" lon="1.82769">
        <ele>220.5</ele>
        <time>2018-06-21T20:35:49Z</time>
      </trkpt>
      <trkpt lat="43.97292" lon="1.82764">
        <ele>220.7</ele>
        <time>2018-06-21T20:35:51Z</time>
      </trkpt>
      <trkpt lat="43.97291" lon="1.8276">
        <ele>221</ele>
        <time>2018-06-21T20:35:53Z</time>
      </trkpt>
      <trkpt lat="43.97289" lon="1.82756">
        <ele>221.1</ele>
        <time>2018-06-21T20:35:55Z</time>
      </trkpt>
      <trkpt lat="43.97287" lon="1.82752">
        <ele>221.3</ele>
        <time>2018-06-21T20:35:57Z</time>
      </trkpt>
      <trkpt lat="43.97285" lon="1.82748">
        <ele>221.5</ele>
        <time>2018-06-21T20:35:59Z</time>
      </trkpt>
      <trkpt lat="43.97284" lon="1.82743">
        <ele>221.7</ele>
        <time>2018-06-21T20:36:01Z</time>
      </trkpt>
      <trkpt lat="43.97282" lon="1.82739">
        <ele>221.9</ele>
        <time>2018-06-21T20:36:03Z</time>
      </trkpt>
      <trkpt lat="43.9728" lon="1.82734">
        <ele>222</ele>
        <time>2018-06-21T20:36:05Z</time>
      </trkpt>
      <trkpt lat="43.97278" lon="1.8273">
        <ele>222.2</ele>
        <time>2018-06-21T20:36:07Z</time>
      </trkpt>
      <trkpt lat="43.97276" lon="1.82725">
        <ele>222.3</ele>
        <time>2018-06-21T20:36:09Z</time>
      </trkpt>
      <trkpt lat="43.97273" lon="1.82721">
        <ele>222.5</ele>
        <time>2018-06-21T20:36:11Z</time>
      </trkpt>
      <trkpt lat="43.9727" lon="1.82716">
        <ele>222.7</ele>
        <time>2018-06-21T20:36:13Z</time>
      </trkpt>
      <trkpt lat="43.97267" lon="1.82712">
        <ele>222.9</ele>
        <time>2018-06-21T20:36:15Z</time>
      </trkpt>
      <trkpt lat="43.97264" lon="1.82709">
        <ele>223.1</ele>
        <time>2018-06-21T20:36:17Z</time>
      </trkpt>
      <trkpt lat="43.97261" lon="1.82706">
        <ele>223.3</ele>
        <time>2018-06-21T20:36:19Z</time>
      </trkpt>
      <trkpt lat="43.97257" lon="1.82703">
        <ele>223.4</ele>
        <time>2018-06-21T20:36:21Z</time>
      </trkpt>
      <trkpt lat="43.97254" lon="1.827">
        <ele>223.6</ele>
        <time>2018-06-21T20:36:23Z</time>
      </trkpt>
      <trkpt lat="43.9725" lon="1.82697">
        <ele>223.7</ele>
        <time>2018-06-21T20:36:25Z</time>
      </trkpt>
      <trkpt lat="43.97246" lon="1.82693">
        <ele>223.8</ele>
        <time>2018-06-21T20:36:27Z</time>
      </trkpt>
      <trkpt lat="43.97242" lon="1.82691">
        <ele>223.8</ele>
        <time>2018-06-21T20:36:29Z</time>
      </trkpt>
      <trkpt lat="43.97239" lon="1.82688">
        <ele>223.8</ele>
        <time>2018-06-21T20:36:31Z</time>
      </trkpt>
      <trkpt lat="43.97235" lon="1.82685">
        <ele>223.9</ele>
        <time>2018-06-21T20:36:33Z</time>
      </trkpt>
      <trkpt lat="43.97232" lon="1.82682">
        <ele>223.9</ele>
        <time>2018-06-21T20:36:35Z</time>
      </trkpt>
      <trkpt lat="43.97228" lon="1.82679">
        <ele>223.9</ele>
        <time>2018-06-21T20:36:37Z</time>
      </trkpt>
      <trkpt lat="43.97225" lon="1.82677">
        <ele>223.9</ele>
        <time>2018-06-21T20:36:39Z</time>
      </trkpt>
      <trkpt lat="43.97222" lon="1.82672">
        <ele>224</ele>
        <time>2018-06-21T20:36:41Z</time>
      </trkpt>
      <trkpt lat="43.9722" lon="1.82669">
        <ele>224</ele>
        <time>2018-06-21T20:36:43Z</time>
      </trkpt>
      <trkpt lat="43.97218" lon="1.82665">
        <ele>224</ele>
        <time>2018-06-21T20:36:45Z</time>
      </trkpt>
      <trkpt lat="43.97217" lon="1.8266">
        <ele>224</ele>
        <time>2018-06-21T20:36:47Z</time>
      </trkpt>
      <trkpt lat="43.97216" lon="1.82655">
        <ele>224.1</ele>
        <time>2018-06-21T20:36:49Z</time>
      </trkpt>
      <trkpt lat="43.97214" lon="1.82648">
        <ele>224.3</ele>
        <time>2018-06-21T20:36:51Z</time>
      </trkpt>
      <trkpt lat="43.97214" lon="1.82642">
        <ele>224.4</ele>
        <time>2018-06-21T20:36:54Z</time>
      </trkpt>
      <trkpt lat="43.97213" lon="1.82637">
        <ele>224.5</ele>
        <time>2018-06-21T20:36:56Z</time>
      </trkpt>
      <trkpt lat="43.97212" lon="1.8263">
        <ele>224.6</ele>
        <time>2018-06-21T20:36:58Z</time>
      </trkpt>
      <trkpt lat="43.9721" lon="1.82626">
        <ele>224.7</ele>
        <time>2018-06-21T20:37:00Z</time>
      </trkpt>
      <trkpt lat="43.97209" lon="1.82621">
        <ele>224.8</ele>
        <time>2018-06-21T20:37:03Z</time>
      </trkpt>
      <trkpt lat="43.97208" lon="1.82616">
        <ele>224.9</ele>
        <time>2018-06-21T20:37:05Z</time>
      </trkpt>
      <trkpt lat="43.97207" lon="1.82612">
        <ele>224.9</ele>
        <time>2018-06-21T20:37:06Z</time>
      </trkpt>
      <trkpt lat="43.97206" lon="1.82609">
        <ele>225</ele>
        <time>2018-06-21T20:37:07Z</time>
      </trkpt>
      <trkpt lat="43.97204" lon="1.82605">
        <ele>225</ele>
        <time>2018-06-21T20:37:08Z</time>
      </trkpt>
      <trkpt lat="43.97203" lon="1.82602">
        <ele>225.1</ele>
        <time>2018-06-21T20:37:09Z</time>
      </trkpt>
      <trkpt lat="43.972" lon="1.82596">
        <ele>225.2</ele>
        <time>2018-06-21T20:37:11Z</time>
      </trkpt>
      <trkpt lat="43.97198" lon="1.82592">
        <ele>225.2</ele>
        <time>2018-06-21T20:37:13Z</time>
      </trkpt>
      <trkpt lat="43.97195" lon="1.82588">
        <ele>225.3</ele>
        <time>2018-06-21T20:37:15Z</time>
      </trkpt>
      <trkpt lat="43.97193" lon="1.82586">
        <ele>225.3</ele>
        <time>2018-06-21T20:37:17Z</time>
      </trkpt>
      <trkpt lat="43.9719" lon="1.82584">
        <ele>225.3</ele>
        <time>2018-06-21T20:37:19Z</time>
      </trkpt>
      <trkpt lat="43.97187" lon="1.82581">
        <ele>225.4</ele>
        <time>2018-06-21T20:37:21Z</time>
      </trkpt>
      <trkpt lat="43.97184" lon="1.82578">
        <ele>225.4</ele>
        <time>2018-06-21T20:37:23Z</time>
      </trkpt>
      <trkpt lat="43.97181" lon="1.82576">
        <ele>225.3</ele>
        <time>2018-06-21T20:37:25Z</time>
      </trkpt>
      <trkpt lat="43.97177" lon="1.82571">
        <ele>225.3</ele>
        <time>2018-06-21T20:37:27Z</time>
      </trkpt>
      <trkpt lat="43.97173" lon="1.82568">
        <ele>225.2</ele>
        <time>2018-06-21T20:37:29Z</time>
      </trkpt>
      <trkpt lat="43.9717" lon="1.82565">
        <ele>225.2</ele>
        <time>2018-06-21T20:37:30Z</time>
      </trkpt>
      <trkpt lat="43.97166" lon="1.82561">
        <ele>225.2</ele>
        <time>2018-06-21T20:37:32Z</time>
      </trkpt>
      <trkpt lat="43.97163" lon="1.82559">
        <ele>225.2</ele>
        <time>2018-06-21T20:37:33Z</time>
      </trkpt>
      <trkpt lat="43.97161" lon="1.82557">
        <ele>225.2</ele>
        <time>2018-06-21T20:37:34Z</time>
      </trkpt>
      <trkpt lat="43.97158" lon="1.82554">
        <ele>225.2</ele>
        <time>2018-06-21T20:37:35Z</time>
      </trkpt>
      <trkpt lat="43.97156" lon="1.82552">
        <ele>225.2</ele>
        <time>2018-06-21T20:37:36Z</time>
      </trkpt>
      <trkpt lat="43.97153" lon="1.8255">
        <ele>225.2</ele>
        <time>2018-06-21T20:37:37Z</time>
      </trkpt>
      <trkpt lat="43.9715" lon="1.82548">
        <ele>225.2</ele>
        <time>2018-06-21T20:37:38Z</time>
      </trkpt>
      <trkpt lat="43.97148" lon="1.82545">
        <ele>225.2</ele>
        <time>2018-06-21T20:37:39Z</time>
      </trkpt>
      <trkpt lat="43.97145" lon="1.82543">
        <ele>225.1</ele>
        <time>2018-06-21T20:37:40Z</time>
      </trkpt>
      <trkpt lat="43.97142" lon="1.82541">
        <ele>225.1</ele>
        <time>2018-06-21T20:37:41Z</time>
      </trkpt>
      <trkpt lat="43.9714" lon="1.82539">
        <ele>225.1</ele>
        <time>2018-06-21T20:37:42Z</time>
      </trkpt>
      <trkpt lat="43.97137" lon="1.82537">
        <ele>225.1</ele>
        <time>2018-06-21T20:37:43Z</time>
      </trkpt>
      <trkpt lat="43.97134" lon="1.82535">
        <ele>225.1</ele>
        <time>2018-06-21T20:37:44Z</time>
      </trkpt>
      <trkpt lat="43.97131" lon="1.82533">
        <ele>225.1</ele>
        <time>2018-06-21T20:37:45Z</time>
      </trkpt>
      <trkpt lat="43.97129" lon="1.8253">
        <ele>225.1</ele>
        <time>2018-06-21T20:37:46Z</time>
      </trkpt>
      <trkpt lat="43.97126" lon="1.82527">
        <ele>225.1</ele>
        <time>2018-06-21T20:37:47Z</time>
      </trkpt>
      <trkpt lat="43.97123" lon="1.82525">
        <ele>225.1</ele>
        <time>2018-06-21T20:37:48Z</time>
      </trkpt>
      <trkpt lat="43.9712" lon="1.82522">
        <ele>225.1</ele>
        <time>2018-06-21T20:37:49Z</time>
      </trkpt>
      <trkpt lat="43.97117" lon="1.82519">
        <ele>225</ele>
        <time>2018-06-21T20:37:50Z</time>
      </trkpt>
      <trkpt lat="43.97113" lon="1.82515">
        <ele>225</ele>
        <time>2018-06-21T20:37:51Z</time>
      </trkpt>
      <trkpt lat="43.9711" lon="1.82512">
        <ele>224.8</ele>
        <time>2018-06-21T20:37:52Z</time>
      </trkpt>
      <trkpt lat="43.97107" lon="1.82508">
        <ele>224.7</ele>
        <time>2018-06-21T20:37:53Z</time>
      </trkpt>
      <trkpt lat="43.97103" lon="1.82505">
        <ele>224.6</ele>
        <time>2018-06-21T20:37:54Z</time>
      </trkpt>
      <trkpt lat="43.971" lon="1.82502">
        <ele>224.5</ele>
        <time>2018-06-21T20:37:55Z</time>
      </trkpt>
      <trkpt lat="43.97097" lon="1.82499">
        <ele>224.3</ele>
        <time>2018-06-21T20:37:56Z</time>
      </trkpt>
      <trkpt lat="43.97092" lon="1.82495">
        <ele>224.1</ele>
        <time>2018-06-21T20:37:57Z</time>
      </trkpt>
      <trkpt lat="43.97088" lon="1.82491">
        <ele>224</ele>
        <time>2018-06-21T20:37:58Z</time>
      </trkpt>
      <trkpt lat="43.97083" lon="1.82486">
        <ele>223.9</ele>
        <time>2018-06-21T20:37:59Z</time>
      </trkpt>
      <trkpt lat="43.97077" lon="1.82481">
        <ele>223.9</ele>
        <time>2018-06-21T20:38:00Z</time>
      </trkpt>
      <trkpt lat="43.97071" lon="1.82476">
        <ele>223.9</ele>
        <time>2018-06-21T20:38:01Z</time>
      </trkpt>
      <trkpt lat="43.97064" lon="1.82472">
        <ele>224</ele>
        <time>2018-06-21T20:38:02Z</time>
      </trkpt>
      <trkpt lat="43.97057" lon="1.82468">
        <ele>224.1</ele>
        <time>2018-06-21T20:38:03Z</time>
      </trkpt>
      <trkpt lat="43.9705" lon="1.82463">
        <ele>224.3</ele>
        <time>2018-06-21T20:38:04Z</time>
      </trkpt>
      <trkpt lat="43.97043" lon="1.82459">
        <ele>224.5</ele>
        <time>2018-06-21T20:38:05Z</time>
      </trkpt>
      <trkpt lat="43.97037" lon="1.82454">
        <ele>224.7</ele>
        <time>2018-06-21T20:38:06Z</time>
      </trkpt>
      <trkpt lat="43.9703" lon="1.82449">
        <ele>224.9</ele>
        <time>2018-06-21T20:38:07Z</time>
      </trkpt>
      <trkpt lat="43.97024" lon="1.82443">
        <ele>225.2</ele>
        <time>2018-06-21T20:38:08Z</time>
      </trkpt>
      <trkpt lat="43.97018" lon="1.82438">
        <ele>225.7</ele>
        <time>2018-06-21T20:38:09Z</time>
      </trkpt>
      <trkpt lat="43.97012" lon="1.82432">
        <ele>226.2</ele>
        <time>2018-06-21T20:38:10Z</time>
      </trkpt>
      <trkpt lat="43.97006" lon="1.82427">
        <ele>226.8</ele>
        <time>2018-06-21T20:38:11Z</time>
      </trkpt>
      <trkpt lat="43.97" lon="1.82422">
        <ele>227.4</ele>
        <time>2018-06-21T20:38:12Z</time>
      </trkpt>
      <trkpt lat="43.96995" lon="1.82415">
        <ele>227.8</ele>
        <time>2018-06-21T20:38:13Z</time>
      </trkpt>
      <trkpt lat="43.96991" lon="1.82409">
        <ele>228.1</ele>
        <time>2018-06-21T20:38:14Z</time>
      </trkpt>
      <trkpt lat="43.96987" lon="1.82403">
        <ele>228.3</ele>
        <time>2018-06-21T20:38:15Z</time>
      </trkpt>
      <trkpt lat="43.96983" lon="1.82397">
        <ele>228.5</ele>
        <time>2018-06-21T20:38:16Z</time>
      </trkpt>
      <trkpt lat="43.9698" lon="1.82391">
        <ele>228.6</ele>
        <time>2018-06-21T20:38:17Z</time>
      </trkpt>
      <trkpt lat="43.96977" lon="1.82386">
        <ele>228.8</ele>
        <time>2018-06-21T20:38:18Z</time>
      </trkpt>
      <trkpt lat="43.96974" lon="1.82381">
        <ele>229</ele>
        <time>2018-06-21T20:38:19Z</time>
      </trkpt>
      <trkpt lat="43.96971" lon="1.82375">
        <ele>229.2</ele>
        <time>2018-06-21T20:38:20Z</time>
      </trkpt>
      <trkpt lat="43.96969" lon="1.8237">
        <ele>229.4</ele>
        <time>2018-06-21T20:38:21Z</time>
      </trkpt>
      <trkpt lat="43.96967" lon="1.82364">
        <ele>229.5</ele>
        <time>2018-06-21T20:38:22Z</time>
      </trkpt>
      <trkpt lat="43.96965" lon="1.82358">
        <ele>229.7</ele>
        <time>2018-06-21T20:38:23Z</time>
      </trkpt>
      <trkpt lat="43.96963" lon="1.82352">
        <ele>229.9</ele>
        <time>2018-06-21T20:38:24Z</time>
      </trkpt>
      <trkpt lat="43.96962" lon="1.82346">
        <ele>230.1</ele>
        <time>2018-06-21T20:38:25Z</time>
      </trkpt>
      <trkpt lat="43.9696" lon="1.8234">
        <ele>230.2</ele>
        <time>2018-06-21T20:38:26Z</time>
      </trkpt>
      <trkpt lat="43.96959" lon="1.82334">
        <ele>230.6</ele>
        <time>2018-06-21T20:38:27Z</time>
      </trkpt>
      <trkpt lat="43.96958" lon="1.82328">
        <ele>230.9</ele>
        <time>2018-06-21T20:38:28Z</time>
      </trkpt>
      <trkpt lat="43.96956" lon="1.82323">
        <ele>231.3</ele>
        <time>2018-06-21T20:38:29Z</time>
      </trkpt>
      <trkpt lat="43.96955" lon="1.82317">
        <ele>231.6</ele>
        <time>2018-06-21T20:38:30Z</time>
      </trkpt>
      <trkpt lat="43.96954" lon="1.82311">
        <ele>232.1</ele>
        <time>2018-06-21T20:38:31Z</time>
      </trkpt>
      <trkpt lat="43.96952" lon="1.82305">
        <ele>232.5</ele>
        <time>2018-06-21T20:38:32Z</time>
      </trkpt>
      <trkpt lat="43.9695" lon="1.82299">
        <ele>232.9</ele>
        <time>2018-06-21T20:38:33Z</time>
      </trkpt>
      <trkpt lat="43.96948" lon="1.82293">
        <ele>233.3</ele>
        <time>2018-06-21T20:38:34Z</time>
      </trkpt>
      <trkpt lat="43.96947" lon="1.82287">
        <ele>233.7</ele>
        <time>2018-06-21T20:38:35Z</time>
      </trkpt>
      <trkpt lat="43.96945" lon="1.82281">
        <ele>234</ele>
        <time>2018-06-21T20:38:36Z</time>
      </trkpt>
      <trkpt lat="43.96943" lon="1.82276">
        <ele>234.4</ele>
        <time>2018-06-21T20:38:37Z</time>
      </trkpt>
      <trkpt lat="43.9694" lon="1.82271">
        <ele>234.8</ele>
        <time>2018-06-21T20:38:38Z</time>
      </trkpt>
      <trkpt lat="43.96938" lon="1.82265">
        <ele>235.1</ele>
        <time>2018-06-21T20:38:39Z</time>
      </trkpt>
      <trkpt lat="43.96935" lon="1.82261">
        <ele>235.5</ele>
        <time>2018-06-21T20:38:40Z</time>
      </trkpt>
      <trkpt lat="43.96933" lon="1.82256">
        <ele>235.8</ele>
        <time>2018-06-21T20:38:41Z</time>
      </trkpt>
      <trkpt lat="43.96929" lon="1.82252">
        <ele>236.1</ele>
        <time>2018-06-21T20:38:42Z</time>
      </trkpt>
      <trkpt lat="43.96927" lon="1.82247">
        <ele>236.3</ele>
        <time>2018-06-21T20:38:43Z</time>
      </trkpt>
      <trkpt lat="43.96923" lon="1.82243">
        <ele>236.5</ele>
        <time>2018-06-21T20:38:44Z</time>
      </trkpt>
      <trkpt lat="43.9692" lon="1.82238">
        <ele>236.7</ele>
        <time>2018-06-21T20:38:45Z</time>
      </trkpt>
      <trkpt lat="43.96917" lon="1.82234">
        <ele>237</ele>
        <time>2018-06-21T20:38:46Z</time>
      </trkpt>
      <trkpt lat="43.96913" lon="1.82229">
        <ele>237.5</ele>
        <time>2018-06-21T20:38:47Z</time>
      </trkpt>
      <trkpt lat="43.9691" lon="1.82225">
        <ele>237.9</ele>
        <time>2018-06-21T20:38:48Z</time>
      </trkpt>
      <trkpt lat="43.96907" lon="1.82221">
        <ele>238.4</ele>
        <time>2018-06-21T20:38:49Z</time>
      </trkpt>
      <trkpt lat="43.96904" lon="1.82216">
        <ele>238.9</ele>
        <time>2018-06-21T20:38:50Z</time>
      </trkpt>
      <trkpt lat="43.96901" lon="1.82212">
        <ele>239.4</ele>
        <time>2018-06-21T20:38:51Z</time>
      </trkpt>
      <trkpt lat="43.96898" lon="1.82208">
        <ele>239.8</ele>
        <time>2018-06-21T20:38:52Z</time>
      </trkpt>
      <trkpt lat="43.96896" lon="1.82204">
        <ele>240.3</ele>
        <time>2018-06-21T20:38:53Z</time>
      </trkpt>
      <trkpt lat="43.96893" lon="1.82201">
        <ele>240.7</ele>
        <time>2018-06-21T20:38:54Z</time>
      </trkpt>
      <trkpt lat="43.96891" lon="1.82198">
        <ele>241.1</ele>
        <time>2018-06-21T20:38:55Z</time>
      </trkpt>
      <trkpt lat="43.96889" lon="1.82195">
        <ele>241.5</ele>
        <time>2018-06-21T20:38:56Z</time>
      </trkpt>
      <trkpt lat="43.96887" lon="1.82192">
        <ele>241.9</ele>
        <time>2018-06-21T20:38:57Z</time>
      </trkpt>
      <trkpt lat="43.96885" lon="1.82189">
        <ele>242.2</ele>
        <time>2018-06-21T20:38:58Z</time>
      </trkpt>
      <trkpt lat="43.96883" lon="1.82186">
        <ele>242.6</ele>
        <time>2018-06-21T20:38:59Z</time>
      </trkpt>
      <trkpt lat="43.9688" lon="1.82181">
        <ele>243.2</ele>
        <time>2018-06-21T20:39:01Z</time>
      </trkpt>
      <trkpt lat="43.96878" lon="1.82178">
        <ele>243.6</ele>
        <time>2018-06-21T20:39:02Z</time>
      </trkpt>
      <trkpt lat="43.96875" lon="1.82173">
        <ele>244.3</ele>
        <time>2018-06-21T20:39:04Z</time>
      </trkpt>
      <trkpt lat="43.96872" lon="1.82168">
        <ele>245</ele>
        <time>2018-06-21T20:39:06Z</time>
      </trkpt>
      <trkpt lat="43.96868" lon="1.82163">
        <ele>245.7</ele>
        <time>2018-06-21T20:39:08Z</time>
      </trkpt>
      <trkpt lat="43.96866" lon="1.82157">
        <ele>246.3</ele>
        <time>2018-06-21T20:39:10Z</time>
      </trkpt>
      <trkpt lat="43.96863" lon="1.82153">
        <ele>246.9</ele>
        <time>2018-06-21T20:39:12Z</time>
      </trkpt>
      <trkpt lat="43.9686" lon="1.82148">
        <ele>247.6</ele>
        <time>2018-06-21T20:39:14Z</time>
      </trkpt>
      <trkpt lat="43.96857" lon="1.82143">
        <ele>248.3</ele>
        <time>2018-06-21T20:39:16Z</time>
      </trkpt>
      <trkpt lat="43.96854" lon="1.82138">
        <ele>249</ele>
        <time>2018-06-21T20:39:18Z</time>
      </trkpt>
      <trkpt lat="43.96851" lon="1.82133">
        <ele>249.7</ele>
        <time>2018-06-21T20:39:20Z</time>
      </trkpt>
      <trkpt lat="43.96849" lon="1.82128">
        <ele>250.3</ele>
        <time>2018-06-21T20:39:22Z</time>
      </trkpt>
      <trkpt lat="43.96847" lon="1.82123">
        <ele>250.9</ele>
        <time>2018-06-21T20:39:24Z</time>
      </trkpt>
      <trkpt lat="43.96844" lon="1.82119">
        <ele>251.4</ele>
        <time>2018-06-21T20:39:26Z</time>
      </trkpt>
      <trkpt lat="43.96841" lon="1.82116">
        <ele>251.9</ele>
        <time>2018-06-21T20:39:28Z</time>
      </trkpt>
      <trkpt lat="43.96838" lon="1.82113">
        <ele>252.3</ele>
        <time>2018-06-21T20:39:30Z</time>
      </trkpt>
      <trkpt lat="43.96835" lon="1.82109">
        <ele>252.9</ele>
        <time>2018-06-21T20:39:32Z</time>
      </trkpt>
      <trkpt lat="43.96832" lon="1.82104">
        <ele>254</ele>
        <time>2018-06-21T20:39:34Z</time>
      </trkpt>
      <trkpt lat="43.9683" lon="1.82098">
        <ele>255.1</ele>
        <time>2018-06-21T20:39:36Z</time>
      </trkpt>
      <trkpt lat="43.96828" lon="1.82094">
        <ele>256.1</ele>
        <time>2018-06-21T20:39:38Z</time>
      </trkpt>
      <trkpt lat="43.96826" lon="1.8209">
        <ele>256.9</ele>
        <time>2018-06-21T20:39:40Z</time>
      </trkpt>
      <trkpt lat="43.96824" lon="1.82086">
        <ele>257.6</ele>
        <time>2018-06-21T20:39:42Z</time>
      </trkpt>
      <trkpt lat="43.96823" lon="1.82082">
        <ele>258.3</ele>
        <time>2018-06-21T20:39:44Z</time>
      </trkpt>
      <trkpt lat="43.96821" lon="1.82078">
        <ele>259.1</ele>
        <time>2018-06-21T20:39:47Z</time>
      </trkpt>
      <trkpt lat="43.96819" lon="1.82074">
        <ele>259.7</ele>
        <time>2018-06-21T20:39:49Z</time>
      </trkpt>
      <trkpt lat="43.96817" lon="1.8207">
        <ele>260.3</ele>
        <time>2018-06-21T20:39:52Z</time>
      </trkpt>
      <trkpt lat="43.96814" lon="1.82066">
        <ele>261</ele>
        <time>2018-06-21T20:39:55Z</time>
      </trkpt>
      <trkpt lat="43.96812" lon="1.82062">
        <ele>261.7</ele>
        <time>2018-06-21T20:39:58Z</time>
      </trkpt>
      <trkpt lat="43.96809" lon="1.82057">
        <ele>262.3</ele>
        <time>2018-06-21T20:40:01Z</time>
      </trkpt>
      <trkpt lat="43.96807" lon="1.82053">
        <ele>262.8</ele>
        <time>2018-06-21T20:40:04Z</time>
      </trkpt>
      <trkpt lat="43.96805" lon="1.8205">
        <ele>263.1</ele>
        <time>2018-06-21T20:40:06Z</time>
      </trkpt>
      <trkpt lat="43.96803" lon="1.82046">
        <ele>263.7</ele>
        <time>2018-06-21T20:40:09Z</time>
      </trkpt>
      <trkpt lat="43.968" lon="1.82042">
        <ele>264.1</ele>
        <time>2018-06-21T20:40:12Z</time>
      </trkpt>
      <trkpt lat="43.96798" lon="1.82039">
        <ele>264.5</ele>
        <time>2018-06-21T20:40:14Z</time>
      </trkpt>
      <trkpt lat="43.96797" lon="1.82035">
        <ele>264.9</ele>
        <time>2018-06-21T20:40:16Z</time>
      </trkpt>
      <trkpt lat="43.96795" lon="1.82032">
        <ele>265.2</ele>
        <time>2018-06-21T20:40:18Z</time>
      </trkpt>
      <trkpt lat="43.96792" lon="1.82028">
        <ele>265.7</ele>
        <time>2018-06-21T20:40:21Z</time>
      </trkpt>
      <trkpt lat="43.9679" lon="1.82024">
        <ele>266.1</ele>
        <time>2018-06-21T20:40:24Z</time>
      </trkpt>
      <trkpt lat="43.96788" lon="1.82021">
        <ele>266.4</ele>
        <time>2018-06-21T20:40:26Z</time>
      </trkpt>
      <trkpt lat="43.96786" lon="1.82017">
        <ele>266.9</ele>
        <time>2018-06-21T20:40:29Z</time>
      </trkpt>
      <trkpt lat="43.96783" lon="1.82014">
        <ele>267.4</ele>
        <time>2018-06-21T20:40:32Z</time>
      </trkpt>
      <trkpt lat="43.96781" lon="1.8201">
        <ele>267.8</ele>
        <time>2018-06-21T20:40:35Z</time>
      </trkpt>
      <trkpt lat="43.96778" lon="1.82007">
        <ele>268.2</ele>
        <time>2018-06-21T20:40:38Z</time>
      </trkpt>
      <trkpt lat="43.96776" lon="1.82005">
        <ele>268.6</ele>
        <time>2018-06-21T20:40:41Z</time>
      </trkpt>
      <trkpt lat="43.96773" lon="1.82003">
        <ele>269</ele>
        <time>2018-06-21T20:40:44Z</time>
      </trkpt>
      <trkpt lat="43.96771" lon="1.82001">
        <ele>269.4</ele>
        <time>2018-06-21T20:40:46Z</time>
      </trkpt>
      <trkpt lat="43.96769" lon="1.81998">
        <ele>269.8</ele>
        <time>2018-06-21T20:40:48Z</time>
      </trkpt>
      <trkpt lat="43.96766" lon="1.81995">
        <ele>270.3</ele>
        <time>2018-06-21T20:40:51Z</time>
      </trkpt>
      <trkpt lat="43.96763" lon="1.81994">
        <ele>270.7</ele>
        <time>2018-06-21T20:40:53Z</time>
      </trkpt>
      <trkpt lat="43.9676" lon="1.81992">
        <ele>271.2</ele>
        <time>2018-06-21T20:40:55Z</time>
      </trkpt>
      <trkpt lat="43.96756" lon="1.81991">
        <ele>271.8</ele>
        <time>2018-06-21T20:40:57Z</time>
      </trkpt>
      <trkpt lat="43.96753" lon="1.8199">
        <ele>272.3</ele>
        <time>2018-06-21T20:40:59Z</time>
      </trkpt>
      <trkpt lat="43.9675" lon="1.81988">
        <ele>272.8</ele>
        <time>2018-06-21T20:41:01Z</time>
      </trkpt>
      <trkpt lat="43.96747" lon="1.81987">
        <ele>273.2</ele>
        <time>2018-06-21T20:41:04Z</time>
      </trkpt>
      <trkpt lat="43.96744" lon="1.81984">
        <ele>273.6</ele>
        <time>2018-06-21T20:41:08Z</time>
      </trkpt>
      <trkpt lat="43.96742" lon="1.81982">
        <ele>274</ele>
        <time>2018-06-21T20:41:11Z</time>
      </trkpt>
      <trkpt lat="43.96738" lon="1.81981">
        <ele>274.5</ele>
        <time>2018-06-21T20:41:15Z</time>
      </trkpt>
      <trkpt lat="43.96735" lon="1.81982">
        <ele>274.9</ele>
        <time>2018-06-21T20:41:18Z</time>
      </trkpt>
      <trkpt lat="43.96732" lon="1.81984">
        <ele>275.3</ele>
        <time>2018-06-21T20:41:21Z</time>
      </trkpt>
      <trkpt lat="43.96729" lon="1.81985">
        <ele>275.6</ele>
        <time>2018-06-21T20:41:23Z</time>
      </trkpt>
      <trkpt lat="43.96726" lon="1.81981">
        <ele>276</ele>
        <time>2018-06-21T20:41:25Z</time>
      </trkpt>
      <trkpt lat="43.96723" lon="1.81981">
        <ele>276.4</ele>
        <time>2018-06-21T20:41:28Z</time>
      </trkpt>
      <trkpt lat="43.96719" lon="1.8198">
        <ele>276.7</ele>
        <time>2018-06-21T20:41:31Z</time>
      </trkpt>
      <trkpt lat="43.96716" lon="1.81979">
        <ele>277</ele>
        <time>2018-06-21T20:41:35Z</time>
      </trkpt>
      <trkpt lat="43.96713" lon="1.81976">
        <ele>277.3</ele>
        <time>2018-06-21T20:41:37Z</time>
      </trkpt>
      <trkpt lat="43.96711" lon="1.81973">
        <ele>277.6</ele>
        <time>2018-06-21T20:41:39Z</time>
      </trkpt>
      <trkpt lat="43.9671" lon="1.81969">
        <ele>279</ele>
        <time>2018-06-21T20:41:41Z</time>
      </trkpt>
      <trkpt lat="43.9671" lon="1.81964">
        <ele>279</ele>
        <time>2018-06-21T20:41:48Z</time>
      </trkpt>
      <trkpt lat="43.96712" lon="1.8196">
        <ele>279</ele>
        <time>2018-06-21T20:41:50Z</time>
      </trkpt>
      <trkpt lat="43.96714" lon="1.81955">
        <ele>278</ele>
        <time>2018-06-21T20:41:52Z</time>
      </trkpt>
      <trkpt lat="43.96716" lon="1.8195">
        <ele>276.9</ele>
        <time>2018-06-21T20:41:53Z</time>
      </trkpt>
      <trkpt lat="43.96716" lon="1.81946">
        <ele>276</ele>
        <time>2018-06-21T20:41:54Z</time>
      </trkpt>
      <trkpt lat="43.96717" lon="1.81942">
        <ele>275</ele>
        <time>2018-06-21T20:41:55Z</time>
      </trkpt>
      <trkpt lat="43.96717" lon="1.81939">
        <ele>274.1</ele>
        <time>2018-06-21T20:41:56Z</time>
      </trkpt>
      <trkpt lat="43.96714" lon="1.81934">
        <ele>272.9</ele>
        <time>2018-06-21T20:41:58Z</time>
      </trkpt>
      <trkpt lat="43.96711" lon="1.81932">
        <ele>277.2</ele>
        <time>2018-06-21T20:42:00Z</time>
      </trkpt>
      <trkpt lat="43.96708" lon="1.81932">
        <ele>279</ele>
        <time>2018-06-21T20:42:02Z</time>
      </trkpt>
      <trkpt lat="43.96707" lon="1.81936">
        <ele>279</ele>
        <time>2018-06-21T20:42:04Z</time>
      </trkpt>
      <trkpt lat="43.96706" lon="1.81942">
        <ele>279</ele>
        <time>2018-06-21T20:42:06Z</time>
      </trkpt>
      <trkpt lat="43.96704" lon="1.81948">
        <ele>279</ele>
        <time>2018-06-21T20:42:08Z</time>
      </trkpt>
      <trkpt lat="43.96703" lon="1.81952">
        <ele>279</ele>
        <time>2018-06-21T20:42:10Z</time>
      </trkpt>
      <trkpt lat="43.96702" lon="1.81957">
        <ele>279</ele>
        <time>2018-06-21T20:42:12Z</time>
      </trkpt>
      <trkpt lat="43.96702" lon="1.8196">
        <ele>279</ele>
        <time>2018-06-21T20:42:19Z</time>
      </trkpt>
      <trkpt lat="43.967" lon="1.81961">
        <ele>279</ele>
        <time>2018-06-21T20:43:28Z</time>
      </trkpt>
      <trkpt lat="43.96698" lon="1.81966">
        <ele>279</ele>
        <time>2018-06-21T20:43:30Z</time>
      </trkpt>
      <trkpt lat="43.96696" lon="1.8197">
        <ele>278.8</ele>
        <time>2018-06-21T20:43:32Z</time>
      </trkpt>
      <trkpt lat="43.96696" lon="1.81975">
        <ele>278.6</ele>
        <time>2018-06-21T20:43:34Z</time>
      </trkpt>
      <trkpt lat="43.96695" lon="1.81979">
        <ele>278.4</ele>
        <time>2018-06-21T20:43:35Z</time>
      </trkpt>
      <trkpt lat="43.96693" lon="1.81982">
        <ele>278.2</ele>
        <time>2018-06-21T20:43:36Z</time>
      </trkpt>
      <trkpt lat="43.9669" lon="1.81984">
        <ele>278</ele>
        <time>2018-06-21T20:43:37Z</time>
      </trkpt>
      <trkpt lat="43.96688" lon="1.81986">
        <ele>277.8</ele>
        <time>2018-06-21T20:43:38Z</time>
      </trkpt>
      <trkpt lat="43.96685" lon="1.81989">
        <ele>277.7</ele>
        <time>2018-06-21T20:43:39Z</time>
      </trkpt>
      <trkpt lat="43.96683" lon="1.81992">
        <ele>277.5</ele>
        <time>2018-06-21T20:43:40Z</time>
      </trkpt>
      <trkpt lat="43.9668" lon="1.81996">
        <ele>277.3</ele>
        <time>2018-06-21T20:43:41Z</time>
      </trkpt>
      <trkpt lat="43.96678" lon="1.81999">
        <ele>277.1</ele>
        <time>2018-06-21T20:43:42Z</time>
      </trkpt>
      <trkpt lat="43.96676" lon="1.82003">
        <ele>276.9</ele>
        <time>2018-06-21T20:43:43Z</time>
      </trkpt>
      <trkpt lat="43.96675" lon="1.82006">
        <ele>276.7</ele>
        <time>2018-06-21T20:43:44Z</time>
      </trkpt>
      <trkpt lat="43.96673" lon="1.8201">
        <ele>276.5</ele>
        <time>2018-06-21T20:43:45Z</time>
      </trkpt>
      <trkpt lat="43.96672" lon="1.82013">
        <ele>276.3</ele>
        <time>2018-06-21T20:43:46Z</time>
      </trkpt>
      <trkpt lat="43.9667" lon="1.82018">
        <ele>276</ele>
        <time>2018-06-21T20:43:47Z</time>
      </trkpt>
      <trkpt lat="43.96668" lon="1.82023">
        <ele>275.6</ele>
        <time>2018-06-21T20:43:48Z</time>
      </trkpt>
      <trkpt lat="43.96666" lon="1.82027">
        <ele>275.3</ele>
        <time>2018-06-21T20:43:49Z</time>
      </trkpt>
      <trkpt lat="43.96664" lon="1.82032">
        <ele>274.9</ele>
        <time>2018-06-21T20:43:50Z</time>
      </trkpt>
      <trkpt lat="43.96662" lon="1.82038">
        <ele>274.4</ele>
        <time>2018-06-21T20:43:51Z</time>
      </trkpt>
      <trkpt lat="43.9666" lon="1.82042">
        <ele>274</ele>
        <time>2018-06-21T20:43:52Z</time>
      </trkpt>
      <trkpt lat="43.96658" lon="1.82047">
        <ele>273.6</ele>
        <time>2018-06-21T20:43:53Z</time>
      </trkpt>
      <trkpt lat="43.96656" lon="1.82051">
        <ele>273.3</ele>
        <time>2018-06-21T20:43:54Z</time>
      </trkpt>
      <trkpt lat="43.96655" lon="1.82055">
        <ele>273</ele>
        <time>2018-06-21T20:43:55Z</time>
      </trkpt>
      <trkpt lat="43.96653" lon="1.82059">
        <ele>272.7</ele>
        <time>2018-06-21T20:43:56Z</time>
      </trkpt>
      <trkpt lat="43.96652" lon="1.82063">
        <ele>272.5</ele>
        <time>2018-06-21T20:43:57Z</time>
      </trkpt>
      <trkpt lat="43.9665" lon="1.82067">
        <ele>272.3</ele>
        <time>2018-06-21T20:43:58Z</time>
      </trkpt>
      <trkpt lat="43.96648" lon="1.82071">
        <ele>272.1</ele>
        <time>2018-06-21T20:43:59Z</time>
      </trkpt>
      <trkpt lat="43.96647" lon="1.82075">
        <ele>271.9</ele>
        <time>2018-06-21T20:44:00Z</time>
      </trkpt>
      <trkpt lat="43.96646" lon="1.82078">
        <ele>271.7</ele>
        <time>2018-06-21T20:44:01Z</time>
      </trkpt>
      <trkpt lat="43.96644" lon="1.82082">
        <ele>271.6</ele>
        <time>2018-06-21T20:44:02Z</time>
      </trkpt>
      <trkpt lat="43.96642" lon="1.82086">
        <ele>271.4</ele>
        <time>2018-06-21T20:44:03Z</time>
      </trkpt>
      <trkpt lat="43.9664" lon="1.82091">
        <ele>271.2</ele>
        <time>2018-06-21T20:44:04Z</time>
      </trkpt>
      <trkpt lat="43.96638" lon="1.82096">
        <ele>271</ele>
        <time>2018-06-21T20:44:05Z</time>
      </trkpt>
      <trkpt lat="43.96637" lon="1.82101">
        <ele>270.8</ele>
        <time>2018-06-21T20:44:06Z</time>
      </trkpt>
      <trkpt lat="43.96635" lon="1.82106">
        <ele>270.6</ele>
        <time>2018-06-21T20:44:07Z</time>
      </trkpt>
      <trkpt lat="43.96633" lon="1.82111">
        <ele>270.4</ele>
        <time>2018-06-21T20:44:08Z</time>
      </trkpt>
      <trkpt lat="43.96631" lon="1.82116">
        <ele>270.2</ele>
        <time>2018-06-21T20:44:09Z</time>
      </trkpt>
      <trkpt lat="43.96629" lon="1.8212">
        <ele>270</ele>
        <time>2018-06-21T20:44:10Z</time>
      </trkpt>
      <trkpt lat="43.96627" lon="1.82124">
        <ele>269.8</ele>
        <time>2018-06-21T20:44:11Z</time>
      </trkpt>
      <trkpt lat="43.96625" lon="1.82128">
        <ele>269.7</ele>
        <time>2018-06-21T20:44:12Z</time>
      </trkpt>
      <trkpt lat="43.96624" lon="1.82132">
        <ele>269.5</ele>
        <time>2018-06-21T20:44:13Z</time>
      </trkpt>
      <trkpt lat="43.96622" lon="1.82136">
        <ele>269.4</ele>
        <time>2018-06-21T20:44:14Z</time>
      </trkpt>
      <trkpt lat="43.9662" lon="1.82138">
        <ele>269.3</ele>
        <time>2018-06-21T20:44:15Z</time>
      </trkpt>
      <trkpt lat="43.96616" lon="1.82143">
        <ele>269</ele>
        <time>2018-06-21T20:44:17Z</time>
      </trkpt>
      <trkpt lat="43.96612" lon="1.82147">
        <ele>268.8</ele>
        <time>2018-06-21T20:44:18Z</time>
      </trkpt>
      <trkpt lat="43.96609" lon="1.82151">
        <ele>268.6</ele>
        <time>2018-06-21T20:44:19Z</time>
      </trkpt>
      <trkpt lat="43.96607" lon="1.82154">
        <ele>268.4</ele>
        <time>2018-06-21T20:44:20Z</time>
      </trkpt>
      <trkpt lat="43.96605" lon="1.82158">
        <ele>268.2</ele>
        <time>2018-06-21T20:44:21Z</time>
      </trkpt>
      <trkpt lat="43.96603" lon="1.82162">
        <ele>268</ele>
        <time>2018-06-21T20:44:22Z</time>
      </trkpt>
      <trkpt lat="43.966" lon="1.82164">
        <ele>276.3</ele>
        <time>2018-06-21T20:44:23Z</time>
      </trkpt>
      <trkpt lat="43.96596" lon="1.82165">
        <ele>285.4</ele>
        <time>2018-06-21T20:44:24Z</time>
      </trkpt>
      <trkpt lat="43.96593" lon="1.82166">
        <ele>284.5</ele>
        <time>2018-06-21T20:44:25Z</time>
      </trkpt>
      <trkpt lat="43.9659" lon="1.82164">
        <ele>283.6</ele>
        <time>2018-06-21T20:44:26Z</time>
      </trkpt>
      <trkpt lat="43.96587" lon="1.82162">
        <ele>282.6</ele>
        <time>2018-06-21T20:44:27Z</time>
      </trkpt>
      <trkpt lat="43.96584" lon="1.82158">
        <ele>281.4</ele>
        <time>2018-06-21T20:44:29Z</time>
      </trkpt>
      <trkpt lat="43.96585" lon="1.82152">
        <ele>279</ele>
        <time>2018-06-21T20:44:31Z</time>
      </trkpt>
      <trkpt lat="43.96586" lon="1.82146">
        <ele>279</ele>
        <time>2018-06-21T20:44:33Z</time>
      </trkpt>
      <trkpt lat="43.96587" lon="1.82142">
        <ele>279</ele>
        <time>2018-06-21T20:44:35Z</time>
      </trkpt>
      <trkpt lat="43.96584" lon="1.82138">
        <ele>279</ele>
        <time>2018-06-21T20:44:38Z</time>
      </trkpt>
      <trkpt lat="43.9658" lon="1.82133">
        <ele>279</ele>
        <time>2018-06-21T20:44:40Z</time>
      </trkpt>
      <trkpt lat="43.96577" lon="1.82132">
        <ele>278.9</ele>
        <time>2018-06-21T20:44:41Z</time>
      </trkpt>
      <trkpt lat="43.96574" lon="1.8213">
        <ele>278.8</ele>
        <time>2018-06-21T20:44:42Z</time>
      </trkpt>
      <trkpt lat="43.96571" lon="1.82128">
        <ele>278.9</ele>
        <time>2018-06-21T20:44:43Z</time>
      </trkpt>
      <trkpt lat="43.96568" lon="1.82123">
        <ele>279.1</ele>
        <time>2018-06-21T20:44:45Z</time>
      </trkpt>
      <trkpt lat="43.96564" lon="1.82119">
        <ele>279.1</ele>
        <time>2018-06-21T20:44:48Z</time>
      </trkpt>
      <trkpt lat="43.96562" lon="1.82114">
        <ele>279.2</ele>
        <time>2018-06-21T20:44:51Z</time>
      </trkpt>
      <trkpt lat="43.96559" lon="1.8211">
        <ele>279.2</ele>
        <time>2018-06-21T20:44:53Z</time>
      </trkpt>
      <trkpt lat="43.96557" lon="1.82106">
        <ele>279.2</ele>
        <time>2018-06-21T20:44:54Z</time>
      </trkpt>
      <trkpt lat="43.96554" lon="1.82101">
        <ele>279.1</ele>
        <time>2018-06-21T20:44:55Z</time>
      </trkpt>
      <trkpt lat="43.96555" lon="1.82097">
        <ele>279</ele>
        <time>2018-06-21T20:45:00Z</time>
      </trkpt>
      <trkpt lat="43.96553" lon="1.82094">
        <ele>278.7</ele>
        <time>2018-06-21T20:45:01Z</time>
      </trkpt>
      <trkpt lat="43.96549" lon="1.82089">
        <ele>277</ele>
        <time>2018-06-21T20:45:03Z</time>
      </trkpt>
      <trkpt lat="43.96545" lon="1.8208">
        <ele>275</ele>
        <time>2018-06-21T20:45:04Z</time>
      </trkpt>
      <trkpt lat="43.96542" lon="1.82075">
        <ele>275.5</ele>
        <time>2018-06-21T20:45:05Z</time>
      </trkpt>
      <trkpt lat="43.96537" lon="1.82069">
        <ele>276.2</ele>
        <time>2018-06-21T20:45:06Z</time>
      </trkpt>
      <trkpt lat="43.96535" lon="1.82066">
        <ele>276.5</ele>
        <time>2018-06-21T20:45:07Z</time>
      </trkpt>
      <trkpt lat="43.96534" lon="1.82062">
        <ele>276.9</ele>
        <time>2018-06-21T20:45:16Z</time>
      </trkpt>
    </trkseg>
  </trk>
</gpx>